<?xml version="1.0" encoding="UTF-8" standalone="no" ?>
<gpx xmlns="http://www.topografix.com/GPX/1/1" xmlns:xsi="http://www.w3.org/2001/XMLSchema-instance" xsi:schemaLocation="http://www.topografix.com/GPX/1/1 http://www.topografix.com/GPX/1/1/gpx.xsd" version="1.1" creator="VisuGPX - https://www.visugpx.com">
  <metadata>
    <name>Rando VTT la crampe 2022</name>
    <desc><![CDATA[👍]]></desc>
  </metadata>
  <trk>
    <name><![CDATA[Rando VTT la crampe 2022_1]]></name>
    <trkseg>
      <trkpt lat="46.52683" lon="0.26565">
        <ele>137.8</ele>
        <time>2022-09-18T06:19:07Z</time>
      </trkpt>
      <trkpt lat="46.52677" lon="0.26561">
        <ele>138.2</ele>
        <time>2022-09-18T06:19:17Z</time>
      </trkpt>
      <trkpt lat="46.52671" lon="0.26565">
        <ele>138.2</ele>
        <time>2022-09-18T06:19:21Z</time>
      </trkpt>
      <trkpt lat="46.52671" lon="0.26568">
        <ele>138.4</ele>
        <time>2022-09-18T06:19:22Z</time>
      </trkpt>
      <trkpt lat="46.52671" lon="0.26589">
        <ele>138.4</ele>
        <time>2022-09-18T06:19:29Z</time>
      </trkpt>
      <trkpt lat="46.52672" lon="0.26597">
        <ele>138.2</ele>
        <time>2022-09-18T06:19:31Z</time>
      </trkpt>
      <trkpt lat="46.52672" lon="0.26621">
        <ele>138</ele>
        <time>2022-09-18T06:19:37Z</time>
      </trkpt>
      <trkpt lat="46.52674" lon="0.2665">
        <ele>138.2</ele>
        <time>2022-09-18T06:19:45Z</time>
      </trkpt>
      <trkpt lat="46.52674" lon="0.26663">
        <ele>138.2</ele>
        <time>2022-09-18T06:19:50Z</time>
      </trkpt>
      <trkpt lat="46.52673" lon="0.26672">
        <ele>138.6</ele>
        <time>2022-09-18T06:19:58Z</time>
      </trkpt>
      <trkpt lat="46.52671" lon="0.26685">
        <ele>139</ele>
        <time>2022-09-18T06:20:02Z</time>
      </trkpt>
      <trkpt lat="46.52671" lon="0.26689">
        <ele>139.2</ele>
        <time>2022-09-18T06:20:03Z</time>
      </trkpt>
      <trkpt lat="46.52671" lon="0.26692">
        <ele>139.6</ele>
        <time>2022-09-18T06:20:04Z</time>
      </trkpt>
      <trkpt lat="46.5267" lon="0.26699">
        <ele>140</ele>
        <time>2022-09-18T06:20:06Z</time>
      </trkpt>
      <trkpt lat="46.5267" lon="0.26712">
        <ele>140.8</ele>
        <time>2022-09-18T06:20:10Z</time>
      </trkpt>
      <trkpt lat="46.5267" lon="0.26715">
        <ele>141</ele>
        <time>2022-09-18T06:20:11Z</time>
      </trkpt>
      <trkpt lat="46.5267" lon="0.26732">
        <ele>142</ele>
        <time>2022-09-18T06:20:16Z</time>
      </trkpt>
      <trkpt lat="46.5267" lon="0.26743">
        <ele>143.2</ele>
        <time>2022-09-18T06:20:20Z</time>
      </trkpt>
      <trkpt lat="46.52672" lon="0.26749">
        <ele>143.8</ele>
        <time>2022-09-18T06:20:23Z</time>
      </trkpt>
      <trkpt lat="46.52672" lon="0.26751">
        <ele>144.2</ele>
        <time>2022-09-18T06:20:24Z</time>
      </trkpt>
      <trkpt lat="46.52675" lon="0.26761">
        <ele>145.2</ele>
        <time>2022-09-18T06:20:28Z</time>
      </trkpt>
      <trkpt lat="46.52676" lon="0.26763">
        <ele>145.4</ele>
        <time>2022-09-18T06:20:29Z</time>
      </trkpt>
      <trkpt lat="46.52682" lon="0.26774">
        <ele>146.8</ele>
        <time>2022-09-18T06:20:35Z</time>
      </trkpt>
      <trkpt lat="46.52686" lon="0.26784">
        <ele>148</ele>
        <time>2022-09-18T06:20:39Z</time>
      </trkpt>
      <trkpt lat="46.52688" lon="0.26789">
        <ele>148.6</ele>
        <time>2022-09-18T06:20:41Z</time>
      </trkpt>
      <trkpt lat="46.5269" lon="0.26794">
        <ele>149</ele>
        <time>2022-09-18T06:20:43Z</time>
      </trkpt>
      <trkpt lat="46.52693" lon="0.268">
        <ele>149.8</ele>
        <time>2022-09-18T06:20:46Z</time>
      </trkpt>
      <trkpt lat="46.52693" lon="0.26803">
        <ele>150.2</ele>
        <time>2022-09-18T06:20:47Z</time>
      </trkpt>
      <trkpt lat="46.52693" lon="0.26816">
        <ele>151.6</ele>
        <time>2022-09-18T06:20:52Z</time>
      </trkpt>
      <trkpt lat="46.52693" lon="0.26821">
        <ele>152.2</ele>
        <time>2022-09-18T06:20:54Z</time>
      </trkpt>
      <trkpt lat="46.52693" lon="0.26826">
        <ele>152.8</ele>
        <time>2022-09-18T06:20:56Z</time>
      </trkpt>
      <trkpt lat="46.52692" lon="0.26837">
        <ele>154</ele>
        <time>2022-09-18T06:21:01Z</time>
      </trkpt>
      <trkpt lat="46.52693" lon="0.26839">
        <ele>154.4</ele>
        <time>2022-09-18T06:21:02Z</time>
      </trkpt>
      <trkpt lat="46.52694" lon="0.26847">
        <ele>155.2</ele>
        <time>2022-09-18T06:21:05Z</time>
      </trkpt>
      <trkpt lat="46.52697" lon="0.26855">
        <ele>155.6</ele>
        <time>2022-09-18T06:21:08Z</time>
      </trkpt>
      <trkpt lat="46.52701" lon="0.26863">
        <ele>156.4</ele>
        <time>2022-09-18T06:21:11Z</time>
      </trkpt>
      <trkpt lat="46.52706" lon="0.26877">
        <ele>157.2</ele>
        <time>2022-09-18T06:21:16Z</time>
      </trkpt>
      <trkpt lat="46.52709" lon="0.26884">
        <ele>157.6</ele>
        <time>2022-09-18T06:21:19Z</time>
      </trkpt>
      <trkpt lat="46.52714" lon="0.26898">
        <ele>158.8</ele>
        <time>2022-09-18T06:21:25Z</time>
      </trkpt>
      <trkpt lat="46.52718" lon="0.26909">
        <ele>159.8</ele>
        <time>2022-09-18T06:21:30Z</time>
      </trkpt>
      <trkpt lat="46.52723" lon="0.26919">
        <ele>160.6</ele>
        <time>2022-09-18T06:21:35Z</time>
      </trkpt>
      <trkpt lat="46.52727" lon="0.26924">
        <ele>161</ele>
        <time>2022-09-18T06:21:38Z</time>
      </trkpt>
      <trkpt lat="46.52734" lon="0.26936">
        <ele>161.2</ele>
        <time>2022-09-18T06:21:43Z</time>
      </trkpt>
      <trkpt lat="46.52745" lon="0.26949">
        <ele>161.8</ele>
        <time>2022-09-18T06:21:50Z</time>
      </trkpt>
      <trkpt lat="46.52748" lon="0.26953">
        <ele>162</ele>
        <time>2022-09-18T06:21:52Z</time>
      </trkpt>
      <trkpt lat="46.52754" lon="0.26963">
        <ele>162.2</ele>
        <time>2022-09-18T06:21:56Z</time>
      </trkpt>
      <trkpt lat="46.52768" lon="0.2698">
        <ele>162.6</ele>
        <time>2022-09-18T06:22:03Z</time>
      </trkpt>
      <trkpt lat="46.52782" lon="0.26999">
        <ele>162.8</ele>
        <time>2022-09-18T06:22:09Z</time>
      </trkpt>
      <trkpt lat="46.52792" lon="0.27009">
        <ele>163</ele>
        <time>2022-09-18T06:22:12Z</time>
      </trkpt>
      <trkpt lat="46.52803" lon="0.27023">
        <ele>163.2</ele>
        <time>2022-09-18T06:22:16Z</time>
      </trkpt>
      <trkpt lat="46.5282" lon="0.2704">
        <ele>163.2</ele>
        <time>2022-09-18T06:22:21Z</time>
      </trkpt>
      <trkpt lat="46.52848" lon="0.27068">
        <ele>163</ele>
        <time>2022-09-18T06:22:28Z</time>
      </trkpt>
      <trkpt lat="46.52871" lon="0.27093">
        <ele>163</ele>
        <time>2022-09-18T06:22:34Z</time>
      </trkpt>
      <trkpt lat="46.52895" lon="0.2712">
        <ele>162</ele>
        <time>2022-09-18T06:22:40Z</time>
      </trkpt>
      <trkpt lat="46.52916" lon="0.27145">
        <ele>161.8</ele>
        <time>2022-09-18T06:22:46Z</time>
      </trkpt>
      <trkpt lat="46.52918" lon="0.27147">
        <ele>161.8</ele>
        <time>2022-09-18T06:22:47Z</time>
      </trkpt>
      <trkpt lat="46.52918" lon="0.27152">
        <ele>161.6</ele>
        <time>2022-09-18T06:22:49Z</time>
      </trkpt>
      <trkpt lat="46.52912" lon="0.27169">
        <ele>163</ele>
        <time>2022-09-18T06:22:55Z</time>
      </trkpt>
      <trkpt lat="46.52911" lon="0.27172">
        <ele>163.2</ele>
        <time>2022-09-18T06:22:56Z</time>
      </trkpt>
      <trkpt lat="46.52906" lon="0.27182">
        <ele>164.2</ele>
        <time>2022-09-18T06:22:59Z</time>
      </trkpt>
      <trkpt lat="46.52902" lon="0.27192">
        <ele>165</ele>
        <time>2022-09-18T06:23:02Z</time>
      </trkpt>
      <trkpt lat="46.52901" lon="0.27195">
        <ele>165.2</ele>
        <time>2022-09-18T06:23:03Z</time>
      </trkpt>
      <trkpt lat="46.52896" lon="0.27214">
        <ele>166.2</ele>
        <time>2022-09-18T06:23:09Z</time>
      </trkpt>
      <trkpt lat="46.52895" lon="0.27217">
        <ele>166.4</ele>
        <time>2022-09-18T06:23:10Z</time>
      </trkpt>
      <trkpt lat="46.52887" lon="0.27237">
        <ele>167.4</ele>
        <time>2022-09-18T06:23:17Z</time>
      </trkpt>
      <trkpt lat="46.52886" lon="0.2724">
        <ele>167.6</ele>
        <time>2022-09-18T06:23:18Z</time>
      </trkpt>
      <trkpt lat="46.52877" lon="0.27257">
        <ele>168.6</ele>
        <time>2022-09-18T06:23:24Z</time>
      </trkpt>
      <trkpt lat="46.52874" lon="0.27263">
        <ele>169</ele>
        <time>2022-09-18T06:23:26Z</time>
      </trkpt>
      <trkpt lat="46.52864" lon="0.27277">
        <ele>169.8</ele>
        <time>2022-09-18T06:23:32Z</time>
      </trkpt>
      <trkpt lat="46.5286" lon="0.27281">
        <ele>170</ele>
        <time>2022-09-18T06:23:34Z</time>
      </trkpt>
      <trkpt lat="46.52845" lon="0.27293">
        <ele>170.8</ele>
        <time>2022-09-18T06:23:40Z</time>
      </trkpt>
      <trkpt lat="46.52842" lon="0.27294">
        <ele>170.8</ele>
        <time>2022-09-18T06:23:41Z</time>
      </trkpt>
      <trkpt lat="46.52829" lon="0.27306">
        <ele>171.2</ele>
        <time>2022-09-18T06:23:46Z</time>
      </trkpt>
      <trkpt lat="46.52819" lon="0.2733">
        <ele>171.8</ele>
        <time>2022-09-18T06:23:52Z</time>
      </trkpt>
      <trkpt lat="46.52807" lon="0.27363">
        <ele>172.8</ele>
        <time>2022-09-18T06:24:00Z</time>
      </trkpt>
      <trkpt lat="46.52805" lon="0.27367">
        <ele>172.8</ele>
        <time>2022-09-18T06:24:01Z</time>
      </trkpt>
      <trkpt lat="46.52789" lon="0.27411">
        <ele>173.8</ele>
        <time>2022-09-18T06:24:11Z</time>
      </trkpt>
      <trkpt lat="46.52785" lon="0.27425">
        <ele>174</ele>
        <time>2022-09-18T06:24:14Z</time>
      </trkpt>
      <trkpt lat="46.52783" lon="0.27441">
        <ele>174.2</ele>
        <time>2022-09-18T06:24:17Z</time>
      </trkpt>
      <trkpt lat="46.52789" lon="0.27479">
        <ele>174.6</ele>
        <time>2022-09-18T06:24:24Z</time>
      </trkpt>
      <trkpt lat="46.52791" lon="0.27483">
        <ele>174.6</ele>
        <time>2022-09-18T06:24:25Z</time>
      </trkpt>
      <trkpt lat="46.52799" lon="0.27499">
        <ele>175</ele>
        <time>2022-09-18T06:24:28Z</time>
      </trkpt>
      <trkpt lat="46.52804" lon="0.27509">
        <ele>174.8</ele>
        <time>2022-09-18T06:24:30Z</time>
      </trkpt>
      <trkpt lat="46.52832" lon="0.27563">
        <ele>174.6</ele>
        <time>2022-09-18T06:24:40Z</time>
      </trkpt>
      <trkpt lat="46.52853" lon="0.27606">
        <ele>174.4</ele>
        <time>2022-09-18T06:24:48Z</time>
      </trkpt>
      <trkpt lat="46.52854" lon="0.27619">
        <ele>174.4</ele>
        <time>2022-09-18T06:24:50Z</time>
      </trkpt>
      <trkpt lat="46.52852" lon="0.27632">
        <ele>174.2</ele>
        <time>2022-09-18T06:24:52Z</time>
      </trkpt>
      <trkpt lat="46.52847" lon="0.27643">
        <ele>174</ele>
        <time>2022-09-18T06:24:54Z</time>
      </trkpt>
      <trkpt lat="46.52838" lon="0.27654">
        <ele>174</ele>
        <time>2022-09-18T06:24:56Z</time>
      </trkpt>
      <trkpt lat="46.52804" lon="0.27694">
        <ele>173.8</ele>
        <time>2022-09-18T06:25:04Z</time>
      </trkpt>
      <trkpt lat="46.5278" lon="0.27719">
        <ele>173.6</ele>
        <time>2022-09-18T06:25:10Z</time>
      </trkpt>
      <trkpt lat="46.52777" lon="0.27722">
        <ele>173.6</ele>
        <time>2022-09-18T06:25:11Z</time>
      </trkpt>
      <trkpt lat="46.52769" lon="0.27726">
        <ele>173.4</ele>
        <time>2022-09-18T06:25:15Z</time>
      </trkpt>
      <trkpt lat="46.52762" lon="0.27726">
        <ele>173.4</ele>
        <time>2022-09-18T06:25:20Z</time>
      </trkpt>
      <trkpt lat="46.52745" lon="0.27722">
        <ele>173.8</ele>
        <time>2022-09-18T06:25:25Z</time>
      </trkpt>
      <trkpt lat="46.52731" lon="0.27727">
        <ele>174.4</ele>
        <time>2022-09-18T06:25:29Z</time>
      </trkpt>
      <trkpt lat="46.52724" lon="0.27735">
        <ele>174.4</ele>
        <time>2022-09-18T06:25:31Z</time>
      </trkpt>
      <trkpt lat="46.52719" lon="0.27747">
        <ele>174.4</ele>
        <time>2022-09-18T06:25:33Z</time>
      </trkpt>
      <trkpt lat="46.52717" lon="0.27754">
        <ele>174.2</ele>
        <time>2022-09-18T06:25:34Z</time>
      </trkpt>
      <trkpt lat="46.52714" lon="0.27777">
        <ele>174</ele>
        <time>2022-09-18T06:25:37Z</time>
      </trkpt>
      <trkpt lat="46.52711" lon="0.27799">
        <ele>173.4</ele>
        <time>2022-09-18T06:25:40Z</time>
      </trkpt>
      <trkpt lat="46.52706" lon="0.27819">
        <ele>173.4</ele>
        <time>2022-09-18T06:25:43Z</time>
      </trkpt>
      <trkpt lat="46.52701" lon="0.27843">
        <ele>173</ele>
        <time>2022-09-18T06:25:47Z</time>
      </trkpt>
      <trkpt lat="46.52697" lon="0.27854">
        <ele>172.8</ele>
        <time>2022-09-18T06:25:49Z</time>
      </trkpt>
      <trkpt lat="46.52688" lon="0.27873">
        <ele>172.4</ele>
        <time>2022-09-18T06:25:53Z</time>
      </trkpt>
      <trkpt lat="46.52686" lon="0.27879">
        <ele>172.4</ele>
        <time>2022-09-18T06:25:54Z</time>
      </trkpt>
      <trkpt lat="46.52684" lon="0.27886">
        <ele>172.4</ele>
        <time>2022-09-18T06:25:55Z</time>
      </trkpt>
      <trkpt lat="46.52681" lon="0.27913">
        <ele>172</ele>
        <time>2022-09-18T06:25:59Z</time>
      </trkpt>
      <trkpt lat="46.52678" lon="0.27952">
        <ele>171.8</ele>
        <time>2022-09-18T06:26:04Z</time>
      </trkpt>
      <trkpt lat="46.52676" lon="0.27968">
        <ele>171.6</ele>
        <time>2022-09-18T06:26:06Z</time>
      </trkpt>
      <trkpt lat="46.52669" lon="0.27983">
        <ele>171.4</ele>
        <time>2022-09-18T06:26:08Z</time>
      </trkpt>
      <trkpt lat="46.52664" lon="0.27988">
        <ele>171.4</ele>
        <time>2022-09-18T06:26:09Z</time>
      </trkpt>
      <trkpt lat="46.52636" lon="0.28003">
        <ele>171.2</ele>
        <time>2022-09-18T06:26:14Z</time>
      </trkpt>
      <trkpt lat="46.52625" lon="0.2801">
        <ele>171</ele>
        <time>2022-09-18T06:26:16Z</time>
      </trkpt>
      <trkpt lat="46.52616" lon="0.28018">
        <ele>170.6</ele>
        <time>2022-09-18T06:26:18Z</time>
      </trkpt>
      <trkpt lat="46.52611" lon="0.28023">
        <ele>170.6</ele>
        <time>2022-09-18T06:26:19Z</time>
      </trkpt>
      <trkpt lat="46.52601" lon="0.28039">
        <ele>170.4</ele>
        <time>2022-09-18T06:26:22Z</time>
      </trkpt>
      <trkpt lat="46.52595" lon="0.28048">
        <ele>170</ele>
        <time>2022-09-18T06:26:24Z</time>
      </trkpt>
      <trkpt lat="46.5259" lon="0.28049">
        <ele>169.6</ele>
        <time>2022-09-18T06:26:26Z</time>
      </trkpt>
      <trkpt lat="46.52589" lon="0.28047">
        <ele>169.4</ele>
        <time>2022-09-18T06:26:27Z</time>
      </trkpt>
      <trkpt lat="46.52588" lon="0.28044">
        <ele>169.2</ele>
        <time>2022-09-18T06:26:28Z</time>
      </trkpt>
      <trkpt lat="46.52587" lon="0.28034">
        <ele>169</ele>
        <time>2022-09-18T06:26:30Z</time>
      </trkpt>
      <trkpt lat="46.5258" lon="0.28007">
        <ele>169</ele>
        <time>2022-09-18T06:26:35Z</time>
      </trkpt>
      <trkpt lat="46.52566" lon="0.27975">
        <ele>170</ele>
        <time>2022-09-18T06:26:41Z</time>
      </trkpt>
      <trkpt lat="46.52542" lon="0.2794">
        <ele>170</ele>
        <time>2022-09-18T06:26:47Z</time>
      </trkpt>
      <trkpt lat="46.52529" lon="0.27921">
        <ele>170.2</ele>
        <time>2022-09-18T06:26:50Z</time>
      </trkpt>
      <trkpt lat="46.52512" lon="0.27895">
        <ele>170</ele>
        <time>2022-09-18T06:26:54Z</time>
      </trkpt>
      <trkpt lat="46.52487" lon="0.27856">
        <ele>168.8</ele>
        <time>2022-09-18T06:27:00Z</time>
      </trkpt>
      <trkpt lat="46.52483" lon="0.27849">
        <ele>168.4</ele>
        <time>2022-09-18T06:27:01Z</time>
      </trkpt>
      <trkpt lat="46.52455" lon="0.27808">
        <ele>167.8</ele>
        <time>2022-09-18T06:27:06Z</time>
      </trkpt>
      <trkpt lat="46.52448" lon="0.27799">
        <ele>167.2</ele>
        <time>2022-09-18T06:27:07Z</time>
      </trkpt>
      <trkpt lat="46.52422" lon="0.27766">
        <ele>166</ele>
        <time>2022-09-18T06:27:11Z</time>
      </trkpt>
      <trkpt lat="46.5241" lon="0.27748">
        <ele>165.4</ele>
        <time>2022-09-18T06:27:13Z</time>
      </trkpt>
      <trkpt lat="46.52402" lon="0.2774">
        <ele>165</ele>
        <time>2022-09-18T06:27:14Z</time>
      </trkpt>
      <trkpt lat="46.52395" lon="0.27733">
        <ele>164.8</ele>
        <time>2022-09-18T06:27:15Z</time>
      </trkpt>
      <trkpt lat="46.52381" lon="0.2772">
        <ele>163.8</ele>
        <time>2022-09-18T06:27:17Z</time>
      </trkpt>
      <trkpt lat="46.52368" lon="0.27709">
        <ele>163.2</ele>
        <time>2022-09-18T06:27:19Z</time>
      </trkpt>
      <trkpt lat="46.52361" lon="0.27705">
        <ele>162.6</ele>
        <time>2022-09-18T06:27:20Z</time>
      </trkpt>
      <trkpt lat="46.52354" lon="0.27703">
        <ele>161</ele>
        <time>2022-09-18T06:27:21Z</time>
      </trkpt>
      <trkpt lat="46.52333" lon="0.277">
        <ele>160</ele>
        <time>2022-09-18T06:27:24Z</time>
      </trkpt>
      <trkpt lat="46.52317" lon="0.27696">
        <ele>158.8</ele>
        <time>2022-09-18T06:27:26Z</time>
      </trkpt>
      <trkpt lat="46.52309" lon="0.27693">
        <ele>158.6</ele>
        <time>2022-09-18T06:27:27Z</time>
      </trkpt>
      <trkpt lat="46.52297" lon="0.27683">
        <ele>157.8</ele>
        <time>2022-09-18T06:27:29Z</time>
      </trkpt>
      <trkpt lat="46.52286" lon="0.27673">
        <ele>157</ele>
        <time>2022-09-18T06:27:31Z</time>
      </trkpt>
      <trkpt lat="46.5228" lon="0.27668">
        <ele>156.8</ele>
        <time>2022-09-18T06:27:32Z</time>
      </trkpt>
      <trkpt lat="46.52274" lon="0.27664">
        <ele>156.4</ele>
        <time>2022-09-18T06:27:33Z</time>
      </trkpt>
      <trkpt lat="46.52244" lon="0.27651">
        <ele>156</ele>
        <time>2022-09-18T06:27:36Z</time>
      </trkpt>
      <trkpt lat="46.52227" lon="0.27643">
        <ele>155.8</ele>
        <time>2022-09-18T06:27:38Z</time>
      </trkpt>
      <trkpt lat="46.52197" lon="0.27625">
        <ele>155.4</ele>
        <time>2022-09-18T06:27:42Z</time>
      </trkpt>
      <trkpt lat="46.52185" lon="0.27616">
        <ele>155.2</ele>
        <time>2022-09-18T06:27:44Z</time>
      </trkpt>
      <trkpt lat="46.52167" lon="0.27599">
        <ele>154.6</ele>
        <time>2022-09-18T06:27:47Z</time>
      </trkpt>
      <trkpt lat="46.52162" lon="0.27595">
        <ele>154.4</ele>
        <time>2022-09-18T06:27:48Z</time>
      </trkpt>
      <trkpt lat="46.52144" lon="0.27585">
        <ele>154.4</ele>
        <time>2022-09-18T06:27:51Z</time>
      </trkpt>
      <trkpt lat="46.52109" lon="0.27567">
        <ele>154.6</ele>
        <time>2022-09-18T06:27:57Z</time>
      </trkpt>
      <trkpt lat="46.52063" lon="0.27547">
        <ele>155.2</ele>
        <time>2022-09-18T06:28:05Z</time>
      </trkpt>
      <trkpt lat="46.52029" lon="0.27537">
        <ele>155</ele>
        <time>2022-09-18T06:28:11Z</time>
      </trkpt>
      <trkpt lat="46.52023" lon="0.27536">
        <ele>155</ele>
        <time>2022-09-18T06:28:12Z</time>
      </trkpt>
      <trkpt lat="46.51983" lon="0.27526">
        <ele>154.6</ele>
        <time>2022-09-18T06:28:19Z</time>
      </trkpt>
      <trkpt lat="46.51965" lon="0.27521">
        <ele>154.6</ele>
        <time>2022-09-18T06:28:22Z</time>
      </trkpt>
      <trkpt lat="46.51958" lon="0.27523">
        <ele>154.2</ele>
        <time>2022-09-18T06:28:24Z</time>
      </trkpt>
      <trkpt lat="46.51955" lon="0.2753">
        <ele>153.8</ele>
        <time>2022-09-18T06:28:26Z</time>
      </trkpt>
      <trkpt lat="46.51956" lon="0.27535">
        <ele>153.4</ele>
        <time>2022-09-18T06:28:27Z</time>
      </trkpt>
      <trkpt lat="46.51967" lon="0.27551">
        <ele>152.6</ele>
        <time>2022-09-18T06:28:30Z</time>
      </trkpt>
      <trkpt lat="46.51972" lon="0.27563">
        <ele>152.4</ele>
        <time>2022-09-18T06:28:32Z</time>
      </trkpt>
      <trkpt lat="46.51975" lon="0.2757">
        <ele>151.8</ele>
        <time>2022-09-18T06:28:33Z</time>
      </trkpt>
      <trkpt lat="46.51979" lon="0.27587">
        <ele>151.4</ele>
        <time>2022-09-18T06:28:35Z</time>
      </trkpt>
      <trkpt lat="46.51981" lon="0.27606">
        <ele>151.2</ele>
        <time>2022-09-18T06:28:37Z</time>
      </trkpt>
      <trkpt lat="46.51982" lon="0.27625">
        <ele>151.2</ele>
        <time>2022-09-18T06:28:39Z</time>
      </trkpt>
      <trkpt lat="46.51977" lon="0.27693">
        <ele>151</ele>
        <time>2022-09-18T06:28:46Z</time>
      </trkpt>
      <trkpt lat="46.51979" lon="0.27739">
        <ele>151.2</ele>
        <time>2022-09-18T06:28:51Z</time>
      </trkpt>
      <trkpt lat="46.51987" lon="0.27792">
        <ele>151.8</ele>
        <time>2022-09-18T06:28:58Z</time>
      </trkpt>
      <trkpt lat="46.5199" lon="0.27821">
        <ele>152.6</ele>
        <time>2022-09-18T06:29:02Z</time>
      </trkpt>
      <trkpt lat="46.51994" lon="0.27858">
        <ele>154</ele>
        <time>2022-09-18T06:29:07Z</time>
      </trkpt>
      <trkpt lat="46.51994" lon="0.27866">
        <ele>154.2</ele>
        <time>2022-09-18T06:29:08Z</time>
      </trkpt>
      <trkpt lat="46.51996" lon="0.27936">
        <ele>154.8</ele>
        <time>2022-09-18T06:29:18Z</time>
      </trkpt>
      <trkpt lat="46.51996" lon="0.27943">
        <ele>155</ele>
        <time>2022-09-18T06:29:19Z</time>
      </trkpt>
      <trkpt lat="46.51996" lon="0.27996">
        <ele>155.6</ele>
        <time>2022-09-18T06:29:27Z</time>
      </trkpt>
      <trkpt lat="46.51993" lon="0.28034">
        <ele>156</ele>
        <time>2022-09-18T06:29:33Z</time>
      </trkpt>
      <trkpt lat="46.51991" lon="0.28046">
        <ele>156</ele>
        <time>2022-09-18T06:29:35Z</time>
      </trkpt>
      <trkpt lat="46.51987" lon="0.28063">
        <ele>156.2</ele>
        <time>2022-09-18T06:29:38Z</time>
      </trkpt>
      <trkpt lat="46.51981" lon="0.28068">
        <ele>156.2</ele>
        <time>2022-09-18T06:29:40Z</time>
      </trkpt>
      <trkpt lat="46.51963" lon="0.28065">
        <ele>156.4</ele>
        <time>2022-09-18T06:29:44Z</time>
      </trkpt>
      <trkpt lat="46.51921" lon="0.28056">
        <ele>155.8</ele>
        <time>2022-09-18T06:29:52Z</time>
      </trkpt>
      <trkpt lat="46.51892" lon="0.28049">
        <ele>155</ele>
        <time>2022-09-18T06:29:57Z</time>
      </trkpt>
      <trkpt lat="46.51886" lon="0.28048">
        <ele>154.8</ele>
        <time>2022-09-18T06:29:58Z</time>
      </trkpt>
      <trkpt lat="46.51851" lon="0.28042">
        <ele>154</ele>
        <time>2022-09-18T06:30:03Z</time>
      </trkpt>
      <trkpt lat="46.51845" lon="0.2804">
        <ele>153.4</ele>
        <time>2022-09-18T06:30:04Z</time>
      </trkpt>
      <trkpt lat="46.51839" lon="0.2804">
        <ele>153.2</ele>
        <time>2022-09-18T06:30:05Z</time>
      </trkpt>
      <trkpt lat="46.51833" lon="0.28042">
        <ele>152.8</ele>
        <time>2022-09-18T06:30:06Z</time>
      </trkpt>
      <trkpt lat="46.51829" lon="0.28048">
        <ele>152.4</ele>
        <time>2022-09-18T06:30:07Z</time>
      </trkpt>
      <trkpt lat="46.51828" lon="0.28065">
        <ele>151.6</ele>
        <time>2022-09-18T06:30:09Z</time>
      </trkpt>
      <trkpt lat="46.51829" lon="0.28074">
        <ele>151.6</ele>
        <time>2022-09-18T06:30:10Z</time>
      </trkpt>
      <trkpt lat="46.51834" lon="0.28124">
        <ele>151.8</ele>
        <time>2022-09-18T06:30:16Z</time>
      </trkpt>
      <trkpt lat="46.51836" lon="0.28139">
        <ele>151.8</ele>
        <time>2022-09-18T06:30:18Z</time>
      </trkpt>
      <trkpt lat="46.5184" lon="0.28168">
        <ele>151.8</ele>
        <time>2022-09-18T06:30:22Z</time>
      </trkpt>
      <trkpt lat="46.51844" lon="0.28203">
        <ele>152</ele>
        <time>2022-09-18T06:30:27Z</time>
      </trkpt>
      <trkpt lat="46.51846" lon="0.28217">
        <ele>151.8</ele>
        <time>2022-09-18T06:30:29Z</time>
      </trkpt>
      <trkpt lat="46.51849" lon="0.28256">
        <ele>151.4</ele>
        <time>2022-09-18T06:30:34Z</time>
      </trkpt>
      <trkpt lat="46.51848" lon="0.28264">
        <ele>151.2</ele>
        <time>2022-09-18T06:30:35Z</time>
      </trkpt>
      <trkpt lat="46.51846" lon="0.28273">
        <ele>151.2</ele>
        <time>2022-09-18T06:30:36Z</time>
      </trkpt>
      <trkpt lat="46.51843" lon="0.28282">
        <ele>150.6</ele>
        <time>2022-09-18T06:30:37Z</time>
      </trkpt>
      <trkpt lat="46.51839" lon="0.2829">
        <ele>150.4</ele>
        <time>2022-09-18T06:30:38Z</time>
      </trkpt>
      <trkpt lat="46.51831" lon="0.28308">
        <ele>149.2</ele>
        <time>2022-09-18T06:30:40Z</time>
      </trkpt>
      <trkpt lat="46.51817" lon="0.28335">
        <ele>148</ele>
        <time>2022-09-18T06:30:43Z</time>
      </trkpt>
      <trkpt lat="46.51809" lon="0.28352">
        <ele>146.8</ele>
        <time>2022-09-18T06:30:45Z</time>
      </trkpt>
      <trkpt lat="46.518" lon="0.2837">
        <ele>145.8</ele>
        <time>2022-09-18T06:30:47Z</time>
      </trkpt>
      <trkpt lat="46.51792" lon="0.28389">
        <ele>144.6</ele>
        <time>2022-09-18T06:30:49Z</time>
      </trkpt>
      <trkpt lat="46.51789" lon="0.284">
        <ele>144</ele>
        <time>2022-09-18T06:30:50Z</time>
      </trkpt>
      <trkpt lat="46.51787" lon="0.28411">
        <ele>143.4</ele>
        <time>2022-09-18T06:30:51Z</time>
      </trkpt>
      <trkpt lat="46.51786" lon="0.28422">
        <ele>143</ele>
        <time>2022-09-18T06:30:52Z</time>
      </trkpt>
      <trkpt lat="46.51785" lon="0.28446">
        <ele>142</ele>
        <time>2022-09-18T06:30:54Z</time>
      </trkpt>
      <trkpt lat="46.51786" lon="0.28459">
        <ele>141.6</ele>
        <time>2022-09-18T06:30:55Z</time>
      </trkpt>
      <trkpt lat="46.51786" lon="0.28484">
        <ele>140.6</ele>
        <time>2022-09-18T06:30:57Z</time>
      </trkpt>
      <trkpt lat="46.51787" lon="0.28509">
        <ele>139.8</ele>
        <time>2022-09-18T06:30:59Z</time>
      </trkpt>
      <trkpt lat="46.51788" lon="0.28522">
        <ele>139.4</ele>
        <time>2022-09-18T06:31:00Z</time>
      </trkpt>
      <trkpt lat="46.51793" lon="0.28561">
        <ele>138.2</ele>
        <time>2022-09-18T06:31:03Z</time>
      </trkpt>
      <trkpt lat="46.51798" lon="0.28584">
        <ele>137</ele>
        <time>2022-09-18T06:31:05Z</time>
      </trkpt>
      <trkpt lat="46.51803" lon="0.28607">
        <ele>136</ele>
        <time>2022-09-18T06:31:07Z</time>
      </trkpt>
      <trkpt lat="46.51806" lon="0.28618">
        <ele>135.6</ele>
        <time>2022-09-18T06:31:08Z</time>
      </trkpt>
      <trkpt lat="46.51809" lon="0.28638">
        <ele>134.8</ele>
        <time>2022-09-18T06:31:10Z</time>
      </trkpt>
      <trkpt lat="46.51809" lon="0.28647">
        <ele>134.4</ele>
        <time>2022-09-18T06:31:11Z</time>
      </trkpt>
      <trkpt lat="46.51807" lon="0.28655">
        <ele>133.6</ele>
        <time>2022-09-18T06:31:12Z</time>
      </trkpt>
      <trkpt lat="46.51804" lon="0.28661">
        <ele>133.4</ele>
        <time>2022-09-18T06:31:13Z</time>
      </trkpt>
      <trkpt lat="46.51798" lon="0.2867">
        <ele>132.8</ele>
        <time>2022-09-18T06:31:15Z</time>
      </trkpt>
      <trkpt lat="46.51793" lon="0.28672">
        <ele>132.4</ele>
        <time>2022-09-18T06:31:16Z</time>
      </trkpt>
      <trkpt lat="46.51785" lon="0.28677">
        <ele>131.6</ele>
        <time>2022-09-18T06:31:18Z</time>
      </trkpt>
      <trkpt lat="46.51783" lon="0.28682">
        <ele>131.2</ele>
        <time>2022-09-18T06:31:19Z</time>
      </trkpt>
      <trkpt lat="46.51782" lon="0.28687">
        <ele>131</ele>
        <time>2022-09-18T06:31:20Z</time>
      </trkpt>
      <trkpt lat="46.51783" lon="0.28706">
        <ele>130.8</ele>
        <time>2022-09-18T06:31:23Z</time>
      </trkpt>
      <trkpt lat="46.51786" lon="0.28728">
        <ele>131</ele>
        <time>2022-09-18T06:31:26Z</time>
      </trkpt>
      <trkpt lat="46.51787" lon="0.28742">
        <ele>130.8</ele>
        <time>2022-09-18T06:31:28Z</time>
      </trkpt>
      <trkpt lat="46.51794" lon="0.28791">
        <ele>131.2</ele>
        <time>2022-09-18T06:31:35Z</time>
      </trkpt>
      <trkpt lat="46.51796" lon="0.28805">
        <ele>131.2</ele>
        <time>2022-09-18T06:31:37Z</time>
      </trkpt>
      <trkpt lat="46.51804" lon="0.2885">
        <ele>131</ele>
        <time>2022-09-18T06:31:43Z</time>
      </trkpt>
      <trkpt lat="46.51811" lon="0.2889">
        <ele>130.8</ele>
        <time>2022-09-18T06:31:49Z</time>
      </trkpt>
      <trkpt lat="46.5182" lon="0.28937">
        <ele>130.6</ele>
        <time>2022-09-18T06:31:56Z</time>
      </trkpt>
      <trkpt lat="46.51827" lon="0.28986">
        <ele>131</ele>
        <time>2022-09-18T06:32:03Z</time>
      </trkpt>
      <trkpt lat="46.51831" lon="0.29034">
        <ele>130.4</ele>
        <time>2022-09-18T06:32:10Z</time>
      </trkpt>
      <trkpt lat="46.51833" lon="0.29041">
        <ele>130.2</ele>
        <time>2022-09-18T06:32:11Z</time>
      </trkpt>
      <trkpt lat="46.5184" lon="0.29061">
        <ele>129.8</ele>
        <time>2022-09-18T06:32:14Z</time>
      </trkpt>
      <trkpt lat="46.51861" lon="0.29111">
        <ele>129.4</ele>
        <time>2022-09-18T06:32:22Z</time>
      </trkpt>
      <trkpt lat="46.51866" lon="0.29123">
        <ele>128.8</ele>
        <time>2022-09-18T06:32:24Z</time>
      </trkpt>
      <trkpt lat="46.51872" lon="0.29141">
        <ele>128</ele>
        <time>2022-09-18T06:32:27Z</time>
      </trkpt>
      <trkpt lat="46.51875" lon="0.29147">
        <ele>127.8</ele>
        <time>2022-09-18T06:32:28Z</time>
      </trkpt>
      <trkpt lat="46.51876" lon="0.29153">
        <ele>127.8</ele>
        <time>2022-09-18T06:32:29Z</time>
      </trkpt>
      <trkpt lat="46.51879" lon="0.29159">
        <ele>127.6</ele>
        <time>2022-09-18T06:32:30Z</time>
      </trkpt>
      <trkpt lat="46.51889" lon="0.29184">
        <ele>127.8</ele>
        <time>2022-09-18T06:32:34Z</time>
      </trkpt>
      <trkpt lat="46.51908" lon="0.29224">
        <ele>127.2</ele>
        <time>2022-09-18T06:32:40Z</time>
      </trkpt>
      <trkpt lat="46.5191" lon="0.2923">
        <ele>127</ele>
        <time>2022-09-18T06:32:41Z</time>
      </trkpt>
      <trkpt lat="46.51913" lon="0.29235">
        <ele>126.8</ele>
        <time>2022-09-18T06:32:42Z</time>
      </trkpt>
      <trkpt lat="46.51915" lon="0.29239">
        <ele>126.8</ele>
        <time>2022-09-18T06:32:43Z</time>
      </trkpt>
      <trkpt lat="46.51919" lon="0.29251">
        <ele>126.2</ele>
        <time>2022-09-18T06:32:46Z</time>
      </trkpt>
      <trkpt lat="46.5192" lon="0.29259">
        <ele>125.8</ele>
        <time>2022-09-18T06:32:48Z</time>
      </trkpt>
      <trkpt lat="46.51919" lon="0.29264">
        <ele>125</ele>
        <time>2022-09-18T06:32:50Z</time>
      </trkpt>
      <trkpt lat="46.51917" lon="0.29266">
        <ele>124.8</ele>
        <time>2022-09-18T06:32:51Z</time>
      </trkpt>
      <trkpt lat="46.5191" lon="0.29272">
        <ele>124.4</ele>
        <time>2022-09-18T06:32:55Z</time>
      </trkpt>
      <trkpt lat="46.51905" lon="0.29277">
        <ele>124.2</ele>
        <time>2022-09-18T06:33:00Z</time>
      </trkpt>
      <trkpt lat="46.51896" lon="0.29286">
        <ele>124.2</ele>
        <time>2022-09-18T06:33:05Z</time>
      </trkpt>
      <trkpt lat="46.51886" lon="0.29297">
        <ele>124.8</ele>
        <time>2022-09-18T06:33:11Z</time>
      </trkpt>
      <trkpt lat="46.51878" lon="0.29307">
        <ele>126</ele>
        <time>2022-09-18T06:33:16Z</time>
      </trkpt>
      <trkpt lat="46.51875" lon="0.29314">
        <ele>126.2</ele>
        <time>2022-09-18T06:33:18Z</time>
      </trkpt>
      <trkpt lat="46.51872" lon="0.29331">
        <ele>127</ele>
        <time>2022-09-18T06:33:23Z</time>
      </trkpt>
      <trkpt lat="46.51872" lon="0.29338">
        <ele>127.2</ele>
        <time>2022-09-18T06:33:25Z</time>
      </trkpt>
      <trkpt lat="46.51873" lon="0.29348">
        <ele>128.2</ele>
        <time>2022-09-18T06:33:28Z</time>
      </trkpt>
      <trkpt lat="46.51875" lon="0.29358">
        <ele>129.2</ele>
        <time>2022-09-18T06:33:31Z</time>
      </trkpt>
      <trkpt lat="46.51875" lon="0.29366">
        <ele>129.8</ele>
        <time>2022-09-18T06:33:34Z</time>
      </trkpt>
      <trkpt lat="46.51874" lon="0.29375">
        <ele>130.2</ele>
        <time>2022-09-18T06:33:38Z</time>
      </trkpt>
      <trkpt lat="46.51874" lon="0.29381">
        <ele>131.2</ele>
        <time>2022-09-18T06:33:41Z</time>
      </trkpt>
      <trkpt lat="46.51874" lon="0.29383">
        <ele>131.6</ele>
        <time>2022-09-18T06:33:42Z</time>
      </trkpt>
      <trkpt lat="46.51874" lon="0.29389">
        <ele>132.6</ele>
        <time>2022-09-18T06:33:45Z</time>
      </trkpt>
      <trkpt lat="46.51873" lon="0.29396">
        <ele>133.6</ele>
        <time>2022-09-18T06:33:48Z</time>
      </trkpt>
      <trkpt lat="46.51873" lon="0.29398">
        <ele>133.8</ele>
        <time>2022-09-18T06:33:49Z</time>
      </trkpt>
      <trkpt lat="46.51871" lon="0.294">
        <ele>134.2</ele>
        <time>2022-09-18T06:33:50Z</time>
      </trkpt>
      <trkpt lat="46.51869" lon="0.29406">
        <ele>134.8</ele>
        <time>2022-09-18T06:33:53Z</time>
      </trkpt>
      <trkpt lat="46.51868" lon="0.29408">
        <ele>135.2</ele>
        <time>2022-09-18T06:33:54Z</time>
      </trkpt>
      <trkpt lat="46.51862" lon="0.29423">
        <ele>136</ele>
        <time>2022-09-18T06:34:00Z</time>
      </trkpt>
      <trkpt lat="46.51855" lon="0.2944">
        <ele>137</ele>
        <time>2022-09-18T06:34:07Z</time>
      </trkpt>
      <trkpt lat="46.51845" lon="0.29457">
        <ele>138.2</ele>
        <time>2022-09-18T06:34:14Z</time>
      </trkpt>
      <trkpt lat="46.5184" lon="0.29467">
        <ele>139.4</ele>
        <time>2022-09-18T06:34:18Z</time>
      </trkpt>
      <trkpt lat="46.51837" lon="0.29474">
        <ele>139.8</ele>
        <time>2022-09-18T06:34:21Z</time>
      </trkpt>
      <trkpt lat="46.51833" lon="0.29481">
        <ele>140.6</ele>
        <time>2022-09-18T06:34:24Z</time>
      </trkpt>
      <trkpt lat="46.51828" lon="0.29491">
        <ele>141.8</ele>
        <time>2022-09-18T06:34:29Z</time>
      </trkpt>
      <trkpt lat="46.51823" lon="0.29502">
        <ele>143</ele>
        <time>2022-09-18T06:34:34Z</time>
      </trkpt>
      <trkpt lat="46.51821" lon="0.29509">
        <ele>143.8</ele>
        <time>2022-09-18T06:34:37Z</time>
      </trkpt>
      <trkpt lat="46.51819" lon="0.29512">
        <ele>144</ele>
        <time>2022-09-18T06:34:39Z</time>
      </trkpt>
      <trkpt lat="46.51816" lon="0.29521">
        <ele>145</ele>
        <time>2022-09-18T06:34:43Z</time>
      </trkpt>
      <trkpt lat="46.51815" lon="0.29523">
        <ele>145.2</ele>
        <time>2022-09-18T06:34:44Z</time>
      </trkpt>
      <trkpt lat="46.51808" lon="0.29538">
        <ele>146.4</ele>
        <time>2022-09-18T06:34:51Z</time>
      </trkpt>
      <trkpt lat="46.51807" lon="0.2954">
        <ele>146.6</ele>
        <time>2022-09-18T06:34:52Z</time>
      </trkpt>
      <trkpt lat="46.51803" lon="0.2955">
        <ele>147.4</ele>
        <time>2022-09-18T06:34:57Z</time>
      </trkpt>
      <trkpt lat="46.51799" lon="0.29555">
        <ele>147.6</ele>
        <time>2022-09-18T06:35:00Z</time>
      </trkpt>
      <trkpt lat="46.51794" lon="0.29562">
        <ele>148.6</ele>
        <time>2022-09-18T06:35:04Z</time>
      </trkpt>
      <trkpt lat="46.5179" lon="0.29567">
        <ele>149</ele>
        <time>2022-09-18T06:35:07Z</time>
      </trkpt>
      <trkpt lat="46.51782" lon="0.29579">
        <ele>149.8</ele>
        <time>2022-09-18T06:35:13Z</time>
      </trkpt>
      <trkpt lat="46.5178" lon="0.29584">
        <ele>150</ele>
        <time>2022-09-18T06:35:15Z</time>
      </trkpt>
      <trkpt lat="46.51774" lon="0.29601">
        <ele>151</ele>
        <time>2022-09-18T06:35:21Z</time>
      </trkpt>
      <trkpt lat="46.51767" lon="0.29622">
        <ele>152</ele>
        <time>2022-09-18T06:35:28Z</time>
      </trkpt>
      <trkpt lat="46.51764" lon="0.29628">
        <ele>152.4</ele>
        <time>2022-09-18T06:35:30Z</time>
      </trkpt>
      <trkpt lat="46.51755" lon="0.29648">
        <ele>153</ele>
        <time>2022-09-18T06:35:37Z</time>
      </trkpt>
      <trkpt lat="46.51751" lon="0.29652">
        <ele>153.4</ele>
        <time>2022-09-18T06:35:39Z</time>
      </trkpt>
      <trkpt lat="46.51741" lon="0.29674">
        <ele>154.2</ele>
        <time>2022-09-18T06:35:46Z</time>
      </trkpt>
      <trkpt lat="46.51728" lon="0.2969">
        <ele>155</ele>
        <time>2022-09-18T06:35:52Z</time>
      </trkpt>
      <trkpt lat="46.51718" lon="0.29694">
        <ele>155.2</ele>
        <time>2022-09-18T06:35:56Z</time>
      </trkpt>
      <trkpt lat="46.51713" lon="0.29695">
        <ele>155.6</ele>
        <time>2022-09-18T06:35:58Z</time>
      </trkpt>
      <trkpt lat="46.51702" lon="0.297">
        <ele>156.2</ele>
        <time>2022-09-18T06:36:02Z</time>
      </trkpt>
      <trkpt lat="46.51699" lon="0.29702">
        <ele>156.4</ele>
        <time>2022-09-18T06:36:03Z</time>
      </trkpt>
      <trkpt lat="46.51679" lon="0.2972">
        <ele>157.4</ele>
        <time>2022-09-18T06:36:11Z</time>
      </trkpt>
      <trkpt lat="46.51665" lon="0.29737">
        <ele>158.4</ele>
        <time>2022-09-18T06:36:18Z</time>
      </trkpt>
      <trkpt lat="46.51663" lon="0.29739">
        <ele>158.4</ele>
        <time>2022-09-18T06:36:19Z</time>
      </trkpt>
      <trkpt lat="46.51653" lon="0.29749">
        <ele>159.4</ele>
        <time>2022-09-18T06:36:24Z</time>
      </trkpt>
      <trkpt lat="46.5165" lon="0.29751">
        <ele>159.4</ele>
        <time>2022-09-18T06:36:25Z</time>
      </trkpt>
      <trkpt lat="46.51636" lon="0.29761">
        <ele>160</ele>
        <time>2022-09-18T06:36:31Z</time>
      </trkpt>
      <trkpt lat="46.51636" lon="0.29763">
        <ele>160.2</ele>
        <time>2022-09-18T06:36:32Z</time>
      </trkpt>
      <trkpt lat="46.51637" lon="0.29773">
        <ele>160.4</ele>
        <time>2022-09-18T06:36:35Z</time>
      </trkpt>
      <trkpt lat="46.51638" lon="0.29777">
        <ele>160.6</ele>
        <time>2022-09-18T06:36:36Z</time>
      </trkpt>
      <trkpt lat="46.51643" lon="0.29805">
        <ele>160.8</ele>
        <time>2022-09-18T06:36:42Z</time>
      </trkpt>
      <trkpt lat="46.51655" lon="0.29832">
        <ele>161</ele>
        <time>2022-09-18T06:36:48Z</time>
      </trkpt>
      <trkpt lat="46.51674" lon="0.29852">
        <ele>161.2</ele>
        <time>2022-09-18T06:36:54Z</time>
      </trkpt>
      <trkpt lat="46.51708" lon="0.29877">
        <ele>161.2</ele>
        <time>2022-09-18T06:37:03Z</time>
      </trkpt>
      <trkpt lat="46.51737" lon="0.29887">
        <ele>160.8</ele>
        <time>2022-09-18T06:37:10Z</time>
      </trkpt>
      <trkpt lat="46.51742" lon="0.29887">
        <ele>160.8</ele>
        <time>2022-09-18T06:37:11Z</time>
      </trkpt>
      <trkpt lat="46.51763" lon="0.29886">
        <ele>160.4</ele>
        <time>2022-09-18T06:37:16Z</time>
      </trkpt>
      <trkpt lat="46.51798" lon="0.29886">
        <ele>160.2</ele>
        <time>2022-09-18T06:37:24Z</time>
      </trkpt>
      <trkpt lat="46.51828" lon="0.29897">
        <ele>159.8</ele>
        <time>2022-09-18T06:37:31Z</time>
      </trkpt>
      <trkpt lat="46.51867" lon="0.29919">
        <ele>160</ele>
        <time>2022-09-18T06:37:40Z</time>
      </trkpt>
      <trkpt lat="46.51887" lon="0.29928">
        <ele>159.4</ele>
        <time>2022-09-18T06:37:44Z</time>
      </trkpt>
      <trkpt lat="46.5191" lon="0.29938">
        <ele>158.8</ele>
        <time>2022-09-18T06:37:49Z</time>
      </trkpt>
      <trkpt lat="46.51927" lon="0.29944">
        <ele>158.4</ele>
        <time>2022-09-18T06:37:53Z</time>
      </trkpt>
      <trkpt lat="46.51939" lon="0.2995">
        <ele>158.2</ele>
        <time>2022-09-18T06:37:56Z</time>
      </trkpt>
      <trkpt lat="46.51943" lon="0.29953">
        <ele>158.4</ele>
        <time>2022-09-18T06:37:57Z</time>
      </trkpt>
      <trkpt lat="46.51947" lon="0.29955">
        <ele>158.4</ele>
        <time>2022-09-18T06:37:58Z</time>
      </trkpt>
      <trkpt lat="46.51956" lon="0.2996">
        <ele>158.4</ele>
        <time>2022-09-18T06:38:00Z</time>
      </trkpt>
      <trkpt lat="46.5196" lon="0.29962">
        <ele>158.4</ele>
        <time>2022-09-18T06:38:01Z</time>
      </trkpt>
      <trkpt lat="46.51995" lon="0.29981">
        <ele>158.6</ele>
        <time>2022-09-18T06:38:09Z</time>
      </trkpt>
      <trkpt lat="46.52036" lon="0.3">
        <ele>158.6</ele>
        <time>2022-09-18T06:38:18Z</time>
      </trkpt>
      <trkpt lat="46.5207" lon="0.30014">
        <ele>158.4</ele>
        <time>2022-09-18T06:38:26Z</time>
      </trkpt>
      <trkpt lat="46.52095" lon="0.30025">
        <ele>157.8</ele>
        <time>2022-09-18T06:38:33Z</time>
      </trkpt>
      <trkpt lat="46.52099" lon="0.30025">
        <ele>157.8</ele>
        <time>2022-09-18T06:38:34Z</time>
      </trkpt>
      <trkpt lat="46.52117" lon="0.30025">
        <ele>157.6</ele>
        <time>2022-09-18T06:38:39Z</time>
      </trkpt>
      <trkpt lat="46.52135" lon="0.30027">
        <ele>157.6</ele>
        <time>2022-09-18T06:38:43Z</time>
      </trkpt>
      <trkpt lat="46.52173" lon="0.30043">
        <ele>157.8</ele>
        <time>2022-09-18T06:38:50Z</time>
      </trkpt>
      <trkpt lat="46.52185" lon="0.30051">
        <ele>157.8</ele>
        <time>2022-09-18T06:38:52Z</time>
      </trkpt>
      <trkpt lat="46.522" lon="0.30066">
        <ele>157.6</ele>
        <time>2022-09-18T06:38:55Z</time>
      </trkpt>
      <trkpt lat="46.52213" lon="0.3008">
        <ele>157.2</ele>
        <time>2022-09-18T06:38:58Z</time>
      </trkpt>
      <trkpt lat="46.5222" lon="0.30089">
        <ele>157.2</ele>
        <time>2022-09-18T06:39:00Z</time>
      </trkpt>
      <trkpt lat="46.52226" lon="0.30099">
        <ele>157</ele>
        <time>2022-09-18T06:39:01Z</time>
      </trkpt>
      <trkpt lat="46.52234" lon="0.30114">
        <ele>157</ele>
        <time>2022-09-18T06:39:05Z</time>
      </trkpt>
      <trkpt lat="46.52237" lon="0.30116">
        <ele>157</ele>
        <time>2022-09-18T06:39:06Z</time>
      </trkpt>
      <trkpt lat="46.52239" lon="0.30117">
        <ele>157</ele>
        <time>2022-09-18T06:39:07Z</time>
      </trkpt>
      <trkpt lat="46.52243" lon="0.30111">
        <ele>157</ele>
        <time>2022-09-18T06:39:09Z</time>
      </trkpt>
      <trkpt lat="46.52252" lon="0.3009">
        <ele>157.2</ele>
        <time>2022-09-18T06:39:13Z</time>
      </trkpt>
      <trkpt lat="46.52265" lon="0.30058">
        <ele>157.8</ele>
        <time>2022-09-18T06:39:18Z</time>
      </trkpt>
      <trkpt lat="46.5227" lon="0.30043">
        <ele>157.8</ele>
        <time>2022-09-18T06:39:20Z</time>
      </trkpt>
      <trkpt lat="46.52271" lon="0.30035">
        <ele>157.8</ele>
        <time>2022-09-18T06:39:21Z</time>
      </trkpt>
      <trkpt lat="46.52274" lon="0.3">
        <ele>157.6</ele>
        <time>2022-09-18T06:39:25Z</time>
      </trkpt>
      <trkpt lat="46.52278" lon="0.29952">
        <ele>156.8</ele>
        <time>2022-09-18T06:39:30Z</time>
      </trkpt>
      <trkpt lat="46.52278" lon="0.29944">
        <ele>156.2</ele>
        <time>2022-09-18T06:39:31Z</time>
      </trkpt>
      <trkpt lat="46.52279" lon="0.29936">
        <ele>155</ele>
        <time>2022-09-18T06:39:32Z</time>
      </trkpt>
      <trkpt lat="46.52281" lon="0.29921">
        <ele>153.8</ele>
        <time>2022-09-18T06:39:34Z</time>
      </trkpt>
      <trkpt lat="46.52282" lon="0.29909">
        <ele>153.2</ele>
        <time>2022-09-18T06:39:36Z</time>
      </trkpt>
      <trkpt lat="46.52283" lon="0.29903">
        <ele>152.4</ele>
        <time>2022-09-18T06:39:37Z</time>
      </trkpt>
      <trkpt lat="46.52283" lon="0.29892">
        <ele>151.8</ele>
        <time>2022-09-18T06:39:39Z</time>
      </trkpt>
      <trkpt lat="46.52284" lon="0.29884">
        <ele>150.4</ele>
        <time>2022-09-18T06:39:41Z</time>
      </trkpt>
      <trkpt lat="46.52284" lon="0.29879">
        <ele>149.4</ele>
        <time>2022-09-18T06:39:42Z</time>
      </trkpt>
      <trkpt lat="46.52286" lon="0.2987">
        <ele>148</ele>
        <time>2022-09-18T06:39:44Z</time>
      </trkpt>
      <trkpt lat="46.52287" lon="0.29864">
        <ele>147.6</ele>
        <time>2022-09-18T06:39:45Z</time>
      </trkpt>
      <trkpt lat="46.52288" lon="0.29858">
        <ele>147.2</ele>
        <time>2022-09-18T06:39:46Z</time>
      </trkpt>
      <trkpt lat="46.52289" lon="0.29853">
        <ele>145.4</ele>
        <time>2022-09-18T06:39:47Z</time>
      </trkpt>
      <trkpt lat="46.5229" lon="0.29849">
        <ele>143.8</ele>
        <time>2022-09-18T06:39:48Z</time>
      </trkpt>
      <trkpt lat="46.52291" lon="0.29845">
        <ele>142.8</ele>
        <time>2022-09-18T06:39:49Z</time>
      </trkpt>
      <trkpt lat="46.52292" lon="0.29841">
        <ele>141.4</ele>
        <time>2022-09-18T06:39:50Z</time>
      </trkpt>
      <trkpt lat="46.52297" lon="0.29834">
        <ele>140</ele>
        <time>2022-09-18T06:39:53Z</time>
      </trkpt>
      <trkpt lat="46.523" lon="0.29829">
        <ele>138.6</ele>
        <time>2022-09-18T06:39:55Z</time>
      </trkpt>
      <trkpt lat="46.52302" lon="0.29824">
        <ele>138</ele>
        <time>2022-09-18T06:39:57Z</time>
      </trkpt>
      <trkpt lat="46.52303" lon="0.29821">
        <ele>136.8</ele>
        <time>2022-09-18T06:39:58Z</time>
      </trkpt>
      <trkpt lat="46.52304" lon="0.29815">
        <ele>134.8</ele>
        <time>2022-09-18T06:40:00Z</time>
      </trkpt>
      <trkpt lat="46.52307" lon="0.2981">
        <ele>133.6</ele>
        <time>2022-09-18T06:40:02Z</time>
      </trkpt>
      <trkpt lat="46.52309" lon="0.2981">
        <ele>133</ele>
        <time>2022-09-18T06:40:03Z</time>
      </trkpt>
      <trkpt lat="46.52311" lon="0.2981">
        <ele>131.8</ele>
        <time>2022-09-18T06:40:04Z</time>
      </trkpt>
      <trkpt lat="46.52319" lon="0.29811">
        <ele>130.4</ele>
        <time>2022-09-18T06:40:06Z</time>
      </trkpt>
      <trkpt lat="46.52326" lon="0.29814">
        <ele>129</ele>
        <time>2022-09-18T06:40:08Z</time>
      </trkpt>
      <trkpt lat="46.52333" lon="0.29817">
        <ele>127.8</ele>
        <time>2022-09-18T06:40:10Z</time>
      </trkpt>
      <trkpt lat="46.52339" lon="0.29822">
        <ele>126.2</ele>
        <time>2022-09-18T06:40:12Z</time>
      </trkpt>
      <trkpt lat="46.52345" lon="0.29828">
        <ele>124.4</ele>
        <time>2022-09-18T06:40:14Z</time>
      </trkpt>
      <trkpt lat="46.52349" lon="0.29831">
        <ele>123.4</ele>
        <time>2022-09-18T06:40:15Z</time>
      </trkpt>
      <trkpt lat="46.52352" lon="0.29835">
        <ele>122.6</ele>
        <time>2022-09-18T06:40:16Z</time>
      </trkpt>
      <trkpt lat="46.52355" lon="0.29839">
        <ele>122</ele>
        <time>2022-09-18T06:40:17Z</time>
      </trkpt>
      <trkpt lat="46.52358" lon="0.29844">
        <ele>121.4</ele>
        <time>2022-09-18T06:40:18Z</time>
      </trkpt>
      <trkpt lat="46.52361" lon="0.2985">
        <ele>120.6</ele>
        <time>2022-09-18T06:40:19Z</time>
      </trkpt>
      <trkpt lat="46.52364" lon="0.29857">
        <ele>119.6</ele>
        <time>2022-09-18T06:40:20Z</time>
      </trkpt>
      <trkpt lat="46.52367" lon="0.29863">
        <ele>119</ele>
        <time>2022-09-18T06:40:21Z</time>
      </trkpt>
      <trkpt lat="46.52374" lon="0.29879">
        <ele>117.8</ele>
        <time>2022-09-18T06:40:24Z</time>
      </trkpt>
      <trkpt lat="46.52379" lon="0.29889">
        <ele>117.6</ele>
        <time>2022-09-18T06:40:26Z</time>
      </trkpt>
      <trkpt lat="46.52382" lon="0.29899">
        <ele>117.4</ele>
        <time>2022-09-18T06:40:28Z</time>
      </trkpt>
      <trkpt lat="46.52389" lon="0.29915">
        <ele>117.4</ele>
        <time>2022-09-18T06:40:31Z</time>
      </trkpt>
      <trkpt lat="46.5239" lon="0.2992">
        <ele>117.2</ele>
        <time>2022-09-18T06:40:32Z</time>
      </trkpt>
      <trkpt lat="46.52401" lon="0.29946">
        <ele>117</ele>
        <time>2022-09-18T06:40:36Z</time>
      </trkpt>
      <trkpt lat="46.52406" lon="0.29953">
        <ele>116.8</ele>
        <time>2022-09-18T06:40:37Z</time>
      </trkpt>
      <trkpt lat="46.52416" lon="0.29969">
        <ele>116.8</ele>
        <time>2022-09-18T06:40:39Z</time>
      </trkpt>
      <trkpt lat="46.52435" lon="0.30002">
        <ele>116.4</ele>
        <time>2022-09-18T06:40:44Z</time>
      </trkpt>
      <trkpt lat="46.52442" lon="0.30014">
        <ele>116.4</ele>
        <time>2022-09-18T06:40:46Z</time>
      </trkpt>
      <trkpt lat="46.52455" lon="0.30031">
        <ele>116.4</ele>
        <time>2022-09-18T06:40:49Z</time>
      </trkpt>
      <trkpt lat="46.52464" lon="0.30041">
        <ele>116.6</ele>
        <time>2022-09-18T06:40:51Z</time>
      </trkpt>
      <trkpt lat="46.52485" lon="0.30062">
        <ele>117.2</ele>
        <time>2022-09-18T06:40:55Z</time>
      </trkpt>
      <trkpt lat="46.52507" lon="0.30087">
        <ele>117.6</ele>
        <time>2022-09-18T06:41:00Z</time>
      </trkpt>
      <trkpt lat="46.52509" lon="0.30091">
        <ele>117.6</ele>
        <time>2022-09-18T06:41:01Z</time>
      </trkpt>
      <trkpt lat="46.52511" lon="0.30095">
        <ele>117.8</ele>
        <time>2022-09-18T06:41:02Z</time>
      </trkpt>
      <trkpt lat="46.5252" lon="0.30109">
        <ele>118.6</ele>
        <time>2022-09-18T06:41:05Z</time>
      </trkpt>
      <trkpt lat="46.52528" lon="0.3012">
        <ele>118.8</ele>
        <time>2022-09-18T06:41:08Z</time>
      </trkpt>
      <trkpt lat="46.52534" lon="0.30134">
        <ele>119.8</ele>
        <time>2022-09-18T06:41:11Z</time>
      </trkpt>
      <trkpt lat="46.52535" lon="0.30139">
        <ele>120</ele>
        <time>2022-09-18T06:41:12Z</time>
      </trkpt>
      <trkpt lat="46.52536" lon="0.30142">
        <ele>120.6</ele>
        <time>2022-09-18T06:41:13Z</time>
      </trkpt>
      <trkpt lat="46.52534" lon="0.30148">
        <ele>121</ele>
        <time>2022-09-18T06:41:15Z</time>
      </trkpt>
      <trkpt lat="46.52532" lon="0.3015">
        <ele>121.2</ele>
        <time>2022-09-18T06:41:16Z</time>
      </trkpt>
      <trkpt lat="46.5252" lon="0.30165">
        <ele>122</ele>
        <time>2022-09-18T06:41:22Z</time>
      </trkpt>
      <trkpt lat="46.52513" lon="0.30173">
        <ele>122.4</ele>
        <time>2022-09-18T06:41:25Z</time>
      </trkpt>
      <trkpt lat="46.52507" lon="0.30181">
        <ele>123.4</ele>
        <time>2022-09-18T06:41:29Z</time>
      </trkpt>
      <trkpt lat="46.52506" lon="0.30183">
        <ele>123.6</ele>
        <time>2022-09-18T06:41:30Z</time>
      </trkpt>
      <trkpt lat="46.52496" lon="0.30196">
        <ele>124.6</ele>
        <time>2022-09-18T06:41:36Z</time>
      </trkpt>
      <trkpt lat="46.52489" lon="0.30205">
        <ele>125.6</ele>
        <time>2022-09-18T06:41:41Z</time>
      </trkpt>
      <trkpt lat="46.52486" lon="0.30208">
        <ele>126.2</ele>
        <time>2022-09-18T06:41:43Z</time>
      </trkpt>
      <trkpt lat="46.52477" lon="0.30216">
        <ele>126.8</ele>
        <time>2022-09-18T06:41:48Z</time>
      </trkpt>
      <trkpt lat="46.52472" lon="0.30224">
        <ele>127.2</ele>
        <time>2022-09-18T06:41:52Z</time>
      </trkpt>
      <trkpt lat="46.52475" lon="0.30231">
        <ele>127.6</ele>
        <time>2022-09-18T06:41:56Z</time>
      </trkpt>
      <trkpt lat="46.52477" lon="0.30232">
        <ele>127.8</ele>
        <time>2022-09-18T06:41:58Z</time>
      </trkpt>
      <trkpt lat="46.52481" lon="0.30232">
        <ele>128.6</ele>
        <time>2022-09-18T06:42:03Z</time>
      </trkpt>
      <trkpt lat="46.52482" lon="0.30233">
        <ele>128.6</ele>
        <time>2022-09-18T06:42:04Z</time>
      </trkpt>
      <trkpt lat="46.52484" lon="0.30233">
        <ele>129</ele>
        <time>2022-09-18T06:42:06Z</time>
      </trkpt>
      <trkpt lat="46.52488" lon="0.30234">
        <ele>130.2</ele>
        <time>2022-09-18T06:42:10Z</time>
      </trkpt>
      <trkpt lat="46.52496" lon="0.30236">
        <ele>131.8</ele>
        <time>2022-09-18T06:42:15Z</time>
      </trkpt>
      <trkpt lat="46.525" lon="0.30236">
        <ele>133</ele>
        <time>2022-09-18T06:42:18Z</time>
      </trkpt>
      <trkpt lat="46.52506" lon="0.30234">
        <ele>133.8</ele>
        <time>2022-09-18T06:42:24Z</time>
      </trkpt>
      <trkpt lat="46.52508" lon="0.30234">
        <ele>134</ele>
        <time>2022-09-18T06:42:25Z</time>
      </trkpt>
      <trkpt lat="46.52517" lon="0.30234">
        <ele>135</ele>
        <time>2022-09-18T06:42:32Z</time>
      </trkpt>
      <trkpt lat="46.52529" lon="0.30231">
        <ele>135.6</ele>
        <time>2022-09-18T06:42:38Z</time>
      </trkpt>
      <trkpt lat="46.52535" lon="0.30229">
        <ele>135.8</ele>
        <time>2022-09-18T06:42:41Z</time>
      </trkpt>
      <trkpt lat="46.52544" lon="0.30228">
        <ele>136.2</ele>
        <time>2022-09-18T06:42:45Z</time>
      </trkpt>
      <trkpt lat="46.52558" lon="0.30234">
        <ele>137.2</ele>
        <time>2022-09-18T06:42:52Z</time>
      </trkpt>
      <trkpt lat="46.52559" lon="0.30235">
        <ele>137.4</ele>
        <time>2022-09-18T06:42:53Z</time>
      </trkpt>
      <trkpt lat="46.52574" lon="0.30242">
        <ele>138.6</ele>
        <time>2022-09-18T06:42:59Z</time>
      </trkpt>
      <trkpt lat="46.52575" lon="0.30242">
        <ele>138.6</ele>
        <time>2022-09-18T06:43:00Z</time>
      </trkpt>
      <trkpt lat="46.52588" lon="0.30252">
        <ele>139.4</ele>
        <time>2022-09-18T06:43:07Z</time>
      </trkpt>
      <trkpt lat="46.52594" lon="0.30257">
        <ele>139.6</ele>
        <time>2022-09-18T06:43:10Z</time>
      </trkpt>
      <trkpt lat="46.52601" lon="0.30262">
        <ele>139.8</ele>
        <time>2022-09-18T06:43:13Z</time>
      </trkpt>
      <trkpt lat="46.52615" lon="0.30275">
        <ele>140</ele>
        <time>2022-09-18T06:43:19Z</time>
      </trkpt>
      <trkpt lat="46.5262" lon="0.30289">
        <ele>140.2</ele>
        <time>2022-09-18T06:43:25Z</time>
      </trkpt>
      <trkpt lat="46.52621" lon="0.30294">
        <ele>140.6</ele>
        <time>2022-09-18T06:43:27Z</time>
      </trkpt>
      <trkpt lat="46.52623" lon="0.30305">
        <ele>141.2</ele>
        <time>2022-09-18T06:43:30Z</time>
      </trkpt>
      <trkpt lat="46.52628" lon="0.30332">
        <ele>141.6</ele>
        <time>2022-09-18T06:43:36Z</time>
      </trkpt>
      <trkpt lat="46.52632" lon="0.30359">
        <ele>142.6</ele>
        <time>2022-09-18T06:43:43Z</time>
      </trkpt>
      <trkpt lat="46.52632" lon="0.30363">
        <ele>142.8</ele>
        <time>2022-09-18T06:43:44Z</time>
      </trkpt>
      <trkpt lat="46.52637" lon="0.30382">
        <ele>143.2</ele>
        <time>2022-09-18T06:43:50Z</time>
      </trkpt>
      <trkpt lat="46.52636" lon="0.30407">
        <ele>143.6</ele>
        <time>2022-09-18T06:43:57Z</time>
      </trkpt>
      <trkpt lat="46.52636" lon="0.30415">
        <ele>143.8</ele>
        <time>2022-09-18T06:43:59Z</time>
      </trkpt>
      <trkpt lat="46.52637" lon="0.30435">
        <ele>144.2</ele>
        <time>2022-09-18T06:44:04Z</time>
      </trkpt>
      <trkpt lat="46.52636" lon="0.30459">
        <ele>145</ele>
        <time>2022-09-18T06:44:10Z</time>
      </trkpt>
      <trkpt lat="46.52637" lon="0.3048">
        <ele>145.8</ele>
        <time>2022-09-18T06:44:15Z</time>
      </trkpt>
      <trkpt lat="46.52641" lon="0.30495">
        <ele>145.6</ele>
        <time>2022-09-18T06:44:20Z</time>
      </trkpt>
      <trkpt lat="46.52646" lon="0.30509">
        <ele>144.6</ele>
        <time>2022-09-18T06:44:26Z</time>
      </trkpt>
      <trkpt lat="46.52649" lon="0.30516">
        <ele>144.4</ele>
        <time>2022-09-18T06:44:28Z</time>
      </trkpt>
      <trkpt lat="46.52654" lon="0.30527">
        <ele>144</ele>
        <time>2022-09-18T06:44:31Z</time>
      </trkpt>
      <trkpt lat="46.52658" lon="0.30548">
        <ele>144.8</ele>
        <time>2022-09-18T06:44:36Z</time>
      </trkpt>
      <trkpt lat="46.52657" lon="0.3057">
        <ele>146.2</ele>
        <time>2022-09-18T06:44:41Z</time>
      </trkpt>
      <trkpt lat="46.52657" lon="0.30575">
        <ele>146.4</ele>
        <time>2022-09-18T06:44:42Z</time>
      </trkpt>
      <trkpt lat="46.52664" lon="0.30596">
        <ele>146.4</ele>
        <time>2022-09-18T06:44:47Z</time>
      </trkpt>
      <trkpt lat="46.52669" lon="0.30613">
        <ele>145.2</ele>
        <time>2022-09-18T06:44:51Z</time>
      </trkpt>
      <trkpt lat="46.52671" lon="0.3062">
        <ele>144.8</ele>
        <time>2022-09-18T06:44:53Z</time>
      </trkpt>
      <trkpt lat="46.52677" lon="0.30636">
        <ele>144.4</ele>
        <time>2022-09-18T06:44:58Z</time>
      </trkpt>
      <trkpt lat="46.52683" lon="0.30666">
        <ele>144.6</ele>
        <time>2022-09-18T06:45:04Z</time>
      </trkpt>
      <trkpt lat="46.52689" lon="0.30688">
        <ele>144.4</ele>
        <time>2022-09-18T06:45:09Z</time>
      </trkpt>
      <trkpt lat="46.52694" lon="0.30706">
        <ele>144.4</ele>
        <time>2022-09-18T06:45:14Z</time>
      </trkpt>
      <trkpt lat="46.527" lon="0.30724">
        <ele>144</ele>
        <time>2022-09-18T06:45:17Z</time>
      </trkpt>
      <trkpt lat="46.52702" lon="0.30731">
        <ele>144</ele>
        <time>2022-09-18T06:45:18Z</time>
      </trkpt>
      <trkpt lat="46.52705" lon="0.30738">
        <ele>143</ele>
        <time>2022-09-18T06:45:19Z</time>
      </trkpt>
      <trkpt lat="46.52708" lon="0.30746">
        <ele>142.4</ele>
        <time>2022-09-18T06:45:20Z</time>
      </trkpt>
      <trkpt lat="46.52713" lon="0.3076">
        <ele>140.8</ele>
        <time>2022-09-18T06:45:22Z</time>
      </trkpt>
      <trkpt lat="46.52717" lon="0.30769">
        <ele>140</ele>
        <time>2022-09-18T06:45:23Z</time>
      </trkpt>
      <trkpt lat="46.5272" lon="0.30778">
        <ele>139.6</ele>
        <time>2022-09-18T06:45:24Z</time>
      </trkpt>
      <trkpt lat="46.52723" lon="0.30786">
        <ele>138.6</ele>
        <time>2022-09-18T06:45:25Z</time>
      </trkpt>
      <trkpt lat="46.52729" lon="0.30802">
        <ele>136.2</ele>
        <time>2022-09-18T06:45:27Z</time>
      </trkpt>
      <trkpt lat="46.52734" lon="0.30818">
        <ele>134.8</ele>
        <time>2022-09-18T06:45:29Z</time>
      </trkpt>
      <trkpt lat="46.52744" lon="0.30842">
        <ele>133</ele>
        <time>2022-09-18T06:45:32Z</time>
      </trkpt>
      <trkpt lat="46.52747" lon="0.3085">
        <ele>132</ele>
        <time>2022-09-18T06:45:33Z</time>
      </trkpt>
      <trkpt lat="46.52751" lon="0.30858">
        <ele>130.8</ele>
        <time>2022-09-18T06:45:34Z</time>
      </trkpt>
      <trkpt lat="46.52758" lon="0.30871">
        <ele>129.8</ele>
        <time>2022-09-18T06:45:36Z</time>
      </trkpt>
      <trkpt lat="46.5276" lon="0.30877">
        <ele>129</ele>
        <time>2022-09-18T06:45:37Z</time>
      </trkpt>
      <trkpt lat="46.52763" lon="0.30883">
        <ele>128.2</ele>
        <time>2022-09-18T06:45:38Z</time>
      </trkpt>
      <trkpt lat="46.52765" lon="0.30889">
        <ele>127.6</ele>
        <time>2022-09-18T06:45:39Z</time>
      </trkpt>
      <trkpt lat="46.52767" lon="0.30897">
        <ele>127.2</ele>
        <time>2022-09-18T06:45:40Z</time>
      </trkpt>
      <trkpt lat="46.5277" lon="0.30913">
        <ele>125.4</ele>
        <time>2022-09-18T06:45:42Z</time>
      </trkpt>
      <trkpt lat="46.52772" lon="0.30922">
        <ele>123.2</ele>
        <time>2022-09-18T06:45:43Z</time>
      </trkpt>
      <trkpt lat="46.52778" lon="0.30936">
        <ele>122</ele>
        <time>2022-09-18T06:45:45Z</time>
      </trkpt>
      <trkpt lat="46.52782" lon="0.30942">
        <ele>121.2</ele>
        <time>2022-09-18T06:45:46Z</time>
      </trkpt>
      <trkpt lat="46.52785" lon="0.30947">
        <ele>120.8</ele>
        <time>2022-09-18T06:45:47Z</time>
      </trkpt>
      <trkpt lat="46.52792" lon="0.30957">
        <ele>119.4</ele>
        <time>2022-09-18T06:45:49Z</time>
      </trkpt>
      <trkpt lat="46.52796" lon="0.30965">
        <ele>119</ele>
        <time>2022-09-18T06:45:51Z</time>
      </trkpt>
      <trkpt lat="46.52798" lon="0.3097">
        <ele>118.4</ele>
        <time>2022-09-18T06:45:52Z</time>
      </trkpt>
      <trkpt lat="46.528" lon="0.30974">
        <ele>117.8</ele>
        <time>2022-09-18T06:45:53Z</time>
      </trkpt>
      <trkpt lat="46.52802" lon="0.30979">
        <ele>117.2</ele>
        <time>2022-09-18T06:45:54Z</time>
      </trkpt>
      <trkpt lat="46.5281" lon="0.30993">
        <ele>116</ele>
        <time>2022-09-18T06:45:57Z</time>
      </trkpt>
      <trkpt lat="46.52811" lon="0.30998">
        <ele>115.4</ele>
        <time>2022-09-18T06:45:58Z</time>
      </trkpt>
      <trkpt lat="46.52812" lon="0.31003">
        <ele>114.8</ele>
        <time>2022-09-18T06:45:59Z</time>
      </trkpt>
      <trkpt lat="46.52814" lon="0.31013">
        <ele>113.8</ele>
        <time>2022-09-18T06:46:01Z</time>
      </trkpt>
      <trkpt lat="46.52819" lon="0.31026">
        <ele>113</ele>
        <time>2022-09-18T06:46:03Z</time>
      </trkpt>
      <trkpt lat="46.52821" lon="0.31032">
        <ele>112.6</ele>
        <time>2022-09-18T06:46:04Z</time>
      </trkpt>
      <trkpt lat="46.52831" lon="0.31061">
        <ele>111.4</ele>
        <time>2022-09-18T06:46:08Z</time>
      </trkpt>
      <trkpt lat="46.52833" lon="0.31066">
        <ele>111</ele>
        <time>2022-09-18T06:46:09Z</time>
      </trkpt>
      <trkpt lat="46.52837" lon="0.31081">
        <ele>110.4</ele>
        <time>2022-09-18T06:46:12Z</time>
      </trkpt>
      <trkpt lat="46.52842" lon="0.31093">
        <ele>110.2</ele>
        <time>2022-09-18T06:46:15Z</time>
      </trkpt>
      <trkpt lat="46.52845" lon="0.31107">
        <ele>110.2</ele>
        <time>2022-09-18T06:46:19Z</time>
      </trkpt>
      <trkpt lat="46.52848" lon="0.31114">
        <ele>110.4</ele>
        <time>2022-09-18T06:46:21Z</time>
      </trkpt>
      <trkpt lat="46.52849" lon="0.31118">
        <ele>110.8</ele>
        <time>2022-09-18T06:46:22Z</time>
      </trkpt>
      <trkpt lat="46.52854" lon="0.31132">
        <ele>111.2</ele>
        <time>2022-09-18T06:46:27Z</time>
      </trkpt>
      <trkpt lat="46.52856" lon="0.31134">
        <ele>111.2</ele>
        <time>2022-09-18T06:46:29Z</time>
      </trkpt>
      <trkpt lat="46.52861" lon="0.31135">
        <ele>111.2</ele>
        <time>2022-09-18T06:46:34Z</time>
      </trkpt>
      <trkpt lat="46.52861" lon="0.31134">
        <ele>111.4</ele>
        <time>2022-09-18T06:46:36Z</time>
      </trkpt>
      <trkpt lat="46.52858" lon="0.31127">
        <ele>112</ele>
        <time>2022-09-18T06:46:43Z</time>
      </trkpt>
      <trkpt lat="46.52857" lon="0.31123">
        <ele>112.2</ele>
        <time>2022-09-18T06:46:46Z</time>
      </trkpt>
      <trkpt lat="46.52856" lon="0.31122">
        <ele>112.4</ele>
        <time>2022-09-18T06:46:47Z</time>
      </trkpt>
      <trkpt lat="46.52856" lon="0.3112">
        <ele>112.6</ele>
        <time>2022-09-18T06:46:48Z</time>
      </trkpt>
      <trkpt lat="46.52855" lon="0.31116">
        <ele>112.8</ele>
        <time>2022-09-18T06:46:50Z</time>
      </trkpt>
      <trkpt lat="46.52851" lon="0.31106">
        <ele>113.2</ele>
        <time>2022-09-18T06:46:55Z</time>
      </trkpt>
      <trkpt lat="46.52849" lon="0.311">
        <ele>113.8</ele>
        <time>2022-09-18T06:46:58Z</time>
      </trkpt>
      <trkpt lat="46.52849" lon="0.31094">
        <ele>114.4</ele>
        <time>2022-09-18T06:47:01Z</time>
      </trkpt>
      <trkpt lat="46.5285" lon="0.31091">
        <ele>114.8</ele>
        <time>2022-09-18T06:47:04Z</time>
      </trkpt>
      <trkpt lat="46.52851" lon="0.31089">
        <ele>115</ele>
        <time>2022-09-18T06:47:05Z</time>
      </trkpt>
      <trkpt lat="46.5285" lon="0.31086">
        <ele>115.2</ele>
        <time>2022-09-18T06:47:06Z</time>
      </trkpt>
      <trkpt lat="46.52841" lon="0.3107">
        <ele>115.8</ele>
        <time>2022-09-18T06:47:11Z</time>
      </trkpt>
      <trkpt lat="46.52839" lon="0.31068">
        <ele>115.8</ele>
        <time>2022-09-18T06:47:12Z</time>
      </trkpt>
      <trkpt lat="46.52826" lon="0.31048">
        <ele>116.6</ele>
        <time>2022-09-18T06:47:19Z</time>
      </trkpt>
      <trkpt lat="46.52825" lon="0.31046">
        <ele>116.8</ele>
        <time>2022-09-18T06:47:20Z</time>
      </trkpt>
      <trkpt lat="46.52821" lon="0.31038">
        <ele>118</ele>
        <time>2022-09-18T06:47:24Z</time>
      </trkpt>
      <trkpt lat="46.52817" lon="0.31032">
        <ele>118.4</ele>
        <time>2022-09-18T06:47:26Z</time>
      </trkpt>
      <trkpt lat="46.52808" lon="0.31021">
        <ele>119.2</ele>
        <time>2022-09-18T06:47:30Z</time>
      </trkpt>
      <trkpt lat="46.52805" lon="0.31016">
        <ele>119.8</ele>
        <time>2022-09-18T06:47:33Z</time>
      </trkpt>
      <trkpt lat="46.52804" lon="0.31012">
        <ele>120.2</ele>
        <time>2022-09-18T06:47:35Z</time>
      </trkpt>
      <trkpt lat="46.52803" lon="0.31009">
        <ele>120.6</ele>
        <time>2022-09-18T06:47:37Z</time>
      </trkpt>
      <trkpt lat="46.528" lon="0.31004">
        <ele>121</ele>
        <time>2022-09-18T06:47:39Z</time>
      </trkpt>
      <trkpt lat="46.52798" lon="0.30999">
        <ele>121.4</ele>
        <time>2022-09-18T06:47:41Z</time>
      </trkpt>
      <trkpt lat="46.52793" lon="0.30989">
        <ele>122.6</ele>
        <time>2022-09-18T06:47:46Z</time>
      </trkpt>
      <trkpt lat="46.52788" lon="0.30978">
        <ele>123.2</ele>
        <time>2022-09-18T06:47:51Z</time>
      </trkpt>
      <trkpt lat="46.52787" lon="0.30976">
        <ele>123.6</ele>
        <time>2022-09-18T06:47:52Z</time>
      </trkpt>
      <trkpt lat="46.52782" lon="0.30964">
        <ele>124.6</ele>
        <time>2022-09-18T06:47:58Z</time>
      </trkpt>
      <trkpt lat="46.52782" lon="0.30963">
        <ele>124.8</ele>
        <time>2022-09-18T06:48:00Z</time>
      </trkpt>
      <trkpt lat="46.52782" lon="0.30962">
        <ele>124.8</ele>
        <time>2022-09-18T06:48:01Z</time>
      </trkpt>
      <trkpt lat="46.5278" lon="0.30957">
        <ele>125.2</ele>
        <time>2022-09-18T06:48:05Z</time>
      </trkpt>
      <trkpt lat="46.52778" lon="0.3095">
        <ele>125.6</ele>
        <time>2022-09-18T06:48:08Z</time>
      </trkpt>
      <trkpt lat="46.52775" lon="0.30943">
        <ele>126.8</ele>
        <time>2022-09-18T06:48:11Z</time>
      </trkpt>
      <trkpt lat="46.52773" lon="0.30934">
        <ele>128</ele>
        <time>2022-09-18T06:48:15Z</time>
      </trkpt>
      <trkpt lat="46.52772" lon="0.30929">
        <ele>128.4</ele>
        <time>2022-09-18T06:48:17Z</time>
      </trkpt>
      <trkpt lat="46.52771" lon="0.30925">
        <ele>129</ele>
        <time>2022-09-18T06:48:19Z</time>
      </trkpt>
      <trkpt lat="46.52767" lon="0.30915">
        <ele>130.2</ele>
        <time>2022-09-18T06:48:24Z</time>
      </trkpt>
      <trkpt lat="46.52765" lon="0.30909">
        <ele>130.8</ele>
        <time>2022-09-18T06:48:27Z</time>
      </trkpt>
      <trkpt lat="46.52762" lon="0.30898">
        <ele>131.4</ele>
        <time>2022-09-18T06:48:32Z</time>
      </trkpt>
      <trkpt lat="46.52759" lon="0.30887">
        <ele>132.4</ele>
        <time>2022-09-18T06:48:36Z</time>
      </trkpt>
      <trkpt lat="46.52758" lon="0.30879">
        <ele>133</ele>
        <time>2022-09-18T06:48:39Z</time>
      </trkpt>
      <trkpt lat="46.52757" lon="0.30874">
        <ele>133.8</ele>
        <time>2022-09-18T06:48:41Z</time>
      </trkpt>
      <trkpt lat="46.52754" lon="0.30864">
        <ele>134.6</ele>
        <time>2022-09-18T06:48:46Z</time>
      </trkpt>
      <trkpt lat="46.52752" lon="0.30859">
        <ele>135</ele>
        <time>2022-09-18T06:48:48Z</time>
      </trkpt>
      <trkpt lat="46.52745" lon="0.30849">
        <ele>136.2</ele>
        <time>2022-09-18T06:48:52Z</time>
      </trkpt>
      <trkpt lat="46.52743" lon="0.30847">
        <ele>136.4</ele>
        <time>2022-09-18T06:48:53Z</time>
      </trkpt>
      <trkpt lat="46.5274" lon="0.30839">
        <ele>137.2</ele>
        <time>2022-09-18T06:48:57Z</time>
      </trkpt>
      <trkpt lat="46.52738" lon="0.30833">
        <ele>137.8</ele>
        <time>2022-09-18T06:49:00Z</time>
      </trkpt>
      <trkpt lat="46.52736" lon="0.30829">
        <ele>138.6</ele>
        <time>2022-09-18T06:49:02Z</time>
      </trkpt>
      <trkpt lat="46.52735" lon="0.30826">
        <ele>139</ele>
        <time>2022-09-18T06:49:05Z</time>
      </trkpt>
      <trkpt lat="46.52733" lon="0.30821">
        <ele>140</ele>
        <time>2022-09-18T06:49:08Z</time>
      </trkpt>
      <trkpt lat="46.52733" lon="0.3082">
        <ele>140.2</ele>
        <time>2022-09-18T06:49:09Z</time>
      </trkpt>
      <trkpt lat="46.52732" lon="0.30819">
        <ele>140.4</ele>
        <time>2022-09-18T06:49:10Z</time>
      </trkpt>
      <trkpt lat="46.52729" lon="0.30814">
        <ele>141</ele>
        <time>2022-09-18T06:49:13Z</time>
      </trkpt>
      <trkpt lat="46.52724" lon="0.30805">
        <ele>142</ele>
        <time>2022-09-18T06:49:19Z</time>
      </trkpt>
      <trkpt lat="46.52721" lon="0.30804">
        <ele>142.6</ele>
        <time>2022-09-18T06:49:21Z</time>
      </trkpt>
      <trkpt lat="46.52719" lon="0.30805">
        <ele>143.6</ele>
        <time>2022-09-18T06:49:23Z</time>
      </trkpt>
      <trkpt lat="46.52719" lon="0.30805">
        <ele>143.8</ele>
        <time>2022-09-18T06:49:24Z</time>
      </trkpt>
      <trkpt lat="46.52718" lon="0.30806">
        <ele>144</ele>
        <time>2022-09-18T06:49:26Z</time>
      </trkpt>
      <trkpt lat="46.52716" lon="0.3081">
        <ele>144.4</ele>
        <time>2022-09-18T06:49:29Z</time>
      </trkpt>
      <trkpt lat="46.52715" lon="0.30812">
        <ele>144.6</ele>
        <time>2022-09-18T06:49:31Z</time>
      </trkpt>
      <trkpt lat="46.52714" lon="0.30826">
        <ele>144.6</ele>
        <time>2022-09-18T06:49:37Z</time>
      </trkpt>
      <trkpt lat="46.52715" lon="0.3083">
        <ele>144.6</ele>
        <time>2022-09-18T06:49:38Z</time>
      </trkpt>
      <trkpt lat="46.52716" lon="0.30834">
        <ele>144.4</ele>
        <time>2022-09-18T06:49:39Z</time>
      </trkpt>
      <trkpt lat="46.52721" lon="0.30857">
        <ele>143.6</ele>
        <time>2022-09-18T06:49:43Z</time>
      </trkpt>
      <trkpt lat="46.52723" lon="0.30865">
        <ele>143.2</ele>
        <time>2022-09-18T06:49:44Z</time>
      </trkpt>
      <trkpt lat="46.52725" lon="0.30872">
        <ele>143</ele>
        <time>2022-09-18T06:49:45Z</time>
      </trkpt>
      <trkpt lat="46.52727" lon="0.30886">
        <ele>142.8</ele>
        <time>2022-09-18T06:49:47Z</time>
      </trkpt>
      <trkpt lat="46.52728" lon="0.30892">
        <ele>142.2</ele>
        <time>2022-09-18T06:49:48Z</time>
      </trkpt>
      <trkpt lat="46.5273" lon="0.30899">
        <ele>141.8</ele>
        <time>2022-09-18T06:49:49Z</time>
      </trkpt>
      <trkpt lat="46.52732" lon="0.30906">
        <ele>141.6</ele>
        <time>2022-09-18T06:49:50Z</time>
      </trkpt>
      <trkpt lat="46.52733" lon="0.3092">
        <ele>141.2</ele>
        <time>2022-09-18T06:49:52Z</time>
      </trkpt>
      <trkpt lat="46.52734" lon="0.30926">
        <ele>140.8</ele>
        <time>2022-09-18T06:49:53Z</time>
      </trkpt>
      <trkpt lat="46.52736" lon="0.30954">
        <ele>140.4</ele>
        <time>2022-09-18T06:49:58Z</time>
      </trkpt>
      <trkpt lat="46.52739" lon="0.30986">
        <ele>140.2</ele>
        <time>2022-09-18T06:50:04Z</time>
      </trkpt>
      <trkpt lat="46.52741" lon="0.30998">
        <ele>140.2</ele>
        <time>2022-09-18T06:50:06Z</time>
      </trkpt>
      <trkpt lat="46.52743" lon="0.31009">
        <ele>139.8</ele>
        <time>2022-09-18T06:50:08Z</time>
      </trkpt>
      <trkpt lat="46.52744" lon="0.31014">
        <ele>139.6</ele>
        <time>2022-09-18T06:50:09Z</time>
      </trkpt>
      <trkpt lat="46.52745" lon="0.3102">
        <ele>139.4</ele>
        <time>2022-09-18T06:50:10Z</time>
      </trkpt>
      <trkpt lat="46.52749" lon="0.3104">
        <ele>139.2</ele>
        <time>2022-09-18T06:50:13Z</time>
      </trkpt>
      <trkpt lat="46.5275" lon="0.31064">
        <ele>140</ele>
        <time>2022-09-18T06:50:17Z</time>
      </trkpt>
      <trkpt lat="46.52751" lon="0.31075">
        <ele>140.8</ele>
        <time>2022-09-18T06:50:19Z</time>
      </trkpt>
      <trkpt lat="46.52753" lon="0.3109">
        <ele>141.8</ele>
        <time>2022-09-18T06:50:22Z</time>
      </trkpt>
      <trkpt lat="46.52754" lon="0.31094">
        <ele>142</ele>
        <time>2022-09-18T06:50:23Z</time>
      </trkpt>
      <trkpt lat="46.52757" lon="0.3111">
        <ele>142.8</ele>
        <time>2022-09-18T06:50:28Z</time>
      </trkpt>
      <trkpt lat="46.52757" lon="0.31113">
        <ele>143.2</ele>
        <time>2022-09-18T06:50:29Z</time>
      </trkpt>
      <trkpt lat="46.52757" lon="0.31124">
        <ele>144.2</ele>
        <time>2022-09-18T06:50:33Z</time>
      </trkpt>
      <trkpt lat="46.52756" lon="0.31126">
        <ele>144.4</ele>
        <time>2022-09-18T06:50:34Z</time>
      </trkpt>
      <trkpt lat="46.52757" lon="0.31136">
        <ele>145.2</ele>
        <time>2022-09-18T06:50:37Z</time>
      </trkpt>
      <trkpt lat="46.52759" lon="0.31149">
        <ele>145.8</ele>
        <time>2022-09-18T06:50:41Z</time>
      </trkpt>
      <trkpt lat="46.52762" lon="0.31172">
        <ele>146.2</ele>
        <time>2022-09-18T06:50:47Z</time>
      </trkpt>
      <trkpt lat="46.52764" lon="0.31177">
        <ele>146.4</ele>
        <time>2022-09-18T06:50:48Z</time>
      </trkpt>
      <trkpt lat="46.52768" lon="0.31187">
        <ele>146.8</ele>
        <time>2022-09-18T06:50:51Z</time>
      </trkpt>
      <trkpt lat="46.52769" lon="0.31196">
        <ele>147</ele>
        <time>2022-09-18T06:50:54Z</time>
      </trkpt>
      <trkpt lat="46.5277" lon="0.31205">
        <ele>147.4</ele>
        <time>2022-09-18T06:50:56Z</time>
      </trkpt>
      <trkpt lat="46.52774" lon="0.31216">
        <ele>147.8</ele>
        <time>2022-09-18T06:50:59Z</time>
      </trkpt>
      <trkpt lat="46.52777" lon="0.31218">
        <ele>148</ele>
        <time>2022-09-18T06:51:00Z</time>
      </trkpt>
      <trkpt lat="46.52783" lon="0.3122">
        <ele>148</ele>
        <time>2022-09-18T06:51:02Z</time>
      </trkpt>
      <trkpt lat="46.52788" lon="0.31218">
        <ele>147.2</ele>
        <time>2022-09-18T06:51:04Z</time>
      </trkpt>
      <trkpt lat="46.5279" lon="0.31218">
        <ele>146.4</ele>
        <time>2022-09-18T06:51:05Z</time>
      </trkpt>
      <trkpt lat="46.52796" lon="0.31218">
        <ele>144.8</ele>
        <time>2022-09-18T06:51:07Z</time>
      </trkpt>
      <trkpt lat="46.52801" lon="0.3122">
        <ele>143.2</ele>
        <time>2022-09-18T06:51:09Z</time>
      </trkpt>
      <trkpt lat="46.52808" lon="0.31224">
        <ele>141.8</ele>
        <time>2022-09-18T06:51:11Z</time>
      </trkpt>
      <trkpt lat="46.52815" lon="0.31231">
        <ele>141.2</ele>
        <time>2022-09-18T06:51:13Z</time>
      </trkpt>
      <trkpt lat="46.52819" lon="0.31236">
        <ele>140.8</ele>
        <time>2022-09-18T06:51:14Z</time>
      </trkpt>
      <trkpt lat="46.52826" lon="0.31244">
        <ele>140.8</ele>
        <time>2022-09-18T06:51:16Z</time>
      </trkpt>
      <trkpt lat="46.5283" lon="0.31249">
        <ele>140.8</ele>
        <time>2022-09-18T06:51:18Z</time>
      </trkpt>
      <trkpt lat="46.52837" lon="0.31263">
        <ele>141.4</ele>
        <time>2022-09-18T06:51:23Z</time>
      </trkpt>
      <trkpt lat="46.52844" lon="0.31277">
        <ele>142</ele>
        <time>2022-09-18T06:51:26Z</time>
      </trkpt>
      <trkpt lat="46.52849" lon="0.31289">
        <ele>142.8</ele>
        <time>2022-09-18T06:51:29Z</time>
      </trkpt>
      <trkpt lat="46.52853" lon="0.31296">
        <ele>143.2</ele>
        <time>2022-09-18T06:51:31Z</time>
      </trkpt>
      <trkpt lat="46.5286" lon="0.31309">
        <ele>143.6</ele>
        <time>2022-09-18T06:51:34Z</time>
      </trkpt>
      <trkpt lat="46.52877" lon="0.31334">
        <ele>143.8</ele>
        <time>2022-09-18T06:51:40Z</time>
      </trkpt>
      <trkpt lat="46.52885" lon="0.31344">
        <ele>143.6</ele>
        <time>2022-09-18T06:51:43Z</time>
      </trkpt>
      <trkpt lat="46.52887" lon="0.31353">
        <ele>143.8</ele>
        <time>2022-09-18T06:51:45Z</time>
      </trkpt>
      <trkpt lat="46.52898" lon="0.31377">
        <ele>143.8</ele>
        <time>2022-09-18T06:51:50Z</time>
      </trkpt>
      <trkpt lat="46.52904" lon="0.31386">
        <ele>143.2</ele>
        <time>2022-09-18T06:51:52Z</time>
      </trkpt>
      <trkpt lat="46.52919" lon="0.31406">
        <ele>142</ele>
        <time>2022-09-18T06:51:56Z</time>
      </trkpt>
      <trkpt lat="46.52923" lon="0.31412">
        <ele>141.4</ele>
        <time>2022-09-18T06:51:57Z</time>
      </trkpt>
      <trkpt lat="46.52927" lon="0.31416">
        <ele>140.8</ele>
        <time>2022-09-18T06:51:58Z</time>
      </trkpt>
      <trkpt lat="46.52937" lon="0.31425">
        <ele>139.4</ele>
        <time>2022-09-18T06:52:00Z</time>
      </trkpt>
      <trkpt lat="46.5294" lon="0.3143">
        <ele>138.6</ele>
        <time>2022-09-18T06:52:01Z</time>
      </trkpt>
      <trkpt lat="46.52943" lon="0.31435">
        <ele>138.2</ele>
        <time>2022-09-18T06:52:02Z</time>
      </trkpt>
      <trkpt lat="46.52945" lon="0.3144">
        <ele>137.6</ele>
        <time>2022-09-18T06:52:03Z</time>
      </trkpt>
      <trkpt lat="46.52948" lon="0.3145">
        <ele>137.2</ele>
        <time>2022-09-18T06:52:05Z</time>
      </trkpt>
      <trkpt lat="46.52958" lon="0.31476">
        <ele>136.4</ele>
        <time>2022-09-18T06:52:10Z</time>
      </trkpt>
      <trkpt lat="46.52958" lon="0.3148">
        <ele>136.2</ele>
        <time>2022-09-18T06:52:11Z</time>
      </trkpt>
      <trkpt lat="46.52959" lon="0.31484">
        <ele>136</ele>
        <time>2022-09-18T06:52:12Z</time>
      </trkpt>
      <trkpt lat="46.52964" lon="0.31503">
        <ele>135.8</ele>
        <time>2022-09-18T06:52:17Z</time>
      </trkpt>
      <trkpt lat="46.52969" lon="0.31517">
        <ele>136.4</ele>
        <time>2022-09-18T06:52:21Z</time>
      </trkpt>
      <trkpt lat="46.5297" lon="0.31519">
        <ele>136.6</ele>
        <time>2022-09-18T06:52:22Z</time>
      </trkpt>
      <trkpt lat="46.52973" lon="0.31525">
        <ele>136.8</ele>
        <time>2022-09-18T06:52:24Z</time>
      </trkpt>
      <trkpt lat="46.52975" lon="0.31539">
        <ele>136.6</ele>
        <time>2022-09-18T06:52:28Z</time>
      </trkpt>
      <trkpt lat="46.52982" lon="0.31561">
        <ele>136.6</ele>
        <time>2022-09-18T06:52:34Z</time>
      </trkpt>
      <trkpt lat="46.52987" lon="0.3158">
        <ele>135.6</ele>
        <time>2022-09-18T06:52:40Z</time>
      </trkpt>
      <trkpt lat="46.52987" lon="0.3159">
        <ele>135.4</ele>
        <time>2022-09-18T06:52:44Z</time>
      </trkpt>
      <trkpt lat="46.52988" lon="0.31596">
        <ele>134.8</ele>
        <time>2022-09-18T06:52:46Z</time>
      </trkpt>
      <trkpt lat="46.5299" lon="0.31602">
        <ele>134.2</ele>
        <time>2022-09-18T06:52:48Z</time>
      </trkpt>
      <trkpt lat="46.5299" lon="0.31606">
        <ele>133.8</ele>
        <time>2022-09-18T06:52:49Z</time>
      </trkpt>
      <trkpt lat="46.52992" lon="0.31617">
        <ele>133</ele>
        <time>2022-09-18T06:52:52Z</time>
      </trkpt>
      <trkpt lat="46.52993" lon="0.3162">
        <ele>132.8</ele>
        <time>2022-09-18T06:52:53Z</time>
      </trkpt>
      <trkpt lat="46.52999" lon="0.31629">
        <ele>131.8</ele>
        <time>2022-09-18T06:52:56Z</time>
      </trkpt>
      <trkpt lat="46.53001" lon="0.3163">
        <ele>131.4</ele>
        <time>2022-09-18T06:52:57Z</time>
      </trkpt>
      <trkpt lat="46.53002" lon="0.31632">
        <ele>131.2</ele>
        <time>2022-09-18T06:52:58Z</time>
      </trkpt>
      <trkpt lat="46.53005" lon="0.31634">
        <ele>130.4</ele>
        <time>2022-09-18T06:53:00Z</time>
      </trkpt>
      <trkpt lat="46.53007" lon="0.31638">
        <ele>129.2</ele>
        <time>2022-09-18T06:53:03Z</time>
      </trkpt>
      <trkpt lat="46.53007" lon="0.31639">
        <ele>128.8</ele>
        <time>2022-09-18T06:53:04Z</time>
      </trkpt>
      <trkpt lat="46.53013" lon="0.31651">
        <ele>128</ele>
        <time>2022-09-18T06:53:11Z</time>
      </trkpt>
      <trkpt lat="46.53017" lon="0.31655">
        <ele>127.2</ele>
        <time>2022-09-18T06:53:13Z</time>
      </trkpt>
      <trkpt lat="46.53018" lon="0.31657">
        <ele>126.6</ele>
        <time>2022-09-18T06:53:14Z</time>
      </trkpt>
      <trkpt lat="46.53021" lon="0.3166">
        <ele>125.6</ele>
        <time>2022-09-18T06:53:16Z</time>
      </trkpt>
      <trkpt lat="46.53021" lon="0.31662">
        <ele>125</ele>
        <time>2022-09-18T06:53:17Z</time>
      </trkpt>
      <trkpt lat="46.53021" lon="0.31665">
        <ele>124</ele>
        <time>2022-09-18T06:53:19Z</time>
      </trkpt>
      <trkpt lat="46.53021" lon="0.31668">
        <ele>123.8</ele>
        <time>2022-09-18T06:53:20Z</time>
      </trkpt>
      <trkpt lat="46.53023" lon="0.31677">
        <ele>122.8</ele>
        <time>2022-09-18T06:53:23Z</time>
      </trkpt>
      <trkpt lat="46.53024" lon="0.31681">
        <ele>122</ele>
        <time>2022-09-18T06:53:24Z</time>
      </trkpt>
      <trkpt lat="46.53024" lon="0.31684">
        <ele>121</ele>
        <time>2022-09-18T06:53:25Z</time>
      </trkpt>
      <trkpt lat="46.53025" lon="0.31689">
        <ele>119.8</ele>
        <time>2022-09-18T06:53:27Z</time>
      </trkpt>
      <trkpt lat="46.53024" lon="0.31694">
        <ele>119.2</ele>
        <time>2022-09-18T06:53:29Z</time>
      </trkpt>
      <trkpt lat="46.53026" lon="0.31703">
        <ele>118.8</ele>
        <time>2022-09-18T06:53:32Z</time>
      </trkpt>
      <trkpt lat="46.53029" lon="0.31711">
        <ele>118.4</ele>
        <time>2022-09-18T06:53:34Z</time>
      </trkpt>
      <trkpt lat="46.53032" lon="0.31722">
        <ele>117.8</ele>
        <time>2022-09-18T06:53:37Z</time>
      </trkpt>
      <trkpt lat="46.53033" lon="0.31725">
        <ele>116.8</ele>
        <time>2022-09-18T06:53:38Z</time>
      </trkpt>
      <trkpt lat="46.53033" lon="0.31729">
        <ele>116.2</ele>
        <time>2022-09-18T06:53:39Z</time>
      </trkpt>
      <trkpt lat="46.53033" lon="0.31738">
        <ele>115.4</ele>
        <time>2022-09-18T06:53:41Z</time>
      </trkpt>
      <trkpt lat="46.53034" lon="0.31742">
        <ele>115</ele>
        <time>2022-09-18T06:53:42Z</time>
      </trkpt>
      <trkpt lat="46.53037" lon="0.31751">
        <ele>114.2</ele>
        <time>2022-09-18T06:53:45Z</time>
      </trkpt>
      <trkpt lat="46.53038" lon="0.31759">
        <ele>113.8</ele>
        <time>2022-09-18T06:53:47Z</time>
      </trkpt>
      <trkpt lat="46.53039" lon="0.31771">
        <ele>112.6</ele>
        <time>2022-09-18T06:53:50Z</time>
      </trkpt>
      <trkpt lat="46.53039" lon="0.31775">
        <ele>112.4</ele>
        <time>2022-09-18T06:53:51Z</time>
      </trkpt>
      <trkpt lat="46.53041" lon="0.31791">
        <ele>111.6</ele>
        <time>2022-09-18T06:53:56Z</time>
      </trkpt>
      <trkpt lat="46.53041" lon="0.31793">
        <ele>111.4</ele>
        <time>2022-09-18T06:53:57Z</time>
      </trkpt>
      <trkpt lat="46.53041" lon="0.31801">
        <ele>110.4</ele>
        <time>2022-09-18T06:54:01Z</time>
      </trkpt>
      <trkpt lat="46.53041" lon="0.31804">
        <ele>109.8</ele>
        <time>2022-09-18T06:54:03Z</time>
      </trkpt>
      <trkpt lat="46.53042" lon="0.31808">
        <ele>109.6</ele>
        <time>2022-09-18T06:54:05Z</time>
      </trkpt>
      <trkpt lat="46.53044" lon="0.31814">
        <ele>109.2</ele>
        <time>2022-09-18T06:54:09Z</time>
      </trkpt>
      <trkpt lat="46.53045" lon="0.31822">
        <ele>108.2</ele>
        <time>2022-09-18T06:54:14Z</time>
      </trkpt>
      <trkpt lat="46.53046" lon="0.31827">
        <ele>107.6</ele>
        <time>2022-09-18T06:54:17Z</time>
      </trkpt>
      <trkpt lat="46.53046" lon="0.31836">
        <ele>107.4</ele>
        <time>2022-09-18T06:54:21Z</time>
      </trkpt>
      <trkpt lat="46.53044" lon="0.31838">
        <ele>107.2</ele>
        <time>2022-09-18T06:54:25Z</time>
      </trkpt>
      <trkpt lat="46.53043" lon="0.31837">
        <ele>108.2</ele>
        <time>2022-09-18T06:54:27Z</time>
      </trkpt>
      <trkpt lat="46.5304" lon="0.31835">
        <ele>109.2</ele>
        <time>2022-09-18T06:54:30Z</time>
      </trkpt>
      <trkpt lat="46.53037" lon="0.31833">
        <ele>110.4</ele>
        <time>2022-09-18T06:54:32Z</time>
      </trkpt>
      <trkpt lat="46.53028" lon="0.31827">
        <ele>111.2</ele>
        <time>2022-09-18T06:54:36Z</time>
      </trkpt>
      <trkpt lat="46.53023" lon="0.31825">
        <ele>111.6</ele>
        <time>2022-09-18T06:54:38Z</time>
      </trkpt>
      <trkpt lat="46.53014" lon="0.31824">
        <ele>112.2</ele>
        <time>2022-09-18T06:54:42Z</time>
      </trkpt>
      <trkpt lat="46.52996" lon="0.3182">
        <ele>112.6</ele>
        <time>2022-09-18T06:54:48Z</time>
      </trkpt>
      <trkpt lat="46.52993" lon="0.31819">
        <ele>112.8</ele>
        <time>2022-09-18T06:54:49Z</time>
      </trkpt>
      <trkpt lat="46.52973" lon="0.31812">
        <ele>113.8</ele>
        <time>2022-09-18T06:54:55Z</time>
      </trkpt>
      <trkpt lat="46.5297" lon="0.3181">
        <ele>114</ele>
        <time>2022-09-18T06:54:56Z</time>
      </trkpt>
      <trkpt lat="46.52957" lon="0.31807">
        <ele>115</ele>
        <time>2022-09-18T06:55:00Z</time>
      </trkpt>
      <trkpt lat="46.52954" lon="0.31806">
        <ele>115</ele>
        <time>2022-09-18T06:55:01Z</time>
      </trkpt>
      <trkpt lat="46.52938" lon="0.31799">
        <ele>116</ele>
        <time>2022-09-18T06:55:06Z</time>
      </trkpt>
      <trkpt lat="46.52928" lon="0.31793">
        <ele>117.2</ele>
        <time>2022-09-18T06:55:10Z</time>
      </trkpt>
      <trkpt lat="46.52923" lon="0.3179">
        <ele>117.6</ele>
        <time>2022-09-18T06:55:12Z</time>
      </trkpt>
      <trkpt lat="46.52916" lon="0.31789">
        <ele>118.2</ele>
        <time>2022-09-18T06:55:14Z</time>
      </trkpt>
      <trkpt lat="46.52901" lon="0.31785">
        <ele>118.8</ele>
        <time>2022-09-18T06:55:19Z</time>
      </trkpt>
      <trkpt lat="46.52884" lon="0.31785">
        <ele>119.2</ele>
        <time>2022-09-18T06:55:25Z</time>
      </trkpt>
      <trkpt lat="46.52881" lon="0.31785">
        <ele>119.2</ele>
        <time>2022-09-18T06:55:26Z</time>
      </trkpt>
      <trkpt lat="46.52864" lon="0.31784">
        <ele>120.4</ele>
        <time>2022-09-18T06:55:32Z</time>
      </trkpt>
      <trkpt lat="46.52846" lon="0.31784">
        <ele>121.6</ele>
        <time>2022-09-18T06:55:38Z</time>
      </trkpt>
      <trkpt lat="46.52824" lon="0.31784">
        <ele>121.8</ele>
        <time>2022-09-18T06:55:44Z</time>
      </trkpt>
      <trkpt lat="46.52805" lon="0.31787">
        <ele>122.6</ele>
        <time>2022-09-18T06:55:49Z</time>
      </trkpt>
      <trkpt lat="46.52799" lon="0.3179">
        <ele>122.8</ele>
        <time>2022-09-18T06:55:51Z</time>
      </trkpt>
      <trkpt lat="46.5279" lon="0.31798">
        <ele>123</ele>
        <time>2022-09-18T06:55:56Z</time>
      </trkpt>
      <trkpt lat="46.52786" lon="0.31804">
        <ele>123.6</ele>
        <time>2022-09-18T06:55:59Z</time>
      </trkpt>
      <trkpt lat="46.52784" lon="0.31807">
        <ele>124</ele>
        <time>2022-09-18T06:56:00Z</time>
      </trkpt>
      <trkpt lat="46.5278" lon="0.31808">
        <ele>124.4</ele>
        <time>2022-09-18T06:56:02Z</time>
      </trkpt>
      <trkpt lat="46.52776" lon="0.31806">
        <ele>124.8</ele>
        <time>2022-09-18T06:56:04Z</time>
      </trkpt>
      <trkpt lat="46.52774" lon="0.31801">
        <ele>125</ele>
        <time>2022-09-18T06:56:07Z</time>
      </trkpt>
      <trkpt lat="46.52772" lon="0.31795">
        <ele>124.8</ele>
        <time>2022-09-18T06:56:09Z</time>
      </trkpt>
      <trkpt lat="46.52769" lon="0.31789">
        <ele>124.6</ele>
        <time>2022-09-18T06:56:11Z</time>
      </trkpt>
      <trkpt lat="46.52764" lon="0.31785">
        <ele>124.6</ele>
        <time>2022-09-18T06:56:13Z</time>
      </trkpt>
      <trkpt lat="46.52751" lon="0.31773">
        <ele>124.6</ele>
        <time>2022-09-18T06:56:17Z</time>
      </trkpt>
      <trkpt lat="46.52742" lon="0.31765">
        <ele>125.2</ele>
        <time>2022-09-18T06:56:20Z</time>
      </trkpt>
      <trkpt lat="46.52731" lon="0.31757">
        <ele>126</ele>
        <time>2022-09-18T06:56:23Z</time>
      </trkpt>
      <trkpt lat="46.5272" lon="0.3175">
        <ele>126.6</ele>
        <time>2022-09-18T06:56:26Z</time>
      </trkpt>
      <trkpt lat="46.52711" lon="0.31739">
        <ele>127</ele>
        <time>2022-09-18T06:56:30Z</time>
      </trkpt>
      <trkpt lat="46.52708" lon="0.31735">
        <ele>127</ele>
        <time>2022-09-18T06:56:31Z</time>
      </trkpt>
      <trkpt lat="46.52696" lon="0.31726">
        <ele>127.4</ele>
        <time>2022-09-18T06:56:35Z</time>
      </trkpt>
      <trkpt lat="46.52684" lon="0.3171">
        <ele>127.8</ele>
        <time>2022-09-18T06:56:41Z</time>
      </trkpt>
      <trkpt lat="46.52677" lon="0.31703">
        <ele>128.2</ele>
        <time>2022-09-18T06:56:44Z</time>
      </trkpt>
      <trkpt lat="46.52669" lon="0.31696">
        <ele>128.8</ele>
        <time>2022-09-18T06:56:47Z</time>
      </trkpt>
      <trkpt lat="46.52662" lon="0.31689">
        <ele>129.2</ele>
        <time>2022-09-18T06:56:50Z</time>
      </trkpt>
      <trkpt lat="46.52645" lon="0.31673">
        <ele>130</ele>
        <time>2022-09-18T06:56:54Z</time>
      </trkpt>
      <trkpt lat="46.52629" lon="0.31659">
        <ele>130.4</ele>
        <time>2022-09-18T06:56:58Z</time>
      </trkpt>
      <trkpt lat="46.52621" lon="0.31651">
        <ele>130.4</ele>
        <time>2022-09-18T06:57:01Z</time>
      </trkpt>
      <trkpt lat="46.52605" lon="0.31639">
        <ele>131.2</ele>
        <time>2022-09-18T06:57:07Z</time>
      </trkpt>
      <trkpt lat="46.52595" lon="0.31632">
        <ele>131.4</ele>
        <time>2022-09-18T06:57:09Z</time>
      </trkpt>
      <trkpt lat="46.52583" lon="0.31624">
        <ele>132.2</ele>
        <time>2022-09-18T06:57:12Z</time>
      </trkpt>
      <trkpt lat="46.52579" lon="0.31621">
        <ele>132.4</ele>
        <time>2022-09-18T06:57:14Z</time>
      </trkpt>
      <trkpt lat="46.52573" lon="0.31616">
        <ele>133</ele>
        <time>2022-09-18T06:57:17Z</time>
      </trkpt>
      <trkpt lat="46.5257" lon="0.31613">
        <ele>133.6</ele>
        <time>2022-09-18T06:57:19Z</time>
      </trkpt>
      <trkpt lat="46.5256" lon="0.31603">
        <ele>134.6</ele>
        <time>2022-09-18T06:57:23Z</time>
      </trkpt>
      <trkpt lat="46.52557" lon="0.31601">
        <ele>135</ele>
        <time>2022-09-18T06:57:24Z</time>
      </trkpt>
      <trkpt lat="46.52544" lon="0.31589">
        <ele>135.8</ele>
        <time>2022-09-18T06:57:30Z</time>
      </trkpt>
      <trkpt lat="46.52541" lon="0.31588">
        <ele>135.8</ele>
        <time>2022-09-18T06:57:31Z</time>
      </trkpt>
      <trkpt lat="46.52537" lon="0.31591">
        <ele>135.8</ele>
        <time>2022-09-18T06:57:33Z</time>
      </trkpt>
      <trkpt lat="46.52536" lon="0.31595">
        <ele>135.8</ele>
        <time>2022-09-18T06:57:35Z</time>
      </trkpt>
      <trkpt lat="46.52535" lon="0.31596">
        <ele>135.6</ele>
        <time>2022-09-18T06:57:36Z</time>
      </trkpt>
      <trkpt lat="46.5253" lon="0.31605">
        <ele>137</ele>
        <time>2022-09-18T06:57:41Z</time>
      </trkpt>
      <trkpt lat="46.52528" lon="0.3161">
        <ele>137.6</ele>
        <time>2022-09-18T06:57:43Z</time>
      </trkpt>
      <trkpt lat="46.52528" lon="0.31613">
        <ele>138.2</ele>
        <time>2022-09-18T06:57:44Z</time>
      </trkpt>
      <trkpt lat="46.52526" lon="0.31621">
        <ele>139.4</ele>
        <time>2022-09-18T06:57:48Z</time>
      </trkpt>
      <trkpt lat="46.52525" lon="0.31622">
        <ele>139.4</ele>
        <time>2022-09-18T06:57:49Z</time>
      </trkpt>
      <trkpt lat="46.52525" lon="0.31635">
        <ele>140.4</ele>
        <time>2022-09-18T06:57:53Z</time>
      </trkpt>
      <trkpt lat="46.52526" lon="0.31644">
        <ele>141.2</ele>
        <time>2022-09-18T06:57:56Z</time>
      </trkpt>
      <trkpt lat="46.52526" lon="0.3165">
        <ele>141.6</ele>
        <time>2022-09-18T06:57:58Z</time>
      </trkpt>
      <trkpt lat="46.52527" lon="0.31659">
        <ele>142</ele>
        <time>2022-09-18T06:58:01Z</time>
      </trkpt>
      <trkpt lat="46.52526" lon="0.31664">
        <ele>142.6</ele>
        <time>2022-09-18T06:58:03Z</time>
      </trkpt>
      <trkpt lat="46.52528" lon="0.31676">
        <ele>143.4</ele>
        <time>2022-09-18T06:58:07Z</time>
      </trkpt>
      <trkpt lat="46.52531" lon="0.31681">
        <ele>143.6</ele>
        <time>2022-09-18T06:58:09Z</time>
      </trkpt>
      <trkpt lat="46.52538" lon="0.31689">
        <ele>143.8</ele>
        <time>2022-09-18T06:58:12Z</time>
      </trkpt>
      <trkpt lat="46.52547" lon="0.31712">
        <ele>144</ele>
        <time>2022-09-18T06:58:19Z</time>
      </trkpt>
      <trkpt lat="46.52554" lon="0.31726">
        <ele>144</ele>
        <time>2022-09-18T06:58:23Z</time>
      </trkpt>
      <trkpt lat="46.52558" lon="0.31734">
        <ele>143.8</ele>
        <time>2022-09-18T06:58:25Z</time>
      </trkpt>
      <trkpt lat="46.52566" lon="0.31754">
        <ele>143.2</ele>
        <time>2022-09-18T06:58:29Z</time>
      </trkpt>
      <trkpt lat="46.52569" lon="0.3176">
        <ele>143</ele>
        <time>2022-09-18T06:58:30Z</time>
      </trkpt>
      <trkpt lat="46.52572" lon="0.31766">
        <ele>142.8</ele>
        <time>2022-09-18T06:58:31Z</time>
      </trkpt>
      <trkpt lat="46.52574" lon="0.31772">
        <ele>142.2</ele>
        <time>2022-09-18T06:58:32Z</time>
      </trkpt>
      <trkpt lat="46.52578" lon="0.31785">
        <ele>141.2</ele>
        <time>2022-09-18T06:58:34Z</time>
      </trkpt>
      <trkpt lat="46.5258" lon="0.31789">
        <ele>141</ele>
        <time>2022-09-18T06:58:35Z</time>
      </trkpt>
      <trkpt lat="46.52583" lon="0.31793">
        <ele>140.6</ele>
        <time>2022-09-18T06:58:36Z</time>
      </trkpt>
      <trkpt lat="46.52589" lon="0.31804">
        <ele>140.2</ele>
        <time>2022-09-18T06:58:38Z</time>
      </trkpt>
      <trkpt lat="46.52597" lon="0.31821">
        <ele>141.2</ele>
        <time>2022-09-18T06:58:41Z</time>
      </trkpt>
      <trkpt lat="46.526" lon="0.31825">
        <ele>141.6</ele>
        <time>2022-09-18T06:58:42Z</time>
      </trkpt>
      <trkpt lat="46.52605" lon="0.31839">
        <ele>142.4</ele>
        <time>2022-09-18T06:58:45Z</time>
      </trkpt>
      <trkpt lat="46.52607" lon="0.31844">
        <ele>142.6</ele>
        <time>2022-09-18T06:58:46Z</time>
      </trkpt>
      <trkpt lat="46.52624" lon="0.31883">
        <ele>143.6</ele>
        <time>2022-09-18T06:58:54Z</time>
      </trkpt>
      <trkpt lat="46.52636" lon="0.31914">
        <ele>144.4</ele>
        <time>2022-09-18T06:59:00Z</time>
      </trkpt>
      <trkpt lat="46.52636" lon="0.31919">
        <ele>144.6</ele>
        <time>2022-09-18T06:59:01Z</time>
      </trkpt>
      <trkpt lat="46.52634" lon="0.31933">
        <ele>145.2</ele>
        <time>2022-09-18T06:59:05Z</time>
      </trkpt>
      <trkpt lat="46.5263" lon="0.3195">
        <ele>145.8</ele>
        <time>2022-09-18T06:59:09Z</time>
      </trkpt>
      <trkpt lat="46.52628" lon="0.31958">
        <ele>146.2</ele>
        <time>2022-09-18T06:59:11Z</time>
      </trkpt>
      <trkpt lat="46.52623" lon="0.31973">
        <ele>147</ele>
        <time>2022-09-18T06:59:15Z</time>
      </trkpt>
      <trkpt lat="46.52623" lon="0.31981">
        <ele>147.4</ele>
        <time>2022-09-18T06:59:17Z</time>
      </trkpt>
      <trkpt lat="46.52619" lon="0.31999">
        <ele>147.8</ele>
        <time>2022-09-18T06:59:22Z</time>
      </trkpt>
      <trkpt lat="46.52618" lon="0.32003">
        <ele>148</ele>
        <time>2022-09-18T06:59:23Z</time>
      </trkpt>
      <trkpt lat="46.52613" lon="0.32022">
        <ele>148.8</ele>
        <time>2022-09-18T06:59:28Z</time>
      </trkpt>
      <trkpt lat="46.52612" lon="0.32031">
        <ele>149</ele>
        <time>2022-09-18T06:59:30Z</time>
      </trkpt>
      <trkpt lat="46.52608" lon="0.32048">
        <ele>149.6</ele>
        <time>2022-09-18T06:59:34Z</time>
      </trkpt>
      <trkpt lat="46.52605" lon="0.32068">
        <ele>149.8</ele>
        <time>2022-09-18T06:59:39Z</time>
      </trkpt>
      <trkpt lat="46.52602" lon="0.3208">
        <ele>150</ele>
        <time>2022-09-18T06:59:42Z</time>
      </trkpt>
      <trkpt lat="46.526" lon="0.32083">
        <ele>150</ele>
        <time>2022-09-18T06:59:43Z</time>
      </trkpt>
      <trkpt lat="46.52597" lon="0.32085">
        <ele>150</ele>
        <time>2022-09-18T06:59:44Z</time>
      </trkpt>
      <trkpt lat="46.52572" lon="0.32095">
        <ele>150.4</ele>
        <time>2022-09-18T06:59:52Z</time>
      </trkpt>
      <trkpt lat="46.52553" lon="0.32103">
        <ele>150.8</ele>
        <time>2022-09-18T06:59:57Z</time>
      </trkpt>
      <trkpt lat="46.52547" lon="0.3211">
        <ele>151</ele>
        <time>2022-09-18T06:59:59Z</time>
      </trkpt>
      <trkpt lat="46.52545" lon="0.32115">
        <ele>151</ele>
        <time>2022-09-18T07:00:00Z</time>
      </trkpt>
      <trkpt lat="46.52544" lon="0.3212">
        <ele>151.2</ele>
        <time>2022-09-18T07:00:01Z</time>
      </trkpt>
      <trkpt lat="46.52541" lon="0.32136">
        <ele>151.6</ele>
        <time>2022-09-18T07:00:04Z</time>
      </trkpt>
      <trkpt lat="46.52538" lon="0.32139">
        <ele>151.6</ele>
        <time>2022-09-18T07:00:05Z</time>
      </trkpt>
      <trkpt lat="46.5253" lon="0.32145">
        <ele>151.6</ele>
        <time>2022-09-18T07:00:07Z</time>
      </trkpt>
      <trkpt lat="46.52526" lon="0.32154">
        <ele>151.2</ele>
        <time>2022-09-18T07:00:09Z</time>
      </trkpt>
      <trkpt lat="46.52518" lon="0.32185">
        <ele>151</ele>
        <time>2022-09-18T07:00:13Z</time>
      </trkpt>
      <trkpt lat="46.52518" lon="0.32191">
        <ele>151.2</ele>
        <time>2022-09-18T07:00:15Z</time>
      </trkpt>
      <trkpt lat="46.5252" lon="0.32199">
        <ele>151.4</ele>
        <time>2022-09-18T07:00:17Z</time>
      </trkpt>
      <trkpt lat="46.52522" lon="0.32201">
        <ele>151.2</ele>
        <time>2022-09-18T07:00:18Z</time>
      </trkpt>
      <trkpt lat="46.52528" lon="0.32205">
        <ele>150.6</ele>
        <time>2022-09-18T07:00:22Z</time>
      </trkpt>
      <trkpt lat="46.52538" lon="0.32212">
        <ele>150.4</ele>
        <time>2022-09-18T07:00:26Z</time>
      </trkpt>
      <trkpt lat="46.5254" lon="0.32215">
        <ele>150.4</ele>
        <time>2022-09-18T07:00:27Z</time>
      </trkpt>
      <trkpt lat="46.52541" lon="0.32218">
        <ele>150.4</ele>
        <time>2022-09-18T07:00:28Z</time>
      </trkpt>
      <trkpt lat="46.52539" lon="0.32227">
        <ele>150.2</ele>
        <time>2022-09-18T07:00:31Z</time>
      </trkpt>
      <trkpt lat="46.52538" lon="0.32231">
        <ele>150</ele>
        <time>2022-09-18T07:00:32Z</time>
      </trkpt>
      <trkpt lat="46.52537" lon="0.32235">
        <ele>150</ele>
        <time>2022-09-18T07:00:33Z</time>
      </trkpt>
      <trkpt lat="46.52537" lon="0.32244">
        <ele>149.8</ele>
        <time>2022-09-18T07:00:35Z</time>
      </trkpt>
      <trkpt lat="46.52539" lon="0.32248">
        <ele>149.8</ele>
        <time>2022-09-18T07:00:36Z</time>
      </trkpt>
      <trkpt lat="46.52541" lon="0.32251">
        <ele>149.8</ele>
        <time>2022-09-18T07:00:37Z</time>
      </trkpt>
      <trkpt lat="46.52548" lon="0.32251">
        <ele>149.8</ele>
        <time>2022-09-18T07:00:39Z</time>
      </trkpt>
      <trkpt lat="46.52574" lon="0.32252">
        <ele>150.2</ele>
        <time>2022-09-18T07:00:45Z</time>
      </trkpt>
      <trkpt lat="46.52602" lon="0.32253">
        <ele>150.4</ele>
        <time>2022-09-18T07:00:51Z</time>
      </trkpt>
      <trkpt lat="46.52612" lon="0.32253">
        <ele>150.2</ele>
        <time>2022-09-18T07:00:53Z</time>
      </trkpt>
      <trkpt lat="46.5262" lon="0.32259">
        <ele>150.2</ele>
        <time>2022-09-18T07:00:55Z</time>
      </trkpt>
      <trkpt lat="46.52623" lon="0.32269">
        <ele>150.2</ele>
        <time>2022-09-18T07:00:57Z</time>
      </trkpt>
      <trkpt lat="46.52624" lon="0.3228">
        <ele>150.2</ele>
        <time>2022-09-18T07:00:59Z</time>
      </trkpt>
      <trkpt lat="46.52624" lon="0.32303">
        <ele>149.8</ele>
        <time>2022-09-18T07:01:03Z</time>
      </trkpt>
      <trkpt lat="46.52624" lon="0.32317">
        <ele>149.8</ele>
        <time>2022-09-18T07:01:05Z</time>
      </trkpt>
      <trkpt lat="46.52624" lon="0.32324">
        <ele>149.6</ele>
        <time>2022-09-18T07:01:06Z</time>
      </trkpt>
      <trkpt lat="46.52624" lon="0.32353">
        <ele>149.2</ele>
        <time>2022-09-18T07:01:10Z</time>
      </trkpt>
      <trkpt lat="46.52624" lon="0.32359">
        <ele>148.8</ele>
        <time>2022-09-18T07:01:11Z</time>
      </trkpt>
      <trkpt lat="46.52625" lon="0.32391">
        <ele>147.6</ele>
        <time>2022-09-18T07:01:15Z</time>
      </trkpt>
      <trkpt lat="46.52625" lon="0.32399">
        <ele>147.2</ele>
        <time>2022-09-18T07:01:16Z</time>
      </trkpt>
      <trkpt lat="46.52626" lon="0.32432">
        <ele>146.4</ele>
        <time>2022-09-18T07:01:20Z</time>
      </trkpt>
      <trkpt lat="46.52625" lon="0.32448">
        <ele>146</ele>
        <time>2022-09-18T07:01:22Z</time>
      </trkpt>
      <trkpt lat="46.52623" lon="0.32454">
        <ele>145.2</ele>
        <time>2022-09-18T07:01:23Z</time>
      </trkpt>
      <trkpt lat="46.5262" lon="0.32458">
        <ele>144.6</ele>
        <time>2022-09-18T07:01:24Z</time>
      </trkpt>
      <trkpt lat="46.52616" lon="0.32462">
        <ele>144.2</ele>
        <time>2022-09-18T07:01:25Z</time>
      </trkpt>
      <trkpt lat="46.52613" lon="0.32467">
        <ele>143.8</ele>
        <time>2022-09-18T07:01:26Z</time>
      </trkpt>
      <trkpt lat="46.52604" lon="0.32479">
        <ele>143.4</ele>
        <time>2022-09-18T07:01:29Z</time>
      </trkpt>
      <trkpt lat="46.52603" lon="0.32483">
        <ele>143</ele>
        <time>2022-09-18T07:01:30Z</time>
      </trkpt>
      <trkpt lat="46.52604" lon="0.32486">
        <ele>142.8</ele>
        <time>2022-09-18T07:01:31Z</time>
      </trkpt>
      <trkpt lat="46.52608" lon="0.32496">
        <ele>142.6</ele>
        <time>2022-09-18T07:01:33Z</time>
      </trkpt>
      <trkpt lat="46.52616" lon="0.32504">
        <ele>142.6</ele>
        <time>2022-09-18T07:01:35Z</time>
      </trkpt>
      <trkpt lat="46.52621" lon="0.32509">
        <ele>142.6</ele>
        <time>2022-09-18T07:01:37Z</time>
      </trkpt>
      <trkpt lat="46.52627" lon="0.32517">
        <ele>142.8</ele>
        <time>2022-09-18T07:01:39Z</time>
      </trkpt>
      <trkpt lat="46.52633" lon="0.32527">
        <ele>143</ele>
        <time>2022-09-18T07:01:41Z</time>
      </trkpt>
      <trkpt lat="46.52637" lon="0.32532">
        <ele>143.2</ele>
        <time>2022-09-18T07:01:42Z</time>
      </trkpt>
      <trkpt lat="46.52641" lon="0.32535">
        <ele>143.2</ele>
        <time>2022-09-18T07:01:43Z</time>
      </trkpt>
      <trkpt lat="46.5265" lon="0.3254">
        <ele>143.4</ele>
        <time>2022-09-18T07:01:45Z</time>
      </trkpt>
      <trkpt lat="46.52654" lon="0.32543">
        <ele>143.4</ele>
        <time>2022-09-18T07:01:46Z</time>
      </trkpt>
      <trkpt lat="46.52668" lon="0.32548">
        <ele>144</ele>
        <time>2022-09-18T07:01:49Z</time>
      </trkpt>
      <trkpt lat="46.52672" lon="0.32552">
        <ele>144</ele>
        <time>2022-09-18T07:01:50Z</time>
      </trkpt>
      <trkpt lat="46.52675" lon="0.32556">
        <ele>144.2</ele>
        <time>2022-09-18T07:01:51Z</time>
      </trkpt>
      <trkpt lat="46.52684" lon="0.32565">
        <ele>144</ele>
        <time>2022-09-18T07:01:53Z</time>
      </trkpt>
      <trkpt lat="46.52692" lon="0.32572">
        <ele>144</ele>
        <time>2022-09-18T07:01:55Z</time>
      </trkpt>
      <trkpt lat="46.52697" lon="0.32574">
        <ele>144.2</ele>
        <time>2022-09-18T07:01:56Z</time>
      </trkpt>
      <trkpt lat="46.527" lon="0.32574">
        <ele>144.2</ele>
        <time>2022-09-18T07:01:57Z</time>
      </trkpt>
      <trkpt lat="46.52707" lon="0.32573">
        <ele>144.4</ele>
        <time>2022-09-18T07:01:59Z</time>
      </trkpt>
      <trkpt lat="46.52711" lon="0.32572">
        <ele>144.4</ele>
        <time>2022-09-18T07:02:00Z</time>
      </trkpt>
      <trkpt lat="46.52714" lon="0.32571">
        <ele>144.4</ele>
        <time>2022-09-18T07:02:01Z</time>
      </trkpt>
      <trkpt lat="46.52717" lon="0.32575">
        <ele>144.6</ele>
        <time>2022-09-18T07:02:03Z</time>
      </trkpt>
      <trkpt lat="46.52719" lon="0.32584">
        <ele>144.8</ele>
        <time>2022-09-18T07:02:05Z</time>
      </trkpt>
      <trkpt lat="46.52721" lon="0.32595">
        <ele>144.8</ele>
        <time>2022-09-18T07:02:07Z</time>
      </trkpt>
      <trkpt lat="46.52724" lon="0.32622">
        <ele>144.6</ele>
        <time>2022-09-18T07:02:11Z</time>
      </trkpt>
      <trkpt lat="46.52726" lon="0.32635">
        <ele>144.6</ele>
        <time>2022-09-18T07:02:13Z</time>
      </trkpt>
      <trkpt lat="46.5273" lon="0.32657">
        <ele>145.2</ele>
        <time>2022-09-18T07:02:16Z</time>
      </trkpt>
      <trkpt lat="46.52733" lon="0.32681">
        <ele>145.6</ele>
        <time>2022-09-18T07:02:19Z</time>
      </trkpt>
      <trkpt lat="46.52736" lon="0.32696">
        <ele>145.6</ele>
        <time>2022-09-18T07:02:21Z</time>
      </trkpt>
      <trkpt lat="46.52743" lon="0.3273">
        <ele>145.2</ele>
        <time>2022-09-18T07:02:25Z</time>
      </trkpt>
      <trkpt lat="46.52748" lon="0.32782">
        <ele>145</ele>
        <time>2022-09-18T07:02:31Z</time>
      </trkpt>
      <trkpt lat="46.52753" lon="0.32832">
        <ele>144.6</ele>
        <time>2022-09-18T07:02:37Z</time>
      </trkpt>
      <trkpt lat="46.52754" lon="0.3285">
        <ele>144.2</ele>
        <time>2022-09-18T07:02:39Z</time>
      </trkpt>
      <trkpt lat="46.52758" lon="0.32886">
        <ele>143.8</ele>
        <time>2022-09-18T07:02:43Z</time>
      </trkpt>
      <trkpt lat="46.52761" lon="0.32917">
        <ele>142.8</ele>
        <time>2022-09-18T07:02:47Z</time>
      </trkpt>
      <trkpt lat="46.52763" lon="0.32936">
        <ele>141.6</ele>
        <time>2022-09-18T07:02:50Z</time>
      </trkpt>
      <trkpt lat="46.52763" lon="0.32945">
        <ele>141.2</ele>
        <time>2022-09-18T07:02:52Z</time>
      </trkpt>
      <trkpt lat="46.52763" lon="0.32953">
        <ele>140.4</ele>
        <time>2022-09-18T07:02:55Z</time>
      </trkpt>
      <trkpt lat="46.52762" lon="0.32955">
        <ele>140.4</ele>
        <time>2022-09-18T07:02:56Z</time>
      </trkpt>
      <trkpt lat="46.52763" lon="0.32959">
        <ele>140.2</ele>
        <time>2022-09-18T07:03:05Z</time>
      </trkpt>
      <trkpt lat="46.52763" lon="0.32971">
        <ele>140</ele>
        <time>2022-09-18T07:03:13Z</time>
      </trkpt>
      <trkpt lat="46.52763" lon="0.32984">
        <ele>139.8</ele>
        <time>2022-09-18T07:03:16Z</time>
      </trkpt>
      <trkpt lat="46.52764" lon="0.3299">
        <ele>139.6</ele>
        <time>2022-09-18T07:03:17Z</time>
      </trkpt>
      <trkpt lat="46.52764" lon="0.33005">
        <ele>139.4</ele>
        <time>2022-09-18T07:03:19Z</time>
      </trkpt>
      <trkpt lat="46.52766" lon="0.33013">
        <ele>139.4</ele>
        <time>2022-09-18T07:03:20Z</time>
      </trkpt>
      <trkpt lat="46.52766" lon="0.33023">
        <ele>139.2</ele>
        <time>2022-09-18T07:03:21Z</time>
      </trkpt>
      <trkpt lat="46.52772" lon="0.33063">
        <ele>138.2</ele>
        <time>2022-09-18T07:03:25Z</time>
      </trkpt>
      <trkpt lat="46.52775" lon="0.33095">
        <ele>136.8</ele>
        <time>2022-09-18T07:03:28Z</time>
      </trkpt>
      <trkpt lat="46.52777" lon="0.33104">
        <ele>136.2</ele>
        <time>2022-09-18T07:03:29Z</time>
      </trkpt>
      <trkpt lat="46.52778" lon="0.33122">
        <ele>134.2</ele>
        <time>2022-09-18T07:03:31Z</time>
      </trkpt>
      <trkpt lat="46.5278" lon="0.33134">
        <ele>132.4</ele>
        <time>2022-09-18T07:03:33Z</time>
      </trkpt>
      <trkpt lat="46.52781" lon="0.33138">
        <ele>131.8</ele>
        <time>2022-09-18T07:03:34Z</time>
      </trkpt>
      <trkpt lat="46.52783" lon="0.3314">
        <ele>131.4</ele>
        <time>2022-09-18T07:03:35Z</time>
      </trkpt>
      <trkpt lat="46.52784" lon="0.33142">
        <ele>131.2</ele>
        <time>2022-09-18T07:03:36Z</time>
      </trkpt>
      <trkpt lat="46.52788" lon="0.33143">
        <ele>131</ele>
        <time>2022-09-18T07:03:38Z</time>
      </trkpt>
      <trkpt lat="46.52791" lon="0.33143">
        <ele>131</ele>
        <time>2022-09-18T07:03:39Z</time>
      </trkpt>
      <trkpt lat="46.52799" lon="0.33148">
        <ele>131.8</ele>
        <time>2022-09-18T07:03:42Z</time>
      </trkpt>
      <trkpt lat="46.52806" lon="0.33152">
        <ele>132.2</ele>
        <time>2022-09-18T07:03:44Z</time>
      </trkpt>
      <trkpt lat="46.52809" lon="0.33153">
        <ele>132.8</ele>
        <time>2022-09-18T07:03:45Z</time>
      </trkpt>
      <trkpt lat="46.52819" lon="0.3315">
        <ele>133.6</ele>
        <time>2022-09-18T07:03:48Z</time>
      </trkpt>
      <trkpt lat="46.52827" lon="0.33151">
        <ele>134.4</ele>
        <time>2022-09-18T07:03:50Z</time>
      </trkpt>
      <trkpt lat="46.5283" lon="0.33151">
        <ele>135</ele>
        <time>2022-09-18T07:03:51Z</time>
      </trkpt>
      <trkpt lat="46.5284" lon="0.33151">
        <ele>136</ele>
        <time>2022-09-18T07:03:54Z</time>
      </trkpt>
      <trkpt lat="46.5285" lon="0.33151">
        <ele>137</ele>
        <time>2022-09-18T07:03:57Z</time>
      </trkpt>
      <trkpt lat="46.52865" lon="0.33152">
        <ele>138.2</ele>
        <time>2022-09-18T07:04:03Z</time>
      </trkpt>
      <trkpt lat="46.52882" lon="0.33152">
        <ele>139</ele>
        <time>2022-09-18T07:04:09Z</time>
      </trkpt>
      <trkpt lat="46.52883" lon="0.33155">
        <ele>139.2</ele>
        <time>2022-09-18T07:04:10Z</time>
      </trkpt>
      <trkpt lat="46.52884" lon="0.33158">
        <ele>139.2</ele>
        <time>2022-09-18T07:04:11Z</time>
      </trkpt>
      <trkpt lat="46.52886" lon="0.33171">
        <ele>139.4</ele>
        <time>2022-09-18T07:04:15Z</time>
      </trkpt>
      <trkpt lat="46.52892" lon="0.3319">
        <ele>139.6</ele>
        <time>2022-09-18T07:04:19Z</time>
      </trkpt>
      <trkpt lat="46.52894" lon="0.33197">
        <ele>139.6</ele>
        <time>2022-09-18T07:04:20Z</time>
      </trkpt>
      <trkpt lat="46.52904" lon="0.33236">
        <ele>139.6</ele>
        <time>2022-09-18T07:04:25Z</time>
      </trkpt>
      <trkpt lat="46.52904" lon="0.33244">
        <ele>139.4</ele>
        <time>2022-09-18T07:04:26Z</time>
      </trkpt>
      <trkpt lat="46.52907" lon="0.33264">
        <ele>138.6</ele>
        <time>2022-09-18T07:04:29Z</time>
      </trkpt>
      <trkpt lat="46.52908" lon="0.3327">
        <ele>138.2</ele>
        <time>2022-09-18T07:04:30Z</time>
      </trkpt>
      <trkpt lat="46.5291" lon="0.33284">
        <ele>137.6</ele>
        <time>2022-09-18T07:04:32Z</time>
      </trkpt>
      <trkpt lat="46.52912" lon="0.33291">
        <ele>137</ele>
        <time>2022-09-18T07:04:33Z</time>
      </trkpt>
      <trkpt lat="46.52916" lon="0.333">
        <ele>136.8</ele>
        <time>2022-09-18T07:04:34Z</time>
      </trkpt>
      <trkpt lat="46.5292" lon="0.33318">
        <ele>135.6</ele>
        <time>2022-09-18T07:04:36Z</time>
      </trkpt>
      <trkpt lat="46.52923" lon="0.33337">
        <ele>134.6</ele>
        <time>2022-09-18T07:04:38Z</time>
      </trkpt>
      <trkpt lat="46.52926" lon="0.33346">
        <ele>134.2</ele>
        <time>2022-09-18T07:04:39Z</time>
      </trkpt>
      <trkpt lat="46.52928" lon="0.33354">
        <ele>133.4</ele>
        <time>2022-09-18T07:04:40Z</time>
      </trkpt>
      <trkpt lat="46.5293" lon="0.3336">
        <ele>132.8</ele>
        <time>2022-09-18T07:04:41Z</time>
      </trkpt>
      <trkpt lat="46.5293" lon="0.33365">
        <ele>131.8</ele>
        <time>2022-09-18T07:04:42Z</time>
      </trkpt>
      <trkpt lat="46.52929" lon="0.33369">
        <ele>131.2</ele>
        <time>2022-09-18T07:04:43Z</time>
      </trkpt>
      <trkpt lat="46.52926" lon="0.33373">
        <ele>130.8</ele>
        <time>2022-09-18T07:04:44Z</time>
      </trkpt>
      <trkpt lat="46.52923" lon="0.33375">
        <ele>130.6</ele>
        <time>2022-09-18T07:04:45Z</time>
      </trkpt>
      <trkpt lat="46.52916" lon="0.33379">
        <ele>129.4</ele>
        <time>2022-09-18T07:04:47Z</time>
      </trkpt>
      <trkpt lat="46.52901" lon="0.33386">
        <ele>128.4</ele>
        <time>2022-09-18T07:04:50Z</time>
      </trkpt>
      <trkpt lat="46.5287" lon="0.33392">
        <ele>127</ele>
        <time>2022-09-18T07:04:54Z</time>
      </trkpt>
      <trkpt lat="46.52851" lon="0.33398">
        <ele>125.6</ele>
        <time>2022-09-18T07:04:56Z</time>
      </trkpt>
      <trkpt lat="46.52836" lon="0.33405">
        <ele>124.8</ele>
        <time>2022-09-18T07:04:58Z</time>
      </trkpt>
      <trkpt lat="46.52824" lon="0.33412">
        <ele>124.6</ele>
        <time>2022-09-18T07:05:00Z</time>
      </trkpt>
      <trkpt lat="46.52813" lon="0.33419">
        <ele>124.4</ele>
        <time>2022-09-18T07:05:02Z</time>
      </trkpt>
      <trkpt lat="46.5279" lon="0.3343">
        <ele>123.6</ele>
        <time>2022-09-18T07:05:07Z</time>
      </trkpt>
      <trkpt lat="46.52785" lon="0.33432">
        <ele>123.4</ele>
        <time>2022-09-18T07:05:08Z</time>
      </trkpt>
      <trkpt lat="46.52779" lon="0.33434">
        <ele>123</ele>
        <time>2022-09-18T07:05:09Z</time>
      </trkpt>
      <trkpt lat="46.52771" lon="0.33434">
        <ele>122.4</ele>
        <time>2022-09-18T07:05:11Z</time>
      </trkpt>
      <trkpt lat="46.52766" lon="0.33433">
        <ele>122.2</ele>
        <time>2022-09-18T07:05:12Z</time>
      </trkpt>
      <trkpt lat="46.52762" lon="0.33431">
        <ele>122.2</ele>
        <time>2022-09-18T07:05:13Z</time>
      </trkpt>
      <trkpt lat="46.52751" lon="0.33432">
        <ele>122</ele>
        <time>2022-09-18T07:05:15Z</time>
      </trkpt>
      <trkpt lat="46.52745" lon="0.33434">
        <ele>121.8</ele>
        <time>2022-09-18T07:05:16Z</time>
      </trkpt>
      <trkpt lat="46.52733" lon="0.33436">
        <ele>121.4</ele>
        <time>2022-09-18T07:05:18Z</time>
      </trkpt>
      <trkpt lat="46.52715" lon="0.33436">
        <ele>120.8</ele>
        <time>2022-09-18T07:05:21Z</time>
      </trkpt>
      <trkpt lat="46.52709" lon="0.33436">
        <ele>120.4</ele>
        <time>2022-09-18T07:05:22Z</time>
      </trkpt>
      <trkpt lat="46.52702" lon="0.33435">
        <ele>120.2</ele>
        <time>2022-09-18T07:05:23Z</time>
      </trkpt>
      <trkpt lat="46.5268" lon="0.33432">
        <ele>119.6</ele>
        <time>2022-09-18T07:05:26Z</time>
      </trkpt>
      <trkpt lat="46.52674" lon="0.3343">
        <ele>118.4</ele>
        <time>2022-09-18T07:05:27Z</time>
      </trkpt>
      <trkpt lat="46.52668" lon="0.33427">
        <ele>117.6</ele>
        <time>2022-09-18T07:05:28Z</time>
      </trkpt>
      <trkpt lat="46.52663" lon="0.33422">
        <ele>117.2</ele>
        <time>2022-09-18T07:05:29Z</time>
      </trkpt>
      <trkpt lat="46.52654" lon="0.33413">
        <ele>116.4</ele>
        <time>2022-09-18T07:05:31Z</time>
      </trkpt>
      <trkpt lat="46.52648" lon="0.33407">
        <ele>116</ele>
        <time>2022-09-18T07:05:32Z</time>
      </trkpt>
      <trkpt lat="46.52624" lon="0.33382">
        <ele>115.4</ele>
        <time>2022-09-18T07:05:36Z</time>
      </trkpt>
      <trkpt lat="46.52616" lon="0.33378">
        <ele>115.2</ele>
        <time>2022-09-18T07:05:37Z</time>
      </trkpt>
      <trkpt lat="46.52608" lon="0.33376">
        <ele>115</ele>
        <time>2022-09-18T07:05:38Z</time>
      </trkpt>
      <trkpt lat="46.52594" lon="0.33377">
        <ele>115.2</ele>
        <time>2022-09-18T07:05:40Z</time>
      </trkpt>
      <trkpt lat="46.52581" lon="0.33382">
        <ele>115.4</ele>
        <time>2022-09-18T07:05:42Z</time>
      </trkpt>
      <trkpt lat="46.52561" lon="0.33403">
        <ele>115.4</ele>
        <time>2022-09-18T07:05:46Z</time>
      </trkpt>
      <trkpt lat="46.52556" lon="0.33408">
        <ele>115.4</ele>
        <time>2022-09-18T07:05:47Z</time>
      </trkpt>
      <trkpt lat="46.52548" lon="0.33419">
        <ele>115.2</ele>
        <time>2022-09-18T07:05:49Z</time>
      </trkpt>
      <trkpt lat="46.52541" lon="0.3343">
        <ele>115</ele>
        <time>2022-09-18T07:05:51Z</time>
      </trkpt>
      <trkpt lat="46.52539" lon="0.33437">
        <ele>114</ele>
        <time>2022-09-18T07:05:52Z</time>
      </trkpt>
      <trkpt lat="46.52537" lon="0.33445">
        <ele>113.6</ele>
        <time>2022-09-18T07:05:53Z</time>
      </trkpt>
      <trkpt lat="46.52533" lon="0.33481">
        <ele>113</ele>
        <time>2022-09-18T07:05:57Z</time>
      </trkpt>
      <trkpt lat="46.52529" lon="0.33508">
        <ele>112.8</ele>
        <time>2022-09-18T07:06:00Z</time>
      </trkpt>
      <trkpt lat="46.52529" lon="0.33528">
        <ele>112.4</ele>
        <time>2022-09-18T07:06:02Z</time>
      </trkpt>
      <trkpt lat="46.52529" lon="0.33538">
        <ele>112</ele>
        <time>2022-09-18T07:06:03Z</time>
      </trkpt>
      <trkpt lat="46.5253" lon="0.33569">
        <ele>111.2</ele>
        <time>2022-09-18T07:06:06Z</time>
      </trkpt>
      <trkpt lat="46.52532" lon="0.33601">
        <ele>109.8</ele>
        <time>2022-09-18T07:06:09Z</time>
      </trkpt>
      <trkpt lat="46.52533" lon="0.33609">
        <ele>108.8</ele>
        <time>2022-09-18T07:06:10Z</time>
      </trkpt>
      <trkpt lat="46.52534" lon="0.33617">
        <ele>108.2</ele>
        <time>2022-09-18T07:06:11Z</time>
      </trkpt>
      <trkpt lat="46.52537" lon="0.33622">
        <ele>107.2</ele>
        <time>2022-09-18T07:06:12Z</time>
      </trkpt>
      <trkpt lat="46.52544" lon="0.3363">
        <ele>106.4</ele>
        <time>2022-09-18T07:06:14Z</time>
      </trkpt>
      <trkpt lat="46.52549" lon="0.33631">
        <ele>106.2</ele>
        <time>2022-09-18T07:06:15Z</time>
      </trkpt>
      <trkpt lat="46.52553" lon="0.33631">
        <ele>106</ele>
        <time>2022-09-18T07:06:16Z</time>
      </trkpt>
      <trkpt lat="46.52564" lon="0.3363">
        <ele>105</ele>
        <time>2022-09-18T07:06:18Z</time>
      </trkpt>
      <trkpt lat="46.5257" lon="0.33629">
        <ele>104.4</ele>
        <time>2022-09-18T07:06:19Z</time>
      </trkpt>
      <trkpt lat="46.52577" lon="0.33627">
        <ele>103.6</ele>
        <time>2022-09-18T07:06:20Z</time>
      </trkpt>
      <trkpt lat="46.52592" lon="0.33623">
        <ele>102.4</ele>
        <time>2022-09-18T07:06:22Z</time>
      </trkpt>
      <trkpt lat="46.526" lon="0.33622">
        <ele>102</ele>
        <time>2022-09-18T07:06:23Z</time>
      </trkpt>
      <trkpt lat="46.52622" lon="0.33619">
        <ele>101.4</ele>
        <time>2022-09-18T07:06:26Z</time>
      </trkpt>
      <trkpt lat="46.52629" lon="0.33621">
        <ele>101</ele>
        <time>2022-09-18T07:06:27Z</time>
      </trkpt>
      <trkpt lat="46.52643" lon="0.33627">
        <ele>99.6</ele>
        <time>2022-09-18T07:06:29Z</time>
      </trkpt>
      <trkpt lat="46.52657" lon="0.33627">
        <ele>98.4</ele>
        <time>2022-09-18T07:06:31Z</time>
      </trkpt>
      <trkpt lat="46.52686" lon="0.33618">
        <ele>97.8</ele>
        <time>2022-09-18T07:06:35Z</time>
      </trkpt>
      <trkpt lat="46.52692" lon="0.33617">
        <ele>97.6</ele>
        <time>2022-09-18T07:06:36Z</time>
      </trkpt>
      <trkpt lat="46.52699" lon="0.33617">
        <ele>97.4</ele>
        <time>2022-09-18T07:06:37Z</time>
      </trkpt>
      <trkpt lat="46.52713" lon="0.33619">
        <ele>97.4</ele>
        <time>2022-09-18T07:06:39Z</time>
      </trkpt>
      <trkpt lat="46.5272" lon="0.33621">
        <ele>97.2</ele>
        <time>2022-09-18T07:06:40Z</time>
      </trkpt>
      <trkpt lat="46.52763" lon="0.33636">
        <ele>97.2</ele>
        <time>2022-09-18T07:06:47Z</time>
      </trkpt>
      <trkpt lat="46.52775" lon="0.33637">
        <ele>97</ele>
        <time>2022-09-18T07:06:49Z</time>
      </trkpt>
      <trkpt lat="46.52787" lon="0.33635">
        <ele>97</ele>
        <time>2022-09-18T07:06:51Z</time>
      </trkpt>
      <trkpt lat="46.52811" lon="0.33635">
        <ele>96.6</ele>
        <time>2022-09-18T07:06:55Z</time>
      </trkpt>
      <trkpt lat="46.52823" lon="0.33637">
        <ele>96.6</ele>
        <time>2022-09-18T07:06:57Z</time>
      </trkpt>
      <trkpt lat="46.52866" lon="0.33652">
        <ele>97</ele>
        <time>2022-09-18T07:07:04Z</time>
      </trkpt>
      <trkpt lat="46.52904" lon="0.33663">
        <ele>97</ele>
        <time>2022-09-18T07:07:10Z</time>
      </trkpt>
      <trkpt lat="46.52956" lon="0.33679">
        <ele>96.8</ele>
        <time>2022-09-18T07:07:18Z</time>
      </trkpt>
      <trkpt lat="46.52973" lon="0.33683">
        <ele>96.6</ele>
        <time>2022-09-18T07:07:21Z</time>
      </trkpt>
      <trkpt lat="46.52984" lon="0.33683">
        <ele>96.6</ele>
        <time>2022-09-18T07:07:23Z</time>
      </trkpt>
      <trkpt lat="46.5299" lon="0.33682">
        <ele>96.6</ele>
        <time>2022-09-18T07:07:24Z</time>
      </trkpt>
      <trkpt lat="46.53002" lon="0.33679">
        <ele>96.6</ele>
        <time>2022-09-18T07:07:26Z</time>
      </trkpt>
      <trkpt lat="46.53024" lon="0.33676">
        <ele>96.6</ele>
        <time>2022-09-18T07:07:30Z</time>
      </trkpt>
      <trkpt lat="46.53057" lon="0.33662">
        <ele>96.4</ele>
        <time>2022-09-18T07:07:37Z</time>
      </trkpt>
      <trkpt lat="46.53077" lon="0.33653">
        <ele>96.2</ele>
        <time>2022-09-18T07:07:41Z</time>
      </trkpt>
      <trkpt lat="46.53083" lon="0.33653">
        <ele>96</ele>
        <time>2022-09-18T07:07:43Z</time>
      </trkpt>
      <trkpt lat="46.53091" lon="0.3365">
        <ele>96</ele>
        <time>2022-09-18T07:07:46Z</time>
      </trkpt>
      <trkpt lat="46.53094" lon="0.3365">
        <ele>96</ele>
        <time>2022-09-18T07:07:47Z</time>
      </trkpt>
      <trkpt lat="46.5311" lon="0.33655">
        <ele>96.2</ele>
        <time>2022-09-18T07:07:51Z</time>
      </trkpt>
      <trkpt lat="46.53124" lon="0.33659">
        <ele>96.2</ele>
        <time>2022-09-18T07:07:54Z</time>
      </trkpt>
      <trkpt lat="46.53139" lon="0.33664">
        <ele>96.4</ele>
        <time>2022-09-18T07:07:57Z</time>
      </trkpt>
      <trkpt lat="46.53172" lon="0.33678">
        <ele>96.6</ele>
        <time>2022-09-18T07:08:03Z</time>
      </trkpt>
      <trkpt lat="46.53206" lon="0.33698">
        <ele>95.8</ele>
        <time>2022-09-18T07:08:10Z</time>
      </trkpt>
      <trkpt lat="46.53228" lon="0.33709">
        <ele>96.4</ele>
        <time>2022-09-18T07:08:15Z</time>
      </trkpt>
      <trkpt lat="46.53233" lon="0.33712">
        <ele>96.4</ele>
        <time>2022-09-18T07:08:16Z</time>
      </trkpt>
      <trkpt lat="46.53248" lon="0.33721">
        <ele>96.6</ele>
        <time>2022-09-18T07:08:19Z</time>
      </trkpt>
      <trkpt lat="46.53277" lon="0.33737">
        <ele>96.6</ele>
        <time>2022-09-18T07:08:25Z</time>
      </trkpt>
      <trkpt lat="46.53281" lon="0.33739">
        <ele>96.2</ele>
        <time>2022-09-18T07:08:26Z</time>
      </trkpt>
      <trkpt lat="46.53301" lon="0.33749">
        <ele>96</ele>
        <time>2022-09-18T07:08:30Z</time>
      </trkpt>
      <trkpt lat="46.53309" lon="0.33755">
        <ele>96</ele>
        <time>2022-09-18T07:08:32Z</time>
      </trkpt>
      <trkpt lat="46.53321" lon="0.3376">
        <ele>95.6</ele>
        <time>2022-09-18T07:08:35Z</time>
      </trkpt>
      <trkpt lat="46.53325" lon="0.33763">
        <ele>95.8</ele>
        <time>2022-09-18T07:08:36Z</time>
      </trkpt>
      <trkpt lat="46.53345" lon="0.33773">
        <ele>96.2</ele>
        <time>2022-09-18T07:08:41Z</time>
      </trkpt>
      <trkpt lat="46.5337" lon="0.33784">
        <ele>96</ele>
        <time>2022-09-18T07:08:46Z</time>
      </trkpt>
      <trkpt lat="46.53385" lon="0.33791">
        <ele>96</ele>
        <time>2022-09-18T07:08:49Z</time>
      </trkpt>
      <trkpt lat="46.53391" lon="0.33794">
        <ele>96</ele>
        <time>2022-09-18T07:08:50Z</time>
      </trkpt>
      <trkpt lat="46.53425" lon="0.33807">
        <ele>95.4</ele>
        <time>2022-09-18T07:08:56Z</time>
      </trkpt>
      <trkpt lat="46.53453" lon="0.33818">
        <ele>95.6</ele>
        <time>2022-09-18T07:09:02Z</time>
      </trkpt>
      <trkpt lat="46.53464" lon="0.33824">
        <ele>95.8</ele>
        <time>2022-09-18T07:09:07Z</time>
      </trkpt>
      <trkpt lat="46.53469" lon="0.33819">
        <ele>96.2</ele>
        <time>2022-09-18T07:09:11Z</time>
      </trkpt>
      <trkpt lat="46.53473" lon="0.33819">
        <ele>97.2</ele>
        <time>2022-09-18T07:09:13Z</time>
      </trkpt>
      <trkpt lat="46.53475" lon="0.33818">
        <ele>97.6</ele>
        <time>2022-09-18T07:09:14Z</time>
      </trkpt>
      <trkpt lat="46.53481" lon="0.33818">
        <ele>98.6</ele>
        <time>2022-09-18T07:09:17Z</time>
      </trkpt>
      <trkpt lat="46.53484" lon="0.33818">
        <ele>99.2</ele>
        <time>2022-09-18T07:09:19Z</time>
      </trkpt>
      <trkpt lat="46.53489" lon="0.33818">
        <ele>100</ele>
        <time>2022-09-18T07:09:21Z</time>
      </trkpt>
      <trkpt lat="46.53493" lon="0.33819">
        <ele>101.2</ele>
        <time>2022-09-18T07:09:23Z</time>
      </trkpt>
      <trkpt lat="46.53495" lon="0.3382">
        <ele>101.6</ele>
        <time>2022-09-18T07:09:24Z</time>
      </trkpt>
      <trkpt lat="46.53499" lon="0.33823">
        <ele>102.2</ele>
        <time>2022-09-18T07:09:26Z</time>
      </trkpt>
      <trkpt lat="46.535" lon="0.33824">
        <ele>102.2</ele>
        <time>2022-09-18T07:09:27Z</time>
      </trkpt>
      <trkpt lat="46.53504" lon="0.33826">
        <ele>103.6</ele>
        <time>2022-09-18T07:09:31Z</time>
      </trkpt>
      <trkpt lat="46.53507" lon="0.33828">
        <ele>104.2</ele>
        <time>2022-09-18T07:09:33Z</time>
      </trkpt>
      <trkpt lat="46.53507" lon="0.33829">
        <ele>104.6</ele>
        <time>2022-09-18T07:09:34Z</time>
      </trkpt>
      <trkpt lat="46.53511" lon="0.33831">
        <ele>105.8</ele>
        <time>2022-09-18T07:09:37Z</time>
      </trkpt>
      <trkpt lat="46.53517" lon="0.33831">
        <ele>106.6</ele>
        <time>2022-09-18T07:09:40Z</time>
      </trkpt>
      <trkpt lat="46.53521" lon="0.33833">
        <ele>106.8</ele>
        <time>2022-09-18T07:09:42Z</time>
      </trkpt>
      <trkpt lat="46.53529" lon="0.33835">
        <ele>107.8</ele>
        <time>2022-09-18T07:09:47Z</time>
      </trkpt>
      <trkpt lat="46.5353" lon="0.33836">
        <ele>107.8</ele>
        <time>2022-09-18T07:09:48Z</time>
      </trkpt>
      <trkpt lat="46.53536" lon="0.33841">
        <ele>108.8</ele>
        <time>2022-09-18T07:09:53Z</time>
      </trkpt>
      <trkpt lat="46.5354" lon="0.33842">
        <ele>110</ele>
        <time>2022-09-18T07:09:56Z</time>
      </trkpt>
      <trkpt lat="46.53547" lon="0.33844">
        <ele>111.2</ele>
        <time>2022-09-18T07:10:01Z</time>
      </trkpt>
      <trkpt lat="46.53549" lon="0.33845">
        <ele>111.8</ele>
        <time>2022-09-18T07:10:03Z</time>
      </trkpt>
      <trkpt lat="46.53551" lon="0.33845">
        <ele>112.4</ele>
        <time>2022-09-18T07:10:05Z</time>
      </trkpt>
      <trkpt lat="46.53554" lon="0.33846">
        <ele>113.4</ele>
        <time>2022-09-18T07:10:08Z</time>
      </trkpt>
      <trkpt lat="46.53556" lon="0.33846">
        <ele>113.8</ele>
        <time>2022-09-18T07:10:10Z</time>
      </trkpt>
      <trkpt lat="46.53559" lon="0.33845">
        <ele>114</ele>
        <time>2022-09-18T07:10:12Z</time>
      </trkpt>
      <trkpt lat="46.53563" lon="0.33845">
        <ele>114.6</ele>
        <time>2022-09-18T07:10:14Z</time>
      </trkpt>
      <trkpt lat="46.53568" lon="0.33843">
        <ele>115.6</ele>
        <time>2022-09-18T07:10:18Z</time>
      </trkpt>
      <trkpt lat="46.53574" lon="0.3384">
        <ele>116.6</ele>
        <time>2022-09-18T07:10:23Z</time>
      </trkpt>
      <trkpt lat="46.53579" lon="0.33837">
        <ele>117.4</ele>
        <time>2022-09-18T07:10:26Z</time>
      </trkpt>
      <trkpt lat="46.53581" lon="0.33835">
        <ele>117.8</ele>
        <time>2022-09-18T07:10:28Z</time>
      </trkpt>
      <trkpt lat="46.53583" lon="0.33832">
        <ele>118</ele>
        <time>2022-09-18T07:10:30Z</time>
      </trkpt>
      <trkpt lat="46.53584" lon="0.33826">
        <ele>118.2</ele>
        <time>2022-09-18T07:10:33Z</time>
      </trkpt>
      <trkpt lat="46.53587" lon="0.33812">
        <ele>119</ele>
        <time>2022-09-18T07:10:39Z</time>
      </trkpt>
      <trkpt lat="46.53588" lon="0.338">
        <ele>119.6</ele>
        <time>2022-09-18T07:10:44Z</time>
      </trkpt>
      <trkpt lat="46.53588" lon="0.33798">
        <ele>120</ele>
        <time>2022-09-18T07:10:45Z</time>
      </trkpt>
      <trkpt lat="46.53589" lon="0.33796">
        <ele>120.2</ele>
        <time>2022-09-18T07:10:46Z</time>
      </trkpt>
      <trkpt lat="46.5359" lon="0.3379">
        <ele>120.4</ele>
        <time>2022-09-18T07:10:49Z</time>
      </trkpt>
      <trkpt lat="46.53585" lon="0.33782">
        <ele>121</ele>
        <time>2022-09-18T07:10:56Z</time>
      </trkpt>
      <trkpt lat="46.53583" lon="0.33781">
        <ele>121.2</ele>
        <time>2022-09-18T07:10:57Z</time>
      </trkpt>
      <trkpt lat="46.5357" lon="0.33776">
        <ele>122.4</ele>
        <time>2022-09-18T07:11:03Z</time>
      </trkpt>
      <trkpt lat="46.53556" lon="0.33772">
        <ele>123.4</ele>
        <time>2022-09-18T07:11:09Z</time>
      </trkpt>
      <trkpt lat="46.53554" lon="0.33772">
        <ele>123.8</ele>
        <time>2022-09-18T07:11:10Z</time>
      </trkpt>
      <trkpt lat="46.53539" lon="0.33767">
        <ele>124.4</ele>
        <time>2022-09-18T07:11:17Z</time>
      </trkpt>
      <trkpt lat="46.53528" lon="0.33762">
        <ele>125.8</ele>
        <time>2022-09-18T07:11:22Z</time>
      </trkpt>
      <trkpt lat="46.53524" lon="0.33761">
        <ele>126</ele>
        <time>2022-09-18T07:11:24Z</time>
      </trkpt>
      <trkpt lat="46.53513" lon="0.33758">
        <ele>126.8</ele>
        <time>2022-09-18T07:11:29Z</time>
      </trkpt>
      <trkpt lat="46.53504" lon="0.33754">
        <ele>127.2</ele>
        <time>2022-09-18T07:11:33Z</time>
      </trkpt>
      <trkpt lat="46.53494" lon="0.33747">
        <ele>127.8</ele>
        <time>2022-09-18T07:11:37Z</time>
      </trkpt>
      <trkpt lat="46.53485" lon="0.33742">
        <ele>128.2</ele>
        <time>2022-09-18T07:11:40Z</time>
      </trkpt>
      <trkpt lat="46.53482" lon="0.3374">
        <ele>128.4</ele>
        <time>2022-09-18T07:11:41Z</time>
      </trkpt>
      <trkpt lat="46.53476" lon="0.33736">
        <ele>128.8</ele>
        <time>2022-09-18T07:11:43Z</time>
      </trkpt>
      <trkpt lat="46.5346" lon="0.33726">
        <ele>129.8</ele>
        <time>2022-09-18T07:11:49Z</time>
      </trkpt>
      <trkpt lat="46.53458" lon="0.33725">
        <ele>130</ele>
        <time>2022-09-18T07:11:50Z</time>
      </trkpt>
      <trkpt lat="46.53439" lon="0.33714">
        <ele>130.6</ele>
        <time>2022-09-18T07:11:57Z</time>
      </trkpt>
      <trkpt lat="46.53437" lon="0.33712">
        <ele>130.6</ele>
        <time>2022-09-18T07:11:58Z</time>
      </trkpt>
      <trkpt lat="46.53434" lon="0.33706">
        <ele>131</ele>
        <time>2022-09-18T07:12:00Z</time>
      </trkpt>
      <trkpt lat="46.53432" lon="0.33703">
        <ele>131</ele>
        <time>2022-09-18T07:12:01Z</time>
      </trkpt>
      <trkpt lat="46.53432" lon="0.33685">
        <ele>132</ele>
        <time>2022-09-18T07:12:06Z</time>
      </trkpt>
      <trkpt lat="46.53439" lon="0.33656">
        <ele>132.6</ele>
        <time>2022-09-18T07:12:13Z</time>
      </trkpt>
      <trkpt lat="46.53441" lon="0.33646">
        <ele>133</ele>
        <time>2022-09-18T07:12:15Z</time>
      </trkpt>
      <trkpt lat="46.5345" lon="0.33612">
        <ele>133.8</ele>
        <time>2022-09-18T07:12:22Z</time>
      </trkpt>
      <trkpt lat="46.53453" lon="0.33604">
        <ele>133.8</ele>
        <time>2022-09-18T07:12:24Z</time>
      </trkpt>
      <trkpt lat="46.53457" lon="0.33603">
        <ele>133.6</ele>
        <time>2022-09-18T07:12:25Z</time>
      </trkpt>
      <trkpt lat="46.5347" lon="0.33613">
        <ele>133.4</ele>
        <time>2022-09-18T07:12:29Z</time>
      </trkpt>
      <trkpt lat="46.53496" lon="0.33637">
        <ele>132.4</ele>
        <time>2022-09-18T07:12:36Z</time>
      </trkpt>
      <trkpt lat="46.53499" lon="0.33632">
        <ele>132</ele>
        <time>2022-09-18T07:12:39Z</time>
      </trkpt>
      <trkpt lat="46.53497" lon="0.33615">
        <ele>132.2</ele>
        <time>2022-09-18T07:12:43Z</time>
      </trkpt>
      <trkpt lat="46.53496" lon="0.33599">
        <ele>132.2</ele>
        <time>2022-09-18T07:12:46Z</time>
      </trkpt>
      <trkpt lat="46.53495" lon="0.33582">
        <ele>132.4</ele>
        <time>2022-09-18T07:12:49Z</time>
      </trkpt>
      <trkpt lat="46.53493" lon="0.33554">
        <ele>132.4</ele>
        <time>2022-09-18T07:12:54Z</time>
      </trkpt>
      <trkpt lat="46.5349" lon="0.33544">
        <ele>132.8</ele>
        <time>2022-09-18T07:12:56Z</time>
      </trkpt>
      <trkpt lat="46.53488" lon="0.33538">
        <ele>132.8</ele>
        <time>2022-09-18T07:12:57Z</time>
      </trkpt>
      <trkpt lat="46.53487" lon="0.33529">
        <ele>133</ele>
        <time>2022-09-18T07:12:59Z</time>
      </trkpt>
      <trkpt lat="46.53497" lon="0.3352">
        <ele>133.2</ele>
        <time>2022-09-18T07:13:03Z</time>
      </trkpt>
      <trkpt lat="46.53502" lon="0.33516">
        <ele>133.2</ele>
        <time>2022-09-18T07:13:05Z</time>
      </trkpt>
      <trkpt lat="46.53513" lon="0.33505">
        <ele>133.8</ele>
        <time>2022-09-18T07:13:09Z</time>
      </trkpt>
      <trkpt lat="46.53516" lon="0.33499">
        <ele>134</ele>
        <time>2022-09-18T07:13:11Z</time>
      </trkpt>
      <trkpt lat="46.53518" lon="0.33492">
        <ele>134</ele>
        <time>2022-09-18T07:13:13Z</time>
      </trkpt>
      <trkpt lat="46.53513" lon="0.33481">
        <ele>134.4</ele>
        <time>2022-09-18T07:13:18Z</time>
      </trkpt>
      <trkpt lat="46.53509" lon="0.3347">
        <ele>135.2</ele>
        <time>2022-09-18T07:13:21Z</time>
      </trkpt>
      <trkpt lat="46.53505" lon="0.33461">
        <ele>135.6</ele>
        <time>2022-09-18T07:13:23Z</time>
      </trkpt>
      <trkpt lat="46.53497" lon="0.33432">
        <ele>136</ele>
        <time>2022-09-18T07:13:29Z</time>
      </trkpt>
      <trkpt lat="46.53495" lon="0.33422">
        <ele>136.2</ele>
        <time>2022-09-18T07:13:31Z</time>
      </trkpt>
      <trkpt lat="46.53489" lon="0.33399">
        <ele>136.4</ele>
        <time>2022-09-18T07:13:35Z</time>
      </trkpt>
      <trkpt lat="46.5348" lon="0.33367">
        <ele>136.8</ele>
        <time>2022-09-18T07:13:40Z</time>
      </trkpt>
      <trkpt lat="46.53476" lon="0.33341">
        <ele>137.2</ele>
        <time>2022-09-18T07:13:45Z</time>
      </trkpt>
      <trkpt lat="46.53476" lon="0.33336">
        <ele>137.2</ele>
        <time>2022-09-18T07:13:46Z</time>
      </trkpt>
      <trkpt lat="46.53473" lon="0.33324">
        <ele>137.4</ele>
        <time>2022-09-18T07:13:48Z</time>
      </trkpt>
      <trkpt lat="46.53474" lon="0.33319">
        <ele>137.4</ele>
        <time>2022-09-18T07:13:49Z</time>
      </trkpt>
      <trkpt lat="46.53474" lon="0.33313">
        <ele>137.4</ele>
        <time>2022-09-18T07:13:50Z</time>
      </trkpt>
      <trkpt lat="46.53472" lon="0.33281">
        <ele>137.8</ele>
        <time>2022-09-18T07:13:55Z</time>
      </trkpt>
      <trkpt lat="46.5347" lon="0.33268">
        <ele>138</ele>
        <time>2022-09-18T07:13:57Z</time>
      </trkpt>
      <trkpt lat="46.53469" lon="0.33261">
        <ele>138</ele>
        <time>2022-09-18T07:13:58Z</time>
      </trkpt>
      <trkpt lat="46.53466" lon="0.33243">
        <ele>138.4</ele>
        <time>2022-09-18T07:14:01Z</time>
      </trkpt>
      <trkpt lat="46.53465" lon="0.33235">
        <ele>138.4</ele>
        <time>2022-09-18T07:14:02Z</time>
      </trkpt>
      <trkpt lat="46.53464" lon="0.3323">
        <ele>138.4</ele>
        <time>2022-09-18T07:14:03Z</time>
      </trkpt>
      <trkpt lat="46.53464" lon="0.33219">
        <ele>138.4</ele>
        <time>2022-09-18T07:14:05Z</time>
      </trkpt>
      <trkpt lat="46.53461" lon="0.33201">
        <ele>138.4</ele>
        <time>2022-09-18T07:14:08Z</time>
      </trkpt>
      <trkpt lat="46.53461" lon="0.33178">
        <ele>138</ele>
        <time>2022-09-18T07:14:12Z</time>
      </trkpt>
      <trkpt lat="46.53457" lon="0.33168">
        <ele>138</ele>
        <time>2022-09-18T07:14:14Z</time>
      </trkpt>
      <trkpt lat="46.53456" lon="0.33163">
        <ele>137.4</ele>
        <time>2022-09-18T07:14:15Z</time>
      </trkpt>
      <trkpt lat="46.53455" lon="0.33159">
        <ele>136.8</ele>
        <time>2022-09-18T07:14:16Z</time>
      </trkpt>
      <trkpt lat="46.53451" lon="0.33145">
        <ele>136</ele>
        <time>2022-09-18T07:14:18Z</time>
      </trkpt>
      <trkpt lat="46.53451" lon="0.33138">
        <ele>135.8</ele>
        <time>2022-09-18T07:14:19Z</time>
      </trkpt>
      <trkpt lat="46.5345" lon="0.33132">
        <ele>135.6</ele>
        <time>2022-09-18T07:14:20Z</time>
      </trkpt>
      <trkpt lat="46.53446" lon="0.33119">
        <ele>135.8</ele>
        <time>2022-09-18T07:14:23Z</time>
      </trkpt>
      <trkpt lat="46.53442" lon="0.33109">
        <ele>136.4</ele>
        <time>2022-09-18T07:14:26Z</time>
      </trkpt>
      <trkpt lat="46.53441" lon="0.33107">
        <ele>136.4</ele>
        <time>2022-09-18T07:14:27Z</time>
      </trkpt>
      <trkpt lat="46.53438" lon="0.33105">
        <ele>136.4</ele>
        <time>2022-09-18T07:14:28Z</time>
      </trkpt>
      <trkpt lat="46.53429" lon="0.33096">
        <ele>137</ele>
        <time>2022-09-18T07:14:31Z</time>
      </trkpt>
      <trkpt lat="46.53425" lon="0.33093">
        <ele>137.4</ele>
        <time>2022-09-18T07:14:32Z</time>
      </trkpt>
      <trkpt lat="46.53414" lon="0.33087">
        <ele>138.2</ele>
        <time>2022-09-18T07:14:35Z</time>
      </trkpt>
      <trkpt lat="46.53408" lon="0.33083">
        <ele>138.2</ele>
        <time>2022-09-18T07:14:37Z</time>
      </trkpt>
      <trkpt lat="46.53405" lon="0.33082">
        <ele>138.6</ele>
        <time>2022-09-18T07:14:38Z</time>
      </trkpt>
      <trkpt lat="46.53401" lon="0.33075">
        <ele>139.4</ele>
        <time>2022-09-18T07:14:41Z</time>
      </trkpt>
      <trkpt lat="46.534" lon="0.33074">
        <ele>139.8</ele>
        <time>2022-09-18T07:14:42Z</time>
      </trkpt>
      <trkpt lat="46.53399" lon="0.33069">
        <ele>140.6</ele>
        <time>2022-09-18T07:14:44Z</time>
      </trkpt>
      <trkpt lat="46.53395" lon="0.33057">
        <ele>141.8</ele>
        <time>2022-09-18T07:14:48Z</time>
      </trkpt>
      <trkpt lat="46.5339" lon="0.33042">
        <ele>142.8</ele>
        <time>2022-09-18T07:14:53Z</time>
      </trkpt>
      <trkpt lat="46.53388" lon="0.3304">
        <ele>143</ele>
        <time>2022-09-18T07:14:54Z</time>
      </trkpt>
      <trkpt lat="46.53387" lon="0.33037">
        <ele>143.2</ele>
        <time>2022-09-18T07:14:55Z</time>
      </trkpt>
      <trkpt lat="46.53384" lon="0.33025">
        <ele>144</ele>
        <time>2022-09-18T07:14:59Z</time>
      </trkpt>
      <trkpt lat="46.53382" lon="0.33008">
        <ele>145</ele>
        <time>2022-09-18T07:15:04Z</time>
      </trkpt>
      <trkpt lat="46.53381" lon="0.33005">
        <ele>145.2</ele>
        <time>2022-09-18T07:15:05Z</time>
      </trkpt>
      <trkpt lat="46.53381" lon="0.33003">
        <ele>145.4</ele>
        <time>2022-09-18T07:15:06Z</time>
      </trkpt>
      <trkpt lat="46.53376" lon="0.32989">
        <ele>146.2</ele>
        <time>2022-09-18T07:15:10Z</time>
      </trkpt>
      <trkpt lat="46.5337" lon="0.32968">
        <ele>146.6</ele>
        <time>2022-09-18T07:15:15Z</time>
      </trkpt>
      <trkpt lat="46.53367" lon="0.32964">
        <ele>146.8</ele>
        <time>2022-09-18T07:15:16Z</time>
      </trkpt>
      <trkpt lat="46.5336" lon="0.32964">
        <ele>146.8</ele>
        <time>2022-09-18T07:15:20Z</time>
      </trkpt>
      <trkpt lat="46.53357" lon="0.32966">
        <ele>146.8</ele>
        <time>2022-09-18T07:15:22Z</time>
      </trkpt>
      <trkpt lat="46.53348" lon="0.32968">
        <ele>146.6</ele>
        <time>2022-09-18T07:15:25Z</time>
      </trkpt>
      <trkpt lat="46.53335" lon="0.32981">
        <ele>146.4</ele>
        <time>2022-09-18T07:15:31Z</time>
      </trkpt>
      <trkpt lat="46.53322" lon="0.32994">
        <ele>146.2</ele>
        <time>2022-09-18T07:15:37Z</time>
      </trkpt>
      <trkpt lat="46.53308" lon="0.33003">
        <ele>146.4</ele>
        <time>2022-09-18T07:15:42Z</time>
      </trkpt>
      <trkpt lat="46.53292" lon="0.33011">
        <ele>146.6</ele>
        <time>2022-09-18T07:15:47Z</time>
      </trkpt>
      <trkpt lat="46.53279" lon="0.3301">
        <ele>146.2</ele>
        <time>2022-09-18T07:15:51Z</time>
      </trkpt>
      <trkpt lat="46.53272" lon="0.33003">
        <ele>146.6</ele>
        <time>2022-09-18T07:15:54Z</time>
      </trkpt>
      <trkpt lat="46.53268" lon="0.32999">
        <ele>146.6</ele>
        <time>2022-09-18T07:15:56Z</time>
      </trkpt>
      <trkpt lat="46.53261" lon="0.32995">
        <ele>146.6</ele>
        <time>2022-09-18T07:15:58Z</time>
      </trkpt>
      <trkpt lat="46.53252" lon="0.32995">
        <ele>146.6</ele>
        <time>2022-09-18T07:16:00Z</time>
      </trkpt>
      <trkpt lat="46.53233" lon="0.33">
        <ele>147</ele>
        <time>2022-09-18T07:16:05Z</time>
      </trkpt>
      <trkpt lat="46.53216" lon="0.33004">
        <ele>146.6</ele>
        <time>2022-09-18T07:16:09Z</time>
      </trkpt>
      <trkpt lat="46.53208" lon="0.33006">
        <ele>146.6</ele>
        <time>2022-09-18T07:16:11Z</time>
      </trkpt>
      <trkpt lat="46.53202" lon="0.33004">
        <ele>146.6</ele>
        <time>2022-09-18T07:16:13Z</time>
      </trkpt>
      <trkpt lat="46.532" lon="0.33">
        <ele>146.8</ele>
        <time>2022-09-18T07:16:14Z</time>
      </trkpt>
      <trkpt lat="46.53199" lon="0.32997">
        <ele>146.8</ele>
        <time>2022-09-18T07:16:15Z</time>
      </trkpt>
      <trkpt lat="46.53196" lon="0.32981">
        <ele>146.8</ele>
        <time>2022-09-18T07:16:18Z</time>
      </trkpt>
      <trkpt lat="46.53189" lon="0.32957">
        <ele>146</ele>
        <time>2022-09-18T07:16:23Z</time>
      </trkpt>
      <trkpt lat="46.53188" lon="0.32946">
        <ele>145.8</ele>
        <time>2022-09-18T07:16:25Z</time>
      </trkpt>
      <trkpt lat="46.53191" lon="0.32938">
        <ele>145.4</ele>
        <time>2022-09-18T07:16:27Z</time>
      </trkpt>
      <trkpt lat="46.53195" lon="0.32931">
        <ele>145</ele>
        <time>2022-09-18T07:16:29Z</time>
      </trkpt>
      <trkpt lat="46.53205" lon="0.32918">
        <ele>144.4</ele>
        <time>2022-09-18T07:16:32Z</time>
      </trkpt>
      <trkpt lat="46.53223" lon="0.329">
        <ele>145</ele>
        <time>2022-09-18T07:16:38Z</time>
      </trkpt>
      <trkpt lat="46.53239" lon="0.32887">
        <ele>146.2</ele>
        <time>2022-09-18T07:16:43Z</time>
      </trkpt>
      <trkpt lat="46.53243" lon="0.32884">
        <ele>146.4</ele>
        <time>2022-09-18T07:16:44Z</time>
      </trkpt>
      <trkpt lat="46.53261" lon="0.32872">
        <ele>146.8</ele>
        <time>2022-09-18T07:16:49Z</time>
      </trkpt>
      <trkpt lat="46.53265" lon="0.32869">
        <ele>146.8</ele>
        <time>2022-09-18T07:16:50Z</time>
      </trkpt>
      <trkpt lat="46.53273" lon="0.32864">
        <ele>146.8</ele>
        <time>2022-09-18T07:16:52Z</time>
      </trkpt>
      <trkpt lat="46.53293" lon="0.3285">
        <ele>147</ele>
        <time>2022-09-18T07:16:57Z</time>
      </trkpt>
      <trkpt lat="46.53299" lon="0.32845">
        <ele>147.2</ele>
        <time>2022-09-18T07:16:59Z</time>
      </trkpt>
      <trkpt lat="46.53302" lon="0.32842">
        <ele>147.4</ele>
        <time>2022-09-18T07:17:00Z</time>
      </trkpt>
      <trkpt lat="46.53307" lon="0.32833">
        <ele>147.4</ele>
        <time>2022-09-18T07:17:02Z</time>
      </trkpt>
      <trkpt lat="46.5331" lon="0.32823">
        <ele>147.2</ele>
        <time>2022-09-18T07:17:04Z</time>
      </trkpt>
      <trkpt lat="46.53313" lon="0.32813">
        <ele>147</ele>
        <time>2022-09-18T07:17:06Z</time>
      </trkpt>
      <trkpt lat="46.53314" lon="0.32809">
        <ele>146.8</ele>
        <time>2022-09-18T07:17:07Z</time>
      </trkpt>
      <trkpt lat="46.53315" lon="0.32799">
        <ele>146.8</ele>
        <time>2022-09-18T07:17:09Z</time>
      </trkpt>
      <trkpt lat="46.53316" lon="0.3279">
        <ele>146.8</ele>
        <time>2022-09-18T07:17:11Z</time>
      </trkpt>
      <trkpt lat="46.53316" lon="0.3278">
        <ele>146.6</ele>
        <time>2022-09-18T07:17:13Z</time>
      </trkpt>
      <trkpt lat="46.53314" lon="0.32771">
        <ele>146.4</ele>
        <time>2022-09-18T07:17:15Z</time>
      </trkpt>
      <trkpt lat="46.53311" lon="0.32762">
        <ele>146.2</ele>
        <time>2022-09-18T07:17:17Z</time>
      </trkpt>
      <trkpt lat="46.53311" lon="0.32758">
        <ele>146.2</ele>
        <time>2022-09-18T07:17:18Z</time>
      </trkpt>
      <trkpt lat="46.53311" lon="0.32754">
        <ele>146</ele>
        <time>2022-09-18T07:17:19Z</time>
      </trkpt>
      <trkpt lat="46.53308" lon="0.32733">
        <ele>145.2</ele>
        <time>2022-09-18T07:17:24Z</time>
      </trkpt>
      <trkpt lat="46.53308" lon="0.3273">
        <ele>145.2</ele>
        <time>2022-09-18T07:17:25Z</time>
      </trkpt>
      <trkpt lat="46.53307" lon="0.32722">
        <ele>145.2</ele>
        <time>2022-09-18T07:17:27Z</time>
      </trkpt>
      <trkpt lat="46.53307" lon="0.32716">
        <ele>145.2</ele>
        <time>2022-09-18T07:17:28Z</time>
      </trkpt>
      <trkpt lat="46.53305" lon="0.32698">
        <ele>144.8</ele>
        <time>2022-09-18T07:17:31Z</time>
      </trkpt>
      <trkpt lat="46.53303" lon="0.32676">
        <ele>144.4</ele>
        <time>2022-09-18T07:17:34Z</time>
      </trkpt>
      <trkpt lat="46.53302" lon="0.3267">
        <ele>143.6</ele>
        <time>2022-09-18T07:17:35Z</time>
      </trkpt>
      <trkpt lat="46.53301" lon="0.32664">
        <ele>143.2</ele>
        <time>2022-09-18T07:17:36Z</time>
      </trkpt>
      <trkpt lat="46.53301" lon="0.32652">
        <ele>142.6</ele>
        <time>2022-09-18T07:17:38Z</time>
      </trkpt>
      <trkpt lat="46.53297" lon="0.32637">
        <ele>141.8</ele>
        <time>2022-09-18T07:17:41Z</time>
      </trkpt>
      <trkpt lat="46.53297" lon="0.32637">
        <ele>141.4</ele>
        <time>2022-09-18T07:17:43Z</time>
      </trkpt>
      <trkpt lat="46.53286" lon="0.32625">
        <ele>141.4</ele>
        <time>2022-09-18T07:17:44Z</time>
      </trkpt>
      <trkpt lat="46.53282" lon="0.32624">
        <ele>141.4</ele>
        <time>2022-09-18T07:17:45Z</time>
      </trkpt>
      <trkpt lat="46.53255" lon="0.32614">
        <ele>141.8</ele>
        <time>2022-09-18T07:17:50Z</time>
      </trkpt>
      <trkpt lat="46.53251" lon="0.32612">
        <ele>141.8</ele>
        <time>2022-09-18T07:17:51Z</time>
      </trkpt>
      <trkpt lat="46.53246" lon="0.32604">
        <ele>142</ele>
        <time>2022-09-18T07:17:53Z</time>
      </trkpt>
      <trkpt lat="46.53242" lon="0.32576">
        <ele>142</ele>
        <time>2022-09-18T07:17:57Z</time>
      </trkpt>
      <trkpt lat="46.53237" lon="0.32547">
        <ele>141</ele>
        <time>2022-09-18T07:18:00Z</time>
      </trkpt>
      <trkpt lat="46.53236" lon="0.32538">
        <ele>140.6</ele>
        <time>2022-09-18T07:18:01Z</time>
      </trkpt>
      <trkpt lat="46.53235" lon="0.32529">
        <ele>140.4</ele>
        <time>2022-09-18T07:18:02Z</time>
      </trkpt>
      <trkpt lat="46.53235" lon="0.3252">
        <ele>140.2</ele>
        <time>2022-09-18T07:18:03Z</time>
      </trkpt>
      <trkpt lat="46.53228" lon="0.32496">
        <ele>139.4</ele>
        <time>2022-09-18T07:18:05Z</time>
      </trkpt>
      <trkpt lat="46.53226" lon="0.32488">
        <ele>138.8</ele>
        <time>2022-09-18T07:18:06Z</time>
      </trkpt>
      <trkpt lat="46.53226" lon="0.32484">
        <ele>138.2</ele>
        <time>2022-09-18T07:18:07Z</time>
      </trkpt>
      <trkpt lat="46.5323" lon="0.32483">
        <ele>137.4</ele>
        <time>2022-09-18T07:18:09Z</time>
      </trkpt>
      <trkpt lat="46.53233" lon="0.32481">
        <ele>137.2</ele>
        <time>2022-09-18T07:18:10Z</time>
      </trkpt>
      <trkpt lat="46.53245" lon="0.32477">
        <ele>136.4</ele>
        <time>2022-09-18T07:18:13Z</time>
      </trkpt>
      <trkpt lat="46.53249" lon="0.32477">
        <ele>136.4</ele>
        <time>2022-09-18T07:18:14Z</time>
      </trkpt>
      <trkpt lat="46.53254" lon="0.32478">
        <ele>136</ele>
        <time>2022-09-18T07:18:15Z</time>
      </trkpt>
      <trkpt lat="46.53264" lon="0.32478">
        <ele>135.2</ele>
        <time>2022-09-18T07:18:17Z</time>
      </trkpt>
      <trkpt lat="46.53272" lon="0.32474">
        <ele>134.6</ele>
        <time>2022-09-18T07:18:19Z</time>
      </trkpt>
      <trkpt lat="46.53275" lon="0.32471">
        <ele>134.2</ele>
        <time>2022-09-18T07:18:20Z</time>
      </trkpt>
      <trkpt lat="46.53278" lon="0.32466">
        <ele>133.8</ele>
        <time>2022-09-18T07:18:21Z</time>
      </trkpt>
      <trkpt lat="46.53282" lon="0.32454">
        <ele>133</ele>
        <time>2022-09-18T07:18:23Z</time>
      </trkpt>
      <trkpt lat="46.53286" lon="0.32451">
        <ele>132.8</ele>
        <time>2022-09-18T07:18:24Z</time>
      </trkpt>
      <trkpt lat="46.53289" lon="0.3245">
        <ele>132.2</ele>
        <time>2022-09-18T07:18:25Z</time>
      </trkpt>
      <trkpt lat="46.53293" lon="0.3245">
        <ele>132</ele>
        <time>2022-09-18T07:18:26Z</time>
      </trkpt>
      <trkpt lat="46.53296" lon="0.32451">
        <ele>130.8</ele>
        <time>2022-09-18T07:18:27Z</time>
      </trkpt>
      <trkpt lat="46.53304" lon="0.32452">
        <ele>129</ele>
        <time>2022-09-18T07:18:29Z</time>
      </trkpt>
      <trkpt lat="46.5331" lon="0.32453">
        <ele>127.8</ele>
        <time>2022-09-18T07:18:31Z</time>
      </trkpt>
      <trkpt lat="46.53315" lon="0.32456">
        <ele>126.4</ele>
        <time>2022-09-18T07:18:33Z</time>
      </trkpt>
      <trkpt lat="46.53321" lon="0.32457">
        <ele>125.2</ele>
        <time>2022-09-18T07:18:35Z</time>
      </trkpt>
      <trkpt lat="46.53327" lon="0.32457">
        <ele>123.4</ele>
        <time>2022-09-18T07:18:37Z</time>
      </trkpt>
      <trkpt lat="46.5333" lon="0.32457">
        <ele>122.2</ele>
        <time>2022-09-18T07:18:38Z</time>
      </trkpt>
      <trkpt lat="46.53333" lon="0.32457">
        <ele>121.4</ele>
        <time>2022-09-18T07:18:39Z</time>
      </trkpt>
      <trkpt lat="46.53335" lon="0.32456">
        <ele>120.2</ele>
        <time>2022-09-18T07:18:40Z</time>
      </trkpt>
      <trkpt lat="46.53336" lon="0.32457">
        <ele>119.6</ele>
        <time>2022-09-18T07:18:41Z</time>
      </trkpt>
      <trkpt lat="46.53338" lon="0.32459">
        <ele>119.2</ele>
        <time>2022-09-18T07:18:43Z</time>
      </trkpt>
      <trkpt lat="46.53339" lon="0.3246">
        <ele>119.2</ele>
        <time>2022-09-18T07:18:44Z</time>
      </trkpt>
      <trkpt lat="46.5334" lon="0.32464">
        <ele>119.6</ele>
        <time>2022-09-18T07:18:46Z</time>
      </trkpt>
      <trkpt lat="46.5334" lon="0.32467">
        <ele>120.6</ele>
        <time>2022-09-18T07:18:49Z</time>
      </trkpt>
      <trkpt lat="46.53341" lon="0.3247">
        <ele>121.6</ele>
        <time>2022-09-18T07:18:51Z</time>
      </trkpt>
      <trkpt lat="46.5334" lon="0.32474">
        <ele>122.6</ele>
        <time>2022-09-18T07:18:55Z</time>
      </trkpt>
      <trkpt lat="46.53339" lon="0.32474">
        <ele>123</ele>
        <time>2022-09-18T07:18:56Z</time>
      </trkpt>
      <trkpt lat="46.53338" lon="0.32475">
        <ele>123.6</ele>
        <time>2022-09-18T07:18:58Z</time>
      </trkpt>
      <trkpt lat="46.53337" lon="0.32475">
        <ele>124</ele>
        <time>2022-09-18T07:18:59Z</time>
      </trkpt>
      <trkpt lat="46.53335" lon="0.32478">
        <ele>124.8</ele>
        <time>2022-09-18T07:19:01Z</time>
      </trkpt>
      <trkpt lat="46.53333" lon="0.32481">
        <ele>125.2</ele>
        <time>2022-09-18T07:19:03Z</time>
      </trkpt>
      <trkpt lat="46.53333" lon="0.32482">
        <ele>125.6</ele>
        <time>2022-09-18T07:19:04Z</time>
      </trkpt>
      <trkpt lat="46.53332" lon="0.32484">
        <ele>126</ele>
        <time>2022-09-18T07:19:05Z</time>
      </trkpt>
      <trkpt lat="46.53329" lon="0.32489">
        <ele>127.4</ele>
        <time>2022-09-18T07:19:09Z</time>
      </trkpt>
      <trkpt lat="46.53328" lon="0.3249">
        <ele>127.6</ele>
        <time>2022-09-18T07:19:10Z</time>
      </trkpt>
      <trkpt lat="46.53322" lon="0.32493">
        <ele>128.6</ele>
        <time>2022-09-18T07:19:14Z</time>
      </trkpt>
      <trkpt lat="46.53319" lon="0.32495">
        <ele>129.6</ele>
        <time>2022-09-18T07:19:17Z</time>
      </trkpt>
      <trkpt lat="46.53317" lon="0.32497">
        <ele>130</ele>
        <time>2022-09-18T07:19:19Z</time>
      </trkpt>
      <trkpt lat="46.53316" lon="0.32499">
        <ele>130.4</ele>
        <time>2022-09-18T07:19:20Z</time>
      </trkpt>
      <trkpt lat="46.53316" lon="0.325">
        <ele>130.8</ele>
        <time>2022-09-18T07:19:21Z</time>
      </trkpt>
      <trkpt lat="46.53316" lon="0.32505">
        <ele>131.6</ele>
        <time>2022-09-18T07:19:24Z</time>
      </trkpt>
      <trkpt lat="46.53315" lon="0.32507">
        <ele>131.8</ele>
        <time>2022-09-18T07:19:25Z</time>
      </trkpt>
      <trkpt lat="46.53314" lon="0.32515">
        <ele>132.8</ele>
        <time>2022-09-18T07:19:30Z</time>
      </trkpt>
      <trkpt lat="46.53315" lon="0.32516">
        <ele>133</ele>
        <time>2022-09-18T07:19:31Z</time>
      </trkpt>
      <trkpt lat="46.53313" lon="0.32524">
        <ele>134.2</ele>
        <time>2022-09-18T07:19:36Z</time>
      </trkpt>
      <trkpt lat="46.53313" lon="0.32525">
        <ele>134.4</ele>
        <time>2022-09-18T07:19:37Z</time>
      </trkpt>
      <trkpt lat="46.53313" lon="0.32527">
        <ele>134.6</ele>
        <time>2022-09-18T07:19:38Z</time>
      </trkpt>
      <trkpt lat="46.5331" lon="0.32535">
        <ele>135.4</ele>
        <time>2022-09-18T07:19:43Z</time>
      </trkpt>
      <trkpt lat="46.53309" lon="0.32539">
        <ele>135.6</ele>
        <time>2022-09-18T07:19:45Z</time>
      </trkpt>
      <trkpt lat="46.53308" lon="0.3255">
        <ele>136.6</ele>
        <time>2022-09-18T07:19:50Z</time>
      </trkpt>
      <trkpt lat="46.53308" lon="0.32554">
        <ele>137</ele>
        <time>2022-09-18T07:19:52Z</time>
      </trkpt>
      <trkpt lat="46.53308" lon="0.32564">
        <ele>137.6</ele>
        <time>2022-09-18T07:19:56Z</time>
      </trkpt>
      <trkpt lat="46.5331" lon="0.32575">
        <ele>138</ele>
        <time>2022-09-18T07:19:59Z</time>
      </trkpt>
      <trkpt lat="46.53312" lon="0.32586">
        <ele>138.8</ele>
        <time>2022-09-18T07:20:03Z</time>
      </trkpt>
      <trkpt lat="46.53313" lon="0.32597">
        <ele>139.4</ele>
        <time>2022-09-18T07:20:07Z</time>
      </trkpt>
      <trkpt lat="46.53319" lon="0.32603">
        <ele>139.8</ele>
        <time>2022-09-18T07:20:10Z</time>
      </trkpt>
      <trkpt lat="46.53325" lon="0.32608">
        <ele>140</ele>
        <time>2022-09-18T07:20:12Z</time>
      </trkpt>
      <trkpt lat="46.53345" lon="0.32622">
        <ele>139.8</ele>
        <time>2022-09-18T07:20:18Z</time>
      </trkpt>
      <trkpt lat="46.53366" lon="0.32639">
        <ele>140</ele>
        <time>2022-09-18T07:20:24Z</time>
      </trkpt>
      <trkpt lat="46.53378" lon="0.32647">
        <ele>140.2</ele>
        <time>2022-09-18T07:20:27Z</time>
      </trkpt>
      <trkpt lat="46.5339" lon="0.32652">
        <ele>140.4</ele>
        <time>2022-09-18T07:20:30Z</time>
      </trkpt>
      <trkpt lat="46.53394" lon="0.32652">
        <ele>140.4</ele>
        <time>2022-09-18T07:20:31Z</time>
      </trkpt>
      <trkpt lat="46.53402" lon="0.3265">
        <ele>140.2</ele>
        <time>2022-09-18T07:20:33Z</time>
      </trkpt>
      <trkpt lat="46.53406" lon="0.32649">
        <ele>140.2</ele>
        <time>2022-09-18T07:20:34Z</time>
      </trkpt>
      <trkpt lat="46.53411" lon="0.32648">
        <ele>140.2</ele>
        <time>2022-09-18T07:20:35Z</time>
      </trkpt>
      <trkpt lat="46.5343" lon="0.32647">
        <ele>139</ele>
        <time>2022-09-18T07:20:39Z</time>
      </trkpt>
      <trkpt lat="46.53436" lon="0.32645">
        <ele>138.6</ele>
        <time>2022-09-18T07:20:40Z</time>
      </trkpt>
      <trkpt lat="46.53459" lon="0.32637">
        <ele>137.6</ele>
        <time>2022-09-18T07:20:44Z</time>
      </trkpt>
      <trkpt lat="46.5348" lon="0.3263">
        <ele>136.2</ele>
        <time>2022-09-18T07:20:47Z</time>
      </trkpt>
      <trkpt lat="46.53494" lon="0.32624">
        <ele>134.4</ele>
        <time>2022-09-18T07:20:49Z</time>
      </trkpt>
      <trkpt lat="46.53502" lon="0.3262">
        <ele>133.8</ele>
        <time>2022-09-18T07:20:50Z</time>
      </trkpt>
      <trkpt lat="46.53515" lon="0.32614">
        <ele>133</ele>
        <time>2022-09-18T07:20:52Z</time>
      </trkpt>
      <trkpt lat="46.53528" lon="0.32608">
        <ele>130.8</ele>
        <time>2022-09-18T07:20:54Z</time>
      </trkpt>
      <trkpt lat="46.53534" lon="0.32606">
        <ele>129.8</ele>
        <time>2022-09-18T07:20:55Z</time>
      </trkpt>
      <trkpt lat="46.53541" lon="0.32606">
        <ele>129.2</ele>
        <time>2022-09-18T07:20:56Z</time>
      </trkpt>
      <trkpt lat="46.53563" lon="0.32605">
        <ele>127.8</ele>
        <time>2022-09-18T07:20:59Z</time>
      </trkpt>
      <trkpt lat="46.53571" lon="0.32603">
        <ele>127.2</ele>
        <time>2022-09-18T07:21:00Z</time>
      </trkpt>
      <trkpt lat="46.53579" lon="0.326">
        <ele>126.8</ele>
        <time>2022-09-18T07:21:01Z</time>
      </trkpt>
      <trkpt lat="46.53586" lon="0.32597">
        <ele>125.2</ele>
        <time>2022-09-18T07:21:02Z</time>
      </trkpt>
      <trkpt lat="46.53598" lon="0.32592">
        <ele>123</ele>
        <time>2022-09-18T07:21:04Z</time>
      </trkpt>
      <trkpt lat="46.53603" lon="0.32591">
        <ele>122</ele>
        <time>2022-09-18T07:21:05Z</time>
      </trkpt>
      <trkpt lat="46.53614" lon="0.32592">
        <ele>120</ele>
        <time>2022-09-18T07:21:07Z</time>
      </trkpt>
      <trkpt lat="46.53618" lon="0.32591">
        <ele>119.2</ele>
        <time>2022-09-18T07:21:08Z</time>
      </trkpt>
      <trkpt lat="46.53622" lon="0.3259">
        <ele>118.4</ele>
        <time>2022-09-18T07:21:09Z</time>
      </trkpt>
      <trkpt lat="46.53627" lon="0.32589">
        <ele>117.2</ele>
        <time>2022-09-18T07:21:11Z</time>
      </trkpt>
      <trkpt lat="46.53629" lon="0.32589">
        <ele>117</ele>
        <time>2022-09-18T07:21:12Z</time>
      </trkpt>
      <trkpt lat="46.53633" lon="0.32587">
        <ele>116.2</ele>
        <time>2022-09-18T07:21:15Z</time>
      </trkpt>
      <trkpt lat="46.53635" lon="0.32587">
        <ele>115.6</ele>
        <time>2022-09-18T07:21:17Z</time>
      </trkpt>
      <trkpt lat="46.53636" lon="0.32587">
        <ele>115.6</ele>
        <time>2022-09-18T07:21:18Z</time>
      </trkpt>
      <trkpt lat="46.53642" lon="0.3259">
        <ele>116</ele>
        <time>2022-09-18T07:21:23Z</time>
      </trkpt>
      <trkpt lat="46.53642" lon="0.32591">
        <ele>116.4</ele>
        <time>2022-09-18T07:21:24Z</time>
      </trkpt>
      <trkpt lat="46.53642" lon="0.32592">
        <ele>116.6</ele>
        <time>2022-09-18T07:21:25Z</time>
      </trkpt>
      <trkpt lat="46.53643" lon="0.32593">
        <ele>117.4</ele>
        <time>2022-09-18T07:21:27Z</time>
      </trkpt>
      <trkpt lat="46.53643" lon="0.32594">
        <ele>117.8</ele>
        <time>2022-09-18T07:21:28Z</time>
      </trkpt>
      <trkpt lat="46.53645" lon="0.32599">
        <ele>118.4</ele>
        <time>2022-09-18T07:21:30Z</time>
      </trkpt>
      <trkpt lat="46.53645" lon="0.32601">
        <ele>118.8</ele>
        <time>2022-09-18T07:21:31Z</time>
      </trkpt>
      <trkpt lat="46.53645" lon="0.32603">
        <ele>119</ele>
        <time>2022-09-18T07:21:32Z</time>
      </trkpt>
      <trkpt lat="46.53644" lon="0.32605">
        <ele>119.6</ele>
        <time>2022-09-18T07:21:33Z</time>
      </trkpt>
      <trkpt lat="46.53643" lon="0.32607">
        <ele>120.6</ele>
        <time>2022-09-18T07:21:35Z</time>
      </trkpt>
      <trkpt lat="46.53642" lon="0.32609">
        <ele>121</ele>
        <time>2022-09-18T07:21:36Z</time>
      </trkpt>
      <trkpt lat="46.53641" lon="0.32611">
        <ele>121.6</ele>
        <time>2022-09-18T07:21:38Z</time>
      </trkpt>
      <trkpt lat="46.53642" lon="0.32614">
        <ele>121.8</ele>
        <time>2022-09-18T07:21:39Z</time>
      </trkpt>
      <trkpt lat="46.53642" lon="0.32621">
        <ele>122.8</ele>
        <time>2022-09-18T07:21:42Z</time>
      </trkpt>
      <trkpt lat="46.53642" lon="0.32623">
        <ele>123</ele>
        <time>2022-09-18T07:21:43Z</time>
      </trkpt>
      <trkpt lat="46.53642" lon="0.3263">
        <ele>123.6</ele>
        <time>2022-09-18T07:21:46Z</time>
      </trkpt>
      <trkpt lat="46.53643" lon="0.32632">
        <ele>123.8</ele>
        <time>2022-09-18T07:21:47Z</time>
      </trkpt>
      <trkpt lat="46.53645" lon="0.32635">
        <ele>124.2</ele>
        <time>2022-09-18T07:21:49Z</time>
      </trkpt>
      <trkpt lat="46.53656" lon="0.32647">
        <ele>125</ele>
        <time>2022-09-18T07:21:56Z</time>
      </trkpt>
      <trkpt lat="46.53658" lon="0.32658">
        <ele>126.4</ele>
        <time>2022-09-18T07:22:01Z</time>
      </trkpt>
      <trkpt lat="46.53658" lon="0.3266">
        <ele>126.8</ele>
        <time>2022-09-18T07:22:03Z</time>
      </trkpt>
      <trkpt lat="46.53658" lon="0.32667">
        <ele>127.6</ele>
        <time>2022-09-18T07:22:06Z</time>
      </trkpt>
      <trkpt lat="46.53657" lon="0.32674">
        <ele>128.4</ele>
        <time>2022-09-18T07:22:09Z</time>
      </trkpt>
      <trkpt lat="46.53656" lon="0.32676">
        <ele>128.6</ele>
        <time>2022-09-18T07:22:10Z</time>
      </trkpt>
      <trkpt lat="46.53654" lon="0.32681">
        <ele>129.8</ele>
        <time>2022-09-18T07:22:14Z</time>
      </trkpt>
      <trkpt lat="46.53651" lon="0.32688">
        <ele>130.8</ele>
        <time>2022-09-18T07:22:18Z</time>
      </trkpt>
      <trkpt lat="46.5365" lon="0.3269">
        <ele>131</ele>
        <time>2022-09-18T07:22:19Z</time>
      </trkpt>
      <trkpt lat="46.53648" lon="0.32697">
        <ele>132</ele>
        <time>2022-09-18T07:22:23Z</time>
      </trkpt>
      <trkpt lat="46.53647" lon="0.32699">
        <ele>132.6</ele>
        <time>2022-09-18T07:22:25Z</time>
      </trkpt>
      <trkpt lat="46.53644" lon="0.32704">
        <ele>133</ele>
        <time>2022-09-18T07:22:28Z</time>
      </trkpt>
      <trkpt lat="46.53642" lon="0.3271">
        <ele>134</ele>
        <time>2022-09-18T07:22:31Z</time>
      </trkpt>
      <trkpt lat="46.53642" lon="0.32713">
        <ele>134.2</ele>
        <time>2022-09-18T07:22:32Z</time>
      </trkpt>
      <trkpt lat="46.53641" lon="0.32724">
        <ele>135.4</ele>
        <time>2022-09-18T07:22:37Z</time>
      </trkpt>
      <trkpt lat="46.53641" lon="0.32727">
        <ele>135.8</ele>
        <time>2022-09-18T07:22:38Z</time>
      </trkpt>
      <trkpt lat="46.53646" lon="0.3274">
        <ele>136.4</ele>
        <time>2022-09-18T07:22:44Z</time>
      </trkpt>
      <trkpt lat="46.5365" lon="0.32741">
        <ele>136.4</ele>
        <time>2022-09-18T07:22:46Z</time>
      </trkpt>
      <trkpt lat="46.53658" lon="0.3274">
        <ele>136</ele>
        <time>2022-09-18T07:22:49Z</time>
      </trkpt>
      <trkpt lat="46.53661" lon="0.3274">
        <ele>135.8</ele>
        <time>2022-09-18T07:22:50Z</time>
      </trkpt>
      <trkpt lat="46.53679" lon="0.32744">
        <ele>135.4</ele>
        <time>2022-09-18T07:22:54Z</time>
      </trkpt>
      <trkpt lat="46.53693" lon="0.32746">
        <ele>134.4</ele>
        <time>2022-09-18T07:22:57Z</time>
      </trkpt>
      <trkpt lat="46.53709" lon="0.32749">
        <ele>134</ele>
        <time>2022-09-18T07:23:00Z</time>
      </trkpt>
      <trkpt lat="46.53719" lon="0.3275">
        <ele>133.2</ele>
        <time>2022-09-18T07:23:02Z</time>
      </trkpt>
      <trkpt lat="46.53748" lon="0.32755">
        <ele>132.4</ele>
        <time>2022-09-18T07:23:07Z</time>
      </trkpt>
      <trkpt lat="46.53759" lon="0.32757">
        <ele>132</ele>
        <time>2022-09-18T07:23:09Z</time>
      </trkpt>
      <trkpt lat="46.53775" lon="0.3276">
        <ele>131.2</ele>
        <time>2022-09-18T07:23:12Z</time>
      </trkpt>
      <trkpt lat="46.53781" lon="0.32762">
        <ele>131</ele>
        <time>2022-09-18T07:23:13Z</time>
      </trkpt>
      <trkpt lat="46.53825" lon="0.32781">
        <ele>130.6</ele>
        <time>2022-09-18T07:23:20Z</time>
      </trkpt>
      <trkpt lat="46.53842" lon="0.32792">
        <ele>130.4</ele>
        <time>2022-09-18T07:23:23Z</time>
      </trkpt>
      <trkpt lat="46.53847" lon="0.32795">
        <ele>130.4</ele>
        <time>2022-09-18T07:23:24Z</time>
      </trkpt>
      <trkpt lat="46.53869" lon="0.32805">
        <ele>130</ele>
        <time>2022-09-18T07:23:28Z</time>
      </trkpt>
      <trkpt lat="46.53878" lon="0.32807">
        <ele>130</ele>
        <time>2022-09-18T07:23:30Z</time>
      </trkpt>
      <trkpt lat="46.53888" lon="0.32809">
        <ele>129.4</ele>
        <time>2022-09-18T07:23:32Z</time>
      </trkpt>
      <trkpt lat="46.53903" lon="0.32805">
        <ele>128.6</ele>
        <time>2022-09-18T07:23:35Z</time>
      </trkpt>
      <trkpt lat="46.53922" lon="0.32804">
        <ele>127.4</ele>
        <time>2022-09-18T07:23:39Z</time>
      </trkpt>
      <trkpt lat="46.5393" lon="0.32804">
        <ele>126</ele>
        <time>2022-09-18T07:23:41Z</time>
      </trkpt>
      <trkpt lat="46.53934" lon="0.32803">
        <ele>125.2</ele>
        <time>2022-09-18T07:23:42Z</time>
      </trkpt>
      <trkpt lat="46.53937" lon="0.32803">
        <ele>124.6</ele>
        <time>2022-09-18T07:23:43Z</time>
      </trkpt>
      <trkpt lat="46.53943" lon="0.32802">
        <ele>123.6</ele>
        <time>2022-09-18T07:23:45Z</time>
      </trkpt>
      <trkpt lat="46.53951" lon="0.32803">
        <ele>122.6</ele>
        <time>2022-09-18T07:23:53Z</time>
      </trkpt>
      <trkpt lat="46.53961" lon="0.32806">
        <ele>122.4</ele>
        <time>2022-09-18T07:23:58Z</time>
      </trkpt>
      <trkpt lat="46.53963" lon="0.32807">
        <ele>122.4</ele>
        <time>2022-09-18T07:24:00Z</time>
      </trkpt>
      <trkpt lat="46.53964" lon="0.32807">
        <ele>122.6</ele>
        <time>2022-09-18T07:24:02Z</time>
      </trkpt>
      <trkpt lat="46.53968" lon="0.32809">
        <ele>123.6</ele>
        <time>2022-09-18T07:24:08Z</time>
      </trkpt>
      <trkpt lat="46.53972" lon="0.32811">
        <ele>123.6</ele>
        <time>2022-09-18T07:24:11Z</time>
      </trkpt>
      <trkpt lat="46.53974" lon="0.32812">
        <ele>123.6</ele>
        <time>2022-09-18T07:24:12Z</time>
      </trkpt>
      <trkpt lat="46.53977" lon="0.3282">
        <ele>124.4</ele>
        <time>2022-09-18T07:24:17Z</time>
      </trkpt>
      <trkpt lat="46.53976" lon="0.32822">
        <ele>124.8</ele>
        <time>2022-09-18T07:24:18Z</time>
      </trkpt>
      <trkpt lat="46.53972" lon="0.32829">
        <ele>126</ele>
        <time>2022-09-18T07:24:22Z</time>
      </trkpt>
      <trkpt lat="46.53969" lon="0.32831">
        <ele>126.8</ele>
        <time>2022-09-18T07:24:24Z</time>
      </trkpt>
      <trkpt lat="46.53968" lon="0.32831">
        <ele>127.2</ele>
        <time>2022-09-18T07:24:25Z</time>
      </trkpt>
      <trkpt lat="46.53966" lon="0.32832">
        <ele>127.6</ele>
        <time>2022-09-18T07:24:27Z</time>
      </trkpt>
      <trkpt lat="46.53963" lon="0.32833">
        <ele>127.6</ele>
        <time>2022-09-18T07:24:29Z</time>
      </trkpt>
      <trkpt lat="46.53953" lon="0.32838">
        <ele>128.2</ele>
        <time>2022-09-18T07:24:34Z</time>
      </trkpt>
      <trkpt lat="46.53952" lon="0.3284">
        <ele>128.2</ele>
        <time>2022-09-18T07:24:35Z</time>
      </trkpt>
      <trkpt lat="46.53951" lon="0.32844">
        <ele>128.4</ele>
        <time>2022-09-18T07:24:37Z</time>
      </trkpt>
      <trkpt lat="46.53948" lon="0.32849">
        <ele>128.8</ele>
        <time>2022-09-18T07:24:39Z</time>
      </trkpt>
      <trkpt lat="46.53946" lon="0.32851">
        <ele>128.8</ele>
        <time>2022-09-18T07:24:40Z</time>
      </trkpt>
      <trkpt lat="46.53942" lon="0.32854">
        <ele>128.8</ele>
        <time>2022-09-18T07:24:43Z</time>
      </trkpt>
      <trkpt lat="46.53937" lon="0.32855">
        <ele>129.6</ele>
        <time>2022-09-18T07:24:46Z</time>
      </trkpt>
      <trkpt lat="46.53935" lon="0.32856">
        <ele>130</ele>
        <time>2022-09-18T07:24:47Z</time>
      </trkpt>
      <trkpt lat="46.53928" lon="0.32862">
        <ele>130.8</ele>
        <time>2022-09-18T07:24:51Z</time>
      </trkpt>
      <trkpt lat="46.53926" lon="0.32863">
        <ele>131</ele>
        <time>2022-09-18T07:24:52Z</time>
      </trkpt>
      <trkpt lat="46.53915" lon="0.32869">
        <ele>131.6</ele>
        <time>2022-09-18T07:24:58Z</time>
      </trkpt>
      <trkpt lat="46.53914" lon="0.32872">
        <ele>131.8</ele>
        <time>2022-09-18T07:24:59Z</time>
      </trkpt>
      <trkpt lat="46.5391" lon="0.32877">
        <ele>132.2</ele>
        <time>2022-09-18T07:25:02Z</time>
      </trkpt>
      <trkpt lat="46.53909" lon="0.32879">
        <ele>132.2</ele>
        <time>2022-09-18T07:25:03Z</time>
      </trkpt>
      <trkpt lat="46.53906" lon="0.32894">
        <ele>131.6</ele>
        <time>2022-09-18T07:25:08Z</time>
      </trkpt>
      <trkpt lat="46.53904" lon="0.32898">
        <ele>130.8</ele>
        <time>2022-09-18T07:25:10Z</time>
      </trkpt>
      <trkpt lat="46.53902" lon="0.32902">
        <ele>130</ele>
        <time>2022-09-18T07:25:12Z</time>
      </trkpt>
      <trkpt lat="46.539" lon="0.32904">
        <ele>129.6</ele>
        <time>2022-09-18T07:25:13Z</time>
      </trkpt>
      <trkpt lat="46.53895" lon="0.3291">
        <ele>129</ele>
        <time>2022-09-18T07:25:17Z</time>
      </trkpt>
      <trkpt lat="46.53892" lon="0.32914">
        <ele>129.2</ele>
        <time>2022-09-18T07:25:19Z</time>
      </trkpt>
      <trkpt lat="46.53883" lon="0.3293">
        <ele>129</ele>
        <time>2022-09-18T07:25:24Z</time>
      </trkpt>
      <trkpt lat="46.5388" lon="0.32935">
        <ele>129</ele>
        <time>2022-09-18T07:25:26Z</time>
      </trkpt>
      <trkpt lat="46.53876" lon="0.32943">
        <ele>128.8</ele>
        <time>2022-09-18T07:25:29Z</time>
      </trkpt>
      <trkpt lat="46.53874" lon="0.32946">
        <ele>128.6</ele>
        <time>2022-09-18T07:25:30Z</time>
      </trkpt>
      <trkpt lat="46.53872" lon="0.3295">
        <ele>128.4</ele>
        <time>2022-09-18T07:25:31Z</time>
      </trkpt>
      <trkpt lat="46.53866" lon="0.32958">
        <ele>127.6</ele>
        <time>2022-09-18T07:25:33Z</time>
      </trkpt>
      <trkpt lat="46.53863" lon="0.32962">
        <ele>127.4</ele>
        <time>2022-09-18T07:25:34Z</time>
      </trkpt>
      <trkpt lat="46.53861" lon="0.32966">
        <ele>126.8</ele>
        <time>2022-09-18T07:25:35Z</time>
      </trkpt>
      <trkpt lat="46.53858" lon="0.32969">
        <ele>126.2</ele>
        <time>2022-09-18T07:25:36Z</time>
      </trkpt>
      <trkpt lat="46.5385" lon="0.3298">
        <ele>125.2</ele>
        <time>2022-09-18T07:25:39Z</time>
      </trkpt>
      <trkpt lat="46.53836" lon="0.32992">
        <ele>125.8</ele>
        <time>2022-09-18T07:25:45Z</time>
      </trkpt>
      <trkpt lat="46.5383" lon="0.33">
        <ele>126.2</ele>
        <time>2022-09-18T07:25:48Z</time>
      </trkpt>
      <trkpt lat="46.53824" lon="0.33006">
        <ele>126.4</ele>
        <time>2022-09-18T07:25:50Z</time>
      </trkpt>
      <trkpt lat="46.53818" lon="0.33021">
        <ele>127.2</ele>
        <time>2022-09-18T07:25:53Z</time>
      </trkpt>
      <trkpt lat="46.53816" lon="0.33026">
        <ele>127.4</ele>
        <time>2022-09-18T07:25:54Z</time>
      </trkpt>
      <trkpt lat="46.53813" lon="0.3303">
        <ele>127.6</ele>
        <time>2022-09-18T07:25:55Z</time>
      </trkpt>
      <trkpt lat="46.5381" lon="0.33034">
        <ele>128</ele>
        <time>2022-09-18T07:25:56Z</time>
      </trkpt>
      <trkpt lat="46.53806" lon="0.33043">
        <ele>128.6</ele>
        <time>2022-09-18T07:25:58Z</time>
      </trkpt>
      <trkpt lat="46.53797" lon="0.3306">
        <ele>129.2</ele>
        <time>2022-09-18T07:26:02Z</time>
      </trkpt>
      <trkpt lat="46.53795" lon="0.33064">
        <ele>129.4</ele>
        <time>2022-09-18T07:26:03Z</time>
      </trkpt>
      <trkpt lat="46.53781" lon="0.33094">
        <ele>129.4</ele>
        <time>2022-09-18T07:26:08Z</time>
      </trkpt>
      <trkpt lat="46.53778" lon="0.33099">
        <ele>129.4</ele>
        <time>2022-09-18T07:26:09Z</time>
      </trkpt>
      <trkpt lat="46.53762" lon="0.33123">
        <ele>129.4</ele>
        <time>2022-09-18T07:26:13Z</time>
      </trkpt>
      <trkpt lat="46.53758" lon="0.33128">
        <ele>129.4</ele>
        <time>2022-09-18T07:26:14Z</time>
      </trkpt>
      <trkpt lat="46.53739" lon="0.33152">
        <ele>129.4</ele>
        <time>2022-09-18T07:26:18Z</time>
      </trkpt>
      <trkpt lat="46.53729" lon="0.33167">
        <ele>129.8</ele>
        <time>2022-09-18T07:26:21Z</time>
      </trkpt>
      <trkpt lat="46.53729" lon="0.33172">
        <ele>129.8</ele>
        <time>2022-09-18T07:26:22Z</time>
      </trkpt>
      <trkpt lat="46.5373" lon="0.33175">
        <ele>129.8</ele>
        <time>2022-09-18T07:26:23Z</time>
      </trkpt>
      <trkpt lat="46.53735" lon="0.33183">
        <ele>129.6</ele>
        <time>2022-09-18T07:26:26Z</time>
      </trkpt>
      <trkpt lat="46.53739" lon="0.33186">
        <ele>129.6</ele>
        <time>2022-09-18T07:26:28Z</time>
      </trkpt>
      <trkpt lat="46.53741" lon="0.33194">
        <ele>129.2</ele>
        <time>2022-09-18T07:26:30Z</time>
      </trkpt>
      <trkpt lat="46.53743" lon="0.332">
        <ele>128.8</ele>
        <time>2022-09-18T07:26:32Z</time>
      </trkpt>
      <trkpt lat="46.53745" lon="0.33201">
        <ele>128.6</ele>
        <time>2022-09-18T07:26:33Z</time>
      </trkpt>
      <trkpt lat="46.53747" lon="0.33201">
        <ele>128.4</ele>
        <time>2022-09-18T07:26:34Z</time>
      </trkpt>
      <trkpt lat="46.53749" lon="0.33201">
        <ele>127.8</ele>
        <time>2022-09-18T07:26:35Z</time>
      </trkpt>
      <trkpt lat="46.53751" lon="0.33202">
        <ele>127.4</ele>
        <time>2022-09-18T07:26:36Z</time>
      </trkpt>
      <trkpt lat="46.53753" lon="0.33204">
        <ele>127</ele>
        <time>2022-09-18T07:26:37Z</time>
      </trkpt>
      <trkpt lat="46.53753" lon="0.33206">
        <ele>126.8</ele>
        <time>2022-09-18T07:26:38Z</time>
      </trkpt>
      <trkpt lat="46.53755" lon="0.33214">
        <ele>126.4</ele>
        <time>2022-09-18T07:26:40Z</time>
      </trkpt>
      <trkpt lat="46.53758" lon="0.33227">
        <ele>126.2</ele>
        <time>2022-09-18T07:26:43Z</time>
      </trkpt>
      <trkpt lat="46.53758" lon="0.33236">
        <ele>126</ele>
        <time>2022-09-18T07:26:45Z</time>
      </trkpt>
      <trkpt lat="46.53756" lon="0.33245">
        <ele>125.6</ele>
        <time>2022-09-18T07:26:47Z</time>
      </trkpt>
      <trkpt lat="46.53756" lon="0.33249">
        <ele>125.4</ele>
        <time>2022-09-18T07:26:48Z</time>
      </trkpt>
      <trkpt lat="46.53758" lon="0.33267">
        <ele>124.6</ele>
        <time>2022-09-18T07:26:52Z</time>
      </trkpt>
      <trkpt lat="46.53759" lon="0.33275">
        <ele>124</ele>
        <time>2022-09-18T07:26:54Z</time>
      </trkpt>
      <trkpt lat="46.53759" lon="0.33283">
        <ele>123.6</ele>
        <time>2022-09-18T07:26:56Z</time>
      </trkpt>
      <trkpt lat="46.53759" lon="0.33293">
        <ele>123</ele>
        <time>2022-09-18T07:26:59Z</time>
      </trkpt>
      <trkpt lat="46.53759" lon="0.33296">
        <ele>122.8</ele>
        <time>2022-09-18T07:27:00Z</time>
      </trkpt>
      <trkpt lat="46.5376" lon="0.33304">
        <ele>122</ele>
        <time>2022-09-18T07:27:02Z</time>
      </trkpt>
      <trkpt lat="46.53759" lon="0.33314">
        <ele>120.8</ele>
        <time>2022-09-18T07:27:05Z</time>
      </trkpt>
      <trkpt lat="46.53759" lon="0.33322">
        <ele>119.8</ele>
        <time>2022-09-18T07:27:07Z</time>
      </trkpt>
      <trkpt lat="46.53757" lon="0.33335">
        <ele>118.8</ele>
        <time>2022-09-18T07:27:11Z</time>
      </trkpt>
      <trkpt lat="46.53756" lon="0.33338">
        <ele>118.6</ele>
        <time>2022-09-18T07:27:12Z</time>
      </trkpt>
      <trkpt lat="46.53754" lon="0.33351">
        <ele>118.2</ele>
        <time>2022-09-18T07:27:17Z</time>
      </trkpt>
      <trkpt lat="46.53753" lon="0.33358">
        <ele>117.6</ele>
        <time>2022-09-18T07:27:19Z</time>
      </trkpt>
      <trkpt lat="46.53749" lon="0.33369">
        <ele>117.2</ele>
        <time>2022-09-18T07:27:22Z</time>
      </trkpt>
      <trkpt lat="46.53746" lon="0.33396">
        <ele>117.6</ele>
        <time>2022-09-18T07:27:28Z</time>
      </trkpt>
      <trkpt lat="46.53746" lon="0.33409">
        <ele>117.2</ele>
        <time>2022-09-18T07:27:31Z</time>
      </trkpt>
      <trkpt lat="46.53747" lon="0.33414">
        <ele>116.2</ele>
        <time>2022-09-18T07:27:33Z</time>
      </trkpt>
      <trkpt lat="46.53749" lon="0.33414">
        <ele>115</ele>
        <time>2022-09-18T07:27:37Z</time>
      </trkpt>
      <trkpt lat="46.5375" lon="0.33412">
        <ele>114.8</ele>
        <time>2022-09-18T07:27:40Z</time>
      </trkpt>
      <trkpt lat="46.53754" lon="0.33397">
        <ele>115.2</ele>
        <time>2022-09-18T07:27:47Z</time>
      </trkpt>
      <trkpt lat="46.5376" lon="0.33386">
        <ele>114.6</ele>
        <time>2022-09-18T07:27:52Z</time>
      </trkpt>
      <trkpt lat="46.53763" lon="0.33381">
        <ele>113.4</ele>
        <time>2022-09-18T07:27:54Z</time>
      </trkpt>
      <trkpt lat="46.53765" lon="0.33375">
        <ele>112.2</ele>
        <time>2022-09-18T07:27:56Z</time>
      </trkpt>
      <trkpt lat="46.53766" lon="0.33372">
        <ele>111.8</ele>
        <time>2022-09-18T07:27:57Z</time>
      </trkpt>
      <trkpt lat="46.53769" lon="0.33367">
        <ele>109.6</ele>
        <time>2022-09-18T07:27:59Z</time>
      </trkpt>
      <trkpt lat="46.53773" lon="0.33363">
        <ele>107.8</ele>
        <time>2022-09-18T07:28:01Z</time>
      </trkpt>
      <trkpt lat="46.53776" lon="0.33363">
        <ele>107.4</ele>
        <time>2022-09-18T07:28:02Z</time>
      </trkpt>
      <trkpt lat="46.53779" lon="0.33362">
        <ele>106.6</ele>
        <time>2022-09-18T07:28:03Z</time>
      </trkpt>
      <trkpt lat="46.53784" lon="0.33362">
        <ele>105</ele>
        <time>2022-09-18T07:28:05Z</time>
      </trkpt>
      <trkpt lat="46.53786" lon="0.3336">
        <ele>104.4</ele>
        <time>2022-09-18T07:28:06Z</time>
      </trkpt>
      <trkpt lat="46.53788" lon="0.33358">
        <ele>103.6</ele>
        <time>2022-09-18T07:28:07Z</time>
      </trkpt>
      <trkpt lat="46.53791" lon="0.33353">
        <ele>103.6</ele>
        <time>2022-09-18T07:28:09Z</time>
      </trkpt>
      <trkpt lat="46.53801" lon="0.33329">
        <ele>102.8</ele>
        <time>2022-09-18T07:28:16Z</time>
      </trkpt>
      <trkpt lat="46.53807" lon="0.33311">
        <ele>103</ele>
        <time>2022-09-18T07:28:21Z</time>
      </trkpt>
      <trkpt lat="46.53815" lon="0.33292">
        <ele>102.8</ele>
        <time>2022-09-18T07:28:25Z</time>
      </trkpt>
      <trkpt lat="46.53818" lon="0.33288">
        <ele>102.6</ele>
        <time>2022-09-18T07:28:26Z</time>
      </trkpt>
      <trkpt lat="46.53823" lon="0.33276">
        <ele>102</ele>
        <time>2022-09-18T07:28:28Z</time>
      </trkpt>
      <trkpt lat="46.53827" lon="0.33266">
        <ele>101.8</ele>
        <time>2022-09-18T07:28:30Z</time>
      </trkpt>
      <trkpt lat="46.53828" lon="0.33262">
        <ele>101.4</ele>
        <time>2022-09-18T07:28:31Z</time>
      </trkpt>
      <trkpt lat="46.53828" lon="0.33258">
        <ele>101</ele>
        <time>2022-09-18T07:28:32Z</time>
      </trkpt>
      <trkpt lat="46.53827" lon="0.33254">
        <ele>100.8</ele>
        <time>2022-09-18T07:28:34Z</time>
      </trkpt>
      <trkpt lat="46.53826" lon="0.33252">
        <ele>100.8</ele>
        <time>2022-09-18T07:28:35Z</time>
      </trkpt>
      <trkpt lat="46.53826" lon="0.33248">
        <ele>101.6</ele>
        <time>2022-09-18T07:28:37Z</time>
      </trkpt>
      <trkpt lat="46.53823" lon="0.33242">
        <ele>102</ele>
        <time>2022-09-18T07:28:40Z</time>
      </trkpt>
      <trkpt lat="46.53821" lon="0.3324">
        <ele>102.2</ele>
        <time>2022-09-18T07:28:41Z</time>
      </trkpt>
      <trkpt lat="46.5382" lon="0.33239">
        <ele>102.4</ele>
        <time>2022-09-18T07:28:42Z</time>
      </trkpt>
      <trkpt lat="46.53818" lon="0.33236">
        <ele>103.6</ele>
        <time>2022-09-18T07:28:45Z</time>
      </trkpt>
      <trkpt lat="46.53815" lon="0.33231">
        <ele>105</ele>
        <time>2022-09-18T07:28:48Z</time>
      </trkpt>
      <trkpt lat="46.53814" lon="0.33228">
        <ele>105.6</ele>
        <time>2022-09-18T07:28:50Z</time>
      </trkpt>
      <trkpt lat="46.53812" lon="0.33225">
        <ele>106.4</ele>
        <time>2022-09-18T07:28:52Z</time>
      </trkpt>
      <trkpt lat="46.53811" lon="0.33223">
        <ele>106.8</ele>
        <time>2022-09-18T07:28:54Z</time>
      </trkpt>
      <trkpt lat="46.53811" lon="0.33223">
        <ele>107.2</ele>
        <time>2022-09-18T07:28:55Z</time>
      </trkpt>
      <trkpt lat="46.53809" lon="0.33222">
        <ele>107.6</ele>
        <time>2022-09-18T07:28:56Z</time>
      </trkpt>
      <trkpt lat="46.53807" lon="0.3322">
        <ele>108.6</ele>
        <time>2022-09-18T07:28:58Z</time>
      </trkpt>
      <trkpt lat="46.53807" lon="0.3322">
        <ele>109</ele>
        <time>2022-09-18T07:28:59Z</time>
      </trkpt>
      <trkpt lat="46.53805" lon="0.33216">
        <ele>110.6</ele>
        <time>2022-09-18T07:29:02Z</time>
      </trkpt>
      <trkpt lat="46.53803" lon="0.33214">
        <ele>111.2</ele>
        <time>2022-09-18T07:29:04Z</time>
      </trkpt>
      <trkpt lat="46.53802" lon="0.33213">
        <ele>111.6</ele>
        <time>2022-09-18T07:29:05Z</time>
      </trkpt>
      <trkpt lat="46.538" lon="0.33212">
        <ele>112.4</ele>
        <time>2022-09-18T07:29:07Z</time>
      </trkpt>
      <trkpt lat="46.53799" lon="0.33212">
        <ele>113</ele>
        <time>2022-09-18T07:29:08Z</time>
      </trkpt>
      <trkpt lat="46.53798" lon="0.33211">
        <ele>113.4</ele>
        <time>2022-09-18T07:29:09Z</time>
      </trkpt>
      <trkpt lat="46.53797" lon="0.33211">
        <ele>113.8</ele>
        <time>2022-09-18T07:29:10Z</time>
      </trkpt>
      <trkpt lat="46.53796" lon="0.3321">
        <ele>114</ele>
        <time>2022-09-18T07:29:11Z</time>
      </trkpt>
      <trkpt lat="46.53792" lon="0.33208">
        <ele>115.2</ele>
        <time>2022-09-18T07:29:14Z</time>
      </trkpt>
      <trkpt lat="46.53791" lon="0.33207">
        <ele>115.4</ele>
        <time>2022-09-18T07:29:15Z</time>
      </trkpt>
      <trkpt lat="46.53789" lon="0.33206">
        <ele>116.2</ele>
        <time>2022-09-18T07:29:17Z</time>
      </trkpt>
      <trkpt lat="46.53785" lon="0.33204">
        <ele>116.8</ele>
        <time>2022-09-18T07:29:19Z</time>
      </trkpt>
      <trkpt lat="46.53783" lon="0.33204">
        <ele>117.4</ele>
        <time>2022-09-18T07:29:21Z</time>
      </trkpt>
      <trkpt lat="46.5378" lon="0.33203">
        <ele>118.6</ele>
        <time>2022-09-18T07:29:24Z</time>
      </trkpt>
      <trkpt lat="46.53778" lon="0.33203">
        <ele>119.4</ele>
        <time>2022-09-18T07:29:26Z</time>
      </trkpt>
      <trkpt lat="46.53778" lon="0.33203">
        <ele>119.8</ele>
        <time>2022-09-18T07:29:27Z</time>
      </trkpt>
      <trkpt lat="46.53775" lon="0.33203">
        <ele>121</ele>
        <time>2022-09-18T07:29:31Z</time>
      </trkpt>
      <trkpt lat="46.5377" lon="0.33197">
        <ele>121</ele>
        <time>2022-09-18T07:29:42Z</time>
      </trkpt>
      <trkpt lat="46.5377" lon="0.33196">
        <ele>121</ele>
        <time>2022-09-18T07:29:44Z</time>
      </trkpt>
      <trkpt lat="46.53773" lon="0.33191">
        <ele>121</ele>
        <time>2022-09-18T07:29:48Z</time>
      </trkpt>
      <trkpt lat="46.53775" lon="0.33189">
        <ele>121</ele>
        <time>2022-09-18T07:29:51Z</time>
      </trkpt>
      <trkpt lat="46.53775" lon="0.33188">
        <ele>121</ele>
        <time>2022-09-18T07:29:52Z</time>
      </trkpt>
      <trkpt lat="46.5378" lon="0.33187">
        <ele>119.8</ele>
        <time>2022-09-18T07:29:58Z</time>
      </trkpt>
      <trkpt lat="46.53787" lon="0.33184">
        <ele>118.2</ele>
        <time>2022-09-18T07:30:02Z</time>
      </trkpt>
      <trkpt lat="46.53792" lon="0.33178">
        <ele>117</ele>
        <time>2022-09-18T07:30:05Z</time>
      </trkpt>
      <trkpt lat="46.53794" lon="0.33175">
        <ele>116</ele>
        <time>2022-09-18T07:30:07Z</time>
      </trkpt>
      <trkpt lat="46.53795" lon="0.33172">
        <ele>115.8</ele>
        <time>2022-09-18T07:30:08Z</time>
      </trkpt>
      <trkpt lat="46.53797" lon="0.33168">
        <ele>115</ele>
        <time>2022-09-18T07:30:09Z</time>
      </trkpt>
      <trkpt lat="46.53798" lon="0.33165">
        <ele>114.4</ele>
        <time>2022-09-18T07:30:10Z</time>
      </trkpt>
      <trkpt lat="46.538" lon="0.33162">
        <ele>113.8</ele>
        <time>2022-09-18T07:30:11Z</time>
      </trkpt>
      <trkpt lat="46.53801" lon="0.33159">
        <ele>113.2</ele>
        <time>2022-09-18T07:30:12Z</time>
      </trkpt>
      <trkpt lat="46.53804" lon="0.33155">
        <ele>112</ele>
        <time>2022-09-18T07:30:14Z</time>
      </trkpt>
      <trkpt lat="46.53807" lon="0.3315">
        <ele>111</ele>
        <time>2022-09-18T07:30:16Z</time>
      </trkpt>
      <trkpt lat="46.53809" lon="0.33149">
        <ele>110.6</ele>
        <time>2022-09-18T07:30:17Z</time>
      </trkpt>
      <trkpt lat="46.53812" lon="0.33145">
        <ele>110.2</ele>
        <time>2022-09-18T07:30:19Z</time>
      </trkpt>
      <trkpt lat="46.53814" lon="0.33143">
        <ele>109.6</ele>
        <time>2022-09-18T07:30:20Z</time>
      </trkpt>
      <trkpt lat="46.53821" lon="0.33135">
        <ele>107.4</ele>
        <time>2022-09-18T07:30:23Z</time>
      </trkpt>
      <trkpt lat="46.53825" lon="0.33129">
        <ele>105.4</ele>
        <time>2022-09-18T07:30:25Z</time>
      </trkpt>
      <trkpt lat="46.53829" lon="0.33123">
        <ele>104</ele>
        <time>2022-09-18T07:30:27Z</time>
      </trkpt>
      <trkpt lat="46.53833" lon="0.33117">
        <ele>102.2</ele>
        <time>2022-09-18T07:30:29Z</time>
      </trkpt>
      <trkpt lat="46.53836" lon="0.33111">
        <ele>101.2</ele>
        <time>2022-09-18T07:30:31Z</time>
      </trkpt>
      <trkpt lat="46.53838" lon="0.33108">
        <ele>100.8</ele>
        <time>2022-09-18T07:30:32Z</time>
      </trkpt>
      <trkpt lat="46.53843" lon="0.33101">
        <ele>99.8</ele>
        <time>2022-09-18T07:30:35Z</time>
      </trkpt>
      <trkpt lat="46.53846" lon="0.33101">
        <ele>99.6</ele>
        <time>2022-09-18T07:30:36Z</time>
      </trkpt>
      <trkpt lat="46.53848" lon="0.331">
        <ele>98.6</ele>
        <time>2022-09-18T07:30:37Z</time>
      </trkpt>
      <trkpt lat="46.53852" lon="0.33098">
        <ele>97.4</ele>
        <time>2022-09-18T07:30:39Z</time>
      </trkpt>
      <trkpt lat="46.53855" lon="0.33095">
        <ele>96.8</ele>
        <time>2022-09-18T07:30:41Z</time>
      </trkpt>
      <trkpt lat="46.53856" lon="0.33093">
        <ele>96.8</ele>
        <time>2022-09-18T07:30:42Z</time>
      </trkpt>
      <trkpt lat="46.53859" lon="0.33088">
        <ele>96.8</ele>
        <time>2022-09-18T07:30:45Z</time>
      </trkpt>
      <trkpt lat="46.53863" lon="0.33079">
        <ele>96.8</ele>
        <time>2022-09-18T07:30:48Z</time>
      </trkpt>
      <trkpt lat="46.53866" lon="0.33064">
        <ele>96.4</ele>
        <time>2022-09-18T07:30:51Z</time>
      </trkpt>
      <trkpt lat="46.53868" lon="0.33059">
        <ele>96</ele>
        <time>2022-09-18T07:30:52Z</time>
      </trkpt>
      <trkpt lat="46.5387" lon="0.33054">
        <ele>95.8</ele>
        <time>2022-09-18T07:30:53Z</time>
      </trkpt>
      <trkpt lat="46.53876" lon="0.33037">
        <ele>95.4</ele>
        <time>2022-09-18T07:30:56Z</time>
      </trkpt>
      <trkpt lat="46.53879" lon="0.33028">
        <ele>95.2</ele>
        <time>2022-09-18T07:30:58Z</time>
      </trkpt>
      <trkpt lat="46.53881" lon="0.33023">
        <ele>95</ele>
        <time>2022-09-18T07:30:59Z</time>
      </trkpt>
      <trkpt lat="46.53888" lon="0.33008">
        <ele>95</ele>
        <time>2022-09-18T07:31:02Z</time>
      </trkpt>
      <trkpt lat="46.53891" lon="0.33004">
        <ele>95.2</ele>
        <time>2022-09-18T07:31:03Z</time>
      </trkpt>
      <trkpt lat="46.53898" lon="0.32987">
        <ele>95.8</ele>
        <time>2022-09-18T07:31:07Z</time>
      </trkpt>
      <trkpt lat="46.53902" lon="0.32978">
        <ele>95.8</ele>
        <time>2022-09-18T07:31:09Z</time>
      </trkpt>
      <trkpt lat="46.53912" lon="0.32964">
        <ele>95.8</ele>
        <time>2022-09-18T07:31:12Z</time>
      </trkpt>
      <trkpt lat="46.53918" lon="0.32957">
        <ele>95.8</ele>
        <time>2022-09-18T07:31:14Z</time>
      </trkpt>
      <trkpt lat="46.53929" lon="0.32946">
        <ele>95</ele>
        <time>2022-09-18T07:31:17Z</time>
      </trkpt>
      <trkpt lat="46.53937" lon="0.32941">
        <ele>94.8</ele>
        <time>2022-09-18T07:31:19Z</time>
      </trkpt>
      <trkpt lat="46.5394" lon="0.32936">
        <ele>94.6</ele>
        <time>2022-09-18T07:31:20Z</time>
      </trkpt>
      <trkpt lat="46.53954" lon="0.32921">
        <ele>94.8</ele>
        <time>2022-09-18T07:31:24Z</time>
      </trkpt>
      <trkpt lat="46.53962" lon="0.32914">
        <ele>94.8</ele>
        <time>2022-09-18T07:31:26Z</time>
      </trkpt>
      <trkpt lat="46.53968" lon="0.32905">
        <ele>94.8</ele>
        <time>2022-09-18T07:31:28Z</time>
      </trkpt>
      <trkpt lat="46.53975" lon="0.329">
        <ele>94.6</ele>
        <time>2022-09-18T07:31:30Z</time>
      </trkpt>
      <trkpt lat="46.53979" lon="0.32897">
        <ele>94.8</ele>
        <time>2022-09-18T07:31:31Z</time>
      </trkpt>
      <trkpt lat="46.53995" lon="0.32887">
        <ele>94.8</ele>
        <time>2022-09-18T07:31:34Z</time>
      </trkpt>
      <trkpt lat="46.54008" lon="0.32882">
        <ele>95</ele>
        <time>2022-09-18T07:31:37Z</time>
      </trkpt>
      <trkpt lat="46.54027" lon="0.32875">
        <ele>95.6</ele>
        <time>2022-09-18T07:31:42Z</time>
      </trkpt>
      <trkpt lat="46.54035" lon="0.32871">
        <ele>96</ele>
        <time>2022-09-18T07:31:44Z</time>
      </trkpt>
      <trkpt lat="46.54039" lon="0.3287">
        <ele>96.4</ele>
        <time>2022-09-18T07:31:45Z</time>
      </trkpt>
      <trkpt lat="46.54044" lon="0.32868">
        <ele>96.6</ele>
        <time>2022-09-18T07:31:46Z</time>
      </trkpt>
      <trkpt lat="46.54052" lon="0.32865">
        <ele>97</ele>
        <time>2022-09-18T07:31:48Z</time>
      </trkpt>
      <trkpt lat="46.54056" lon="0.3286">
        <ele>97.4</ele>
        <time>2022-09-18T07:31:50Z</time>
      </trkpt>
      <trkpt lat="46.54058" lon="0.32856">
        <ele>97.4</ele>
        <time>2022-09-18T07:31:51Z</time>
      </trkpt>
      <trkpt lat="46.54061" lon="0.32852">
        <ele>97.6</ele>
        <time>2022-09-18T07:31:52Z</time>
      </trkpt>
      <trkpt lat="46.54074" lon="0.32839">
        <ele>97.2</ele>
        <time>2022-09-18T07:31:55Z</time>
      </trkpt>
      <trkpt lat="46.54082" lon="0.32829">
        <ele>97</ele>
        <time>2022-09-18T07:31:57Z</time>
      </trkpt>
      <trkpt lat="46.54103" lon="0.32814">
        <ele>96.2</ele>
        <time>2022-09-18T07:32:01Z</time>
      </trkpt>
      <trkpt lat="46.54109" lon="0.32812">
        <ele>96</ele>
        <time>2022-09-18T07:32:02Z</time>
      </trkpt>
      <trkpt lat="46.54114" lon="0.32809">
        <ele>95.4</ele>
        <time>2022-09-18T07:32:03Z</time>
      </trkpt>
      <trkpt lat="46.5412" lon="0.32806">
        <ele>95.4</ele>
        <time>2022-09-18T07:32:04Z</time>
      </trkpt>
      <trkpt lat="46.54131" lon="0.32799">
        <ele>95</ele>
        <time>2022-09-18T07:32:06Z</time>
      </trkpt>
      <trkpt lat="46.54144" lon="0.32792">
        <ele>94.8</ele>
        <time>2022-09-18T07:32:08Z</time>
      </trkpt>
      <trkpt lat="46.54165" lon="0.32781">
        <ele>94.6</ele>
        <time>2022-09-18T07:32:12Z</time>
      </trkpt>
      <trkpt lat="46.54174" lon="0.32774">
        <ele>94.6</ele>
        <time>2022-09-18T07:32:14Z</time>
      </trkpt>
      <trkpt lat="46.54187" lon="0.32757">
        <ele>94.8</ele>
        <time>2022-09-18T07:32:18Z</time>
      </trkpt>
      <trkpt lat="46.54191" lon="0.32749">
        <ele>95.2</ele>
        <time>2022-09-18T07:32:20Z</time>
      </trkpt>
      <trkpt lat="46.54192" lon="0.32735">
        <ele>95.2</ele>
        <time>2022-09-18T07:32:24Z</time>
      </trkpt>
      <trkpt lat="46.54194" lon="0.32732">
        <ele>95.2</ele>
        <time>2022-09-18T07:32:25Z</time>
      </trkpt>
      <trkpt lat="46.54195" lon="0.32724">
        <ele>95</ele>
        <time>2022-09-18T07:32:29Z</time>
      </trkpt>
      <trkpt lat="46.54197" lon="0.32722">
        <ele>95.2</ele>
        <time>2022-09-18T07:32:30Z</time>
      </trkpt>
      <trkpt lat="46.54208" lon="0.3272">
        <ele>95.2</ele>
        <time>2022-09-18T07:32:34Z</time>
      </trkpt>
      <trkpt lat="46.54232" lon="0.32723">
        <ele>95.4</ele>
        <time>2022-09-18T07:32:40Z</time>
      </trkpt>
      <trkpt lat="46.54257" lon="0.32729">
        <ele>95.8</ele>
        <time>2022-09-18T07:32:45Z</time>
      </trkpt>
      <trkpt lat="46.54267" lon="0.32733">
        <ele>96</ele>
        <time>2022-09-18T07:32:47Z</time>
      </trkpt>
      <trkpt lat="46.54285" lon="0.32742">
        <ele>96.2</ele>
        <time>2022-09-18T07:32:50Z</time>
      </trkpt>
      <trkpt lat="46.54325" lon="0.3277">
        <ele>96.2</ele>
        <time>2022-09-18T07:32:57Z</time>
      </trkpt>
      <trkpt lat="46.54366" lon="0.32802">
        <ele>96</ele>
        <time>2022-09-18T07:33:04Z</time>
      </trkpt>
      <trkpt lat="46.54398" lon="0.32838">
        <ele>96.2</ele>
        <time>2022-09-18T07:33:10Z</time>
      </trkpt>
      <trkpt lat="46.54415" lon="0.3286">
        <ele>95.8</ele>
        <time>2022-09-18T07:33:14Z</time>
      </trkpt>
      <trkpt lat="46.54439" lon="0.32897">
        <ele>95.8</ele>
        <time>2022-09-18T07:33:20Z</time>
      </trkpt>
      <trkpt lat="46.54466" lon="0.32937">
        <ele>95.8</ele>
        <time>2022-09-18T07:33:26Z</time>
      </trkpt>
      <trkpt lat="46.54501" lon="0.32983">
        <ele>96</ele>
        <time>2022-09-18T07:33:33Z</time>
      </trkpt>
      <trkpt lat="46.54544" lon="0.33041">
        <ele>96.2</ele>
        <time>2022-09-18T07:33:42Z</time>
      </trkpt>
      <trkpt lat="46.54549" lon="0.33047">
        <ele>96.2</ele>
        <time>2022-09-18T07:33:43Z</time>
      </trkpt>
      <trkpt lat="46.54581" lon="0.3309">
        <ele>96.2</ele>
        <time>2022-09-18T07:33:50Z</time>
      </trkpt>
      <trkpt lat="46.54609" lon="0.3312">
        <ele>96</ele>
        <time>2022-09-18T07:33:56Z</time>
      </trkpt>
      <trkpt lat="46.54629" lon="0.33137">
        <ele>95.8</ele>
        <time>2022-09-18T07:34:00Z</time>
      </trkpt>
      <trkpt lat="46.54638" lon="0.33146">
        <ele>95.2</ele>
        <time>2022-09-18T07:34:02Z</time>
      </trkpt>
      <trkpt lat="46.54671" lon="0.3318">
        <ele>96</ele>
        <time>2022-09-18T07:34:09Z</time>
      </trkpt>
      <trkpt lat="46.54713" lon="0.33219">
        <ele>96</ele>
        <time>2022-09-18T07:34:17Z</time>
      </trkpt>
      <trkpt lat="46.54749" lon="0.33255">
        <ele>95.6</ele>
        <time>2022-09-18T07:34:24Z</time>
      </trkpt>
      <trkpt lat="46.5477" lon="0.3327">
        <ele>95.6</ele>
        <time>2022-09-18T07:34:28Z</time>
      </trkpt>
      <trkpt lat="46.5478" lon="0.33277">
        <ele>95.8</ele>
        <time>2022-09-18T07:34:30Z</time>
      </trkpt>
      <trkpt lat="46.54811" lon="0.33299">
        <ele>95.6</ele>
        <time>2022-09-18T07:34:36Z</time>
      </trkpt>
      <trkpt lat="46.54842" lon="0.33317">
        <ele>95.4</ele>
        <time>2022-09-18T07:34:42Z</time>
      </trkpt>
      <trkpt lat="46.54857" lon="0.33335">
        <ele>95</ele>
        <time>2022-09-18T07:34:46Z</time>
      </trkpt>
      <trkpt lat="46.54861" lon="0.33338">
        <ele>95</ele>
        <time>2022-09-18T07:34:47Z</time>
      </trkpt>
      <trkpt lat="46.54878" lon="0.33349">
        <ele>95</ele>
        <time>2022-09-18T07:34:51Z</time>
      </trkpt>
      <trkpt lat="46.54883" lon="0.33351">
        <ele>95.2</ele>
        <time>2022-09-18T07:34:52Z</time>
      </trkpt>
      <trkpt lat="46.54896" lon="0.33359">
        <ele>95.2</ele>
        <time>2022-09-18T07:34:55Z</time>
      </trkpt>
      <trkpt lat="46.549" lon="0.33363">
        <ele>95.4</ele>
        <time>2022-09-18T07:34:56Z</time>
      </trkpt>
      <trkpt lat="46.54926" lon="0.33388">
        <ele>95.4</ele>
        <time>2022-09-18T07:35:02Z</time>
      </trkpt>
      <trkpt lat="46.54936" lon="0.33395">
        <ele>95.4</ele>
        <time>2022-09-18T07:35:04Z</time>
      </trkpt>
      <trkpt lat="46.5495" lon="0.33402">
        <ele>95.6</ele>
        <time>2022-09-18T07:35:07Z</time>
      </trkpt>
      <trkpt lat="46.54967" lon="0.33414">
        <ele>95.4</ele>
        <time>2022-09-18T07:35:11Z</time>
      </trkpt>
      <trkpt lat="46.54972" lon="0.33423">
        <ele>95.4</ele>
        <time>2022-09-18T07:35:13Z</time>
      </trkpt>
      <trkpt lat="46.54976" lon="0.33434">
        <ele>95.2</ele>
        <time>2022-09-18T07:35:15Z</time>
      </trkpt>
      <trkpt lat="46.54978" lon="0.33449">
        <ele>95</ele>
        <time>2022-09-18T07:35:17Z</time>
      </trkpt>
      <trkpt lat="46.54991" lon="0.33494">
        <ele>95</ele>
        <time>2022-09-18T07:35:23Z</time>
      </trkpt>
      <trkpt lat="46.55002" lon="0.33546">
        <ele>95</ele>
        <time>2022-09-18T07:35:30Z</time>
      </trkpt>
      <trkpt lat="46.55013" lon="0.33595">
        <ele>94.8</ele>
        <time>2022-09-18T07:35:37Z</time>
      </trkpt>
      <trkpt lat="46.55015" lon="0.33618">
        <ele>94.8</ele>
        <time>2022-09-18T07:35:41Z</time>
      </trkpt>
      <trkpt lat="46.55014" lon="0.33622">
        <ele>94.8</ele>
        <time>2022-09-18T07:35:42Z</time>
      </trkpt>
      <trkpt lat="46.55014" lon="0.33625">
        <ele>94.6</ele>
        <time>2022-09-18T07:35:43Z</time>
      </trkpt>
      <trkpt lat="46.55012" lon="0.33631">
        <ele>94.2</ele>
        <time>2022-09-18T07:35:45Z</time>
      </trkpt>
      <trkpt lat="46.55009" lon="0.33632">
        <ele>94.2</ele>
        <time>2022-09-18T07:35:47Z</time>
      </trkpt>
      <trkpt lat="46.54996" lon="0.33626">
        <ele>94.4</ele>
        <time>2022-09-18T07:35:51Z</time>
      </trkpt>
      <trkpt lat="46.54975" lon="0.33619">
        <ele>94.2</ele>
        <time>2022-09-18T07:35:56Z</time>
      </trkpt>
      <trkpt lat="46.54972" lon="0.33617">
        <ele>94.2</ele>
        <time>2022-09-18T07:35:57Z</time>
      </trkpt>
      <trkpt lat="46.54971" lon="0.33614">
        <ele>94</ele>
        <time>2022-09-18T07:35:58Z</time>
      </trkpt>
      <trkpt lat="46.5497" lon="0.33611">
        <ele>94</ele>
        <time>2022-09-18T07:35:59Z</time>
      </trkpt>
      <trkpt lat="46.5497" lon="0.33607">
        <ele>94</ele>
        <time>2022-09-18T07:36:00Z</time>
      </trkpt>
      <trkpt lat="46.54969" lon="0.33603">
        <ele>93.8</ele>
        <time>2022-09-18T07:36:01Z</time>
      </trkpt>
      <trkpt lat="46.54964" lon="0.33598">
        <ele>93.4</ele>
        <time>2022-09-18T07:36:03Z</time>
      </trkpt>
      <trkpt lat="46.54955" lon="0.3359">
        <ele>93.4</ele>
        <time>2022-09-18T07:36:06Z</time>
      </trkpt>
      <trkpt lat="46.54946" lon="0.33578">
        <ele>93.4</ele>
        <time>2022-09-18T07:36:09Z</time>
      </trkpt>
      <trkpt lat="46.54926" lon="0.33553">
        <ele>93</ele>
        <time>2022-09-18T07:36:15Z</time>
      </trkpt>
      <trkpt lat="46.54919" lon="0.33543">
        <ele>92.8</ele>
        <time>2022-09-18T07:36:17Z</time>
      </trkpt>
      <trkpt lat="46.54887" lon="0.335">
        <ele>93.2</ele>
        <time>2022-09-18T07:36:24Z</time>
      </trkpt>
      <trkpt lat="46.54859" lon="0.33454">
        <ele>93.4</ele>
        <time>2022-09-18T07:36:31Z</time>
      </trkpt>
      <trkpt lat="46.54837" lon="0.33419">
        <ele>93.6</ele>
        <time>2022-09-18T07:36:37Z</time>
      </trkpt>
      <trkpt lat="46.5483" lon="0.3341">
        <ele>93.8</ele>
        <time>2022-09-18T07:36:39Z</time>
      </trkpt>
      <trkpt lat="46.54821" lon="0.33407">
        <ele>94</ele>
        <time>2022-09-18T07:36:41Z</time>
      </trkpt>
      <trkpt lat="46.54804" lon="0.33413">
        <ele>94</ele>
        <time>2022-09-18T07:36:45Z</time>
      </trkpt>
      <trkpt lat="46.54796" lon="0.33415">
        <ele>94.2</ele>
        <time>2022-09-18T07:36:47Z</time>
      </trkpt>
      <trkpt lat="46.54787" lon="0.33415">
        <ele>94.2</ele>
        <time>2022-09-18T07:36:49Z</time>
      </trkpt>
      <trkpt lat="46.54782" lon="0.33413">
        <ele>94.2</ele>
        <time>2022-09-18T07:36:50Z</time>
      </trkpt>
      <trkpt lat="46.54777" lon="0.33411">
        <ele>94.2</ele>
        <time>2022-09-18T07:36:51Z</time>
      </trkpt>
      <trkpt lat="46.54763" lon="0.33402">
        <ele>94.2</ele>
        <time>2022-09-18T07:36:54Z</time>
      </trkpt>
      <trkpt lat="46.54754" lon="0.33395">
        <ele>94</ele>
        <time>2022-09-18T07:36:56Z</time>
      </trkpt>
      <trkpt lat="46.54726" lon="0.33373">
        <ele>93.8</ele>
        <time>2022-09-18T07:37:02Z</time>
      </trkpt>
      <trkpt lat="46.54702" lon="0.33357">
        <ele>93.8</ele>
        <time>2022-09-18T07:37:07Z</time>
      </trkpt>
      <trkpt lat="46.54698" lon="0.33355">
        <ele>94</ele>
        <time>2022-09-18T07:37:08Z</time>
      </trkpt>
      <trkpt lat="46.5467" lon="0.33339">
        <ele>94.2</ele>
        <time>2022-09-18T07:37:14Z</time>
      </trkpt>
      <trkpt lat="46.54643" lon="0.3332">
        <ele>93.6</ele>
        <time>2022-09-18T07:37:20Z</time>
      </trkpt>
      <trkpt lat="46.54638" lon="0.33316">
        <ele>93.6</ele>
        <time>2022-09-18T07:37:22Z</time>
      </trkpt>
      <trkpt lat="46.54634" lon="0.33308">
        <ele>93.8</ele>
        <time>2022-09-18T07:37:24Z</time>
      </trkpt>
      <trkpt lat="46.54632" lon="0.33304">
        <ele>94</ele>
        <time>2022-09-18T07:37:25Z</time>
      </trkpt>
      <trkpt lat="46.54627" lon="0.33297">
        <ele>93.6</ele>
        <time>2022-09-18T07:37:27Z</time>
      </trkpt>
      <trkpt lat="46.54623" lon="0.3329">
        <ele>93.8</ele>
        <time>2022-09-18T07:37:29Z</time>
      </trkpt>
      <trkpt lat="46.54614" lon="0.33275">
        <ele>93.8</ele>
        <time>2022-09-18T07:37:32Z</time>
      </trkpt>
      <trkpt lat="46.54609" lon="0.33269">
        <ele>93.8</ele>
        <time>2022-09-18T07:37:33Z</time>
      </trkpt>
      <trkpt lat="46.54606" lon="0.33264">
        <ele>93.8</ele>
        <time>2022-09-18T07:37:34Z</time>
      </trkpt>
      <trkpt lat="46.54599" lon="0.3325">
        <ele>93.8</ele>
        <time>2022-09-18T07:37:36Z</time>
      </trkpt>
      <trkpt lat="46.54596" lon="0.33244">
        <ele>93.6</ele>
        <time>2022-09-18T07:37:37Z</time>
      </trkpt>
      <trkpt lat="46.54593" lon="0.33238">
        <ele>93.8</ele>
        <time>2022-09-18T07:37:38Z</time>
      </trkpt>
      <trkpt lat="46.54585" lon="0.33229">
        <ele>94</ele>
        <time>2022-09-18T07:37:40Z</time>
      </trkpt>
      <trkpt lat="46.5458" lon="0.33226">
        <ele>94</ele>
        <time>2022-09-18T07:37:41Z</time>
      </trkpt>
      <trkpt lat="46.54577" lon="0.33223">
        <ele>94</ele>
        <time>2022-09-18T07:37:42Z</time>
      </trkpt>
      <trkpt lat="46.54571" lon="0.33213">
        <ele>94</ele>
        <time>2022-09-18T07:37:44Z</time>
      </trkpt>
      <trkpt lat="46.54562" lon="0.33197">
        <ele>94</ele>
        <time>2022-09-18T07:37:47Z</time>
      </trkpt>
      <trkpt lat="46.54556" lon="0.33184">
        <ele>94</ele>
        <time>2022-09-18T07:37:49Z</time>
      </trkpt>
      <trkpt lat="46.54553" lon="0.33178">
        <ele>94</ele>
        <time>2022-09-18T07:37:50Z</time>
      </trkpt>
      <trkpt lat="46.54545" lon="0.33161">
        <ele>93.8</ele>
        <time>2022-09-18T07:37:53Z</time>
      </trkpt>
      <trkpt lat="46.54542" lon="0.33156">
        <ele>93.8</ele>
        <time>2022-09-18T07:37:54Z</time>
      </trkpt>
      <trkpt lat="46.54539" lon="0.33152">
        <ele>93.8</ele>
        <time>2022-09-18T07:37:55Z</time>
      </trkpt>
      <trkpt lat="46.54531" lon="0.33135">
        <ele>94.4</ele>
        <time>2022-09-18T07:37:58Z</time>
      </trkpt>
      <trkpt lat="46.54527" lon="0.33129">
        <ele>94.4</ele>
        <time>2022-09-18T07:37:59Z</time>
      </trkpt>
      <trkpt lat="46.54517" lon="0.33107">
        <ele>94</ele>
        <time>2022-09-18T07:38:03Z</time>
      </trkpt>
      <trkpt lat="46.54515" lon="0.33103">
        <ele>94</ele>
        <time>2022-09-18T07:38:04Z</time>
      </trkpt>
      <trkpt lat="46.54508" lon="0.33094">
        <ele>93.6</ele>
        <time>2022-09-18T07:38:06Z</time>
      </trkpt>
      <trkpt lat="46.54503" lon="0.3308">
        <ele>93.6</ele>
        <time>2022-09-18T07:38:09Z</time>
      </trkpt>
      <trkpt lat="46.54493" lon="0.33067">
        <ele>93.6</ele>
        <time>2022-09-18T07:38:12Z</time>
      </trkpt>
      <trkpt lat="46.54487" lon="0.33057">
        <ele>93.6</ele>
        <time>2022-09-18T07:38:14Z</time>
      </trkpt>
      <trkpt lat="46.54475" lon="0.33037">
        <ele>93.6</ele>
        <time>2022-09-18T07:38:17Z</time>
      </trkpt>
      <trkpt lat="46.54468" lon="0.33028">
        <ele>93.4</ele>
        <time>2022-09-18T07:38:19Z</time>
      </trkpt>
      <trkpt lat="46.54464" lon="0.33023">
        <ele>93.4</ele>
        <time>2022-09-18T07:38:20Z</time>
      </trkpt>
      <trkpt lat="46.54455" lon="0.33011">
        <ele>93.8</ele>
        <time>2022-09-18T07:38:22Z</time>
      </trkpt>
      <trkpt lat="46.54445" lon="0.33">
        <ele>93.8</ele>
        <time>2022-09-18T07:38:24Z</time>
      </trkpt>
      <trkpt lat="46.54436" lon="0.32988">
        <ele>94</ele>
        <time>2022-09-18T07:38:26Z</time>
      </trkpt>
      <trkpt lat="46.54427" lon="0.32977">
        <ele>94</ele>
        <time>2022-09-18T07:38:28Z</time>
      </trkpt>
      <trkpt lat="46.54424" lon="0.32974">
        <ele>94</ele>
        <time>2022-09-18T07:38:29Z</time>
      </trkpt>
      <trkpt lat="46.54421" lon="0.32971">
        <ele>94</ele>
        <time>2022-09-18T07:38:30Z</time>
      </trkpt>
      <trkpt lat="46.54415" lon="0.32962">
        <ele>93.8</ele>
        <time>2022-09-18T07:38:32Z</time>
      </trkpt>
      <trkpt lat="46.54412" lon="0.32957">
        <ele>93.8</ele>
        <time>2022-09-18T07:38:33Z</time>
      </trkpt>
      <trkpt lat="46.54406" lon="0.3295">
        <ele>93.8</ele>
        <time>2022-09-18T07:38:35Z</time>
      </trkpt>
      <trkpt lat="46.544" lon="0.32943">
        <ele>93.6</ele>
        <time>2022-09-18T07:38:37Z</time>
      </trkpt>
      <trkpt lat="46.54397" lon="0.32937">
        <ele>93.4</ele>
        <time>2022-09-18T07:38:38Z</time>
      </trkpt>
      <trkpt lat="46.54388" lon="0.32921">
        <ele>93.4</ele>
        <time>2022-09-18T07:38:41Z</time>
      </trkpt>
      <trkpt lat="46.54376" lon="0.32906">
        <ele>93.6</ele>
        <time>2022-09-18T07:38:44Z</time>
      </trkpt>
      <trkpt lat="46.54369" lon="0.32898">
        <ele>93.6</ele>
        <time>2022-09-18T07:38:46Z</time>
      </trkpt>
      <trkpt lat="46.54361" lon="0.32887">
        <ele>93.6</ele>
        <time>2022-09-18T07:38:49Z</time>
      </trkpt>
      <trkpt lat="46.54348" lon="0.3287">
        <ele>94</ele>
        <time>2022-09-18T07:38:52Z</time>
      </trkpt>
      <trkpt lat="46.54339" lon="0.32865">
        <ele>94</ele>
        <time>2022-09-18T07:38:54Z</time>
      </trkpt>
      <trkpt lat="46.54328" lon="0.32864">
        <ele>94</ele>
        <time>2022-09-18T07:38:56Z</time>
      </trkpt>
      <trkpt lat="46.5432" lon="0.32866">
        <ele>94</ele>
        <time>2022-09-18T07:38:58Z</time>
      </trkpt>
      <trkpt lat="46.54298" lon="0.3287">
        <ele>94.4</ele>
        <time>2022-09-18T07:39:03Z</time>
      </trkpt>
      <trkpt lat="46.54294" lon="0.3287">
        <ele>94.4</ele>
        <time>2022-09-18T07:39:04Z</time>
      </trkpt>
      <trkpt lat="46.54275" lon="0.3287">
        <ele>94.4</ele>
        <time>2022-09-18T07:39:08Z</time>
      </trkpt>
      <trkpt lat="46.5427" lon="0.3287">
        <ele>94.2</ele>
        <time>2022-09-18T07:39:09Z</time>
      </trkpt>
      <trkpt lat="46.54255" lon="0.32869">
        <ele>94.2</ele>
        <time>2022-09-18T07:39:12Z</time>
      </trkpt>
      <trkpt lat="46.5425" lon="0.32867">
        <ele>94</ele>
        <time>2022-09-18T07:39:13Z</time>
      </trkpt>
      <trkpt lat="46.5423" lon="0.32863">
        <ele>94</ele>
        <time>2022-09-18T07:39:17Z</time>
      </trkpt>
      <trkpt lat="46.5422" lon="0.3286">
        <ele>94</ele>
        <time>2022-09-18T07:39:19Z</time>
      </trkpt>
      <trkpt lat="46.54214" lon="0.3286">
        <ele>94</ele>
        <time>2022-09-18T07:39:20Z</time>
      </trkpt>
      <trkpt lat="46.54194" lon="0.3286">
        <ele>94.2</ele>
        <time>2022-09-18T07:39:24Z</time>
      </trkpt>
      <trkpt lat="46.54183" lon="0.32863">
        <ele>94.4</ele>
        <time>2022-09-18T07:39:26Z</time>
      </trkpt>
      <trkpt lat="46.54171" lon="0.32863">
        <ele>94.4</ele>
        <time>2022-09-18T07:39:28Z</time>
      </trkpt>
      <trkpt lat="46.5416" lon="0.3286">
        <ele>94.4</ele>
        <time>2022-09-18T07:39:30Z</time>
      </trkpt>
      <trkpt lat="46.54147" lon="0.32862">
        <ele>93.8</ele>
        <time>2022-09-18T07:39:33Z</time>
      </trkpt>
      <trkpt lat="46.54144" lon="0.32863">
        <ele>93.6</ele>
        <time>2022-09-18T07:39:34Z</time>
      </trkpt>
      <trkpt lat="46.54133" lon="0.32867">
        <ele>93.4</ele>
        <time>2022-09-18T07:39:39Z</time>
      </trkpt>
      <trkpt lat="46.54126" lon="0.32877">
        <ele>93.6</ele>
        <time>2022-09-18T07:39:42Z</time>
      </trkpt>
      <trkpt lat="46.54123" lon="0.32882">
        <ele>93.6</ele>
        <time>2022-09-18T07:39:43Z</time>
      </trkpt>
      <trkpt lat="46.54112" lon="0.32895">
        <ele>93.8</ele>
        <time>2022-09-18T07:39:46Z</time>
      </trkpt>
      <trkpt lat="46.541" lon="0.32906">
        <ele>94.2</ele>
        <time>2022-09-18T07:39:49Z</time>
      </trkpt>
      <trkpt lat="46.54078" lon="0.32928">
        <ele>94.6</ele>
        <time>2022-09-18T07:39:54Z</time>
      </trkpt>
      <trkpt lat="46.54046" lon="0.32967">
        <ele>94.4</ele>
        <time>2022-09-18T07:40:01Z</time>
      </trkpt>
      <trkpt lat="46.54016" lon="0.33009">
        <ele>94.6</ele>
        <time>2022-09-18T07:40:09Z</time>
      </trkpt>
      <trkpt lat="46.5401" lon="0.33018">
        <ele>94.4</ele>
        <time>2022-09-18T07:40:11Z</time>
      </trkpt>
      <trkpt lat="46.54002" lon="0.33025">
        <ele>94.4</ele>
        <time>2022-09-18T07:40:13Z</time>
      </trkpt>
      <trkpt lat="46.53978" lon="0.33037">
        <ele>94</ele>
        <time>2022-09-18T07:40:19Z</time>
      </trkpt>
      <trkpt lat="46.53973" lon="0.33039">
        <ele>94</ele>
        <time>2022-09-18T07:40:20Z</time>
      </trkpt>
      <trkpt lat="46.5396" lon="0.33039">
        <ele>94</ele>
        <time>2022-09-18T07:40:23Z</time>
      </trkpt>
      <trkpt lat="46.53952" lon="0.33042">
        <ele>93.8</ele>
        <time>2022-09-18T07:40:25Z</time>
      </trkpt>
      <trkpt lat="46.53944" lon="0.33049">
        <ele>93.8</ele>
        <time>2022-09-18T07:40:27Z</time>
      </trkpt>
      <trkpt lat="46.5394" lon="0.33054">
        <ele>93.8</ele>
        <time>2022-09-18T07:40:28Z</time>
      </trkpt>
      <trkpt lat="46.53938" lon="0.33058">
        <ele>93.8</ele>
        <time>2022-09-18T07:40:29Z</time>
      </trkpt>
      <trkpt lat="46.53931" lon="0.33076">
        <ele>94</ele>
        <time>2022-09-18T07:40:33Z</time>
      </trkpt>
      <trkpt lat="46.5393" lon="0.33098">
        <ele>94.2</ele>
        <time>2022-09-18T07:40:37Z</time>
      </trkpt>
      <trkpt lat="46.5393" lon="0.33105">
        <ele>94.2</ele>
        <time>2022-09-18T07:40:38Z</time>
      </trkpt>
      <trkpt lat="46.5393" lon="0.33113">
        <ele>94.4</ele>
        <time>2022-09-18T07:40:39Z</time>
      </trkpt>
      <trkpt lat="46.53934" lon="0.33142">
        <ele>94.4</ele>
        <time>2022-09-18T07:40:43Z</time>
      </trkpt>
      <trkpt lat="46.53934" lon="0.33155">
        <ele>94.4</ele>
        <time>2022-09-18T07:40:45Z</time>
      </trkpt>
      <trkpt lat="46.53934" lon="0.33167">
        <ele>94.4</ele>
        <time>2022-09-18T07:40:47Z</time>
      </trkpt>
      <trkpt lat="46.53935" lon="0.33172">
        <ele>94.4</ele>
        <time>2022-09-18T07:40:48Z</time>
      </trkpt>
      <trkpt lat="46.53936" lon="0.33178">
        <ele>94.2</ele>
        <time>2022-09-18T07:40:49Z</time>
      </trkpt>
      <trkpt lat="46.53946" lon="0.33203">
        <ele>94</ele>
        <time>2022-09-18T07:40:54Z</time>
      </trkpt>
      <trkpt lat="46.53949" lon="0.33213">
        <ele>94.2</ele>
        <time>2022-09-18T07:40:56Z</time>
      </trkpt>
      <trkpt lat="46.53953" lon="0.33226">
        <ele>94.2</ele>
        <time>2022-09-18T07:40:58Z</time>
      </trkpt>
      <trkpt lat="46.53961" lon="0.3325">
        <ele>94.2</ele>
        <time>2022-09-18T07:41:02Z</time>
      </trkpt>
      <trkpt lat="46.53965" lon="0.33267">
        <ele>94.2</ele>
        <time>2022-09-18T07:41:05Z</time>
      </trkpt>
      <trkpt lat="46.53968" lon="0.3328">
        <ele>94.2</ele>
        <time>2022-09-18T07:41:07Z</time>
      </trkpt>
      <trkpt lat="46.53971" lon="0.33302">
        <ele>94</ele>
        <time>2022-09-18T07:41:10Z</time>
      </trkpt>
      <trkpt lat="46.53971" lon="0.3331">
        <ele>94</ele>
        <time>2022-09-18T07:41:11Z</time>
      </trkpt>
      <trkpt lat="46.53972" lon="0.33318">
        <ele>94</ele>
        <time>2022-09-18T07:41:12Z</time>
      </trkpt>
      <trkpt lat="46.53979" lon="0.3335">
        <ele>94.2</ele>
        <time>2022-09-18T07:41:16Z</time>
      </trkpt>
      <trkpt lat="46.53982" lon="0.33358">
        <ele>94.2</ele>
        <time>2022-09-18T07:41:17Z</time>
      </trkpt>
      <trkpt lat="46.53989" lon="0.33382">
        <ele>93.8</ele>
        <time>2022-09-18T07:41:20Z</time>
      </trkpt>
      <trkpt lat="46.53995" lon="0.33404">
        <ele>93.8</ele>
        <time>2022-09-18T07:41:23Z</time>
      </trkpt>
      <trkpt lat="46.53999" lon="0.33421">
        <ele>93.6</ele>
        <time>2022-09-18T07:41:25Z</time>
      </trkpt>
      <trkpt lat="46.54005" lon="0.33435">
        <ele>93.6</ele>
        <time>2022-09-18T07:41:27Z</time>
      </trkpt>
      <trkpt lat="46.5401" lon="0.33447">
        <ele>93.4</ele>
        <time>2022-09-18T07:41:29Z</time>
      </trkpt>
      <trkpt lat="46.54014" lon="0.33459">
        <ele>93.2</ele>
        <time>2022-09-18T07:41:31Z</time>
      </trkpt>
      <trkpt lat="46.54018" lon="0.33464">
        <ele>93.2</ele>
        <time>2022-09-18T07:41:32Z</time>
      </trkpt>
      <trkpt lat="46.54025" lon="0.33475">
        <ele>93</ele>
        <time>2022-09-18T07:41:34Z</time>
      </trkpt>
      <trkpt lat="46.54033" lon="0.33481">
        <ele>92.8</ele>
        <time>2022-09-18T07:41:36Z</time>
      </trkpt>
      <trkpt lat="46.54036" lon="0.33483">
        <ele>93</ele>
        <time>2022-09-18T07:41:37Z</time>
      </trkpt>
      <trkpt lat="46.54044" lon="0.33488">
        <ele>93.2</ele>
        <time>2022-09-18T07:41:39Z</time>
      </trkpt>
      <trkpt lat="46.54049" lon="0.33496">
        <ele>93.4</ele>
        <time>2022-09-18T07:41:41Z</time>
      </trkpt>
      <trkpt lat="46.5406" lon="0.33524">
        <ele>93.6</ele>
        <time>2022-09-18T07:41:46Z</time>
      </trkpt>
      <trkpt lat="46.54063" lon="0.3353">
        <ele>93.6</ele>
        <time>2022-09-18T07:41:47Z</time>
      </trkpt>
      <trkpt lat="46.54073" lon="0.33555">
        <ele>94.2</ele>
        <time>2022-09-18T07:41:51Z</time>
      </trkpt>
      <trkpt lat="46.54082" lon="0.33585">
        <ele>94.6</ele>
        <time>2022-09-18T07:41:55Z</time>
      </trkpt>
      <trkpt lat="46.54086" lon="0.33595">
        <ele>94.6</ele>
        <time>2022-09-18T07:41:57Z</time>
      </trkpt>
      <trkpt lat="46.54091" lon="0.33617">
        <ele>94.4</ele>
        <time>2022-09-18T07:42:01Z</time>
      </trkpt>
      <trkpt lat="46.54094" lon="0.33628">
        <ele>94.2</ele>
        <time>2022-09-18T07:42:03Z</time>
      </trkpt>
      <trkpt lat="46.541" lon="0.33643">
        <ele>94.2</ele>
        <time>2022-09-18T07:42:05Z</time>
      </trkpt>
      <trkpt lat="46.54106" lon="0.33671">
        <ele>94.4</ele>
        <time>2022-09-18T07:42:09Z</time>
      </trkpt>
      <trkpt lat="46.5411" lon="0.33713">
        <ele>94.4</ele>
        <time>2022-09-18T07:42:14Z</time>
      </trkpt>
      <trkpt lat="46.54111" lon="0.33756">
        <ele>94.6</ele>
        <time>2022-09-18T07:42:20Z</time>
      </trkpt>
      <trkpt lat="46.54114" lon="0.33797">
        <ele>94.4</ele>
        <time>2022-09-18T07:42:26Z</time>
      </trkpt>
      <trkpt lat="46.54115" lon="0.33804">
        <ele>94.4</ele>
        <time>2022-09-18T07:42:27Z</time>
      </trkpt>
      <trkpt lat="46.54116" lon="0.33818">
        <ele>94.2</ele>
        <time>2022-09-18T07:42:29Z</time>
      </trkpt>
      <trkpt lat="46.54115" lon="0.33826">
        <ele>94.2</ele>
        <time>2022-09-18T07:42:30Z</time>
      </trkpt>
      <trkpt lat="46.54116" lon="0.33833">
        <ele>94.2</ele>
        <time>2022-09-18T07:42:31Z</time>
      </trkpt>
      <trkpt lat="46.54119" lon="0.33854">
        <ele>94</ele>
        <time>2022-09-18T07:42:34Z</time>
      </trkpt>
      <trkpt lat="46.54119" lon="0.33861">
        <ele>94</ele>
        <time>2022-09-18T07:42:35Z</time>
      </trkpt>
      <trkpt lat="46.54121" lon="0.33899">
        <ele>93.8</ele>
        <time>2022-09-18T07:42:40Z</time>
      </trkpt>
      <trkpt lat="46.54121" lon="0.33909">
        <ele>94</ele>
        <time>2022-09-18T07:42:41Z</time>
      </trkpt>
      <trkpt lat="46.54123" lon="0.33923">
        <ele>93.8</ele>
        <time>2022-09-18T07:42:43Z</time>
      </trkpt>
      <trkpt lat="46.54122" lon="0.33936">
        <ele>93.6</ele>
        <time>2022-09-18T07:42:45Z</time>
      </trkpt>
      <trkpt lat="46.54121" lon="0.33943">
        <ele>93.4</ele>
        <time>2022-09-18T07:42:46Z</time>
      </trkpt>
      <trkpt lat="46.54121" lon="0.33951">
        <ele>93.8</ele>
        <time>2022-09-18T07:42:47Z</time>
      </trkpt>
      <trkpt lat="46.54119" lon="0.33979">
        <ele>93.6</ele>
        <time>2022-09-18T07:42:51Z</time>
      </trkpt>
      <trkpt lat="46.54119" lon="0.33984">
        <ele>93.4</ele>
        <time>2022-09-18T07:42:52Z</time>
      </trkpt>
      <trkpt lat="46.54116" lon="0.34004">
        <ele>93.2</ele>
        <time>2022-09-18T07:42:56Z</time>
      </trkpt>
      <trkpt lat="46.54112" lon="0.34032">
        <ele>93.6</ele>
        <time>2022-09-18T07:43:01Z</time>
      </trkpt>
      <trkpt lat="46.54111" lon="0.3405">
        <ele>93.8</ele>
        <time>2022-09-18T07:43:04Z</time>
      </trkpt>
      <trkpt lat="46.54111" lon="0.34062">
        <ele>94</ele>
        <time>2022-09-18T07:43:06Z</time>
      </trkpt>
      <trkpt lat="46.5411" lon="0.34068">
        <ele>94</ele>
        <time>2022-09-18T07:43:07Z</time>
      </trkpt>
      <trkpt lat="46.54107" lon="0.3408">
        <ele>93.8</ele>
        <time>2022-09-18T07:43:09Z</time>
      </trkpt>
      <trkpt lat="46.54104" lon="0.34088">
        <ele>93.4</ele>
        <time>2022-09-18T07:43:11Z</time>
      </trkpt>
      <trkpt lat="46.54102" lon="0.34092">
        <ele>93.4</ele>
        <time>2022-09-18T07:43:12Z</time>
      </trkpt>
      <trkpt lat="46.541" lon="0.34096">
        <ele>93.2</ele>
        <time>2022-09-18T07:43:13Z</time>
      </trkpt>
      <trkpt lat="46.54096" lon="0.34112">
        <ele>93.2</ele>
        <time>2022-09-18T07:43:16Z</time>
      </trkpt>
      <trkpt lat="46.5409" lon="0.34121">
        <ele>93.4</ele>
        <time>2022-09-18T07:43:18Z</time>
      </trkpt>
      <trkpt lat="46.54087" lon="0.34125">
        <ele>93.6</ele>
        <time>2022-09-18T07:43:19Z</time>
      </trkpt>
      <trkpt lat="46.54083" lon="0.34134">
        <ele>93.8</ele>
        <time>2022-09-18T07:43:21Z</time>
      </trkpt>
      <trkpt lat="46.54081" lon="0.34139">
        <ele>93.8</ele>
        <time>2022-09-18T07:43:22Z</time>
      </trkpt>
      <trkpt lat="46.54078" lon="0.34145">
        <ele>93.8</ele>
        <time>2022-09-18T07:43:23Z</time>
      </trkpt>
      <trkpt lat="46.54071" lon="0.34152">
        <ele>94</ele>
        <time>2022-09-18T07:43:25Z</time>
      </trkpt>
      <trkpt lat="46.54068" lon="0.34156">
        <ele>93.8</ele>
        <time>2022-09-18T07:43:26Z</time>
      </trkpt>
      <trkpt lat="46.54064" lon="0.3416">
        <ele>94</ele>
        <time>2022-09-18T07:43:27Z</time>
      </trkpt>
      <trkpt lat="46.54056" lon="0.34169">
        <ele>93.4</ele>
        <time>2022-09-18T07:43:30Z</time>
      </trkpt>
      <trkpt lat="46.5404" lon="0.34189">
        <ele>93.6</ele>
        <time>2022-09-18T07:43:36Z</time>
      </trkpt>
      <trkpt lat="46.54038" lon="0.34195">
        <ele>93.8</ele>
        <time>2022-09-18T07:43:37Z</time>
      </trkpt>
      <trkpt lat="46.54028" lon="0.34216">
        <ele>93.8</ele>
        <time>2022-09-18T07:43:41Z</time>
      </trkpt>
      <trkpt lat="46.5402" lon="0.34234">
        <ele>93.4</ele>
        <time>2022-09-18T07:43:44Z</time>
      </trkpt>
      <trkpt lat="46.54012" lon="0.34249">
        <ele>93.2</ele>
        <time>2022-09-18T07:43:47Z</time>
      </trkpt>
      <trkpt lat="46.53998" lon="0.34282">
        <ele>93.6</ele>
        <time>2022-09-18T07:43:53Z</time>
      </trkpt>
      <trkpt lat="46.53987" lon="0.34304">
        <ele>94</ele>
        <time>2022-09-18T07:43:58Z</time>
      </trkpt>
      <trkpt lat="46.53975" lon="0.34318">
        <ele>95</ele>
        <time>2022-09-18T07:44:03Z</time>
      </trkpt>
      <trkpt lat="46.53967" lon="0.34327">
        <ele>95.2</ele>
        <time>2022-09-18T07:44:06Z</time>
      </trkpt>
      <trkpt lat="46.53961" lon="0.34333">
        <ele>95.4</ele>
        <time>2022-09-18T07:44:08Z</time>
      </trkpt>
      <trkpt lat="46.53955" lon="0.3434">
        <ele>96.4</ele>
        <time>2022-09-18T07:44:11Z</time>
      </trkpt>
      <trkpt lat="46.53943" lon="0.34354">
        <ele>97.2</ele>
        <time>2022-09-18T07:44:16Z</time>
      </trkpt>
      <trkpt lat="46.53941" lon="0.34357">
        <ele>97.4</ele>
        <time>2022-09-18T07:44:17Z</time>
      </trkpt>
      <trkpt lat="46.53929" lon="0.3438">
        <ele>98.4</ele>
        <time>2022-09-18T07:44:23Z</time>
      </trkpt>
      <trkpt lat="46.53927" lon="0.34383">
        <ele>98.6</ele>
        <time>2022-09-18T07:44:24Z</time>
      </trkpt>
      <trkpt lat="46.53918" lon="0.34405">
        <ele>99.4</ele>
        <time>2022-09-18T07:44:30Z</time>
      </trkpt>
      <trkpt lat="46.53917" lon="0.34408">
        <ele>100</ele>
        <time>2022-09-18T07:44:31Z</time>
      </trkpt>
      <trkpt lat="46.53916" lon="0.34415">
        <ele>100.6</ele>
        <time>2022-09-18T07:44:33Z</time>
      </trkpt>
      <trkpt lat="46.53916" lon="0.34424">
        <ele>101.8</ele>
        <time>2022-09-18T07:44:36Z</time>
      </trkpt>
      <trkpt lat="46.53917" lon="0.34426">
        <ele>102</ele>
        <time>2022-09-18T07:44:37Z</time>
      </trkpt>
      <trkpt lat="46.53919" lon="0.34437">
        <ele>102.8</ele>
        <time>2022-09-18T07:44:41Z</time>
      </trkpt>
      <trkpt lat="46.5392" lon="0.34446">
        <ele>103.2</ele>
        <time>2022-09-18T07:44:44Z</time>
      </trkpt>
      <trkpt lat="46.53921" lon="0.34453">
        <ele>104</ele>
        <time>2022-09-18T07:44:47Z</time>
      </trkpt>
      <trkpt lat="46.53921" lon="0.3446">
        <ele>104.6</ele>
        <time>2022-09-18T07:44:50Z</time>
      </trkpt>
      <trkpt lat="46.53922" lon="0.34465">
        <ele>104.8</ele>
        <time>2022-09-18T07:44:52Z</time>
      </trkpt>
      <trkpt lat="46.53923" lon="0.34466">
        <ele>105</ele>
        <time>2022-09-18T07:44:53Z</time>
      </trkpt>
      <trkpt lat="46.53924" lon="0.34466">
        <ele>105</ele>
        <time>2022-09-18T07:44:54Z</time>
      </trkpt>
      <trkpt lat="46.53926" lon="0.34465">
        <ele>105.2</ele>
        <time>2022-09-18T07:44:55Z</time>
      </trkpt>
      <trkpt lat="46.53928" lon="0.34463">
        <ele>105.6</ele>
        <time>2022-09-18T07:44:57Z</time>
      </trkpt>
      <trkpt lat="46.5393" lon="0.34459">
        <ele>106.2</ele>
        <time>2022-09-18T07:44:59Z</time>
      </trkpt>
      <trkpt lat="46.53931" lon="0.34457">
        <ele>106.6</ele>
        <time>2022-09-18T07:45:00Z</time>
      </trkpt>
      <trkpt lat="46.53932" lon="0.34447">
        <ele>107.2</ele>
        <time>2022-09-18T07:45:04Z</time>
      </trkpt>
      <trkpt lat="46.53933" lon="0.34443">
        <ele>107.8</ele>
        <time>2022-09-18T07:45:06Z</time>
      </trkpt>
      <trkpt lat="46.53935" lon="0.34436">
        <ele>108.4</ele>
        <time>2022-09-18T07:45:09Z</time>
      </trkpt>
      <trkpt lat="46.53939" lon="0.34433">
        <ele>108.6</ele>
        <time>2022-09-18T07:45:12Z</time>
      </trkpt>
      <trkpt lat="46.53943" lon="0.34428">
        <ele>109.4</ele>
        <time>2022-09-18T07:45:15Z</time>
      </trkpt>
      <trkpt lat="46.53951" lon="0.3442">
        <ele>110.6</ele>
        <time>2022-09-18T07:45:20Z</time>
      </trkpt>
      <trkpt lat="46.53962" lon="0.34414">
        <ele>111.8</ele>
        <time>2022-09-18T07:45:26Z</time>
      </trkpt>
      <trkpt lat="46.53969" lon="0.34409">
        <ele>112.8</ele>
        <time>2022-09-18T07:45:30Z</time>
      </trkpt>
      <trkpt lat="46.53971" lon="0.34407">
        <ele>113.2</ele>
        <time>2022-09-18T07:45:32Z</time>
      </trkpt>
      <trkpt lat="46.53978" lon="0.34403">
        <ele>114</ele>
        <time>2022-09-18T07:45:37Z</time>
      </trkpt>
      <trkpt lat="46.53982" lon="0.34399">
        <ele>114.6</ele>
        <time>2022-09-18T07:45:40Z</time>
      </trkpt>
      <trkpt lat="46.53987" lon="0.34395">
        <ele>115.2</ele>
        <time>2022-09-18T07:45:44Z</time>
      </trkpt>
      <trkpt lat="46.53994" lon="0.34393">
        <ele>115.8</ele>
        <time>2022-09-18T07:45:48Z</time>
      </trkpt>
      <trkpt lat="46.53998" lon="0.34392">
        <ele>116.2</ele>
        <time>2022-09-18T07:45:50Z</time>
      </trkpt>
      <trkpt lat="46.54002" lon="0.34391">
        <ele>116.4</ele>
        <time>2022-09-18T07:45:52Z</time>
      </trkpt>
      <trkpt lat="46.54006" lon="0.34387">
        <ele>117.2</ele>
        <time>2022-09-18T07:45:55Z</time>
      </trkpt>
      <trkpt lat="46.54014" lon="0.3437">
        <ele>116</ele>
        <time>2022-09-18T07:45:59Z</time>
      </trkpt>
      <trkpt lat="46.54015" lon="0.34367">
        <ele>114.8</ele>
        <time>2022-09-18T07:46:00Z</time>
      </trkpt>
      <trkpt lat="46.54016" lon="0.34363">
        <ele>113.2</ele>
        <time>2022-09-18T07:46:02Z</time>
      </trkpt>
      <trkpt lat="46.54016" lon="0.34361">
        <ele>112.4</ele>
        <time>2022-09-18T07:46:03Z</time>
      </trkpt>
      <trkpt lat="46.54016" lon="0.34359">
        <ele>111</ele>
        <time>2022-09-18T07:46:04Z</time>
      </trkpt>
      <trkpt lat="46.54015" lon="0.34357">
        <ele>109.8</ele>
        <time>2022-09-18T07:46:05Z</time>
      </trkpt>
      <trkpt lat="46.54012" lon="0.34354">
        <ele>107.4</ele>
        <time>2022-09-18T07:46:07Z</time>
      </trkpt>
      <trkpt lat="46.54011" lon="0.34352">
        <ele>105.4</ele>
        <time>2022-09-18T07:46:08Z</time>
      </trkpt>
      <trkpt lat="46.5401" lon="0.34349">
        <ele>103.8</ele>
        <time>2022-09-18T07:46:09Z</time>
      </trkpt>
      <trkpt lat="46.54007" lon="0.34344">
        <ele>101.4</ele>
        <time>2022-09-18T07:46:11Z</time>
      </trkpt>
      <trkpt lat="46.54005" lon="0.34342">
        <ele>100.2</ele>
        <time>2022-09-18T07:46:12Z</time>
      </trkpt>
      <trkpt lat="46.54002" lon="0.34341">
        <ele>98.8</ele>
        <time>2022-09-18T07:46:13Z</time>
      </trkpt>
      <trkpt lat="46.54001" lon="0.34339">
        <ele>97.6</ele>
        <time>2022-09-18T07:46:14Z</time>
      </trkpt>
      <trkpt lat="46.53998" lon="0.34332">
        <ele>95.4</ele>
        <time>2022-09-18T07:46:16Z</time>
      </trkpt>
      <trkpt lat="46.53996" lon="0.3433">
        <ele>94.4</ele>
        <time>2022-09-18T07:46:17Z</time>
      </trkpt>
      <trkpt lat="46.53993" lon="0.34332">
        <ele>93.6</ele>
        <time>2022-09-18T07:46:19Z</time>
      </trkpt>
      <trkpt lat="46.53991" lon="0.34334">
        <ele>93.4</ele>
        <time>2022-09-18T07:46:20Z</time>
      </trkpt>
      <trkpt lat="46.53986" lon="0.34338">
        <ele>93.6</ele>
        <time>2022-09-18T07:46:21Z</time>
      </trkpt>
      <trkpt lat="46.53979" lon="0.34343">
        <ele>94.4</ele>
        <time>2022-09-18T07:46:25Z</time>
      </trkpt>
      <trkpt lat="46.53963" lon="0.34354">
        <ele>95</ele>
        <time>2022-09-18T07:46:31Z</time>
      </trkpt>
      <trkpt lat="46.53954" lon="0.34359">
        <ele>95.6</ele>
        <time>2022-09-18T07:46:34Z</time>
      </trkpt>
      <trkpt lat="46.53947" lon="0.34364">
        <ele>96.6</ele>
        <time>2022-09-18T07:46:37Z</time>
      </trkpt>
      <trkpt lat="46.53945" lon="0.34366">
        <ele>96.8</ele>
        <time>2022-09-18T07:46:38Z</time>
      </trkpt>
      <trkpt lat="46.53933" lon="0.3438">
        <ele>97.8</ele>
        <time>2022-09-18T07:46:43Z</time>
      </trkpt>
      <trkpt lat="46.53931" lon="0.34383">
        <ele>97.8</ele>
        <time>2022-09-18T07:46:44Z</time>
      </trkpt>
      <trkpt lat="46.53918" lon="0.34407">
        <ele>99.2</ele>
        <time>2022-09-18T07:46:51Z</time>
      </trkpt>
      <trkpt lat="46.53915" lon="0.34422">
        <ele>100.4</ele>
        <time>2022-09-18T07:46:55Z</time>
      </trkpt>
      <trkpt lat="46.53915" lon="0.34429">
        <ele>101.2</ele>
        <time>2022-09-18T07:46:57Z</time>
      </trkpt>
      <trkpt lat="46.53915" lon="0.34432">
        <ele>101.4</ele>
        <time>2022-09-18T07:46:58Z</time>
      </trkpt>
      <trkpt lat="46.53918" lon="0.34445">
        <ele>102.4</ele>
        <time>2022-09-18T07:47:02Z</time>
      </trkpt>
      <trkpt lat="46.53918" lon="0.34451">
        <ele>103.2</ele>
        <time>2022-09-18T07:47:04Z</time>
      </trkpt>
      <trkpt lat="46.53919" lon="0.34457">
        <ele>103.8</ele>
        <time>2022-09-18T07:47:06Z</time>
      </trkpt>
      <trkpt lat="46.53922" lon="0.34465">
        <ele>104.2</ele>
        <time>2022-09-18T07:47:09Z</time>
      </trkpt>
      <trkpt lat="46.53923" lon="0.34466">
        <ele>104.6</ele>
        <time>2022-09-18T07:47:10Z</time>
      </trkpt>
      <trkpt lat="46.53925" lon="0.34467">
        <ele>105.2</ele>
        <time>2022-09-18T07:47:11Z</time>
      </trkpt>
      <trkpt lat="46.53928" lon="0.34465">
        <ele>105.6</ele>
        <time>2022-09-18T07:47:13Z</time>
      </trkpt>
      <trkpt lat="46.53929" lon="0.34463">
        <ele>105.8</ele>
        <time>2022-09-18T07:47:14Z</time>
      </trkpt>
      <trkpt lat="46.5393" lon="0.34459">
        <ele>106.2</ele>
        <time>2022-09-18T07:47:16Z</time>
      </trkpt>
      <trkpt lat="46.53932" lon="0.34452">
        <ele>107</ele>
        <time>2022-09-18T07:47:19Z</time>
      </trkpt>
      <trkpt lat="46.53933" lon="0.34446">
        <ele>107.4</ele>
        <time>2022-09-18T07:47:22Z</time>
      </trkpt>
      <trkpt lat="46.53936" lon="0.34437">
        <ele>108.2</ele>
        <time>2022-09-18T07:47:26Z</time>
      </trkpt>
      <trkpt lat="46.53945" lon="0.34429">
        <ele>108.4</ele>
        <time>2022-09-18T07:47:33Z</time>
      </trkpt>
      <trkpt lat="46.53948" lon="0.34426">
        <ele>108.6</ele>
        <time>2022-09-18T07:47:35Z</time>
      </trkpt>
      <trkpt lat="46.53955" lon="0.34419">
        <ele>109.8</ele>
        <time>2022-09-18T07:47:40Z</time>
      </trkpt>
      <trkpt lat="46.53963" lon="0.34414">
        <ele>110.8</ele>
        <time>2022-09-18T07:47:45Z</time>
      </trkpt>
      <trkpt lat="46.53969" lon="0.34411">
        <ele>111.8</ele>
        <time>2022-09-18T07:47:48Z</time>
      </trkpt>
      <trkpt lat="46.53971" lon="0.34409">
        <ele>112</ele>
        <time>2022-09-18T07:47:49Z</time>
      </trkpt>
      <trkpt lat="46.53982" lon="0.34403">
        <ele>112.8</ele>
        <time>2022-09-18T07:47:56Z</time>
      </trkpt>
      <trkpt lat="46.53984" lon="0.34403">
        <ele>113.2</ele>
        <time>2022-09-18T07:47:57Z</time>
      </trkpt>
      <trkpt lat="46.53996" lon="0.34398">
        <ele>114.6</ele>
        <time>2022-09-18T07:48:04Z</time>
      </trkpt>
      <trkpt lat="46.54002" lon="0.34395">
        <ele>115.6</ele>
        <time>2022-09-18T07:48:09Z</time>
      </trkpt>
      <trkpt lat="46.54006" lon="0.34395">
        <ele>116.2</ele>
        <time>2022-09-18T07:48:11Z</time>
      </trkpt>
      <trkpt lat="46.5401" lon="0.34395">
        <ele>116.8</ele>
        <time>2022-09-18T07:48:13Z</time>
      </trkpt>
      <trkpt lat="46.5402" lon="0.34399">
        <ele>117.4</ele>
        <time>2022-09-18T07:48:18Z</time>
      </trkpt>
      <trkpt lat="46.54034" lon="0.34394">
        <ele>117.4</ele>
        <time>2022-09-18T07:48:24Z</time>
      </trkpt>
      <trkpt lat="46.54044" lon="0.3438">
        <ele>117.6</ele>
        <time>2022-09-18T07:48:31Z</time>
      </trkpt>
      <trkpt lat="46.54045" lon="0.34377">
        <ele>117.2</ele>
        <time>2022-09-18T07:48:32Z</time>
      </trkpt>
      <trkpt lat="46.54052" lon="0.34368">
        <ele>116.6</ele>
        <time>2022-09-18T07:48:36Z</time>
      </trkpt>
      <trkpt lat="46.5406" lon="0.34355">
        <ele>117.8</ele>
        <time>2022-09-18T07:48:42Z</time>
      </trkpt>
      <trkpt lat="46.54062" lon="0.34353">
        <ele>118.2</ele>
        <time>2022-09-18T07:48:43Z</time>
      </trkpt>
      <trkpt lat="46.54063" lon="0.34344">
        <ele>119</ele>
        <time>2022-09-18T07:48:47Z</time>
      </trkpt>
      <trkpt lat="46.54063" lon="0.34342">
        <ele>119.4</ele>
        <time>2022-09-18T07:48:48Z</time>
      </trkpt>
      <trkpt lat="46.54064" lon="0.34341">
        <ele>119.6</ele>
        <time>2022-09-18T07:48:49Z</time>
      </trkpt>
      <trkpt lat="46.54066" lon="0.34338">
        <ele>120.2</ele>
        <time>2022-09-18T07:48:51Z</time>
      </trkpt>
      <trkpt lat="46.54071" lon="0.34332">
        <ele>121.2</ele>
        <time>2022-09-18T07:48:55Z</time>
      </trkpt>
      <trkpt lat="46.54075" lon="0.34325">
        <ele>122.4</ele>
        <time>2022-09-18T07:48:59Z</time>
      </trkpt>
      <trkpt lat="46.5408" lon="0.34319">
        <ele>123.2</ele>
        <time>2022-09-18T07:49:03Z</time>
      </trkpt>
      <trkpt lat="46.54081" lon="0.34318">
        <ele>123.4</ele>
        <time>2022-09-18T07:49:04Z</time>
      </trkpt>
      <trkpt lat="46.54083" lon="0.34313">
        <ele>124.6</ele>
        <time>2022-09-18T07:49:07Z</time>
      </trkpt>
      <trkpt lat="46.54087" lon="0.34308">
        <ele>125</ele>
        <time>2022-09-18T07:49:10Z</time>
      </trkpt>
      <trkpt lat="46.54089" lon="0.34304">
        <ele>125.8</ele>
        <time>2022-09-18T07:49:12Z</time>
      </trkpt>
      <trkpt lat="46.54092" lon="0.34298">
        <ele>126.8</ele>
        <time>2022-09-18T07:49:16Z</time>
      </trkpt>
      <trkpt lat="46.54092" lon="0.34295">
        <ele>126.8</ele>
        <time>2022-09-18T07:49:17Z</time>
      </trkpt>
      <trkpt lat="46.54097" lon="0.34285">
        <ele>127.2</ele>
        <time>2022-09-18T07:49:22Z</time>
      </trkpt>
      <trkpt lat="46.54098" lon="0.34282">
        <ele>128</ele>
        <time>2022-09-18T07:49:24Z</time>
      </trkpt>
      <trkpt lat="46.54104" lon="0.34275">
        <ele>128.8</ele>
        <time>2022-09-18T07:49:29Z</time>
      </trkpt>
      <trkpt lat="46.54107" lon="0.3427">
        <ele>129.2</ele>
        <time>2022-09-18T07:49:32Z</time>
      </trkpt>
      <trkpt lat="46.54115" lon="0.34259">
        <ele>130.2</ele>
        <time>2022-09-18T07:49:39Z</time>
      </trkpt>
      <trkpt lat="46.54116" lon="0.34257">
        <ele>130.4</ele>
        <time>2022-09-18T07:49:40Z</time>
      </trkpt>
      <trkpt lat="46.54121" lon="0.34246">
        <ele>130.8</ele>
        <time>2022-09-18T07:49:45Z</time>
      </trkpt>
      <trkpt lat="46.54128" lon="0.34231">
        <ele>130.6</ele>
        <time>2022-09-18T07:49:51Z</time>
      </trkpt>
      <trkpt lat="46.54134" lon="0.34214">
        <ele>130.2</ele>
        <time>2022-09-18T07:49:55Z</time>
      </trkpt>
      <trkpt lat="46.54136" lon="0.34206">
        <ele>130.2</ele>
        <time>2022-09-18T07:49:57Z</time>
      </trkpt>
      <trkpt lat="46.54141" lon="0.34186">
        <ele>130.2</ele>
        <time>2022-09-18T07:50:02Z</time>
      </trkpt>
      <trkpt lat="46.54148" lon="0.34164">
        <ele>131.6</ele>
        <time>2022-09-18T07:50:08Z</time>
      </trkpt>
      <trkpt lat="46.54149" lon="0.3416">
        <ele>131.8</ele>
        <time>2022-09-18T07:50:09Z</time>
      </trkpt>
      <trkpt lat="46.54154" lon="0.34151">
        <ele>132.8</ele>
        <time>2022-09-18T07:50:12Z</time>
      </trkpt>
      <trkpt lat="46.54156" lon="0.34147">
        <ele>133</ele>
        <time>2022-09-18T07:50:13Z</time>
      </trkpt>
      <trkpt lat="46.54157" lon="0.34142">
        <ele>133</ele>
        <time>2022-09-18T07:50:14Z</time>
      </trkpt>
      <trkpt lat="46.54165" lon="0.34124">
        <ele>133</ele>
        <time>2022-09-18T07:50:19Z</time>
      </trkpt>
      <trkpt lat="46.54175" lon="0.34104">
        <ele>132.6</ele>
        <time>2022-09-18T07:50:25Z</time>
      </trkpt>
      <trkpt lat="46.54183" lon="0.34087">
        <ele>132</ele>
        <time>2022-09-18T07:50:30Z</time>
      </trkpt>
      <trkpt lat="46.54186" lon="0.3408">
        <ele>131.6</ele>
        <time>2022-09-18T07:50:32Z</time>
      </trkpt>
      <trkpt lat="46.5419" lon="0.34069">
        <ele>131.6</ele>
        <time>2022-09-18T07:50:35Z</time>
      </trkpt>
      <trkpt lat="46.54192" lon="0.34066">
        <ele>131.6</ele>
        <time>2022-09-18T07:50:36Z</time>
      </trkpt>
      <trkpt lat="46.54193" lon="0.34063">
        <ele>131.6</ele>
        <time>2022-09-18T07:50:37Z</time>
      </trkpt>
      <trkpt lat="46.54194" lon="0.34063">
        <ele>131.8</ele>
        <time>2022-09-18T07:50:39Z</time>
      </trkpt>
      <trkpt lat="46.54196" lon="0.34077">
        <ele>132.8</ele>
        <time>2022-09-18T07:50:45Z</time>
      </trkpt>
      <trkpt lat="46.54199" lon="0.34094">
        <ele>134</ele>
        <time>2022-09-18T07:50:50Z</time>
      </trkpt>
      <trkpt lat="46.542" lon="0.34097">
        <ele>134</ele>
        <time>2022-09-18T07:50:51Z</time>
      </trkpt>
      <trkpt lat="46.54205" lon="0.34124">
        <ele>134.6</ele>
        <time>2022-09-18T07:50:57Z</time>
      </trkpt>
      <trkpt lat="46.54209" lon="0.34146">
        <ele>135.2</ele>
        <time>2022-09-18T07:51:02Z</time>
      </trkpt>
      <trkpt lat="46.5421" lon="0.34155">
        <ele>135.4</ele>
        <time>2022-09-18T07:51:04Z</time>
      </trkpt>
      <trkpt lat="46.54211" lon="0.34177">
        <ele>135.6</ele>
        <time>2022-09-18T07:51:08Z</time>
      </trkpt>
      <trkpt lat="46.54213" lon="0.3419">
        <ele>135.8</ele>
        <time>2022-09-18T07:51:11Z</time>
      </trkpt>
      <trkpt lat="46.54218" lon="0.34224">
        <ele>135.8</ele>
        <time>2022-09-18T07:51:17Z</time>
      </trkpt>
      <trkpt lat="46.54219" lon="0.34229">
        <ele>135.8</ele>
        <time>2022-09-18T07:51:18Z</time>
      </trkpt>
      <trkpt lat="46.54221" lon="0.3424">
        <ele>136</ele>
        <time>2022-09-18T07:51:20Z</time>
      </trkpt>
      <trkpt lat="46.54226" lon="0.34248">
        <ele>135.8</ele>
        <time>2022-09-18T07:51:22Z</time>
      </trkpt>
      <trkpt lat="46.54245" lon="0.34261">
        <ele>135.8</ele>
        <time>2022-09-18T07:51:28Z</time>
      </trkpt>
      <trkpt lat="46.54255" lon="0.34267">
        <ele>135.8</ele>
        <time>2022-09-18T07:51:31Z</time>
      </trkpt>
      <trkpt lat="46.54268" lon="0.34277">
        <ele>135.6</ele>
        <time>2022-09-18T07:51:35Z</time>
      </trkpt>
      <trkpt lat="46.54274" lon="0.34282">
        <ele>135.4</ele>
        <time>2022-09-18T07:51:37Z</time>
      </trkpt>
      <trkpt lat="46.54289" lon="0.34285">
        <ele>135.4</ele>
        <time>2022-09-18T07:51:40Z</time>
      </trkpt>
      <trkpt lat="46.54308" lon="0.34289">
        <ele>135.2</ele>
        <time>2022-09-18T07:51:44Z</time>
      </trkpt>
      <trkpt lat="46.54313" lon="0.34292">
        <ele>135</ele>
        <time>2022-09-18T07:51:45Z</time>
      </trkpt>
      <trkpt lat="46.54317" lon="0.34297">
        <ele>135</ele>
        <time>2022-09-18T07:51:46Z</time>
      </trkpt>
      <trkpt lat="46.54326" lon="0.3431">
        <ele>134.8</ele>
        <time>2022-09-18T07:51:48Z</time>
      </trkpt>
      <trkpt lat="46.54348" lon="0.34355">
        <ele>135</ele>
        <time>2022-09-18T07:51:54Z</time>
      </trkpt>
      <trkpt lat="46.5438" lon="0.34422">
        <ele>135</ele>
        <time>2022-09-18T07:52:02Z</time>
      </trkpt>
      <trkpt lat="46.54404" lon="0.34476">
        <ele>135</ele>
        <time>2022-09-18T07:52:09Z</time>
      </trkpt>
      <trkpt lat="46.54407" lon="0.34489">
        <ele>135</ele>
        <time>2022-09-18T07:52:11Z</time>
      </trkpt>
      <trkpt lat="46.54408" lon="0.34503">
        <ele>135</ele>
        <time>2022-09-18T07:52:13Z</time>
      </trkpt>
      <trkpt lat="46.54405" lon="0.34515">
        <ele>135</ele>
        <time>2022-09-18T07:52:15Z</time>
      </trkpt>
      <trkpt lat="46.544" lon="0.34524">
        <ele>135</ele>
        <time>2022-09-18T07:52:17Z</time>
      </trkpt>
      <trkpt lat="46.54387" lon="0.3454">
        <ele>135.2</ele>
        <time>2022-09-18T07:52:21Z</time>
      </trkpt>
      <trkpt lat="46.54386" lon="0.34546">
        <ele>135.4</ele>
        <time>2022-09-18T07:52:22Z</time>
      </trkpt>
      <trkpt lat="46.54386" lon="0.34553">
        <ele>135.6</ele>
        <time>2022-09-18T07:52:23Z</time>
      </trkpt>
      <trkpt lat="46.54388" lon="0.34565">
        <ele>136</ele>
        <time>2022-09-18T07:52:25Z</time>
      </trkpt>
      <trkpt lat="46.54388" lon="0.34572">
        <ele>136</ele>
        <time>2022-09-18T07:52:26Z</time>
      </trkpt>
      <trkpt lat="46.54384" lon="0.3458">
        <ele>136</ele>
        <time>2022-09-18T07:52:28Z</time>
      </trkpt>
      <trkpt lat="46.54372" lon="0.34587">
        <ele>135.8</ele>
        <time>2022-09-18T07:52:32Z</time>
      </trkpt>
      <trkpt lat="46.54365" lon="0.34587">
        <ele>135.8</ele>
        <time>2022-09-18T07:52:34Z</time>
      </trkpt>
      <trkpt lat="46.54359" lon="0.34589">
        <ele>135.8</ele>
        <time>2022-09-18T07:52:36Z</time>
      </trkpt>
      <trkpt lat="46.54354" lon="0.34593">
        <ele>135.6</ele>
        <time>2022-09-18T07:52:38Z</time>
      </trkpt>
      <trkpt lat="46.54349" lon="0.34601">
        <ele>135.6</ele>
        <time>2022-09-18T07:52:40Z</time>
      </trkpt>
      <trkpt lat="46.54347" lon="0.34605">
        <ele>135.6</ele>
        <time>2022-09-18T07:52:41Z</time>
      </trkpt>
      <trkpt lat="46.5434" lon="0.34611">
        <ele>135.4</ele>
        <time>2022-09-18T07:52:43Z</time>
      </trkpt>
      <trkpt lat="46.54333" lon="0.34617">
        <ele>135.2</ele>
        <time>2022-09-18T07:52:45Z</time>
      </trkpt>
      <trkpt lat="46.54327" lon="0.34622">
        <ele>135.2</ele>
        <time>2022-09-18T07:52:47Z</time>
      </trkpt>
      <trkpt lat="46.54315" lon="0.34631">
        <ele>135</ele>
        <time>2022-09-18T07:52:50Z</time>
      </trkpt>
      <trkpt lat="46.54306" lon="0.34642">
        <ele>134.6</ele>
        <time>2022-09-18T07:52:53Z</time>
      </trkpt>
      <trkpt lat="46.54303" lon="0.34646">
        <ele>134.4</ele>
        <time>2022-09-18T07:52:55Z</time>
      </trkpt>
      <trkpt lat="46.54302" lon="0.34647">
        <ele>134.2</ele>
        <time>2022-09-18T07:52:56Z</time>
      </trkpt>
      <trkpt lat="46.54298" lon="0.34656">
        <ele>133.8</ele>
        <time>2022-09-18T07:53:01Z</time>
      </trkpt>
      <trkpt lat="46.54287" lon="0.34669">
        <ele>134.4</ele>
        <time>2022-09-18T07:53:07Z</time>
      </trkpt>
      <trkpt lat="46.5427" lon="0.34677">
        <ele>134.6</ele>
        <time>2022-09-18T07:53:12Z</time>
      </trkpt>
      <trkpt lat="46.54264" lon="0.34681">
        <ele>134.4</ele>
        <time>2022-09-18T07:53:14Z</time>
      </trkpt>
      <trkpt lat="46.54261" lon="0.34689">
        <ele>134.4</ele>
        <time>2022-09-18T07:53:16Z</time>
      </trkpt>
      <trkpt lat="46.5426" lon="0.34706">
        <ele>134.6</ele>
        <time>2022-09-18T07:53:20Z</time>
      </trkpt>
      <trkpt lat="46.5426" lon="0.34712">
        <ele>134.6</ele>
        <time>2022-09-18T07:53:21Z</time>
      </trkpt>
      <trkpt lat="46.54261" lon="0.34722">
        <ele>134.6</ele>
        <time>2022-09-18T07:53:23Z</time>
      </trkpt>
      <trkpt lat="46.54262" lon="0.34731">
        <ele>135</ele>
        <time>2022-09-18T07:53:25Z</time>
      </trkpt>
      <trkpt lat="46.54263" lon="0.34734">
        <ele>135.2</ele>
        <time>2022-09-18T07:53:26Z</time>
      </trkpt>
      <trkpt lat="46.54265" lon="0.34742">
        <ele>135.4</ele>
        <time>2022-09-18T07:53:29Z</time>
      </trkpt>
      <trkpt lat="46.54264" lon="0.34744">
        <ele>135.4</ele>
        <time>2022-09-18T07:53:30Z</time>
      </trkpt>
      <trkpt lat="46.54264" lon="0.34748">
        <ele>135.4</ele>
        <time>2022-09-18T07:53:31Z</time>
      </trkpt>
      <trkpt lat="46.54261" lon="0.34761">
        <ele>135.6</ele>
        <time>2022-09-18T07:53:34Z</time>
      </trkpt>
      <trkpt lat="46.54257" lon="0.34779">
        <ele>135.8</ele>
        <time>2022-09-18T07:53:39Z</time>
      </trkpt>
      <trkpt lat="46.54251" lon="0.34804">
        <ele>135.6</ele>
        <time>2022-09-18T07:53:44Z</time>
      </trkpt>
      <trkpt lat="46.54248" lon="0.34822">
        <ele>135.4</ele>
        <time>2022-09-18T07:53:47Z</time>
      </trkpt>
      <trkpt lat="46.5425" lon="0.34835">
        <ele>135.8</ele>
        <time>2022-09-18T07:53:49Z</time>
      </trkpt>
      <trkpt lat="46.54257" lon="0.34851">
        <ele>135.6</ele>
        <time>2022-09-18T07:53:52Z</time>
      </trkpt>
      <trkpt lat="46.54263" lon="0.34858">
        <ele>135.4</ele>
        <time>2022-09-18T07:53:54Z</time>
      </trkpt>
      <trkpt lat="46.5427" lon="0.34865">
        <ele>135.4</ele>
        <time>2022-09-18T07:53:56Z</time>
      </trkpt>
      <trkpt lat="46.54274" lon="0.34875">
        <ele>135.2</ele>
        <time>2022-09-18T07:53:58Z</time>
      </trkpt>
      <trkpt lat="46.54276" lon="0.3488">
        <ele>135.2</ele>
        <time>2022-09-18T07:53:59Z</time>
      </trkpt>
      <trkpt lat="46.5428" lon="0.3489">
        <ele>135.2</ele>
        <time>2022-09-18T07:54:01Z</time>
      </trkpt>
      <trkpt lat="46.54286" lon="0.34902">
        <ele>135.2</ele>
        <time>2022-09-18T07:54:03Z</time>
      </trkpt>
      <trkpt lat="46.54289" lon="0.34908">
        <ele>135.2</ele>
        <time>2022-09-18T07:54:04Z</time>
      </trkpt>
      <trkpt lat="46.54293" lon="0.34918">
        <ele>135.2</ele>
        <time>2022-09-18T07:54:06Z</time>
      </trkpt>
      <trkpt lat="46.54294" lon="0.34923">
        <ele>135.2</ele>
        <time>2022-09-18T07:54:07Z</time>
      </trkpt>
      <trkpt lat="46.54299" lon="0.34945">
        <ele>134.8</ele>
        <time>2022-09-18T07:54:12Z</time>
      </trkpt>
      <trkpt lat="46.54294" lon="0.34952">
        <ele>134.4</ele>
        <time>2022-09-18T07:54:15Z</time>
      </trkpt>
      <trkpt lat="46.54282" lon="0.34959">
        <ele>134.2</ele>
        <time>2022-09-18T07:54:20Z</time>
      </trkpt>
      <trkpt lat="46.5428" lon="0.34961">
        <ele>134</ele>
        <time>2022-09-18T07:54:21Z</time>
      </trkpt>
      <trkpt lat="46.54273" lon="0.34968">
        <ele>133.4</ele>
        <time>2022-09-18T07:54:24Z</time>
      </trkpt>
      <trkpt lat="46.54271" lon="0.34969">
        <ele>133.4</ele>
        <time>2022-09-18T07:54:25Z</time>
      </trkpt>
      <trkpt lat="46.54268" lon="0.34969">
        <ele>133.4</ele>
        <time>2022-09-18T07:54:26Z</time>
      </trkpt>
      <trkpt lat="46.54261" lon="0.34966">
        <ele>133</ele>
        <time>2022-09-18T07:54:29Z</time>
      </trkpt>
      <trkpt lat="46.5426" lon="0.34967">
        <ele>133</ele>
        <time>2022-09-18T07:54:30Z</time>
      </trkpt>
      <trkpt lat="46.54256" lon="0.34976">
        <ele>132.6</ele>
        <time>2022-09-18T07:54:33Z</time>
      </trkpt>
      <trkpt lat="46.54252" lon="0.34984">
        <ele>132.4</ele>
        <time>2022-09-18T07:54:35Z</time>
      </trkpt>
      <trkpt lat="46.54248" lon="0.34991">
        <ele>132.4</ele>
        <time>2022-09-18T07:54:37Z</time>
      </trkpt>
      <trkpt lat="46.54245" lon="0.35009">
        <ele>132.4</ele>
        <time>2022-09-18T07:54:42Z</time>
      </trkpt>
      <trkpt lat="46.54243" lon="0.35014">
        <ele>132.4</ele>
        <time>2022-09-18T07:54:44Z</time>
      </trkpt>
      <trkpt lat="46.54243" lon="0.35017">
        <ele>132.4</ele>
        <time>2022-09-18T07:54:45Z</time>
      </trkpt>
      <trkpt lat="46.54246" lon="0.3503">
        <ele>132.8</ele>
        <time>2022-09-18T07:54:49Z</time>
      </trkpt>
      <trkpt lat="46.54249" lon="0.35042">
        <ele>133.8</ele>
        <time>2022-09-18T07:54:52Z</time>
      </trkpt>
      <trkpt lat="46.54251" lon="0.35051">
        <ele>134</ele>
        <time>2022-09-18T07:54:54Z</time>
      </trkpt>
      <trkpt lat="46.54251" lon="0.35054">
        <ele>134.2</ele>
        <time>2022-09-18T07:54:55Z</time>
      </trkpt>
      <trkpt lat="46.54254" lon="0.35058">
        <ele>134.4</ele>
        <time>2022-09-18T07:54:57Z</time>
      </trkpt>
      <trkpt lat="46.54253" lon="0.35063">
        <ele>134.4</ele>
        <time>2022-09-18T07:54:59Z</time>
      </trkpt>
      <trkpt lat="46.5425" lon="0.35082">
        <ele>135.2</ele>
        <time>2022-09-18T07:55:04Z</time>
      </trkpt>
      <trkpt lat="46.5425" lon="0.35086">
        <ele>135.2</ele>
        <time>2022-09-18T07:55:05Z</time>
      </trkpt>
      <trkpt lat="46.54247" lon="0.35106">
        <ele>135.4</ele>
        <time>2022-09-18T07:55:10Z</time>
      </trkpt>
      <trkpt lat="46.54247" lon="0.35111">
        <ele>135.6</ele>
        <time>2022-09-18T07:55:11Z</time>
      </trkpt>
      <trkpt lat="46.54247" lon="0.35121">
        <ele>135.6</ele>
        <time>2022-09-18T07:55:13Z</time>
      </trkpt>
      <trkpt lat="46.54244" lon="0.35129">
        <ele>136</ele>
        <time>2022-09-18T07:55:15Z</time>
      </trkpt>
      <trkpt lat="46.54241" lon="0.35137">
        <ele>136.2</ele>
        <time>2022-09-18T07:55:17Z</time>
      </trkpt>
      <trkpt lat="46.5424" lon="0.35145">
        <ele>136.2</ele>
        <time>2022-09-18T07:55:19Z</time>
      </trkpt>
      <trkpt lat="46.54244" lon="0.35162">
        <ele>136.6</ele>
        <time>2022-09-18T07:55:23Z</time>
      </trkpt>
      <trkpt lat="46.54249" lon="0.35189">
        <ele>137.2</ele>
        <time>2022-09-18T07:55:29Z</time>
      </trkpt>
      <trkpt lat="46.54251" lon="0.35192">
        <ele>137.2</ele>
        <time>2022-09-18T07:55:30Z</time>
      </trkpt>
      <trkpt lat="46.54255" lon="0.35193">
        <ele>137.4</ele>
        <time>2022-09-18T07:55:32Z</time>
      </trkpt>
      <trkpt lat="46.54258" lon="0.35192">
        <ele>137.4</ele>
        <time>2022-09-18T07:55:33Z</time>
      </trkpt>
      <trkpt lat="46.54262" lon="0.35188">
        <ele>137.6</ele>
        <time>2022-09-18T07:55:35Z</time>
      </trkpt>
      <trkpt lat="46.54275" lon="0.35179">
        <ele>138</ele>
        <time>2022-09-18T07:55:40Z</time>
      </trkpt>
      <trkpt lat="46.5428" lon="0.35173">
        <ele>138</ele>
        <time>2022-09-18T07:55:42Z</time>
      </trkpt>
      <trkpt lat="46.54291" lon="0.35159">
        <ele>137.4</ele>
        <time>2022-09-18T07:55:46Z</time>
      </trkpt>
      <trkpt lat="46.54298" lon="0.3515">
        <ele>137.4</ele>
        <time>2022-09-18T07:55:48Z</time>
      </trkpt>
      <trkpt lat="46.54309" lon="0.35136">
        <ele>137.2</ele>
        <time>2022-09-18T07:55:51Z</time>
      </trkpt>
      <trkpt lat="46.54319" lon="0.35119">
        <ele>137</ele>
        <time>2022-09-18T07:55:54Z</time>
      </trkpt>
      <trkpt lat="46.54323" lon="0.35112">
        <ele>137</ele>
        <time>2022-09-18T07:55:56Z</time>
      </trkpt>
      <trkpt lat="46.54328" lon="0.35113">
        <ele>136.8</ele>
        <time>2022-09-18T07:55:58Z</time>
      </trkpt>
      <trkpt lat="46.54331" lon="0.35116">
        <ele>136.6</ele>
        <time>2022-09-18T07:56:00Z</time>
      </trkpt>
      <trkpt lat="46.54335" lon="0.35119">
        <ele>136.4</ele>
        <time>2022-09-18T07:56:02Z</time>
      </trkpt>
      <trkpt lat="46.54341" lon="0.35119">
        <ele>136.4</ele>
        <time>2022-09-18T07:56:04Z</time>
      </trkpt>
      <trkpt lat="46.54351" lon="0.35119">
        <ele>136.6</ele>
        <time>2022-09-18T07:56:07Z</time>
      </trkpt>
      <trkpt lat="46.54357" lon="0.35121">
        <ele>136.6</ele>
        <time>2022-09-18T07:56:09Z</time>
      </trkpt>
      <trkpt lat="46.54366" lon="0.35135">
        <ele>136.8</ele>
        <time>2022-09-18T07:56:13Z</time>
      </trkpt>
      <trkpt lat="46.5437" lon="0.35139">
        <ele>136.8</ele>
        <time>2022-09-18T07:56:14Z</time>
      </trkpt>
      <trkpt lat="46.54381" lon="0.35155">
        <ele>137</ele>
        <time>2022-09-18T07:56:18Z</time>
      </trkpt>
      <trkpt lat="46.54389" lon="0.35163">
        <ele>136.8</ele>
        <time>2022-09-18T07:56:20Z</time>
      </trkpt>
      <trkpt lat="46.54396" lon="0.35171">
        <ele>136.6</ele>
        <time>2022-09-18T07:56:22Z</time>
      </trkpt>
      <trkpt lat="46.54406" lon="0.35183">
        <ele>136.8</ele>
        <time>2022-09-18T07:56:25Z</time>
      </trkpt>
      <trkpt lat="46.54409" lon="0.35185">
        <ele>136.8</ele>
        <time>2022-09-18T07:56:26Z</time>
      </trkpt>
      <trkpt lat="46.54416" lon="0.3519">
        <ele>136.6</ele>
        <time>2022-09-18T07:56:28Z</time>
      </trkpt>
      <trkpt lat="46.5442" lon="0.35196">
        <ele>136</ele>
        <time>2022-09-18T07:56:30Z</time>
      </trkpt>
      <trkpt lat="46.54423" lon="0.352">
        <ele>135.8</ele>
        <time>2022-09-18T07:56:31Z</time>
      </trkpt>
      <trkpt lat="46.5443" lon="0.35206">
        <ele>135.6</ele>
        <time>2022-09-18T07:56:33Z</time>
      </trkpt>
      <trkpt lat="46.54436" lon="0.35212">
        <ele>135.2</ele>
        <time>2022-09-18T07:56:35Z</time>
      </trkpt>
      <trkpt lat="46.54443" lon="0.3522">
        <ele>135.2</ele>
        <time>2022-09-18T07:56:37Z</time>
      </trkpt>
      <trkpt lat="46.54448" lon="0.3523">
        <ele>135</ele>
        <time>2022-09-18T07:56:39Z</time>
      </trkpt>
      <trkpt lat="46.5445" lon="0.35233">
        <ele>135</ele>
        <time>2022-09-18T07:56:40Z</time>
      </trkpt>
      <trkpt lat="46.54454" lon="0.35236">
        <ele>135</ele>
        <time>2022-09-18T07:56:41Z</time>
      </trkpt>
      <trkpt lat="46.54461" lon="0.35247">
        <ele>134.6</ele>
        <time>2022-09-18T07:56:44Z</time>
      </trkpt>
      <trkpt lat="46.54464" lon="0.35249">
        <ele>134.2</ele>
        <time>2022-09-18T07:56:45Z</time>
      </trkpt>
      <trkpt lat="46.54467" lon="0.35249">
        <ele>134</ele>
        <time>2022-09-18T07:56:46Z</time>
      </trkpt>
      <trkpt lat="46.54473" lon="0.35249">
        <ele>133.6</ele>
        <time>2022-09-18T07:56:48Z</time>
      </trkpt>
      <trkpt lat="46.54487" lon="0.35247">
        <ele>133.6</ele>
        <time>2022-09-18T07:56:52Z</time>
      </trkpt>
      <trkpt lat="46.54491" lon="0.35245">
        <ele>133.6</ele>
        <time>2022-09-18T07:56:53Z</time>
      </trkpt>
      <trkpt lat="46.54495" lon="0.35242">
        <ele>133.6</ele>
        <time>2022-09-18T07:56:54Z</time>
      </trkpt>
      <trkpt lat="46.54503" lon="0.35237">
        <ele>133.2</ele>
        <time>2022-09-18T07:56:56Z</time>
      </trkpt>
      <trkpt lat="46.54507" lon="0.35234">
        <ele>133</ele>
        <time>2022-09-18T07:56:58Z</time>
      </trkpt>
      <trkpt lat="46.54515" lon="0.35233">
        <ele>133</ele>
        <time>2022-09-18T07:57:01Z</time>
      </trkpt>
      <trkpt lat="46.54523" lon="0.3523">
        <ele>132.8</ele>
        <time>2022-09-18T07:57:03Z</time>
      </trkpt>
      <trkpt lat="46.54537" lon="0.35225">
        <ele>132.4</ele>
        <time>2022-09-18T07:57:06Z</time>
      </trkpt>
      <trkpt lat="46.54545" lon="0.35223">
        <ele>132.2</ele>
        <time>2022-09-18T07:57:08Z</time>
      </trkpt>
      <trkpt lat="46.54551" lon="0.35221">
        <ele>132.2</ele>
        <time>2022-09-18T07:57:09Z</time>
      </trkpt>
      <trkpt lat="46.54556" lon="0.35219">
        <ele>131.8</ele>
        <time>2022-09-18T07:57:10Z</time>
      </trkpt>
      <trkpt lat="46.5456" lon="0.35216">
        <ele>131.6</ele>
        <time>2022-09-18T07:57:11Z</time>
      </trkpt>
      <trkpt lat="46.54565" lon="0.35216">
        <ele>131.2</ele>
        <time>2022-09-18T07:57:12Z</time>
      </trkpt>
      <trkpt lat="46.54569" lon="0.35217">
        <ele>130.8</ele>
        <time>2022-09-18T07:57:13Z</time>
      </trkpt>
      <trkpt lat="46.54574" lon="0.35221">
        <ele>130.6</ele>
        <time>2022-09-18T07:57:14Z</time>
      </trkpt>
      <trkpt lat="46.54577" lon="0.35224">
        <ele>130.2</ele>
        <time>2022-09-18T07:57:15Z</time>
      </trkpt>
      <trkpt lat="46.54578" lon="0.35235">
        <ele>129.6</ele>
        <time>2022-09-18T07:57:18Z</time>
      </trkpt>
      <trkpt lat="46.54577" lon="0.35244">
        <ele>129.8</ele>
        <time>2022-09-18T07:57:20Z</time>
      </trkpt>
      <trkpt lat="46.54575" lon="0.35267">
        <ele>129.6</ele>
        <time>2022-09-18T07:57:24Z</time>
      </trkpt>
      <trkpt lat="46.54574" lon="0.35271">
        <ele>129.2</ele>
        <time>2022-09-18T07:57:25Z</time>
      </trkpt>
      <trkpt lat="46.54574" lon="0.35283">
        <ele>128.4</ele>
        <time>2022-09-18T07:57:28Z</time>
      </trkpt>
      <trkpt lat="46.54572" lon="0.35287">
        <ele>128.2</ele>
        <time>2022-09-18T07:57:29Z</time>
      </trkpt>
      <trkpt lat="46.5456" lon="0.35301">
        <ele>128.2</ele>
        <time>2022-09-18T07:57:34Z</time>
      </trkpt>
      <trkpt lat="46.54558" lon="0.35305">
        <ele>128.4</ele>
        <time>2022-09-18T07:57:35Z</time>
      </trkpt>
      <trkpt lat="46.54556" lon="0.35318">
        <ele>128.6</ele>
        <time>2022-09-18T07:57:38Z</time>
      </trkpt>
      <trkpt lat="46.54556" lon="0.35325">
        <ele>128.6</ele>
        <time>2022-09-18T07:57:40Z</time>
      </trkpt>
      <trkpt lat="46.54559" lon="0.3533">
        <ele>128.2</ele>
        <time>2022-09-18T07:57:42Z</time>
      </trkpt>
      <trkpt lat="46.54563" lon="0.35333">
        <ele>128</ele>
        <time>2022-09-18T07:57:44Z</time>
      </trkpt>
      <trkpt lat="46.54565" lon="0.35333">
        <ele>127.2</ele>
        <time>2022-09-18T07:57:45Z</time>
      </trkpt>
      <trkpt lat="46.54567" lon="0.35334">
        <ele>127</ele>
        <time>2022-09-18T07:57:46Z</time>
      </trkpt>
      <trkpt lat="46.54569" lon="0.35334">
        <ele>126.2</ele>
        <time>2022-09-18T07:57:47Z</time>
      </trkpt>
      <trkpt lat="46.54574" lon="0.35339">
        <ele>125</ele>
        <time>2022-09-18T07:57:49Z</time>
      </trkpt>
      <trkpt lat="46.54577" lon="0.35343">
        <ele>124</ele>
        <time>2022-09-18T07:57:50Z</time>
      </trkpt>
      <trkpt lat="46.54579" lon="0.35345">
        <ele>122.4</ele>
        <time>2022-09-18T07:57:51Z</time>
      </trkpt>
      <trkpt lat="46.54581" lon="0.35347">
        <ele>121.2</ele>
        <time>2022-09-18T07:57:52Z</time>
      </trkpt>
      <trkpt lat="46.54583" lon="0.35348">
        <ele>119.6</ele>
        <time>2022-09-18T07:57:53Z</time>
      </trkpt>
      <trkpt lat="46.54587" lon="0.35349">
        <ele>118.4</ele>
        <time>2022-09-18T07:57:54Z</time>
      </trkpt>
      <trkpt lat="46.5459" lon="0.35351">
        <ele>117.2</ele>
        <time>2022-09-18T07:57:55Z</time>
      </trkpt>
      <trkpt lat="46.54597" lon="0.35356">
        <ele>116.4</ele>
        <time>2022-09-18T07:57:57Z</time>
      </trkpt>
      <trkpt lat="46.546" lon="0.35359">
        <ele>115.4</ele>
        <time>2022-09-18T07:57:58Z</time>
      </trkpt>
      <trkpt lat="46.54603" lon="0.35363">
        <ele>115</ele>
        <time>2022-09-18T07:57:59Z</time>
      </trkpt>
      <trkpt lat="46.5461" lon="0.35373">
        <ele>114</ele>
        <time>2022-09-18T07:58:01Z</time>
      </trkpt>
      <trkpt lat="46.54614" lon="0.35379">
        <ele>112.8</ele>
        <time>2022-09-18T07:58:02Z</time>
      </trkpt>
      <trkpt lat="46.54625" lon="0.35389">
        <ele>111.8</ele>
        <time>2022-09-18T07:58:04Z</time>
      </trkpt>
      <trkpt lat="46.54629" lon="0.35394">
        <ele>111.6</ele>
        <time>2022-09-18T07:58:05Z</time>
      </trkpt>
      <trkpt lat="46.54636" lon="0.354">
        <ele>110.6</ele>
        <time>2022-09-18T07:58:07Z</time>
      </trkpt>
      <trkpt lat="46.5464" lon="0.35404">
        <ele>110.4</ele>
        <time>2022-09-18T07:58:08Z</time>
      </trkpt>
      <trkpt lat="46.54648" lon="0.35412">
        <ele>109.6</ele>
        <time>2022-09-18T07:58:10Z</time>
      </trkpt>
      <trkpt lat="46.54652" lon="0.35415">
        <ele>109.2</ele>
        <time>2022-09-18T07:58:11Z</time>
      </trkpt>
      <trkpt lat="46.54656" lon="0.35419">
        <ele>108.8</ele>
        <time>2022-09-18T07:58:12Z</time>
      </trkpt>
      <trkpt lat="46.54659" lon="0.35423">
        <ele>108.4</ele>
        <time>2022-09-18T07:58:13Z</time>
      </trkpt>
      <trkpt lat="46.54669" lon="0.35437">
        <ele>107.6</ele>
        <time>2022-09-18T07:58:16Z</time>
      </trkpt>
      <trkpt lat="46.54674" lon="0.35454">
        <ele>107.6</ele>
        <time>2022-09-18T07:58:20Z</time>
      </trkpt>
      <trkpt lat="46.54676" lon="0.35459">
        <ele>107.4</ele>
        <time>2022-09-18T07:58:21Z</time>
      </trkpt>
      <trkpt lat="46.54679" lon="0.35475">
        <ele>107.2</ele>
        <time>2022-09-18T07:58:24Z</time>
      </trkpt>
      <trkpt lat="46.5468" lon="0.35483">
        <ele>107.2</ele>
        <time>2022-09-18T07:58:26Z</time>
      </trkpt>
      <trkpt lat="46.54681" lon="0.35488">
        <ele>107</ele>
        <time>2022-09-18T07:58:27Z</time>
      </trkpt>
      <trkpt lat="46.54676" lon="0.35495">
        <ele>106.6</ele>
        <time>2022-09-18T07:58:31Z</time>
      </trkpt>
      <trkpt lat="46.5467" lon="0.35504">
        <ele>107</ele>
        <time>2022-09-18T07:58:36Z</time>
      </trkpt>
      <trkpt lat="46.54669" lon="0.35505">
        <ele>107</ele>
        <time>2022-09-18T07:58:39Z</time>
      </trkpt>
      <trkpt lat="46.54668" lon="0.35504">
        <ele>107.4</ele>
        <time>2022-09-18T07:58:41Z</time>
      </trkpt>
      <trkpt lat="46.54668" lon="0.35503">
        <ele>107.6</ele>
        <time>2022-09-18T07:58:42Z</time>
      </trkpt>
      <trkpt lat="46.54667" lon="0.35502">
        <ele>107.8</ele>
        <time>2022-09-18T07:58:44Z</time>
      </trkpt>
      <trkpt lat="46.54658" lon="0.35501">
        <ele>108.2</ele>
        <time>2022-09-18T07:58:48Z</time>
      </trkpt>
      <trkpt lat="46.54656" lon="0.355">
        <ele>108.4</ele>
        <time>2022-09-18T07:58:49Z</time>
      </trkpt>
      <trkpt lat="46.54637" lon="0.35498">
        <ele>109.2</ele>
        <time>2022-09-18T07:58:56Z</time>
      </trkpt>
      <trkpt lat="46.54635" lon="0.35498">
        <ele>109.4</ele>
        <time>2022-09-18T07:58:57Z</time>
      </trkpt>
      <trkpt lat="46.54633" lon="0.35497">
        <ele>109.6</ele>
        <time>2022-09-18T07:58:58Z</time>
      </trkpt>
      <trkpt lat="46.54632" lon="0.35495">
        <ele>110.2</ele>
        <time>2022-09-18T07:59:00Z</time>
      </trkpt>
      <trkpt lat="46.54631" lon="0.35494">
        <ele>110.4</ele>
        <time>2022-09-18T07:59:01Z</time>
      </trkpt>
      <trkpt lat="46.54629" lon="0.35487">
        <ele>111.6</ele>
        <time>2022-09-18T07:59:05Z</time>
      </trkpt>
      <trkpt lat="46.54628" lon="0.35485">
        <ele>111.8</ele>
        <time>2022-09-18T07:59:06Z</time>
      </trkpt>
      <trkpt lat="46.54627" lon="0.35483">
        <ele>112</ele>
        <time>2022-09-18T07:59:07Z</time>
      </trkpt>
      <trkpt lat="46.54623" lon="0.3548">
        <ele>112.4</ele>
        <time>2022-09-18T07:59:09Z</time>
      </trkpt>
      <trkpt lat="46.54622" lon="0.35479">
        <ele>112.8</ele>
        <time>2022-09-18T07:59:10Z</time>
      </trkpt>
      <trkpt lat="46.5462" lon="0.35478">
        <ele>113</ele>
        <time>2022-09-18T07:59:11Z</time>
      </trkpt>
      <trkpt lat="46.54615" lon="0.35475">
        <ele>113.8</ele>
        <time>2022-09-18T07:59:14Z</time>
      </trkpt>
      <trkpt lat="46.5461" lon="0.35472">
        <ele>115</ele>
        <time>2022-09-18T07:59:19Z</time>
      </trkpt>
      <trkpt lat="46.54602" lon="0.35469">
        <ele>116</ele>
        <time>2022-09-18T07:59:24Z</time>
      </trkpt>
      <trkpt lat="46.54599" lon="0.35468">
        <ele>116.6</ele>
        <time>2022-09-18T07:59:26Z</time>
      </trkpt>
      <trkpt lat="46.54597" lon="0.35466">
        <ele>117.4</ele>
        <time>2022-09-18T07:59:28Z</time>
      </trkpt>
      <trkpt lat="46.54593" lon="0.35465">
        <ele>118.4</ele>
        <time>2022-09-18T07:59:31Z</time>
      </trkpt>
      <trkpt lat="46.54589" lon="0.35462">
        <ele>119.6</ele>
        <time>2022-09-18T07:59:34Z</time>
      </trkpt>
      <trkpt lat="46.54587" lon="0.35461">
        <ele>119.8</ele>
        <time>2022-09-18T07:59:35Z</time>
      </trkpt>
      <trkpt lat="46.54583" lon="0.35457">
        <ele>120.6</ele>
        <time>2022-09-18T07:59:38Z</time>
      </trkpt>
      <trkpt lat="46.54575" lon="0.35452">
        <ele>121.6</ele>
        <time>2022-09-18T07:59:44Z</time>
      </trkpt>
      <trkpt lat="46.54567" lon="0.3545">
        <ele>122.8</ele>
        <time>2022-09-18T07:59:50Z</time>
      </trkpt>
      <trkpt lat="46.54562" lon="0.35449">
        <ele>123.2</ele>
        <time>2022-09-18T07:59:55Z</time>
      </trkpt>
      <trkpt lat="46.54553" lon="0.35444">
        <ele>123.8</ele>
        <time>2022-09-18T08:00:01Z</time>
      </trkpt>
      <trkpt lat="46.54548" lon="0.3544">
        <ele>125</ele>
        <time>2022-09-18T08:00:05Z</time>
      </trkpt>
      <trkpt lat="46.54543" lon="0.3544">
        <ele>126</ele>
        <time>2022-09-18T08:00:09Z</time>
      </trkpt>
      <trkpt lat="46.54541" lon="0.3544">
        <ele>126.2</ele>
        <time>2022-09-18T08:00:10Z</time>
      </trkpt>
      <trkpt lat="46.54536" lon="0.35442">
        <ele>126.2</ele>
        <time>2022-09-18T08:00:13Z</time>
      </trkpt>
      <trkpt lat="46.54531" lon="0.35455">
        <ele>127</ele>
        <time>2022-09-18T08:00:21Z</time>
      </trkpt>
      <trkpt lat="46.54532" lon="0.35457">
        <ele>127.2</ele>
        <time>2022-09-18T08:00:22Z</time>
      </trkpt>
      <trkpt lat="46.54535" lon="0.35474">
        <ele>127.6</ele>
        <time>2022-09-18T08:00:28Z</time>
      </trkpt>
      <trkpt lat="46.54539" lon="0.35499">
        <ele>127.2</ele>
        <time>2022-09-18T08:00:34Z</time>
      </trkpt>
      <trkpt lat="46.54544" lon="0.35515">
        <ele>127</ele>
        <time>2022-09-18T08:00:37Z</time>
      </trkpt>
      <trkpt lat="46.54547" lon="0.35526">
        <ele>126.8</ele>
        <time>2022-09-18T08:00:39Z</time>
      </trkpt>
      <trkpt lat="46.54556" lon="0.35553">
        <ele>126.2</ele>
        <time>2022-09-18T08:00:44Z</time>
      </trkpt>
      <trkpt lat="46.54561" lon="0.35564">
        <ele>125</ele>
        <time>2022-09-18T08:00:46Z</time>
      </trkpt>
      <trkpt lat="46.54563" lon="0.3557">
        <ele>124.8</ele>
        <time>2022-09-18T08:00:47Z</time>
      </trkpt>
      <trkpt lat="46.54565" lon="0.35574">
        <ele>124.6</ele>
        <time>2022-09-18T08:00:48Z</time>
      </trkpt>
      <trkpt lat="46.54571" lon="0.35592">
        <ele>124.6</ele>
        <time>2022-09-18T08:00:51Z</time>
      </trkpt>
      <trkpt lat="46.54575" lon="0.35604">
        <ele>124.4</ele>
        <time>2022-09-18T08:00:53Z</time>
      </trkpt>
      <trkpt lat="46.54581" lon="0.35616">
        <ele>124</ele>
        <time>2022-09-18T08:00:55Z</time>
      </trkpt>
      <trkpt lat="46.54588" lon="0.35625">
        <ele>123.8</ele>
        <time>2022-09-18T08:00:57Z</time>
      </trkpt>
      <trkpt lat="46.54598" lon="0.35639">
        <ele>123.8</ele>
        <time>2022-09-18T08:01:00Z</time>
      </trkpt>
      <trkpt lat="46.54605" lon="0.35651">
        <ele>123.8</ele>
        <time>2022-09-18T08:01:02Z</time>
      </trkpt>
      <trkpt lat="46.54609" lon="0.35655">
        <ele>123.6</ele>
        <time>2022-09-18T08:01:03Z</time>
      </trkpt>
      <trkpt lat="46.54612" lon="0.35659">
        <ele>123.6</ele>
        <time>2022-09-18T08:01:04Z</time>
      </trkpt>
      <trkpt lat="46.54623" lon="0.35672">
        <ele>123.6</ele>
        <time>2022-09-18T08:01:07Z</time>
      </trkpt>
      <trkpt lat="46.54626" lon="0.35677">
        <ele>123.4</ele>
        <time>2022-09-18T08:01:08Z</time>
      </trkpt>
      <trkpt lat="46.54641" lon="0.35698">
        <ele>123.2</ele>
        <time>2022-09-18T08:01:12Z</time>
      </trkpt>
      <trkpt lat="46.54659" lon="0.35724">
        <ele>122.6</ele>
        <time>2022-09-18T08:01:17Z</time>
      </trkpt>
      <trkpt lat="46.54673" lon="0.35746">
        <ele>121.6</ele>
        <time>2022-09-18T08:01:21Z</time>
      </trkpt>
      <trkpt lat="46.54676" lon="0.35752">
        <ele>121.4</ele>
        <time>2022-09-18T08:01:22Z</time>
      </trkpt>
      <trkpt lat="46.54686" lon="0.35766">
        <ele>121</ele>
        <time>2022-09-18T08:01:25Z</time>
      </trkpt>
      <trkpt lat="46.5469" lon="0.35774">
        <ele>121</ele>
        <time>2022-09-18T08:01:27Z</time>
      </trkpt>
      <trkpt lat="46.54696" lon="0.35791">
        <ele>122.4</ele>
        <time>2022-09-18T08:01:33Z</time>
      </trkpt>
      <trkpt lat="46.54697" lon="0.35794">
        <ele>122.8</ele>
        <time>2022-09-18T08:01:34Z</time>
      </trkpt>
      <trkpt lat="46.54703" lon="0.3582">
        <ele>122.4</ele>
        <time>2022-09-18T08:01:40Z</time>
      </trkpt>
      <trkpt lat="46.54707" lon="0.35836">
        <ele>121.4</ele>
        <time>2022-09-18T08:01:43Z</time>
      </trkpt>
      <trkpt lat="46.54713" lon="0.35851">
        <ele>120.2</ele>
        <time>2022-09-18T08:01:46Z</time>
      </trkpt>
      <trkpt lat="46.54715" lon="0.35856">
        <ele>119.6</ele>
        <time>2022-09-18T08:01:47Z</time>
      </trkpt>
      <trkpt lat="46.54717" lon="0.35861">
        <ele>119.2</ele>
        <time>2022-09-18T08:01:48Z</time>
      </trkpt>
      <trkpt lat="46.54721" lon="0.35872">
        <ele>117.4</ele>
        <time>2022-09-18T08:01:50Z</time>
      </trkpt>
      <trkpt lat="46.54725" lon="0.35884">
        <ele>116.4</ele>
        <time>2022-09-18T08:01:52Z</time>
      </trkpt>
      <trkpt lat="46.54727" lon="0.35891">
        <ele>116</ele>
        <time>2022-09-18T08:01:53Z</time>
      </trkpt>
      <trkpt lat="46.5473" lon="0.35897">
        <ele>115.8</ele>
        <time>2022-09-18T08:01:54Z</time>
      </trkpt>
      <trkpt lat="46.54736" lon="0.35911">
        <ele>115.8</ele>
        <time>2022-09-18T08:01:56Z</time>
      </trkpt>
      <trkpt lat="46.54742" lon="0.35925">
        <ele>115.6</ele>
        <time>2022-09-18T08:01:58Z</time>
      </trkpt>
      <trkpt lat="46.54748" lon="0.35939">
        <ele>115</ele>
        <time>2022-09-18T08:02:00Z</time>
      </trkpt>
      <trkpt lat="46.54764" lon="0.35978">
        <ele>115</ele>
        <time>2022-09-18T08:02:06Z</time>
      </trkpt>
      <trkpt lat="46.54773" lon="0.35998">
        <ele>115.2</ele>
        <time>2022-09-18T08:02:10Z</time>
      </trkpt>
      <trkpt lat="46.54774" lon="0.36002">
        <ele>115.2</ele>
        <time>2022-09-18T08:02:11Z</time>
      </trkpt>
      <trkpt lat="46.54785" lon="0.36029">
        <ele>115.8</ele>
        <time>2022-09-18T08:02:17Z</time>
      </trkpt>
      <trkpt lat="46.54788" lon="0.36034">
        <ele>116</ele>
        <time>2022-09-18T08:02:18Z</time>
      </trkpt>
      <trkpt lat="46.548" lon="0.36055">
        <ele>116.2</ele>
        <time>2022-09-18T08:02:22Z</time>
      </trkpt>
      <trkpt lat="46.54803" lon="0.36059">
        <ele>116.2</ele>
        <time>2022-09-18T08:02:23Z</time>
      </trkpt>
      <trkpt lat="46.54818" lon="0.36078">
        <ele>116.6</ele>
        <time>2022-09-18T08:02:28Z</time>
      </trkpt>
      <trkpt lat="46.54838" lon="0.36105">
        <ele>116</ele>
        <time>2022-09-18T08:02:34Z</time>
      </trkpt>
      <trkpt lat="46.54864" lon="0.36134">
        <ele>114.4</ele>
        <time>2022-09-18T08:02:39Z</time>
      </trkpt>
      <trkpt lat="46.5488" lon="0.36151">
        <ele>113.2</ele>
        <time>2022-09-18T08:02:42Z</time>
      </trkpt>
      <trkpt lat="46.54887" lon="0.3616">
        <ele>112.6</ele>
        <time>2022-09-18T08:02:44Z</time>
      </trkpt>
      <trkpt lat="46.54891" lon="0.36165">
        <ele>111.8</ele>
        <time>2022-09-18T08:02:45Z</time>
      </trkpt>
      <trkpt lat="46.54905" lon="0.36183">
        <ele>110.2</ele>
        <time>2022-09-18T08:02:48Z</time>
      </trkpt>
      <trkpt lat="46.54912" lon="0.36191">
        <ele>110</ele>
        <time>2022-09-18T08:02:49Z</time>
      </trkpt>
      <trkpt lat="46.54925" lon="0.36203">
        <ele>109.6</ele>
        <time>2022-09-18T08:02:51Z</time>
      </trkpt>
      <trkpt lat="46.54931" lon="0.36208">
        <ele>109</ele>
        <time>2022-09-18T08:02:52Z</time>
      </trkpt>
      <trkpt lat="46.54937" lon="0.36213">
        <ele>108.4</ele>
        <time>2022-09-18T08:02:53Z</time>
      </trkpt>
      <trkpt lat="46.54942" lon="0.36217">
        <ele>107.8</ele>
        <time>2022-09-18T08:02:54Z</time>
      </trkpt>
      <trkpt lat="46.54947" lon="0.36221">
        <ele>107.4</ele>
        <time>2022-09-18T08:02:55Z</time>
      </trkpt>
      <trkpt lat="46.54956" lon="0.36232">
        <ele>107</ele>
        <time>2022-09-18T08:02:57Z</time>
      </trkpt>
      <trkpt lat="46.54962" lon="0.36238">
        <ele>106.8</ele>
        <time>2022-09-18T08:02:58Z</time>
      </trkpt>
      <trkpt lat="46.54967" lon="0.36245">
        <ele>106.6</ele>
        <time>2022-09-18T08:02:59Z</time>
      </trkpt>
      <trkpt lat="46.54973" lon="0.36254">
        <ele>105.6</ele>
        <time>2022-09-18T08:03:01Z</time>
      </trkpt>
      <trkpt lat="46.54981" lon="0.36265">
        <ele>104.2</ele>
        <time>2022-09-18T08:03:03Z</time>
      </trkpt>
      <trkpt lat="46.54993" lon="0.36277">
        <ele>103</ele>
        <time>2022-09-18T08:03:05Z</time>
      </trkpt>
      <trkpt lat="46.54998" lon="0.36282">
        <ele>102.4</ele>
        <time>2022-09-18T08:03:06Z</time>
      </trkpt>
      <trkpt lat="46.55003" lon="0.36286">
        <ele>101.4</ele>
        <time>2022-09-18T08:03:07Z</time>
      </trkpt>
      <trkpt lat="46.55009" lon="0.36289">
        <ele>100.4</ele>
        <time>2022-09-18T08:03:08Z</time>
      </trkpt>
      <trkpt lat="46.55023" lon="0.36294">
        <ele>99.2</ele>
        <time>2022-09-18T08:03:10Z</time>
      </trkpt>
      <trkpt lat="46.55037" lon="0.36302">
        <ele>98.4</ele>
        <time>2022-09-18T08:03:14Z</time>
      </trkpt>
      <trkpt lat="46.5504" lon="0.36304">
        <ele>98.2</ele>
        <time>2022-09-18T08:03:15Z</time>
      </trkpt>
      <trkpt lat="46.55058" lon="0.36309">
        <ele>98.4</ele>
        <time>2022-09-18T08:03:21Z</time>
      </trkpt>
      <trkpt lat="46.55075" lon="0.36318">
        <ele>98.2</ele>
        <time>2022-09-18T08:03:27Z</time>
      </trkpt>
      <trkpt lat="46.55078" lon="0.36319">
        <ele>98.2</ele>
        <time>2022-09-18T08:03:28Z</time>
      </trkpt>
      <trkpt lat="46.55088" lon="0.36317">
        <ele>98.2</ele>
        <time>2022-09-18T08:03:31Z</time>
      </trkpt>
      <trkpt lat="46.551" lon="0.36314">
        <ele>98.2</ele>
        <time>2022-09-18T08:03:35Z</time>
      </trkpt>
      <trkpt lat="46.55112" lon="0.36313">
        <ele>97.8</ele>
        <time>2022-09-18T08:03:39Z</time>
      </trkpt>
      <trkpt lat="46.55117" lon="0.3631">
        <ele>97.6</ele>
        <time>2022-09-18T08:03:41Z</time>
      </trkpt>
      <trkpt lat="46.55122" lon="0.36305">
        <ele>97.6</ele>
        <time>2022-09-18T08:03:43Z</time>
      </trkpt>
      <trkpt lat="46.55126" lon="0.36299">
        <ele>97.4</ele>
        <time>2022-09-18T08:03:46Z</time>
      </trkpt>
      <trkpt lat="46.55128" lon="0.36287">
        <ele>97.8</ele>
        <time>2022-09-18T08:03:51Z</time>
      </trkpt>
      <trkpt lat="46.55127" lon="0.36284">
        <ele>97.8</ele>
        <time>2022-09-18T08:03:52Z</time>
      </trkpt>
      <trkpt lat="46.5512" lon="0.36271">
        <ele>97.6</ele>
        <time>2022-09-18T08:03:57Z</time>
      </trkpt>
      <trkpt lat="46.55111" lon="0.36265">
        <ele>97.4</ele>
        <time>2022-09-18T08:04:02Z</time>
      </trkpt>
      <trkpt lat="46.55111" lon="0.36263">
        <ele>97.4</ele>
        <time>2022-09-18T08:04:03Z</time>
      </trkpt>
      <trkpt lat="46.55108" lon="0.36255">
        <ele>97.6</ele>
        <time>2022-09-18T08:04:06Z</time>
      </trkpt>
      <trkpt lat="46.55095" lon="0.36245">
        <ele>97.8</ele>
        <time>2022-09-18T08:04:12Z</time>
      </trkpt>
      <trkpt lat="46.5508" lon="0.36237">
        <ele>97.6</ele>
        <time>2022-09-18T08:04:17Z</time>
      </trkpt>
      <trkpt lat="46.55064" lon="0.36231">
        <ele>97.4</ele>
        <time>2022-09-18T08:04:23Z</time>
      </trkpt>
      <trkpt lat="46.55043" lon="0.36224">
        <ele>97.8</ele>
        <time>2022-09-18T08:04:30Z</time>
      </trkpt>
      <trkpt lat="46.55021" lon="0.36213">
        <ele>98.2</ele>
        <time>2022-09-18T08:04:36Z</time>
      </trkpt>
      <trkpt lat="46.55009" lon="0.36207">
        <ele>98.4</ele>
        <time>2022-09-18T08:04:39Z</time>
      </trkpt>
      <trkpt lat="46.55002" lon="0.36203">
        <ele>98.6</ele>
        <time>2022-09-18T08:04:41Z</time>
      </trkpt>
      <trkpt lat="46.54999" lon="0.362">
        <ele>98.6</ele>
        <time>2022-09-18T08:04:42Z</time>
      </trkpt>
      <trkpt lat="46.54996" lon="0.36197">
        <ele>98.8</ele>
        <time>2022-09-18T08:04:43Z</time>
      </trkpt>
      <trkpt lat="46.5499" lon="0.36191">
        <ele>98.8</ele>
        <time>2022-09-18T08:04:45Z</time>
      </trkpt>
      <trkpt lat="46.54984" lon="0.36183">
        <ele>98.6</ele>
        <time>2022-09-18T08:04:47Z</time>
      </trkpt>
      <trkpt lat="46.54965" lon="0.36151">
        <ele>98.8</ele>
        <time>2022-09-18T08:04:54Z</time>
      </trkpt>
      <trkpt lat="46.54952" lon="0.36128">
        <ele>98.4</ele>
        <time>2022-09-18T08:05:00Z</time>
      </trkpt>
      <trkpt lat="46.5495" lon="0.36124">
        <ele>98.2</ele>
        <time>2022-09-18T08:05:01Z</time>
      </trkpt>
      <trkpt lat="46.54949" lon="0.36121">
        <ele>98</ele>
        <time>2022-09-18T08:05:02Z</time>
      </trkpt>
      <trkpt lat="46.54945" lon="0.36114">
        <ele>98</ele>
        <time>2022-09-18T08:05:04Z</time>
      </trkpt>
      <trkpt lat="46.54937" lon="0.36101">
        <ele>97.8</ele>
        <time>2022-09-18T08:05:07Z</time>
      </trkpt>
      <trkpt lat="46.54932" lon="0.36093">
        <ele>97.6</ele>
        <time>2022-09-18T08:05:09Z</time>
      </trkpt>
      <trkpt lat="46.54922" lon="0.3608">
        <ele>97.6</ele>
        <time>2022-09-18T08:05:12Z</time>
      </trkpt>
      <trkpt lat="46.5492" lon="0.36076">
        <ele>97.6</ele>
        <time>2022-09-18T08:05:13Z</time>
      </trkpt>
      <trkpt lat="46.54913" lon="0.36068">
        <ele>97.6</ele>
        <time>2022-09-18T08:05:15Z</time>
      </trkpt>
      <trkpt lat="46.54909" lon="0.36063">
        <ele>97.8</ele>
        <time>2022-09-18T08:05:16Z</time>
      </trkpt>
      <trkpt lat="46.54897" lon="0.36049">
        <ele>97.8</ele>
        <time>2022-09-18T08:05:19Z</time>
      </trkpt>
      <trkpt lat="46.54874" lon="0.36026">
        <ele>98.2</ele>
        <time>2022-09-18T08:05:25Z</time>
      </trkpt>
      <trkpt lat="46.54853" lon="0.36">
        <ele>97.8</ele>
        <time>2022-09-18T08:05:31Z</time>
      </trkpt>
      <trkpt lat="46.54838" lon="0.35982">
        <ele>97.8</ele>
        <time>2022-09-18T08:05:35Z</time>
      </trkpt>
      <trkpt lat="46.54834" lon="0.35978">
        <ele>97.8</ele>
        <time>2022-09-18T08:05:36Z</time>
      </trkpt>
      <trkpt lat="46.54826" lon="0.35968">
        <ele>97.8</ele>
        <time>2022-09-18T08:05:38Z</time>
      </trkpt>
      <trkpt lat="46.54819" lon="0.35958">
        <ele>97.6</ele>
        <time>2022-09-18T08:05:40Z</time>
      </trkpt>
      <trkpt lat="46.54816" lon="0.35953">
        <ele>97.6</ele>
        <time>2022-09-18T08:05:41Z</time>
      </trkpt>
      <trkpt lat="46.54813" lon="0.35948">
        <ele>97.8</ele>
        <time>2022-09-18T08:05:42Z</time>
      </trkpt>
      <trkpt lat="46.54808" lon="0.35935">
        <ele>97.8</ele>
        <time>2022-09-18T08:05:45Z</time>
      </trkpt>
      <trkpt lat="46.54807" lon="0.35931">
        <ele>97.8</ele>
        <time>2022-09-18T08:05:46Z</time>
      </trkpt>
      <trkpt lat="46.54805" lon="0.35921">
        <ele>97.8</ele>
        <time>2022-09-18T08:05:48Z</time>
      </trkpt>
      <trkpt lat="46.54802" lon="0.35913">
        <ele>97.6</ele>
        <time>2022-09-18T08:05:50Z</time>
      </trkpt>
      <trkpt lat="46.548" lon="0.35903">
        <ele>97.6</ele>
        <time>2022-09-18T08:05:52Z</time>
      </trkpt>
      <trkpt lat="46.54787" lon="0.35851">
        <ele>98</ele>
        <time>2022-09-18T08:05:59Z</time>
      </trkpt>
      <trkpt lat="46.54784" lon="0.35804">
        <ele>97.8</ele>
        <time>2022-09-18T08:06:05Z</time>
      </trkpt>
      <trkpt lat="46.54785" lon="0.35796">
        <ele>97.6</ele>
        <time>2022-09-18T08:06:06Z</time>
      </trkpt>
      <trkpt lat="46.54784" lon="0.35782">
        <ele>97.8</ele>
        <time>2022-09-18T08:06:08Z</time>
      </trkpt>
      <trkpt lat="46.54779" lon="0.35752">
        <ele>98.4</ele>
        <time>2022-09-18T08:06:12Z</time>
      </trkpt>
      <trkpt lat="46.54778" lon="0.35745">
        <ele>98.6</ele>
        <time>2022-09-18T08:06:13Z</time>
      </trkpt>
      <trkpt lat="46.54776" lon="0.3573">
        <ele>98.6</ele>
        <time>2022-09-18T08:06:15Z</time>
      </trkpt>
      <trkpt lat="46.54773" lon="0.35704">
        <ele>98.4</ele>
        <time>2022-09-18T08:06:18Z</time>
      </trkpt>
      <trkpt lat="46.54768" lon="0.35649">
        <ele>98.2</ele>
        <time>2022-09-18T08:06:25Z</time>
      </trkpt>
      <trkpt lat="46.54765" lon="0.35638">
        <ele>98.2</ele>
        <time>2022-09-18T08:06:26Z</time>
      </trkpt>
      <trkpt lat="46.5476" lon="0.35613">
        <ele>98.6</ele>
        <time>2022-09-18T08:06:29Z</time>
      </trkpt>
      <trkpt lat="46.54761" lon="0.35605">
        <ele>98.4</ele>
        <time>2022-09-18T08:06:30Z</time>
      </trkpt>
      <trkpt lat="46.54761" lon="0.35583">
        <ele>97.8</ele>
        <time>2022-09-18T08:06:33Z</time>
      </trkpt>
      <trkpt lat="46.54761" lon="0.35559">
        <ele>97.2</ele>
        <time>2022-09-18T08:06:36Z</time>
      </trkpt>
      <trkpt lat="46.5476" lon="0.3555">
        <ele>96.8</ele>
        <time>2022-09-18T08:06:37Z</time>
      </trkpt>
      <trkpt lat="46.54759" lon="0.35539">
        <ele>96.6</ele>
        <time>2022-09-18T08:06:38Z</time>
      </trkpt>
      <trkpt lat="46.5476" lon="0.35524">
        <ele>96.6</ele>
        <time>2022-09-18T08:06:40Z</time>
      </trkpt>
      <trkpt lat="46.54765" lon="0.35487">
        <ele>96.6</ele>
        <time>2022-09-18T08:06:45Z</time>
      </trkpt>
      <trkpt lat="46.54765" lon="0.35479">
        <ele>96.6</ele>
        <time>2022-09-18T08:06:46Z</time>
      </trkpt>
      <trkpt lat="46.5477" lon="0.35443">
        <ele>96.4</ele>
        <time>2022-09-18T08:06:52Z</time>
      </trkpt>
      <trkpt lat="46.54771" lon="0.35432">
        <ele>96.2</ele>
        <time>2022-09-18T08:06:54Z</time>
      </trkpt>
      <trkpt lat="46.54771" lon="0.35405">
        <ele>96.6</ele>
        <time>2022-09-18T08:06:58Z</time>
      </trkpt>
      <trkpt lat="46.54773" lon="0.35379">
        <ele>96.6</ele>
        <time>2022-09-18T08:07:02Z</time>
      </trkpt>
      <trkpt lat="46.54776" lon="0.35367">
        <ele>96.6</ele>
        <time>2022-09-18T08:07:04Z</time>
      </trkpt>
      <trkpt lat="46.54777" lon="0.35339">
        <ele>96.6</ele>
        <time>2022-09-18T08:07:10Z</time>
      </trkpt>
      <trkpt lat="46.54788" lon="0.35311">
        <ele>96.6</ele>
        <time>2022-09-18T08:07:16Z</time>
      </trkpt>
      <trkpt lat="46.54792" lon="0.35297">
        <ele>96.6</ele>
        <time>2022-09-18T08:07:19Z</time>
      </trkpt>
      <trkpt lat="46.54795" lon="0.3529">
        <ele>96.6</ele>
        <time>2022-09-18T08:07:21Z</time>
      </trkpt>
      <trkpt lat="46.5481" lon="0.35264">
        <ele>96.8</ele>
        <time>2022-09-18T08:07:27Z</time>
      </trkpt>
      <trkpt lat="46.54818" lon="0.35247">
        <ele>96.8</ele>
        <time>2022-09-18T08:07:31Z</time>
      </trkpt>
      <trkpt lat="46.54824" lon="0.35238">
        <ele>96.4</ele>
        <time>2022-09-18T08:07:33Z</time>
      </trkpt>
      <trkpt lat="46.54841" lon="0.35215">
        <ele>96.2</ele>
        <time>2022-09-18T08:07:38Z</time>
      </trkpt>
      <trkpt lat="46.54844" lon="0.35211">
        <ele>96.2</ele>
        <time>2022-09-18T08:07:39Z</time>
      </trkpt>
      <trkpt lat="46.54849" lon="0.35205">
        <ele>96.2</ele>
        <time>2022-09-18T08:07:40Z</time>
      </trkpt>
      <trkpt lat="46.54863" lon="0.35195">
        <ele>96</ele>
        <time>2022-09-18T08:07:43Z</time>
      </trkpt>
      <trkpt lat="46.54871" lon="0.35189">
        <ele>96</ele>
        <time>2022-09-18T08:07:45Z</time>
      </trkpt>
      <trkpt lat="46.54879" lon="0.35184">
        <ele>96</ele>
        <time>2022-09-18T08:07:47Z</time>
      </trkpt>
      <trkpt lat="46.54887" lon="0.35178">
        <ele>95.8</ele>
        <time>2022-09-18T08:07:49Z</time>
      </trkpt>
      <trkpt lat="46.54897" lon="0.35174">
        <ele>95.6</ele>
        <time>2022-09-18T08:07:51Z</time>
      </trkpt>
      <trkpt lat="46.54911" lon="0.35167">
        <ele>95.4</ele>
        <time>2022-09-18T08:07:54Z</time>
      </trkpt>
      <trkpt lat="46.54927" lon="0.35162">
        <ele>95.6</ele>
        <time>2022-09-18T08:07:58Z</time>
      </trkpt>
      <trkpt lat="46.54929" lon="0.35158">
        <ele>96</ele>
        <time>2022-09-18T08:07:59Z</time>
      </trkpt>
      <trkpt lat="46.54934" lon="0.35153">
        <ele>96.4</ele>
        <time>2022-09-18T08:08:01Z</time>
      </trkpt>
      <trkpt lat="46.5494" lon="0.3515">
        <ele>96.6</ele>
        <time>2022-09-18T08:08:03Z</time>
      </trkpt>
      <trkpt lat="46.5495" lon="0.35142">
        <ele>97</ele>
        <time>2022-09-18T08:08:07Z</time>
      </trkpt>
      <trkpt lat="46.54952" lon="0.3514">
        <ele>97.2</ele>
        <time>2022-09-18T08:08:08Z</time>
      </trkpt>
      <trkpt lat="46.54972" lon="0.35134">
        <ele>97.8</ele>
        <time>2022-09-18T08:08:16Z</time>
      </trkpt>
      <trkpt lat="46.54992" lon="0.35133">
        <ele>97.8</ele>
        <time>2022-09-18T08:08:21Z</time>
      </trkpt>
      <trkpt lat="46.55" lon="0.35133">
        <ele>98</ele>
        <time>2022-09-18T08:08:23Z</time>
      </trkpt>
      <trkpt lat="46.55006" lon="0.35133">
        <ele>98</ele>
        <time>2022-09-18T08:08:25Z</time>
      </trkpt>
      <trkpt lat="46.55012" lon="0.35134">
        <ele>98</ele>
        <time>2022-09-18T08:08:27Z</time>
      </trkpt>
      <trkpt lat="46.55019" lon="0.35134">
        <ele>98</ele>
        <time>2022-09-18T08:08:29Z</time>
      </trkpt>
      <trkpt lat="46.55034" lon="0.35138">
        <ele>98</ele>
        <time>2022-09-18T08:08:33Z</time>
      </trkpt>
      <trkpt lat="46.55051" lon="0.35147">
        <ele>98</ele>
        <time>2022-09-18T08:08:37Z</time>
      </trkpt>
      <trkpt lat="46.55059" lon="0.35149">
        <ele>98.2</ele>
        <time>2022-09-18T08:08:39Z</time>
      </trkpt>
      <trkpt lat="46.55085" lon="0.3516">
        <ele>98.4</ele>
        <time>2022-09-18T08:08:45Z</time>
      </trkpt>
      <trkpt lat="46.55095" lon="0.35165">
        <ele>98.6</ele>
        <time>2022-09-18T08:08:48Z</time>
      </trkpt>
      <trkpt lat="46.55101" lon="0.35169">
        <ele>98.4</ele>
        <time>2022-09-18T08:08:50Z</time>
      </trkpt>
      <trkpt lat="46.55105" lon="0.35172">
        <ele>98.4</ele>
        <time>2022-09-18T08:08:51Z</time>
      </trkpt>
      <trkpt lat="46.55122" lon="0.35185">
        <ele>98.4</ele>
        <time>2022-09-18T08:08:55Z</time>
      </trkpt>
      <trkpt lat="46.55128" lon="0.35191">
        <ele>98.4</ele>
        <time>2022-09-18T08:08:57Z</time>
      </trkpt>
      <trkpt lat="46.55149" lon="0.35207">
        <ele>98.6</ele>
        <time>2022-09-18T08:09:02Z</time>
      </trkpt>
      <trkpt lat="46.55156" lon="0.35215">
        <ele>98.6</ele>
        <time>2022-09-18T08:09:04Z</time>
      </trkpt>
      <trkpt lat="46.55165" lon="0.35223">
        <ele>98.6</ele>
        <time>2022-09-18T08:09:06Z</time>
      </trkpt>
      <trkpt lat="46.55175" lon="0.3523">
        <ele>98.4</ele>
        <time>2022-09-18T08:09:08Z</time>
      </trkpt>
      <trkpt lat="46.55178" lon="0.35233">
        <ele>98.4</ele>
        <time>2022-09-18T08:09:09Z</time>
      </trkpt>
      <trkpt lat="46.552" lon="0.35246">
        <ele>98.4</ele>
        <time>2022-09-18T08:09:15Z</time>
      </trkpt>
      <trkpt lat="46.55221" lon="0.35259">
        <ele>98</ele>
        <time>2022-09-18T08:09:21Z</time>
      </trkpt>
      <trkpt lat="46.55235" lon="0.35269">
        <ele>97.4</ele>
        <time>2022-09-18T08:09:26Z</time>
      </trkpt>
      <trkpt lat="46.55238" lon="0.35269">
        <ele>97.4</ele>
        <time>2022-09-18T08:09:27Z</time>
      </trkpt>
      <trkpt lat="46.55246" lon="0.35266">
        <ele>97.6</ele>
        <time>2022-09-18T08:09:30Z</time>
      </trkpt>
      <trkpt lat="46.55264" lon="0.35264">
        <ele>98.8</ele>
        <time>2022-09-18T08:09:36Z</time>
      </trkpt>
      <trkpt lat="46.55286" lon="0.35257">
        <ele>98.6</ele>
        <time>2022-09-18T08:09:41Z</time>
      </trkpt>
      <trkpt lat="46.55318" lon="0.35241">
        <ele>97.8</ele>
        <time>2022-09-18T08:09:47Z</time>
      </trkpt>
      <trkpt lat="46.55327" lon="0.35229">
        <ele>97</ele>
        <time>2022-09-18T08:09:50Z</time>
      </trkpt>
      <trkpt lat="46.55327" lon="0.35224">
        <ele>96.8</ele>
        <time>2022-09-18T08:09:51Z</time>
      </trkpt>
      <trkpt lat="46.55327" lon="0.3522">
        <ele>96.6</ele>
        <time>2022-09-18T08:09:52Z</time>
      </trkpt>
      <trkpt lat="46.55328" lon="0.3521">
        <ele>95.8</ele>
        <time>2022-09-18T08:09:54Z</time>
      </trkpt>
      <trkpt lat="46.55328" lon="0.35206">
        <ele>95.4</ele>
        <time>2022-09-18T08:09:55Z</time>
      </trkpt>
      <trkpt lat="46.55327" lon="0.35201">
        <ele>95</ele>
        <time>2022-09-18T08:09:56Z</time>
      </trkpt>
      <trkpt lat="46.55327" lon="0.35192">
        <ele>94.4</ele>
        <time>2022-09-18T08:09:58Z</time>
      </trkpt>
      <trkpt lat="46.5532" lon="0.35168">
        <ele>94.4</ele>
        <time>2022-09-18T08:10:02Z</time>
      </trkpt>
      <trkpt lat="46.5531" lon="0.35135">
        <ele>94.2</ele>
        <time>2022-09-18T08:10:08Z</time>
      </trkpt>
      <trkpt lat="46.55302" lon="0.35112">
        <ele>94.8</ele>
        <time>2022-09-18T08:10:12Z</time>
      </trkpt>
      <trkpt lat="46.55298" lon="0.35098">
        <ele>95</ele>
        <time>2022-09-18T08:10:14Z</time>
      </trkpt>
      <trkpt lat="46.55276" lon="0.3504">
        <ele>95.2</ele>
        <time>2022-09-18T08:10:22Z</time>
      </trkpt>
      <trkpt lat="46.55266" lon="0.35004">
        <ele>95.2</ele>
        <time>2022-09-18T08:10:27Z</time>
      </trkpt>
      <trkpt lat="46.5526" lon="0.34942">
        <ele>95.4</ele>
        <time>2022-09-18T08:10:34Z</time>
      </trkpt>
      <trkpt lat="46.5526" lon="0.34927">
        <ele>95.2</ele>
        <time>2022-09-18T08:10:36Z</time>
      </trkpt>
      <trkpt lat="46.55261" lon="0.34901">
        <ele>95</ele>
        <time>2022-09-18T08:10:39Z</time>
      </trkpt>
      <trkpt lat="46.55266" lon="0.34856">
        <ele>95</ele>
        <time>2022-09-18T08:10:45Z</time>
      </trkpt>
      <trkpt lat="46.55269" lon="0.34843">
        <ele>95</ele>
        <time>2022-09-18T08:10:47Z</time>
      </trkpt>
      <trkpt lat="46.55274" lon="0.34823">
        <ele>95</ele>
        <time>2022-09-18T08:10:50Z</time>
      </trkpt>
      <trkpt lat="46.5529" lon="0.34784">
        <ele>94.8</ele>
        <time>2022-09-18T08:10:56Z</time>
      </trkpt>
      <trkpt lat="46.55302" lon="0.34754">
        <ele>94.8</ele>
        <time>2022-09-18T08:11:01Z</time>
      </trkpt>
      <trkpt lat="46.55312" lon="0.34735">
        <ele>94.8</ele>
        <time>2022-09-18T08:11:04Z</time>
      </trkpt>
      <trkpt lat="46.55319" lon="0.34722">
        <ele>94.6</ele>
        <time>2022-09-18T08:11:06Z</time>
      </trkpt>
      <trkpt lat="46.55321" lon="0.34717">
        <ele>94.4</ele>
        <time>2022-09-18T08:11:07Z</time>
      </trkpt>
      <trkpt lat="46.55321" lon="0.34708">
        <ele>94.4</ele>
        <time>2022-09-18T08:11:08Z</time>
      </trkpt>
      <trkpt lat="46.55323" lon="0.34703">
        <ele>94.4</ele>
        <time>2022-09-18T08:11:10Z</time>
      </trkpt>
      <trkpt lat="46.55325" lon="0.34685">
        <ele>95.4</ele>
        <time>2022-09-18T08:11:14Z</time>
      </trkpt>
      <trkpt lat="46.55325" lon="0.34677">
        <ele>96.2</ele>
        <time>2022-09-18T08:11:16Z</time>
      </trkpt>
      <trkpt lat="46.55325" lon="0.34674">
        <ele>96.4</ele>
        <time>2022-09-18T08:11:17Z</time>
      </trkpt>
      <trkpt lat="46.55324" lon="0.34659">
        <ele>97.6</ele>
        <time>2022-09-18T08:11:20Z</time>
      </trkpt>
      <trkpt lat="46.55322" lon="0.34644">
        <ele>98</ele>
        <time>2022-09-18T08:11:23Z</time>
      </trkpt>
      <trkpt lat="46.5532" lon="0.34631">
        <ele>98</ele>
        <time>2022-09-18T08:11:25Z</time>
      </trkpt>
      <trkpt lat="46.55317" lon="0.34617">
        <ele>98</ele>
        <time>2022-09-18T08:11:28Z</time>
      </trkpt>
      <trkpt lat="46.55312" lon="0.34602">
        <ele>98</ele>
        <time>2022-09-18T08:11:31Z</time>
      </trkpt>
      <trkpt lat="46.55308" lon="0.34592">
        <ele>98</ele>
        <time>2022-09-18T08:11:33Z</time>
      </trkpt>
      <trkpt lat="46.55295" lon="0.34569">
        <ele>98.2</ele>
        <time>2022-09-18T08:11:37Z</time>
      </trkpt>
      <trkpt lat="46.55289" lon="0.3456">
        <ele>98.2</ele>
        <time>2022-09-18T08:11:39Z</time>
      </trkpt>
      <trkpt lat="46.55266" lon="0.34537">
        <ele>96.8</ele>
        <time>2022-09-18T08:11:45Z</time>
      </trkpt>
      <trkpt lat="46.55261" lon="0.34534">
        <ele>96.2</ele>
        <time>2022-09-18T08:11:46Z</time>
      </trkpt>
      <trkpt lat="46.55244" lon="0.34525">
        <ele>95.4</ele>
        <time>2022-09-18T08:11:49Z</time>
      </trkpt>
      <trkpt lat="46.55238" lon="0.34523">
        <ele>95.2</ele>
        <time>2022-09-18T08:11:50Z</time>
      </trkpt>
      <trkpt lat="46.55212" lon="0.34511">
        <ele>95</ele>
        <time>2022-09-18T08:11:55Z</time>
      </trkpt>
      <trkpt lat="46.55191" lon="0.34501">
        <ele>94.2</ele>
        <time>2022-09-18T08:12:00Z</time>
      </trkpt>
      <trkpt lat="46.55165" lon="0.34491">
        <ele>94.2</ele>
        <time>2022-09-18T08:12:06Z</time>
      </trkpt>
      <trkpt lat="46.55138" lon="0.34482">
        <ele>94.6</ele>
        <time>2022-09-18T08:12:11Z</time>
      </trkpt>
      <trkpt lat="46.55115" lon="0.34478">
        <ele>95.4</ele>
        <time>2022-09-18T08:12:15Z</time>
      </trkpt>
      <trkpt lat="46.55096" lon="0.34475">
        <ele>96</ele>
        <time>2022-09-18T08:12:19Z</time>
      </trkpt>
      <trkpt lat="46.55072" lon="0.34466">
        <ele>96</ele>
        <time>2022-09-18T08:12:25Z</time>
      </trkpt>
      <trkpt lat="46.55065" lon="0.34453">
        <ele>95.2</ele>
        <time>2022-09-18T08:12:28Z</time>
      </trkpt>
      <trkpt lat="46.55066" lon="0.34448">
        <ele>94.8</ele>
        <time>2022-09-18T08:12:29Z</time>
      </trkpt>
      <trkpt lat="46.55065" lon="0.34438">
        <ele>94.6</ele>
        <time>2022-09-18T08:12:30Z</time>
      </trkpt>
      <trkpt lat="46.55066" lon="0.34431">
        <ele>94.2</ele>
        <time>2022-09-18T08:12:31Z</time>
      </trkpt>
      <trkpt lat="46.55069" lon="0.34418">
        <ele>93.6</ele>
        <time>2022-09-18T08:12:33Z</time>
      </trkpt>
      <trkpt lat="46.55062" lon="0.34402">
        <ele>93.2</ele>
        <time>2022-09-18T08:12:36Z</time>
      </trkpt>
      <trkpt lat="46.55055" lon="0.34392">
        <ele>93</ele>
        <time>2022-09-18T08:12:39Z</time>
      </trkpt>
      <trkpt lat="46.55055" lon="0.34387">
        <ele>93</ele>
        <time>2022-09-18T08:12:40Z</time>
      </trkpt>
      <trkpt lat="46.55057" lon="0.34369">
        <ele>93</ele>
        <time>2022-09-18T08:12:44Z</time>
      </trkpt>
      <trkpt lat="46.55058" lon="0.34352">
        <ele>93.4</ele>
        <time>2022-09-18T08:12:48Z</time>
      </trkpt>
      <trkpt lat="46.55057" lon="0.34349">
        <ele>93.6</ele>
        <time>2022-09-18T08:12:49Z</time>
      </trkpt>
      <trkpt lat="46.55061" lon="0.34347">
        <ele>94.6</ele>
        <time>2022-09-18T08:12:51Z</time>
      </trkpt>
      <trkpt lat="46.55072" lon="0.34352">
        <ele>95.6</ele>
        <time>2022-09-18T08:12:55Z</time>
      </trkpt>
      <trkpt lat="46.55075" lon="0.34352">
        <ele>95.6</ele>
        <time>2022-09-18T08:12:56Z</time>
      </trkpt>
      <trkpt lat="46.55087" lon="0.34358">
        <ele>96.4</ele>
        <time>2022-09-18T08:13:01Z</time>
      </trkpt>
      <trkpt lat="46.5509" lon="0.3436">
        <ele>96.8</ele>
        <time>2022-09-18T08:13:02Z</time>
      </trkpt>
      <trkpt lat="46.55097" lon="0.34365">
        <ele>97</ele>
        <time>2022-09-18T08:13:04Z</time>
      </trkpt>
      <trkpt lat="46.55105" lon="0.34371">
        <ele>97</ele>
        <time>2022-09-18T08:13:06Z</time>
      </trkpt>
      <trkpt lat="46.55138" lon="0.34384">
        <ele>97</ele>
        <time>2022-09-18T08:13:13Z</time>
      </trkpt>
      <trkpt lat="46.55169" lon="0.34391">
        <ele>96.6</ele>
        <time>2022-09-18T08:13:20Z</time>
      </trkpt>
      <trkpt lat="46.55173" lon="0.34392">
        <ele>96.6</ele>
        <time>2022-09-18T08:13:21Z</time>
      </trkpt>
      <trkpt lat="46.55185" lon="0.34394">
        <ele>96.4</ele>
        <time>2022-09-18T08:13:25Z</time>
      </trkpt>
      <trkpt lat="46.55193" lon="0.34396">
        <ele>96.6</ele>
        <time>2022-09-18T08:13:27Z</time>
      </trkpt>
      <trkpt lat="46.55206" lon="0.34401">
        <ele>96.8</ele>
        <time>2022-09-18T08:13:30Z</time>
      </trkpt>
      <trkpt lat="46.55236" lon="0.34409">
        <ele>96.8</ele>
        <time>2022-09-18T08:13:36Z</time>
      </trkpt>
      <trkpt lat="46.55273" lon="0.34417">
        <ele>97.6</ele>
        <time>2022-09-18T08:13:42Z</time>
      </trkpt>
      <trkpt lat="46.5528" lon="0.34418">
        <ele>97.8</ele>
        <time>2022-09-18T08:13:43Z</time>
      </trkpt>
      <trkpt lat="46.55315" lon="0.34418">
        <ele>98.8</ele>
        <time>2022-09-18T08:13:49Z</time>
      </trkpt>
      <trkpt lat="46.55321" lon="0.34419">
        <ele>98.8</ele>
        <time>2022-09-18T08:13:50Z</time>
      </trkpt>
      <trkpt lat="46.55356" lon="0.3442">
        <ele>99</ele>
        <time>2022-09-18T08:13:56Z</time>
      </trkpt>
      <trkpt lat="46.55376" lon="0.34426">
        <ele>98.6</ele>
        <time>2022-09-18T08:13:59Z</time>
      </trkpt>
      <trkpt lat="46.55389" lon="0.34432">
        <ele>98</ele>
        <time>2022-09-18T08:14:01Z</time>
      </trkpt>
      <trkpt lat="46.55395" lon="0.34436">
        <ele>97.8</ele>
        <time>2022-09-18T08:14:02Z</time>
      </trkpt>
      <trkpt lat="46.55402" lon="0.34441">
        <ele>97.6</ele>
        <time>2022-09-18T08:14:03Z</time>
      </trkpt>
      <trkpt lat="46.55412" lon="0.34453">
        <ele>97.4</ele>
        <time>2022-09-18T08:14:05Z</time>
      </trkpt>
      <trkpt lat="46.55422" lon="0.34468">
        <ele>97.2</ele>
        <time>2022-09-18T08:14:07Z</time>
      </trkpt>
      <trkpt lat="46.55434" lon="0.34492">
        <ele>97.2</ele>
        <time>2022-09-18T08:14:10Z</time>
      </trkpt>
      <trkpt lat="46.55439" lon="0.3451">
        <ele>97.2</ele>
        <time>2022-09-18T08:14:12Z</time>
      </trkpt>
      <trkpt lat="46.55441" lon="0.34528">
        <ele>97.2</ele>
        <time>2022-09-18T08:14:14Z</time>
      </trkpt>
      <trkpt lat="46.55436" lon="0.34571">
        <ele>96.8</ele>
        <time>2022-09-18T08:14:19Z</time>
      </trkpt>
      <trkpt lat="46.55422" lon="0.3463">
        <ele>96.8</ele>
        <time>2022-09-18T08:14:26Z</time>
      </trkpt>
      <trkpt lat="46.55402" lon="0.34689">
        <ele>97.2</ele>
        <time>2022-09-18T08:14:33Z</time>
      </trkpt>
      <trkpt lat="46.55393" lon="0.34712">
        <ele>96</ele>
        <time>2022-09-18T08:14:37Z</time>
      </trkpt>
      <trkpt lat="46.55393" lon="0.34714">
        <ele>95.6</ele>
        <time>2022-09-18T08:14:38Z</time>
      </trkpt>
      <trkpt lat="46.55394" lon="0.34715">
        <ele>95</ele>
        <time>2022-09-18T08:14:40Z</time>
      </trkpt>
      <trkpt lat="46.554" lon="0.34705">
        <ele>94.8</ele>
        <time>2022-09-18T08:14:44Z</time>
      </trkpt>
      <trkpt lat="46.55406" lon="0.34705">
        <ele>95.4</ele>
        <time>2022-09-18T08:14:47Z</time>
      </trkpt>
      <trkpt lat="46.55407" lon="0.34707">
        <ele>95.4</ele>
        <time>2022-09-18T08:14:48Z</time>
      </trkpt>
      <trkpt lat="46.5541" lon="0.34711">
        <ele>96.6</ele>
        <time>2022-09-18T08:14:51Z</time>
      </trkpt>
      <trkpt lat="46.55414" lon="0.34713">
        <ele>97.8</ele>
        <time>2022-09-18T08:14:54Z</time>
      </trkpt>
      <trkpt lat="46.55419" lon="0.34715">
        <ele>99.2</ele>
        <time>2022-09-18T08:14:58Z</time>
      </trkpt>
      <trkpt lat="46.55424" lon="0.34717">
        <ele>99.8</ele>
        <time>2022-09-18T08:15:01Z</time>
      </trkpt>
      <trkpt lat="46.55426" lon="0.34719">
        <ele>100.4</ele>
        <time>2022-09-18T08:15:03Z</time>
      </trkpt>
      <trkpt lat="46.5543" lon="0.34719">
        <ele>101.6</ele>
        <time>2022-09-18T08:15:06Z</time>
      </trkpt>
      <trkpt lat="46.55434" lon="0.34722">
        <ele>102.6</ele>
        <time>2022-09-18T08:15:09Z</time>
      </trkpt>
      <trkpt lat="46.55436" lon="0.34727">
        <ele>103.6</ele>
        <time>2022-09-18T08:15:13Z</time>
      </trkpt>
      <trkpt lat="46.55436" lon="0.34727">
        <ele>103.8</ele>
        <time>2022-09-18T08:15:14Z</time>
      </trkpt>
      <trkpt lat="46.55439" lon="0.34732">
        <ele>104</ele>
        <time>2022-09-18T08:15:16Z</time>
      </trkpt>
      <trkpt lat="46.55446" lon="0.34748">
        <ele>104.4</ele>
        <time>2022-09-18T08:15:23Z</time>
      </trkpt>
      <trkpt lat="46.55452" lon="0.34756">
        <ele>104.6</ele>
        <time>2022-09-18T08:15:27Z</time>
      </trkpt>
      <trkpt lat="46.55455" lon="0.34761">
        <ele>105.6</ele>
        <time>2022-09-18T08:15:30Z</time>
      </trkpt>
      <trkpt lat="46.55458" lon="0.34766">
        <ele>105.8</ele>
        <time>2022-09-18T08:15:33Z</time>
      </trkpt>
      <trkpt lat="46.55463" lon="0.34776">
        <ele>106</ele>
        <time>2022-09-18T08:15:38Z</time>
      </trkpt>
      <trkpt lat="46.55469" lon="0.34787">
        <ele>106.8</ele>
        <time>2022-09-18T08:15:44Z</time>
      </trkpt>
      <trkpt lat="46.55471" lon="0.34791">
        <ele>107.2</ele>
        <time>2022-09-18T08:15:46Z</time>
      </trkpt>
      <trkpt lat="46.5548" lon="0.34801">
        <ele>108</ele>
        <time>2022-09-18T08:15:52Z</time>
      </trkpt>
      <trkpt lat="46.55486" lon="0.34806">
        <ele>109</ele>
        <time>2022-09-18T08:15:56Z</time>
      </trkpt>
      <trkpt lat="46.5549" lon="0.34807">
        <ele>109.6</ele>
        <time>2022-09-18T08:15:58Z</time>
      </trkpt>
      <trkpt lat="46.55494" lon="0.34808">
        <ele>110</ele>
        <time>2022-09-18T08:16:00Z</time>
      </trkpt>
      <trkpt lat="46.55499" lon="0.34809">
        <ele>111.2</ele>
        <time>2022-09-18T08:16:04Z</time>
      </trkpt>
      <trkpt lat="46.55501" lon="0.3481">
        <ele>111.6</ele>
        <time>2022-09-18T08:16:05Z</time>
      </trkpt>
      <trkpt lat="46.55506" lon="0.3481">
        <ele>112.4</ele>
        <time>2022-09-18T08:16:08Z</time>
      </trkpt>
      <trkpt lat="46.55513" lon="0.34812">
        <ele>113.4</ele>
        <time>2022-09-18T08:16:12Z</time>
      </trkpt>
      <trkpt lat="46.55514" lon="0.34813">
        <ele>113.8</ele>
        <time>2022-09-18T08:16:13Z</time>
      </trkpt>
      <trkpt lat="46.55524" lon="0.34819">
        <ele>114.8</ele>
        <time>2022-09-18T08:16:19Z</time>
      </trkpt>
      <trkpt lat="46.55526" lon="0.34821">
        <ele>115</ele>
        <time>2022-09-18T08:16:20Z</time>
      </trkpt>
      <trkpt lat="46.55537" lon="0.34828">
        <ele>115.8</ele>
        <time>2022-09-18T08:16:26Z</time>
      </trkpt>
      <trkpt lat="46.5554" lon="0.34831">
        <ele>115.8</ele>
        <time>2022-09-18T08:16:28Z</time>
      </trkpt>
      <trkpt lat="46.55542" lon="0.34832">
        <ele>116</ele>
        <time>2022-09-18T08:16:29Z</time>
      </trkpt>
      <trkpt lat="46.55548" lon="0.34836">
        <ele>116.4</ele>
        <time>2022-09-18T08:16:32Z</time>
      </trkpt>
      <trkpt lat="46.55557" lon="0.34843">
        <ele>117.2</ele>
        <time>2022-09-18T08:16:36Z</time>
      </trkpt>
      <trkpt lat="46.5556" lon="0.34845">
        <ele>117.4</ele>
        <time>2022-09-18T08:16:38Z</time>
      </trkpt>
      <trkpt lat="46.55567" lon="0.34849">
        <ele>118.4</ele>
        <time>2022-09-18T08:16:41Z</time>
      </trkpt>
      <trkpt lat="46.55573" lon="0.34852">
        <ele>119.4</ele>
        <time>2022-09-18T08:16:44Z</time>
      </trkpt>
      <trkpt lat="46.55577" lon="0.34853">
        <ele>120.2</ele>
        <time>2022-09-18T08:16:46Z</time>
      </trkpt>
      <trkpt lat="46.55581" lon="0.34856">
        <ele>120.6</ele>
        <time>2022-09-18T08:16:48Z</time>
      </trkpt>
      <trkpt lat="46.5559" lon="0.34862">
        <ele>122</ele>
        <time>2022-09-18T08:16:52Z</time>
      </trkpt>
      <trkpt lat="46.55592" lon="0.34864">
        <ele>122.2</ele>
        <time>2022-09-18T08:16:53Z</time>
      </trkpt>
      <trkpt lat="46.55603" lon="0.34875">
        <ele>123.4</ele>
        <time>2022-09-18T08:16:59Z</time>
      </trkpt>
      <trkpt lat="46.55609" lon="0.34876">
        <ele>124.4</ele>
        <time>2022-09-18T08:17:03Z</time>
      </trkpt>
      <trkpt lat="46.55615" lon="0.34877">
        <ele>125.4</ele>
        <time>2022-09-18T08:17:06Z</time>
      </trkpt>
      <trkpt lat="46.55621" lon="0.34886">
        <ele>126.4</ele>
        <time>2022-09-18T08:17:10Z</time>
      </trkpt>
      <trkpt lat="46.55624" lon="0.34892">
        <ele>126.4</ele>
        <time>2022-09-18T08:17:12Z</time>
      </trkpt>
      <trkpt lat="46.55628" lon="0.34903">
        <ele>126.6</ele>
        <time>2022-09-18T08:17:16Z</time>
      </trkpt>
      <trkpt lat="46.55632" lon="0.34904">
        <ele>127.2</ele>
        <time>2022-09-18T08:17:18Z</time>
      </trkpt>
      <trkpt lat="46.55634" lon="0.34903">
        <ele>127.4</ele>
        <time>2022-09-18T08:17:19Z</time>
      </trkpt>
      <trkpt lat="46.55645" lon="0.34901">
        <ele>128.4</ele>
        <time>2022-09-18T08:17:25Z</time>
      </trkpt>
      <trkpt lat="46.5565" lon="0.349">
        <ele>128.8</ele>
        <time>2022-09-18T08:17:28Z</time>
      </trkpt>
      <trkpt lat="46.55661" lon="0.34895">
        <ele>129.6</ele>
        <time>2022-09-18T08:17:34Z</time>
      </trkpt>
      <trkpt lat="46.55662" lon="0.34894">
        <ele>129.8</ele>
        <time>2022-09-18T08:17:36Z</time>
      </trkpt>
      <trkpt lat="46.55666" lon="0.34888">
        <ele>130.8</ele>
        <time>2022-09-18T08:17:41Z</time>
      </trkpt>
      <trkpt lat="46.55666" lon="0.34887">
        <ele>131</ele>
        <time>2022-09-18T08:17:42Z</time>
      </trkpt>
      <trkpt lat="46.55666" lon="0.34887">
        <ele>131</ele>
        <time>2022-09-18T08:17:43Z</time>
      </trkpt>
      <trkpt lat="46.55668" lon="0.34874">
        <ele>131.6</ele>
        <time>2022-09-18T08:17:49Z</time>
      </trkpt>
      <trkpt lat="46.55665" lon="0.34843">
        <ele>131.6</ele>
        <time>2022-09-18T08:17:55Z</time>
      </trkpt>
      <trkpt lat="46.55664" lon="0.34837">
        <ele>131.8</ele>
        <time>2022-09-18T08:17:56Z</time>
      </trkpt>
      <trkpt lat="46.55659" lon="0.34819">
        <ele>132</ele>
        <time>2022-09-18T08:17:59Z</time>
      </trkpt>
      <trkpt lat="46.55656" lon="0.34813">
        <ele>132</ele>
        <time>2022-09-18T08:18:00Z</time>
      </trkpt>
      <trkpt lat="46.55652" lon="0.34808">
        <ele>132</ele>
        <time>2022-09-18T08:18:01Z</time>
      </trkpt>
      <trkpt lat="46.5563" lon="0.34782">
        <ele>131.8</ele>
        <time>2022-09-18T08:18:06Z</time>
      </trkpt>
      <trkpt lat="46.55621" lon="0.3477">
        <ele>131</ele>
        <time>2022-09-18T08:18:08Z</time>
      </trkpt>
      <trkpt lat="46.55617" lon="0.34763">
        <ele>130.8</ele>
        <time>2022-09-18T08:18:09Z</time>
      </trkpt>
      <trkpt lat="46.55608" lon="0.34749">
        <ele>130.4</ele>
        <time>2022-09-18T08:18:11Z</time>
      </trkpt>
      <trkpt lat="46.55604" lon="0.34741">
        <ele>130.2</ele>
        <time>2022-09-18T08:18:12Z</time>
      </trkpt>
      <trkpt lat="46.55589" lon="0.34701">
        <ele>129.8</ele>
        <time>2022-09-18T08:18:17Z</time>
      </trkpt>
      <trkpt lat="46.55586" lon="0.34693">
        <ele>129.8</ele>
        <time>2022-09-18T08:18:18Z</time>
      </trkpt>
      <trkpt lat="46.55577" lon="0.34653">
        <ele>129.8</ele>
        <time>2022-09-18T08:18:23Z</time>
      </trkpt>
      <trkpt lat="46.55566" lon="0.34599">
        <ele>130.6</ele>
        <time>2022-09-18T08:18:30Z</time>
      </trkpt>
      <trkpt lat="46.55564" lon="0.34581">
        <ele>130.4</ele>
        <time>2022-09-18T08:18:32Z</time>
      </trkpt>
      <trkpt lat="46.55563" lon="0.34562">
        <ele>130.2</ele>
        <time>2022-09-18T08:18:34Z</time>
      </trkpt>
      <trkpt lat="46.55564" lon="0.34553">
        <ele>129.8</ele>
        <time>2022-09-18T08:18:35Z</time>
      </trkpt>
      <trkpt lat="46.55567" lon="0.34494">
        <ele>130.2</ele>
        <time>2022-09-18T08:18:42Z</time>
      </trkpt>
      <trkpt lat="46.55567" lon="0.34486">
        <ele>130.4</ele>
        <time>2022-09-18T08:18:43Z</time>
      </trkpt>
      <trkpt lat="46.55564" lon="0.34471">
        <ele>130.8</ele>
        <time>2022-09-18T08:18:45Z</time>
      </trkpt>
      <trkpt lat="46.55561" lon="0.34463">
        <ele>130.8</ele>
        <time>2022-09-18T08:18:46Z</time>
      </trkpt>
      <trkpt lat="46.55542" lon="0.3442">
        <ele>130.4</ele>
        <time>2022-09-18T08:18:51Z</time>
      </trkpt>
      <trkpt lat="46.55521" lon="0.34369">
        <ele>129.8</ele>
        <time>2022-09-18T08:18:57Z</time>
      </trkpt>
      <trkpt lat="46.55509" lon="0.34334">
        <ele>129.8</ele>
        <time>2022-09-18T08:19:01Z</time>
      </trkpt>
      <trkpt lat="46.55505" lon="0.34326">
        <ele>129.6</ele>
        <time>2022-09-18T08:19:02Z</time>
      </trkpt>
      <trkpt lat="46.555" lon="0.34319">
        <ele>129.6</ele>
        <time>2022-09-18T08:19:03Z</time>
      </trkpt>
      <trkpt lat="46.55481" lon="0.34292">
        <ele>130</ele>
        <time>2022-09-18T08:19:08Z</time>
      </trkpt>
      <trkpt lat="46.55476" lon="0.34283">
        <ele>130.8</ele>
        <time>2022-09-18T08:19:10Z</time>
      </trkpt>
      <trkpt lat="46.55468" lon="0.34269">
        <ele>131.6</ele>
        <time>2022-09-18T08:19:13Z</time>
      </trkpt>
      <trkpt lat="46.55466" lon="0.34264">
        <ele>132.2</ele>
        <time>2022-09-18T08:19:14Z</time>
      </trkpt>
      <trkpt lat="46.55461" lon="0.3425">
        <ele>133.4</ele>
        <time>2022-09-18T08:19:17Z</time>
      </trkpt>
      <trkpt lat="46.55458" lon="0.3424">
        <ele>134.2</ele>
        <time>2022-09-18T08:19:20Z</time>
      </trkpt>
      <trkpt lat="46.55458" lon="0.34236">
        <ele>134.4</ele>
        <time>2022-09-18T08:19:21Z</time>
      </trkpt>
      <trkpt lat="46.5546" lon="0.34233">
        <ele>134.6</ele>
        <time>2022-09-18T08:19:22Z</time>
      </trkpt>
      <trkpt lat="46.55462" lon="0.3423">
        <ele>134.6</ele>
        <time>2022-09-18T08:19:23Z</time>
      </trkpt>
      <trkpt lat="46.55464" lon="0.34229">
        <ele>134.6</ele>
        <time>2022-09-18T08:19:24Z</time>
      </trkpt>
      <trkpt lat="46.5548" lon="0.34229">
        <ele>135.6</ele>
        <time>2022-09-18T08:19:29Z</time>
      </trkpt>
      <trkpt lat="46.55506" lon="0.34226">
        <ele>136.4</ele>
        <time>2022-09-18T08:19:36Z</time>
      </trkpt>
      <trkpt lat="46.55531" lon="0.34221">
        <ele>136.6</ele>
        <time>2022-09-18T08:19:42Z</time>
      </trkpt>
      <trkpt lat="46.55535" lon="0.34219">
        <ele>136.8</ele>
        <time>2022-09-18T08:19:43Z</time>
      </trkpt>
      <trkpt lat="46.55552" lon="0.34207">
        <ele>137</ele>
        <time>2022-09-18T08:19:48Z</time>
      </trkpt>
      <trkpt lat="46.55576" lon="0.34204">
        <ele>137.4</ele>
        <time>2022-09-18T08:19:54Z</time>
      </trkpt>
      <trkpt lat="46.55596" lon="0.34204">
        <ele>137.6</ele>
        <time>2022-09-18T08:19:58Z</time>
      </trkpt>
      <trkpt lat="46.55615" lon="0.34205">
        <ele>137.8</ele>
        <time>2022-09-18T08:20:02Z</time>
      </trkpt>
      <trkpt lat="46.55625" lon="0.34206">
        <ele>138.2</ele>
        <time>2022-09-18T08:20:04Z</time>
      </trkpt>
      <trkpt lat="46.55647" lon="0.3421">
        <ele>138.4</ele>
        <time>2022-09-18T08:20:09Z</time>
      </trkpt>
      <trkpt lat="46.55664" lon="0.34212">
        <ele>138</ele>
        <time>2022-09-18T08:20:13Z</time>
      </trkpt>
      <trkpt lat="46.55667" lon="0.3421">
        <ele>137.8</ele>
        <time>2022-09-18T08:20:14Z</time>
      </trkpt>
      <trkpt lat="46.5567" lon="0.34206">
        <ele>137.8</ele>
        <time>2022-09-18T08:20:15Z</time>
      </trkpt>
      <trkpt lat="46.55679" lon="0.34191">
        <ele>137.6</ele>
        <time>2022-09-18T08:20:18Z</time>
      </trkpt>
      <trkpt lat="46.55696" lon="0.34149">
        <ele>136.8</ele>
        <time>2022-09-18T08:20:24Z</time>
      </trkpt>
      <trkpt lat="46.55698" lon="0.3414">
        <ele>136.4</ele>
        <time>2022-09-18T08:20:25Z</time>
      </trkpt>
      <trkpt lat="46.55704" lon="0.34109">
        <ele>135.2</ele>
        <time>2022-09-18T08:20:29Z</time>
      </trkpt>
      <trkpt lat="46.55705" lon="0.34104">
        <ele>134.4</ele>
        <time>2022-09-18T08:20:30Z</time>
      </trkpt>
      <trkpt lat="46.55706" lon="0.34101">
        <ele>133.6</ele>
        <time>2022-09-18T08:20:31Z</time>
      </trkpt>
      <trkpt lat="46.5571" lon="0.34098">
        <ele>132.8</ele>
        <time>2022-09-18T08:20:33Z</time>
      </trkpt>
      <trkpt lat="46.55712" lon="0.34097">
        <ele>132.2</ele>
        <time>2022-09-18T08:20:34Z</time>
      </trkpt>
      <trkpt lat="46.55735" lon="0.34094">
        <ele>131.8</ele>
        <time>2022-09-18T08:20:39Z</time>
      </trkpt>
      <trkpt lat="46.55755" lon="0.34092">
        <ele>132</ele>
        <time>2022-09-18T08:20:43Z</time>
      </trkpt>
      <trkpt lat="46.5577" lon="0.3409">
        <ele>132</ele>
        <time>2022-09-18T08:20:46Z</time>
      </trkpt>
      <trkpt lat="46.55793" lon="0.34075">
        <ele>131.4</ele>
        <time>2022-09-18T08:20:51Z</time>
      </trkpt>
      <trkpt lat="46.55798" lon="0.34072">
        <ele>131.2</ele>
        <time>2022-09-18T08:20:52Z</time>
      </trkpt>
      <trkpt lat="46.55826" lon="0.34052">
        <ele>131</ele>
        <time>2022-09-18T08:20:58Z</time>
      </trkpt>
      <trkpt lat="46.55831" lon="0.3405">
        <ele>130.8</ele>
        <time>2022-09-18T08:20:59Z</time>
      </trkpt>
      <trkpt lat="46.55847" lon="0.34049">
        <ele>130.6</ele>
        <time>2022-09-18T08:21:02Z</time>
      </trkpt>
      <trkpt lat="46.55871" lon="0.34048">
        <ele>130.4</ele>
        <time>2022-09-18T08:21:06Z</time>
      </trkpt>
      <trkpt lat="46.55884" lon="0.34046">
        <ele>130.4</ele>
        <time>2022-09-18T08:21:08Z</time>
      </trkpt>
      <trkpt lat="46.55898" lon="0.34046">
        <ele>130.6</ele>
        <time>2022-09-18T08:21:11Z</time>
      </trkpt>
      <trkpt lat="46.55905" lon="0.34043">
        <ele>130.8</ele>
        <time>2022-09-18T08:21:13Z</time>
      </trkpt>
      <trkpt lat="46.55911" lon="0.34035">
        <ele>131.2</ele>
        <time>2022-09-18T08:21:15Z</time>
      </trkpt>
      <trkpt lat="46.55928" lon="0.34005">
        <ele>131.6</ele>
        <time>2022-09-18T08:21:20Z</time>
      </trkpt>
      <trkpt lat="46.55931" lon="0.33999">
        <ele>131.6</ele>
        <time>2022-09-18T08:21:21Z</time>
      </trkpt>
      <trkpt lat="46.55939" lon="0.3399">
        <ele>131.2</ele>
        <time>2022-09-18T08:21:23Z</time>
      </trkpt>
      <trkpt lat="46.55943" lon="0.33986">
        <ele>131.2</ele>
        <time>2022-09-18T08:21:24Z</time>
      </trkpt>
      <trkpt lat="46.55946" lon="0.33984">
        <ele>131.4</ele>
        <time>2022-09-18T08:21:25Z</time>
      </trkpt>
      <trkpt lat="46.55957" lon="0.33976">
        <ele>132.2</ele>
        <time>2022-09-18T08:21:29Z</time>
      </trkpt>
      <trkpt lat="46.5596" lon="0.33973">
        <ele>132.4</ele>
        <time>2022-09-18T08:21:30Z</time>
      </trkpt>
      <trkpt lat="46.5597" lon="0.3396">
        <ele>133.2</ele>
        <time>2022-09-18T08:21:33Z</time>
      </trkpt>
      <trkpt lat="46.55976" lon="0.33952">
        <ele>133.4</ele>
        <time>2022-09-18T08:21:35Z</time>
      </trkpt>
      <trkpt lat="46.55984" lon="0.33947">
        <ele>133.6</ele>
        <time>2022-09-18T08:21:37Z</time>
      </trkpt>
      <trkpt lat="46.55992" lon="0.33944">
        <ele>133.8</ele>
        <time>2022-09-18T08:21:39Z</time>
      </trkpt>
      <trkpt lat="46.55997" lon="0.3394">
        <ele>133.8</ele>
        <time>2022-09-18T08:21:41Z</time>
      </trkpt>
      <trkpt lat="46.56002" lon="0.33935">
        <ele>133.6</ele>
        <time>2022-09-18T08:21:43Z</time>
      </trkpt>
      <trkpt lat="46.56005" lon="0.33933">
        <ele>133.6</ele>
        <time>2022-09-18T08:21:44Z</time>
      </trkpt>
      <trkpt lat="46.56008" lon="0.33929">
        <ele>133.6</ele>
        <time>2022-09-18T08:21:45Z</time>
      </trkpt>
      <trkpt lat="46.56017" lon="0.33913">
        <ele>133.4</ele>
        <time>2022-09-18T08:21:48Z</time>
      </trkpt>
      <trkpt lat="46.56023" lon="0.33901">
        <ele>132.8</ele>
        <time>2022-09-18T08:21:50Z</time>
      </trkpt>
      <trkpt lat="46.56029" lon="0.33889">
        <ele>132.4</ele>
        <time>2022-09-18T08:21:52Z</time>
      </trkpt>
      <trkpt lat="46.56034" lon="0.33882">
        <ele>132.2</ele>
        <time>2022-09-18T08:21:53Z</time>
      </trkpt>
      <trkpt lat="46.56038" lon="0.33877">
        <ele>132.2</ele>
        <time>2022-09-18T08:21:54Z</time>
      </trkpt>
      <trkpt lat="46.56066" lon="0.33846">
        <ele>132</ele>
        <time>2022-09-18T08:22:00Z</time>
      </trkpt>
      <trkpt lat="46.56069" lon="0.33833">
        <ele>131.4</ele>
        <time>2022-09-18T08:22:03Z</time>
      </trkpt>
      <trkpt lat="46.56068" lon="0.33829">
        <ele>131.2</ele>
        <time>2022-09-18T08:22:04Z</time>
      </trkpt>
      <trkpt lat="46.56069" lon="0.33813">
        <ele>130.8</ele>
        <time>2022-09-18T08:22:07Z</time>
      </trkpt>
      <trkpt lat="46.5607" lon="0.33808">
        <ele>130.4</ele>
        <time>2022-09-18T08:22:10Z</time>
      </trkpt>
      <trkpt lat="46.56071" lon="0.33807">
        <ele>130.2</ele>
        <time>2022-09-18T08:22:11Z</time>
      </trkpt>
      <trkpt lat="46.56078" lon="0.33803">
        <ele>130</ele>
        <time>2022-09-18T08:22:17Z</time>
      </trkpt>
      <trkpt lat="46.5608" lon="0.33802">
        <ele>130</ele>
        <time>2022-09-18T08:22:18Z</time>
      </trkpt>
      <trkpt lat="46.56089" lon="0.33793">
        <ele>130</ele>
        <time>2022-09-18T08:22:22Z</time>
      </trkpt>
      <trkpt lat="46.56104" lon="0.33778">
        <ele>129</ele>
        <time>2022-09-18T08:22:27Z</time>
      </trkpt>
      <trkpt lat="46.56116" lon="0.3377">
        <ele>127.8</ele>
        <time>2022-09-18T08:22:30Z</time>
      </trkpt>
      <trkpt lat="46.56127" lon="0.33763">
        <ele>127</ele>
        <time>2022-09-18T08:22:32Z</time>
      </trkpt>
      <trkpt lat="46.56133" lon="0.33758">
        <ele>126.6</ele>
        <time>2022-09-18T08:22:33Z</time>
      </trkpt>
      <trkpt lat="46.56148" lon="0.33744">
        <ele>125</ele>
        <time>2022-09-18T08:22:36Z</time>
      </trkpt>
      <trkpt lat="46.56158" lon="0.33733">
        <ele>124</ele>
        <time>2022-09-18T08:22:38Z</time>
      </trkpt>
      <trkpt lat="46.56163" lon="0.33728">
        <ele>123.8</ele>
        <time>2022-09-18T08:22:39Z</time>
      </trkpt>
      <trkpt lat="46.56168" lon="0.33724">
        <ele>123.4</ele>
        <time>2022-09-18T08:22:40Z</time>
      </trkpt>
      <trkpt lat="46.56176" lon="0.33718">
        <ele>122.8</ele>
        <time>2022-09-18T08:22:42Z</time>
      </trkpt>
      <trkpt lat="46.56182" lon="0.33716">
        <ele>121.8</ele>
        <time>2022-09-18T08:22:44Z</time>
      </trkpt>
      <trkpt lat="46.56185" lon="0.33715">
        <ele>121.6</ele>
        <time>2022-09-18T08:22:45Z</time>
      </trkpt>
      <trkpt lat="46.56188" lon="0.33713">
        <ele>120.6</ele>
        <time>2022-09-18T08:22:46Z</time>
      </trkpt>
      <trkpt lat="46.56192" lon="0.33711">
        <ele>120</ele>
        <time>2022-09-18T08:22:48Z</time>
      </trkpt>
      <trkpt lat="46.56193" lon="0.3371">
        <ele>119.6</ele>
        <time>2022-09-18T08:22:49Z</time>
      </trkpt>
      <trkpt lat="46.56196" lon="0.33708">
        <ele>119</ele>
        <time>2022-09-18T08:22:50Z</time>
      </trkpt>
      <trkpt lat="46.562" lon="0.33702">
        <ele>118</ele>
        <time>2022-09-18T08:22:52Z</time>
      </trkpt>
      <trkpt lat="46.56201" lon="0.33696">
        <ele>116.8</ele>
        <time>2022-09-18T08:22:54Z</time>
      </trkpt>
      <trkpt lat="46.56201" lon="0.33691">
        <ele>115.8</ele>
        <time>2022-09-18T08:22:56Z</time>
      </trkpt>
      <trkpt lat="46.56201" lon="0.33688">
        <ele>115.4</ele>
        <time>2022-09-18T08:22:57Z</time>
      </trkpt>
      <trkpt lat="46.56199" lon="0.33682">
        <ele>114</ele>
        <time>2022-09-18T08:22:59Z</time>
      </trkpt>
      <trkpt lat="46.56198" lon="0.33679">
        <ele>113.4</ele>
        <time>2022-09-18T08:23:00Z</time>
      </trkpt>
      <trkpt lat="46.56198" lon="0.33677">
        <ele>112.6</ele>
        <time>2022-09-18T08:23:01Z</time>
      </trkpt>
      <trkpt lat="46.562" lon="0.33674">
        <ele>111.2</ele>
        <time>2022-09-18T08:23:03Z</time>
      </trkpt>
      <trkpt lat="46.56202" lon="0.33672">
        <ele>110.4</ele>
        <time>2022-09-18T08:23:04Z</time>
      </trkpt>
      <trkpt lat="46.56203" lon="0.33668">
        <ele>110</ele>
        <time>2022-09-18T08:23:05Z</time>
      </trkpt>
      <trkpt lat="46.56204" lon="0.33662">
        <ele>109.6</ele>
        <time>2022-09-18T08:23:06Z</time>
      </trkpt>
      <trkpt lat="46.56204" lon="0.33657">
        <ele>109.4</ele>
        <time>2022-09-18T08:23:07Z</time>
      </trkpt>
      <trkpt lat="46.56203" lon="0.3365">
        <ele>107.6</ele>
        <time>2022-09-18T08:23:08Z</time>
      </trkpt>
      <trkpt lat="46.56201" lon="0.33641">
        <ele>105.6</ele>
        <time>2022-09-18T08:23:10Z</time>
      </trkpt>
      <trkpt lat="46.56202" lon="0.33636">
        <ele>105</ele>
        <time>2022-09-18T08:23:11Z</time>
      </trkpt>
      <trkpt lat="46.56203" lon="0.33627">
        <ele>103.8</ele>
        <time>2022-09-18T08:23:13Z</time>
      </trkpt>
      <trkpt lat="46.56203" lon="0.33622">
        <ele>102.8</ele>
        <time>2022-09-18T08:23:14Z</time>
      </trkpt>
      <trkpt lat="46.56204" lon="0.33618">
        <ele>101.8</ele>
        <time>2022-09-18T08:23:15Z</time>
      </trkpt>
      <trkpt lat="46.56205" lon="0.33613">
        <ele>101.4</ele>
        <time>2022-09-18T08:23:16Z</time>
      </trkpt>
      <trkpt lat="46.56207" lon="0.33609">
        <ele>101</ele>
        <time>2022-09-18T08:23:17Z</time>
      </trkpt>
      <trkpt lat="46.56212" lon="0.33599">
        <ele>100</ele>
        <time>2022-09-18T08:23:19Z</time>
      </trkpt>
      <trkpt lat="46.56213" lon="0.33596">
        <ele>98.4</ele>
        <time>2022-09-18T08:23:20Z</time>
      </trkpt>
      <trkpt lat="46.56214" lon="0.33593">
        <ele>97.6</ele>
        <time>2022-09-18T08:23:21Z</time>
      </trkpt>
      <trkpt lat="46.56214" lon="0.33591">
        <ele>96.8</ele>
        <time>2022-09-18T08:23:22Z</time>
      </trkpt>
      <trkpt lat="46.56212" lon="0.33591">
        <ele>96.4</ele>
        <time>2022-09-18T08:23:24Z</time>
      </trkpt>
      <trkpt lat="46.56209" lon="0.33594">
        <ele>96</ele>
        <time>2022-09-18T08:23:26Z</time>
      </trkpt>
      <trkpt lat="46.56207" lon="0.33597">
        <ele>95.8</ele>
        <time>2022-09-18T08:23:27Z</time>
      </trkpt>
      <trkpt lat="46.56202" lon="0.33604">
        <ele>95.4</ele>
        <time>2022-09-18T08:23:29Z</time>
      </trkpt>
      <trkpt lat="46.56197" lon="0.33609">
        <ele>95.2</ele>
        <time>2022-09-18T08:23:31Z</time>
      </trkpt>
      <trkpt lat="46.56188" lon="0.33613">
        <ele>94.4</ele>
        <time>2022-09-18T08:23:33Z</time>
      </trkpt>
      <trkpt lat="46.56185" lon="0.33614">
        <ele>94</ele>
        <time>2022-09-18T08:23:34Z</time>
      </trkpt>
      <trkpt lat="46.56181" lon="0.33615">
        <ele>93</ele>
        <time>2022-09-18T08:23:35Z</time>
      </trkpt>
      <trkpt lat="46.56179" lon="0.33614">
        <ele>92.2</ele>
        <time>2022-09-18T08:23:36Z</time>
      </trkpt>
      <trkpt lat="46.56177" lon="0.33612">
        <ele>91.6</ele>
        <time>2022-09-18T08:23:37Z</time>
      </trkpt>
      <trkpt lat="46.56171" lon="0.33611">
        <ele>90.2</ele>
        <time>2022-09-18T08:23:39Z</time>
      </trkpt>
      <trkpt lat="46.56166" lon="0.33613">
        <ele>89.8</ele>
        <time>2022-09-18T08:23:41Z</time>
      </trkpt>
      <trkpt lat="46.56152" lon="0.33626">
        <ele>89.8</ele>
        <time>2022-09-18T08:23:45Z</time>
      </trkpt>
      <trkpt lat="46.56148" lon="0.3363">
        <ele>90</ele>
        <time>2022-09-18T08:23:46Z</time>
      </trkpt>
      <trkpt lat="46.56131" lon="0.33643">
        <ele>90.6</ele>
        <time>2022-09-18T08:23:50Z</time>
      </trkpt>
      <trkpt lat="46.56117" lon="0.33652">
        <ele>90.8</ele>
        <time>2022-09-18T08:23:53Z</time>
      </trkpt>
      <trkpt lat="46.56113" lon="0.33656">
        <ele>90.8</ele>
        <time>2022-09-18T08:23:54Z</time>
      </trkpt>
      <trkpt lat="46.56093" lon="0.33675">
        <ele>90.6</ele>
        <time>2022-09-18T08:23:58Z</time>
      </trkpt>
      <trkpt lat="46.5607" lon="0.33695">
        <ele>90.4</ele>
        <time>2022-09-18T08:24:03Z</time>
      </trkpt>
      <trkpt lat="46.56067" lon="0.33698">
        <ele>90.2</ele>
        <time>2022-09-18T08:24:04Z</time>
      </trkpt>
      <trkpt lat="46.56058" lon="0.33708">
        <ele>89.8</ele>
        <time>2022-09-18T08:24:07Z</time>
      </trkpt>
      <trkpt lat="46.5605" lon="0.33716">
        <ele>89.8</ele>
        <time>2022-09-18T08:24:09Z</time>
      </trkpt>
      <trkpt lat="46.56047" lon="0.3372">
        <ele>89.8</ele>
        <time>2022-09-18T08:24:10Z</time>
      </trkpt>
      <trkpt lat="46.56028" lon="0.33739">
        <ele>90.2</ele>
        <time>2022-09-18T08:24:15Z</time>
      </trkpt>
      <trkpt lat="46.56025" lon="0.33742">
        <ele>90.2</ele>
        <time>2022-09-18T08:24:16Z</time>
      </trkpt>
      <trkpt lat="46.56021" lon="0.33744">
        <ele>90.2</ele>
        <time>2022-09-18T08:24:17Z</time>
      </trkpt>
      <trkpt lat="46.56014" lon="0.33749">
        <ele>90.2</ele>
        <time>2022-09-18T08:24:19Z</time>
      </trkpt>
      <trkpt lat="46.56005" lon="0.33757">
        <ele>90</ele>
        <time>2022-09-18T08:24:22Z</time>
      </trkpt>
      <trkpt lat="46.5599" lon="0.33772">
        <ele>90</ele>
        <time>2022-09-18T08:24:26Z</time>
      </trkpt>
      <trkpt lat="46.55981" lon="0.33782">
        <ele>90</ele>
        <time>2022-09-18T08:24:28Z</time>
      </trkpt>
      <trkpt lat="46.55968" lon="0.33796">
        <ele>90.2</ele>
        <time>2022-09-18T08:24:31Z</time>
      </trkpt>
      <trkpt lat="46.55951" lon="0.33816">
        <ele>90.4</ele>
        <time>2022-09-18T08:24:35Z</time>
      </trkpt>
      <trkpt lat="46.5593" lon="0.33836">
        <ele>90.8</ele>
        <time>2022-09-18T08:24:40Z</time>
      </trkpt>
      <trkpt lat="46.55908" lon="0.33859">
        <ele>91.2</ele>
        <time>2022-09-18T08:24:46Z</time>
      </trkpt>
      <trkpt lat="46.55905" lon="0.33862">
        <ele>91.2</ele>
        <time>2022-09-18T08:24:47Z</time>
      </trkpt>
      <trkpt lat="46.55896" lon="0.33868">
        <ele>91.4</ele>
        <time>2022-09-18T08:24:50Z</time>
      </trkpt>
      <trkpt lat="46.55892" lon="0.3387">
        <ele>91.4</ele>
        <time>2022-09-18T08:24:51Z</time>
      </trkpt>
      <trkpt lat="46.5587" lon="0.33882">
        <ele>91.8</ele>
        <time>2022-09-18T08:24:56Z</time>
      </trkpt>
      <trkpt lat="46.55866" lon="0.33885">
        <ele>91.8</ele>
        <time>2022-09-18T08:24:57Z</time>
      </trkpt>
      <trkpt lat="46.55863" lon="0.33886">
        <ele>92</ele>
        <time>2022-09-18T08:24:58Z</time>
      </trkpt>
      <trkpt lat="46.55844" lon="0.33889">
        <ele>92.2</ele>
        <time>2022-09-18T08:25:02Z</time>
      </trkpt>
      <trkpt lat="46.55822" lon="0.33885">
        <ele>92.6</ele>
        <time>2022-09-18T08:25:06Z</time>
      </trkpt>
      <trkpt lat="46.55816" lon="0.33884">
        <ele>92.6</ele>
        <time>2022-09-18T08:25:07Z</time>
      </trkpt>
      <trkpt lat="46.55779" lon="0.33869">
        <ele>91.6</ele>
        <time>2022-09-18T08:25:13Z</time>
      </trkpt>
      <trkpt lat="46.55774" lon="0.33868">
        <ele>91.2</ele>
        <time>2022-09-18T08:25:14Z</time>
      </trkpt>
      <trkpt lat="46.55765" lon="0.33871">
        <ele>90.6</ele>
        <time>2022-09-18T08:25:16Z</time>
      </trkpt>
      <trkpt lat="46.55757" lon="0.33877">
        <ele>90</ele>
        <time>2022-09-18T08:25:18Z</time>
      </trkpt>
      <trkpt lat="46.55751" lon="0.33882">
        <ele>89.6</ele>
        <time>2022-09-18T08:25:20Z</time>
      </trkpt>
      <trkpt lat="46.55747" lon="0.33884">
        <ele>89.6</ele>
        <time>2022-09-18T08:25:21Z</time>
      </trkpt>
      <trkpt lat="46.55743" lon="0.33886">
        <ele>89.6</ele>
        <time>2022-09-18T08:25:22Z</time>
      </trkpt>
      <trkpt lat="46.55724" lon="0.33897">
        <ele>89.8</ele>
        <time>2022-09-18T08:25:26Z</time>
      </trkpt>
      <trkpt lat="46.55719" lon="0.33898">
        <ele>90</ele>
        <time>2022-09-18T08:25:27Z</time>
      </trkpt>
      <trkpt lat="46.55705" lon="0.33904">
        <ele>89.8</ele>
        <time>2022-09-18T08:25:30Z</time>
      </trkpt>
      <trkpt lat="46.55684" lon="0.33913">
        <ele>89.8</ele>
        <time>2022-09-18T08:25:34Z</time>
      </trkpt>
      <trkpt lat="46.55679" lon="0.33916">
        <ele>89.6</ele>
        <time>2022-09-18T08:25:35Z</time>
      </trkpt>
      <trkpt lat="46.5565" lon="0.33923">
        <ele>89.4</ele>
        <time>2022-09-18T08:25:40Z</time>
      </trkpt>
      <trkpt lat="46.55645" lon="0.33924">
        <ele>89.6</ele>
        <time>2022-09-18T08:25:41Z</time>
      </trkpt>
      <trkpt lat="46.55627" lon="0.33925">
        <ele>89.6</ele>
        <time>2022-09-18T08:25:44Z</time>
      </trkpt>
      <trkpt lat="46.55617" lon="0.33923">
        <ele>89.6</ele>
        <time>2022-09-18T08:25:46Z</time>
      </trkpt>
      <trkpt lat="46.55605" lon="0.33918">
        <ele>89</ele>
        <time>2022-09-18T08:25:49Z</time>
      </trkpt>
      <trkpt lat="46.55603" lon="0.33916">
        <ele>88.8</ele>
        <time>2022-09-18T08:25:50Z</time>
      </trkpt>
      <trkpt lat="46.5559" lon="0.33907">
        <ele>89</ele>
        <time>2022-09-18T08:25:56Z</time>
      </trkpt>
      <trkpt lat="46.55576" lon="0.33895">
        <ele>88.8</ele>
        <time>2022-09-18T08:26:02Z</time>
      </trkpt>
      <trkpt lat="46.55558" lon="0.33878">
        <ele>89.4</ele>
        <time>2022-09-18T08:26:07Z</time>
      </trkpt>
      <trkpt lat="46.55555" lon="0.33873">
        <ele>89.4</ele>
        <time>2022-09-18T08:26:08Z</time>
      </trkpt>
      <trkpt lat="46.55546" lon="0.33855">
        <ele>89.4</ele>
        <time>2022-09-18T08:26:11Z</time>
      </trkpt>
      <trkpt lat="46.55533" lon="0.33838">
        <ele>89.4</ele>
        <time>2022-09-18T08:26:14Z</time>
      </trkpt>
      <trkpt lat="46.5552" lon="0.33823">
        <ele>89.2</ele>
        <time>2022-09-18T08:26:17Z</time>
      </trkpt>
      <trkpt lat="46.55511" lon="0.33812">
        <ele>89.4</ele>
        <time>2022-09-18T08:26:19Z</time>
      </trkpt>
      <trkpt lat="46.55506" lon="0.33807">
        <ele>89.4</ele>
        <time>2022-09-18T08:26:20Z</time>
      </trkpt>
      <trkpt lat="46.55488" lon="0.33791">
        <ele>89.6</ele>
        <time>2022-09-18T08:26:24Z</time>
      </trkpt>
      <trkpt lat="46.55479" lon="0.33787">
        <ele>89.6</ele>
        <time>2022-09-18T08:26:26Z</time>
      </trkpt>
      <trkpt lat="46.55453" lon="0.33776">
        <ele>89.8</ele>
        <time>2022-09-18T08:26:32Z</time>
      </trkpt>
      <trkpt lat="46.55449" lon="0.33775">
        <ele>89.8</ele>
        <time>2022-09-18T08:26:33Z</time>
      </trkpt>
      <trkpt lat="46.55435" lon="0.33772">
        <ele>90</ele>
        <time>2022-09-18T08:26:36Z</time>
      </trkpt>
      <trkpt lat="46.5542" lon="0.33769">
        <ele>90.4</ele>
        <time>2022-09-18T08:26:39Z</time>
      </trkpt>
      <trkpt lat="46.55414" lon="0.33768">
        <ele>90.4</ele>
        <time>2022-09-18T08:26:40Z</time>
      </trkpt>
      <trkpt lat="46.55403" lon="0.33768">
        <ele>90.6</ele>
        <time>2022-09-18T08:26:42Z</time>
      </trkpt>
      <trkpt lat="46.55387" lon="0.33765">
        <ele>90.2</ele>
        <time>2022-09-18T08:26:45Z</time>
      </trkpt>
      <trkpt lat="46.55382" lon="0.33763">
        <ele>90.2</ele>
        <time>2022-09-18T08:26:46Z</time>
      </trkpt>
      <trkpt lat="46.5537" lon="0.33753">
        <ele>89.8</ele>
        <time>2022-09-18T08:26:49Z</time>
      </trkpt>
      <trkpt lat="46.55362" lon="0.33748">
        <ele>89.6</ele>
        <time>2022-09-18T08:26:51Z</time>
      </trkpt>
      <trkpt lat="46.55358" lon="0.33747">
        <ele>89.6</ele>
        <time>2022-09-18T08:26:52Z</time>
      </trkpt>
      <trkpt lat="46.55348" lon="0.33744">
        <ele>89.6</ele>
        <time>2022-09-18T08:26:56Z</time>
      </trkpt>
      <trkpt lat="46.55335" lon="0.33741">
        <ele>89.6</ele>
        <time>2022-09-18T08:26:59Z</time>
      </trkpt>
      <trkpt lat="46.5533" lon="0.33741">
        <ele>89.6</ele>
        <time>2022-09-18T08:27:00Z</time>
      </trkpt>
      <trkpt lat="46.5532" lon="0.33742">
        <ele>89.4</ele>
        <time>2022-09-18T08:27:02Z</time>
      </trkpt>
      <trkpt lat="46.55304" lon="0.33742">
        <ele>89.6</ele>
        <time>2022-09-18T08:27:05Z</time>
      </trkpt>
      <trkpt lat="46.55272" lon="0.33742">
        <ele>89.8</ele>
        <time>2022-09-18T08:27:11Z</time>
      </trkpt>
      <trkpt lat="46.55234" lon="0.33743">
        <ele>89.8</ele>
        <time>2022-09-18T08:27:18Z</time>
      </trkpt>
      <trkpt lat="46.55209" lon="0.33742">
        <ele>90</ele>
        <time>2022-09-18T08:27:23Z</time>
      </trkpt>
      <trkpt lat="46.55195" lon="0.3374">
        <ele>89.8</ele>
        <time>2022-09-18T08:27:26Z</time>
      </trkpt>
      <trkpt lat="46.55163" lon="0.33737">
        <ele>89.6</ele>
        <time>2022-09-18T08:27:32Z</time>
      </trkpt>
      <trkpt lat="46.55153" lon="0.33736">
        <ele>89.6</ele>
        <time>2022-09-18T08:27:34Z</time>
      </trkpt>
      <trkpt lat="46.55132" lon="0.33734">
        <ele>89.8</ele>
        <time>2022-09-18T08:27:38Z</time>
      </trkpt>
      <trkpt lat="46.55102" lon="0.33731">
        <ele>90</ele>
        <time>2022-09-18T08:27:44Z</time>
      </trkpt>
      <trkpt lat="46.55087" lon="0.33728">
        <ele>90</ele>
        <time>2022-09-18T08:27:47Z</time>
      </trkpt>
      <trkpt lat="46.55072" lon="0.33724">
        <ele>90.2</ele>
        <time>2022-09-18T08:27:50Z</time>
      </trkpt>
      <trkpt lat="46.55067" lon="0.33722">
        <ele>90</ele>
        <time>2022-09-18T08:27:51Z</time>
      </trkpt>
      <trkpt lat="46.55058" lon="0.33719">
        <ele>90</ele>
        <time>2022-09-18T08:27:53Z</time>
      </trkpt>
      <trkpt lat="46.55046" lon="0.3372">
        <ele>90</ele>
        <time>2022-09-18T08:27:56Z</time>
      </trkpt>
      <trkpt lat="46.55027" lon="0.33717">
        <ele>89.6</ele>
        <time>2022-09-18T08:28:03Z</time>
      </trkpt>
      <trkpt lat="46.55024" lon="0.33719">
        <ele>89.6</ele>
        <time>2022-09-18T08:28:05Z</time>
      </trkpt>
      <trkpt lat="46.5502" lon="0.33726">
        <ele>90.2</ele>
        <time>2022-09-18T08:28:08Z</time>
      </trkpt>
      <trkpt lat="46.55014" lon="0.33752">
        <ele>90.6</ele>
        <time>2022-09-18T08:28:15Z</time>
      </trkpt>
      <trkpt lat="46.55008" lon="0.33765">
        <ele>90.6</ele>
        <time>2022-09-18T08:28:19Z</time>
      </trkpt>
      <trkpt lat="46.55006" lon="0.33767">
        <ele>90.4</ele>
        <time>2022-09-18T08:28:20Z</time>
      </trkpt>
      <trkpt lat="46.54993" lon="0.33772">
        <ele>90.4</ele>
        <time>2022-09-18T08:28:26Z</time>
      </trkpt>
      <trkpt lat="46.54975" lon="0.33777">
        <ele>90.4</ele>
        <time>2022-09-18T08:28:34Z</time>
      </trkpt>
      <trkpt lat="46.54969" lon="0.3378">
        <ele>90.4</ele>
        <time>2022-09-18T08:28:39Z</time>
      </trkpt>
      <trkpt lat="46.54963" lon="0.33777">
        <ele>90</ele>
        <time>2022-09-18T08:28:47Z</time>
      </trkpt>
      <trkpt lat="46.54962" lon="0.33774">
        <ele>90.2</ele>
        <time>2022-09-18T08:28:50Z</time>
      </trkpt>
      <trkpt lat="46.54962" lon="0.3377">
        <ele>90.2</ele>
        <time>2022-09-18T08:28:56Z</time>
      </trkpt>
      <trkpt lat="46.5496" lon="0.33768">
        <ele>90.4</ele>
        <time>2022-09-18T08:29:05Z</time>
      </trkpt>
      <trkpt lat="46.5496" lon="0.33768">
        <ele>90.2</ele>
        <time>2022-09-18T08:29:23Z</time>
      </trkpt>
      <trkpt lat="46.5496" lon="0.33769">
        <ele>90.4</ele>
        <time>2022-09-18T08:29:42Z</time>
      </trkpt>
      <trkpt lat="46.5496" lon="0.3377">
        <ele>90.2</ele>
        <time>2022-09-18T08:29:52Z</time>
      </trkpt>
      <trkpt lat="46.5496" lon="0.3377">
        <ele>90</ele>
        <time>2022-09-18T08:30:01Z</time>
      </trkpt>
      <trkpt lat="46.5496" lon="0.33771">
        <ele>90</ele>
        <time>2022-09-18T08:30:02Z</time>
      </trkpt>
      <trkpt lat="46.54963" lon="0.33768">
        <ele>90</ele>
        <time>2022-09-18T08:30:10Z</time>
      </trkpt>
      <trkpt lat="46.54966" lon="0.33769">
        <ele>90</ele>
        <time>2022-09-18T08:30:12Z</time>
      </trkpt>
      <trkpt lat="46.54971" lon="0.33774">
        <ele>90</ele>
        <time>2022-09-18T08:30:15Z</time>
      </trkpt>
      <trkpt lat="46.54984" lon="0.33781">
        <ele>90</ele>
        <time>2022-09-18T08:30:21Z</time>
      </trkpt>
      <trkpt lat="46.54993" lon="0.33783">
        <ele>90</ele>
        <time>2022-09-18T08:30:26Z</time>
      </trkpt>
      <trkpt lat="46.54997" lon="0.33783">
        <ele>90</ele>
        <time>2022-09-18T08:30:29Z</time>
      </trkpt>
      <trkpt lat="46.55001" lon="0.33779">
        <ele>90</ele>
        <time>2022-09-18T08:30:31Z</time>
      </trkpt>
      <trkpt lat="46.55006" lon="0.33759">
        <ele>89.8</ele>
        <time>2022-09-18T08:30:36Z</time>
      </trkpt>
      <trkpt lat="46.55009" lon="0.33734">
        <ele>90</ele>
        <time>2022-09-18T08:30:41Z</time>
      </trkpt>
      <trkpt lat="46.55011" lon="0.33704">
        <ele>90</ele>
        <time>2022-09-18T08:30:47Z</time>
      </trkpt>
      <trkpt lat="46.55015" lon="0.33678">
        <ele>90</ele>
        <time>2022-09-18T08:30:53Z</time>
      </trkpt>
      <trkpt lat="46.5502" lon="0.33655">
        <ele>90</ele>
        <time>2022-09-18T08:30:59Z</time>
      </trkpt>
      <trkpt lat="46.5502" lon="0.33646">
        <ele>90.2</ele>
        <time>2022-09-18T08:31:04Z</time>
      </trkpt>
      <trkpt lat="46.55019" lon="0.33641">
        <ele>90</ele>
        <time>2022-09-18T08:31:20Z</time>
      </trkpt>
      <trkpt lat="46.55016" lon="0.33645">
        <ele>90</ele>
        <time>2022-09-18T08:31:23Z</time>
      </trkpt>
      <trkpt lat="46.55015" lon="0.33648">
        <ele>90</ele>
        <time>2022-09-18T08:31:24Z</time>
      </trkpt>
      <trkpt lat="46.55016" lon="0.33673">
        <ele>90</ele>
        <time>2022-09-18T08:31:30Z</time>
      </trkpt>
      <trkpt lat="46.55012" lon="0.33692">
        <ele>89.8</ele>
        <time>2022-09-18T08:31:35Z</time>
      </trkpt>
      <trkpt lat="46.55006" lon="0.33718">
        <ele>89.8</ele>
        <time>2022-09-18T08:31:40Z</time>
      </trkpt>
      <trkpt lat="46.55001" lon="0.33757">
        <ele>90</ele>
        <time>2022-09-18T08:31:47Z</time>
      </trkpt>
      <trkpt lat="46.54998" lon="0.33782">
        <ele>90</ele>
        <time>2022-09-18T08:31:51Z</time>
      </trkpt>
      <trkpt lat="46.54997" lon="0.33795">
        <ele>90.2</ele>
        <time>2022-09-18T08:31:53Z</time>
      </trkpt>
      <trkpt lat="46.54997" lon="0.33812">
        <ele>90</ele>
        <time>2022-09-18T08:31:56Z</time>
      </trkpt>
      <trkpt lat="46.55001" lon="0.33818">
        <ele>90</ele>
        <time>2022-09-18T08:31:58Z</time>
      </trkpt>
      <trkpt lat="46.55004" lon="0.33822">
        <ele>89.8</ele>
        <time>2022-09-18T08:32:01Z</time>
      </trkpt>
      <trkpt lat="46.55004" lon="0.33827">
        <ele>89.8</ele>
        <time>2022-09-18T08:32:03Z</time>
      </trkpt>
      <trkpt lat="46.55005" lon="0.33843">
        <ele>89.4</ele>
        <time>2022-09-18T08:32:08Z</time>
      </trkpt>
      <trkpt lat="46.55004" lon="0.33849">
        <ele>89.6</ele>
        <time>2022-09-18T08:32:10Z</time>
      </trkpt>
      <trkpt lat="46.55003" lon="0.33851">
        <ele>89.6</ele>
        <time>2022-09-18T08:32:12Z</time>
      </trkpt>
      <trkpt lat="46.54992" lon="0.33859">
        <ele>89.6</ele>
        <time>2022-09-18T08:32:17Z</time>
      </trkpt>
      <trkpt lat="46.54992" lon="0.33879">
        <ele>89.8</ele>
        <time>2022-09-18T08:32:21Z</time>
      </trkpt>
      <trkpt lat="46.5499" lon="0.33895">
        <ele>89.8</ele>
        <time>2022-09-18T08:32:24Z</time>
      </trkpt>
      <trkpt lat="46.54987" lon="0.33898">
        <ele>89.8</ele>
        <time>2022-09-18T08:32:25Z</time>
      </trkpt>
      <trkpt lat="46.54977" lon="0.33895">
        <ele>89.8</ele>
        <time>2022-09-18T08:32:29Z</time>
      </trkpt>
      <trkpt lat="46.54961" lon="0.33888">
        <ele>90</ele>
        <time>2022-09-18T08:32:34Z</time>
      </trkpt>
      <trkpt lat="46.54934" lon="0.33864">
        <ele>90</ele>
        <time>2022-09-18T08:32:41Z</time>
      </trkpt>
      <trkpt lat="46.54929" lon="0.3386">
        <ele>90.2</ele>
        <time>2022-09-18T08:32:42Z</time>
      </trkpt>
      <trkpt lat="46.54913" lon="0.33847">
        <ele>91.2</ele>
        <time>2022-09-18T08:32:47Z</time>
      </trkpt>
      <trkpt lat="46.54902" lon="0.33841">
        <ele>92.4</ele>
        <time>2022-09-18T08:32:52Z</time>
      </trkpt>
      <trkpt lat="46.54898" lon="0.33838">
        <ele>93.2</ele>
        <time>2022-09-18T08:32:54Z</time>
      </trkpt>
      <trkpt lat="46.54896" lon="0.33837">
        <ele>93.6</ele>
        <time>2022-09-18T08:32:55Z</time>
      </trkpt>
      <trkpt lat="46.5489" lon="0.33832">
        <ele>94.6</ele>
        <time>2022-09-18T08:32:59Z</time>
      </trkpt>
      <trkpt lat="46.54885" lon="0.33828">
        <ele>95.2</ele>
        <time>2022-09-18T08:33:02Z</time>
      </trkpt>
      <trkpt lat="46.5488" lon="0.33826">
        <ele>95.6</ele>
        <time>2022-09-18T08:33:04Z</time>
      </trkpt>
      <trkpt lat="46.54874" lon="0.33822">
        <ele>96.6</ele>
        <time>2022-09-18T08:33:07Z</time>
      </trkpt>
      <trkpt lat="46.54864" lon="0.33817">
        <ele>97.8</ele>
        <time>2022-09-18T08:33:12Z</time>
      </trkpt>
      <trkpt lat="46.54855" lon="0.33812">
        <ele>99</ele>
        <time>2022-09-18T08:33:16Z</time>
      </trkpt>
      <trkpt lat="46.54846" lon="0.33805">
        <ele>99.8</ele>
        <time>2022-09-18T08:33:21Z</time>
      </trkpt>
      <trkpt lat="46.54844" lon="0.33804">
        <ele>100</ele>
        <time>2022-09-18T08:33:22Z</time>
      </trkpt>
      <trkpt lat="46.54834" lon="0.338">
        <ele>101.4</ele>
        <time>2022-09-18T08:33:27Z</time>
      </trkpt>
      <trkpt lat="46.54832" lon="0.33799">
        <ele>101.6</ele>
        <time>2022-09-18T08:33:28Z</time>
      </trkpt>
      <trkpt lat="46.54826" lon="0.33796">
        <ele>102.4</ele>
        <time>2022-09-18T08:33:31Z</time>
      </trkpt>
      <trkpt lat="46.54817" lon="0.3379">
        <ele>103.6</ele>
        <time>2022-09-18T08:33:36Z</time>
      </trkpt>
      <trkpt lat="46.54816" lon="0.33788">
        <ele>103.8</ele>
        <time>2022-09-18T08:33:37Z</time>
      </trkpt>
      <trkpt lat="46.54811" lon="0.33784">
        <ele>104.6</ele>
        <time>2022-09-18T08:33:40Z</time>
      </trkpt>
      <trkpt lat="46.54805" lon="0.33779">
        <ele>105.8</ele>
        <time>2022-09-18T08:33:44Z</time>
      </trkpt>
      <trkpt lat="46.54804" lon="0.33778">
        <ele>106</ele>
        <time>2022-09-18T08:33:45Z</time>
      </trkpt>
      <trkpt lat="46.54799" lon="0.33774">
        <ele>106.8</ele>
        <time>2022-09-18T08:33:49Z</time>
      </trkpt>
      <trkpt lat="46.54795" lon="0.3377">
        <ele>107.6</ele>
        <time>2022-09-18T08:33:52Z</time>
      </trkpt>
      <trkpt lat="46.54792" lon="0.33768">
        <ele>108.2</ele>
        <time>2022-09-18T08:33:54Z</time>
      </trkpt>
      <trkpt lat="46.54785" lon="0.33762">
        <ele>109.2</ele>
        <time>2022-09-18T08:33:59Z</time>
      </trkpt>
      <trkpt lat="46.54784" lon="0.3376">
        <ele>109.4</ele>
        <time>2022-09-18T08:34:00Z</time>
      </trkpt>
      <trkpt lat="46.54776" lon="0.33755">
        <ele>110.6</ele>
        <time>2022-09-18T08:34:06Z</time>
      </trkpt>
      <trkpt lat="46.54766" lon="0.33748">
        <ele>111.6</ele>
        <time>2022-09-18T08:34:12Z</time>
      </trkpt>
      <trkpt lat="46.54763" lon="0.33746">
        <ele>112</ele>
        <time>2022-09-18T08:34:14Z</time>
      </trkpt>
      <trkpt lat="46.54755" lon="0.3374">
        <ele>112.6</ele>
        <time>2022-09-18T08:34:18Z</time>
      </trkpt>
      <trkpt lat="46.54743" lon="0.33736">
        <ele>113.6</ele>
        <time>2022-09-18T08:34:23Z</time>
      </trkpt>
      <trkpt lat="46.54736" lon="0.33734">
        <ele>113.8</ele>
        <time>2022-09-18T08:34:26Z</time>
      </trkpt>
      <trkpt lat="46.54724" lon="0.33729">
        <ele>114.8</ele>
        <time>2022-09-18T08:34:31Z</time>
      </trkpt>
      <trkpt lat="46.5472" lon="0.33727">
        <ele>115</ele>
        <time>2022-09-18T08:34:33Z</time>
      </trkpt>
      <trkpt lat="46.54703" lon="0.33721">
        <ele>115.8</ele>
        <time>2022-09-18T08:34:41Z</time>
      </trkpt>
      <trkpt lat="46.54701" lon="0.33721">
        <ele>116</ele>
        <time>2022-09-18T08:34:42Z</time>
      </trkpt>
      <trkpt lat="46.54688" lon="0.33718">
        <ele>117</ele>
        <time>2022-09-18T08:34:48Z</time>
      </trkpt>
      <trkpt lat="46.54683" lon="0.33717">
        <ele>117.2</ele>
        <time>2022-09-18T08:34:50Z</time>
      </trkpt>
      <trkpt lat="46.54666" lon="0.33709">
        <ele>118</ele>
        <time>2022-09-18T08:34:57Z</time>
      </trkpt>
      <trkpt lat="46.54641" lon="0.33695">
        <ele>118</ele>
        <time>2022-09-18T08:35:04Z</time>
      </trkpt>
      <trkpt lat="46.54606" lon="0.33673">
        <ele>117.8</ele>
        <time>2022-09-18T08:35:12Z</time>
      </trkpt>
      <trkpt lat="46.54592" lon="0.33667">
        <ele>117.4</ele>
        <time>2022-09-18T08:35:15Z</time>
      </trkpt>
      <trkpt lat="46.54586" lon="0.33657">
        <ele>117.4</ele>
        <time>2022-09-18T08:35:17Z</time>
      </trkpt>
      <trkpt lat="46.54589" lon="0.33634">
        <ele>117.2</ele>
        <time>2022-09-18T08:35:20Z</time>
      </trkpt>
      <trkpt lat="46.5459" lon="0.33625">
        <ele>116.6</ele>
        <time>2022-09-18T08:35:21Z</time>
      </trkpt>
      <trkpt lat="46.54594" lon="0.3361">
        <ele>115</ele>
        <time>2022-09-18T08:35:23Z</time>
      </trkpt>
      <trkpt lat="46.54597" lon="0.33606">
        <ele>113.8</ele>
        <time>2022-09-18T08:35:24Z</time>
      </trkpt>
      <trkpt lat="46.54601" lon="0.33605">
        <ele>112.6</ele>
        <time>2022-09-18T08:35:25Z</time>
      </trkpt>
      <trkpt lat="46.54609" lon="0.33611">
        <ele>111.2</ele>
        <time>2022-09-18T08:35:27Z</time>
      </trkpt>
      <trkpt lat="46.54629" lon="0.33629">
        <ele>110.2</ele>
        <time>2022-09-18T08:35:31Z</time>
      </trkpt>
      <trkpt lat="46.54635" lon="0.33633">
        <ele>110.2</ele>
        <time>2022-09-18T08:35:32Z</time>
      </trkpt>
      <trkpt lat="46.5464" lon="0.33637">
        <ele>109.8</ele>
        <time>2022-09-18T08:35:33Z</time>
      </trkpt>
      <trkpt lat="46.54646" lon="0.33641">
        <ele>109.8</ele>
        <time>2022-09-18T08:35:34Z</time>
      </trkpt>
      <trkpt lat="46.54663" lon="0.33646">
        <ele>109.4</ele>
        <time>2022-09-18T08:35:37Z</time>
      </trkpt>
      <trkpt lat="46.54669" lon="0.33647">
        <ele>109.2</ele>
        <time>2022-09-18T08:35:38Z</time>
      </trkpt>
      <trkpt lat="46.54687" lon="0.33642">
        <ele>108.8</ele>
        <time>2022-09-18T08:35:41Z</time>
      </trkpt>
      <trkpt lat="46.54696" lon="0.33638">
        <ele>108.4</ele>
        <time>2022-09-18T08:35:43Z</time>
      </trkpt>
      <trkpt lat="46.54699" lon="0.33636">
        <ele>108.4</ele>
        <time>2022-09-18T08:35:44Z</time>
      </trkpt>
      <trkpt lat="46.54703" lon="0.33633">
        <ele>108.2</ele>
        <time>2022-09-18T08:35:46Z</time>
      </trkpt>
      <trkpt lat="46.54717" lon="0.33617">
        <ele>108.2</ele>
        <time>2022-09-18T08:35:51Z</time>
      </trkpt>
      <trkpt lat="46.5474" lon="0.33583">
        <ele>108.4</ele>
        <time>2022-09-18T08:35:58Z</time>
      </trkpt>
      <trkpt lat="46.54756" lon="0.33554">
        <ele>108.6</ele>
        <time>2022-09-18T08:36:03Z</time>
      </trkpt>
      <trkpt lat="46.5476" lon="0.33548">
        <ele>108.6</ele>
        <time>2022-09-18T08:36:04Z</time>
      </trkpt>
      <trkpt lat="46.54793" lon="0.33486">
        <ele>108.2</ele>
        <time>2022-09-18T08:36:13Z</time>
      </trkpt>
      <trkpt lat="46.54822" lon="0.33431">
        <ele>108.4</ele>
        <time>2022-09-18T08:36:21Z</time>
      </trkpt>
      <trkpt lat="46.5485" lon="0.33389">
        <ele>108.2</ele>
        <time>2022-09-18T08:36:28Z</time>
      </trkpt>
      <trkpt lat="46.54858" lon="0.33381">
        <ele>108.4</ele>
        <time>2022-09-18T08:36:30Z</time>
      </trkpt>
      <trkpt lat="46.54875" lon="0.33365">
        <ele>108.4</ele>
        <time>2022-09-18T08:36:34Z</time>
      </trkpt>
      <trkpt lat="46.54892" lon="0.33351">
        <ele>108.4</ele>
        <time>2022-09-18T08:36:38Z</time>
      </trkpt>
      <trkpt lat="46.549" lon="0.33346">
        <ele>108.4</ele>
        <time>2022-09-18T08:36:40Z</time>
      </trkpt>
      <trkpt lat="46.54917" lon="0.33339">
        <ele>108.4</ele>
        <time>2022-09-18T08:36:44Z</time>
      </trkpt>
      <trkpt lat="46.54925" lon="0.33339">
        <ele>108.4</ele>
        <time>2022-09-18T08:36:46Z</time>
      </trkpt>
      <trkpt lat="46.54934" lon="0.33341">
        <ele>108.6</ele>
        <time>2022-09-18T08:36:50Z</time>
      </trkpt>
      <trkpt lat="46.54942" lon="0.33346">
        <ele>108.2</ele>
        <time>2022-09-18T08:36:57Z</time>
      </trkpt>
      <trkpt lat="46.54951" lon="0.33351">
        <ele>108.4</ele>
        <time>2022-09-18T08:37:04Z</time>
      </trkpt>
      <trkpt lat="46.54951" lon="0.33351">
        <ele>108.4</ele>
        <time>2022-09-18T08:37:05Z</time>
      </trkpt>
      <trkpt lat="46.54948" lon="0.3335">
        <ele>108.4</ele>
        <time>2022-09-18T08:37:09Z</time>
      </trkpt>
      <trkpt lat="46.54942" lon="0.33342">
        <ele>109.4</ele>
        <time>2022-09-18T08:37:14Z</time>
      </trkpt>
      <trkpt lat="46.54941" lon="0.33339">
        <ele>110</ele>
        <time>2022-09-18T08:37:16Z</time>
      </trkpt>
      <trkpt lat="46.5494" lon="0.33334">
        <ele>110.6</ele>
        <time>2022-09-18T08:37:18Z</time>
      </trkpt>
      <trkpt lat="46.54938" lon="0.3333">
        <ele>111.4</ele>
        <time>2022-09-18T08:37:20Z</time>
      </trkpt>
      <trkpt lat="46.54938" lon="0.33328">
        <ele>112</ele>
        <time>2022-09-18T08:37:21Z</time>
      </trkpt>
      <trkpt lat="46.54934" lon="0.33321">
        <ele>113.4</ele>
        <time>2022-09-18T08:37:25Z</time>
      </trkpt>
      <trkpt lat="46.54932" lon="0.33318">
        <ele>113.8</ele>
        <time>2022-09-18T08:37:27Z</time>
      </trkpt>
      <trkpt lat="46.54931" lon="0.33315">
        <ele>114</ele>
        <time>2022-09-18T08:37:29Z</time>
      </trkpt>
      <trkpt lat="46.54929" lon="0.33312">
        <ele>114.4</ele>
        <time>2022-09-18T08:37:31Z</time>
      </trkpt>
      <trkpt lat="46.54926" lon="0.33309">
        <ele>115.2</ele>
        <time>2022-09-18T08:37:33Z</time>
      </trkpt>
      <trkpt lat="46.54924" lon="0.33307">
        <ele>115.6</ele>
        <time>2022-09-18T08:37:34Z</time>
      </trkpt>
      <trkpt lat="46.54923" lon="0.33305">
        <ele>116.4</ele>
        <time>2022-09-18T08:37:36Z</time>
      </trkpt>
      <trkpt lat="46.54922" lon="0.33305">
        <ele>116.6</ele>
        <time>2022-09-18T08:37:37Z</time>
      </trkpt>
      <trkpt lat="46.54918" lon="0.33302">
        <ele>117</ele>
        <time>2022-09-18T08:37:41Z</time>
      </trkpt>
      <trkpt lat="46.54917" lon="0.33301">
        <ele>117.6</ele>
        <time>2022-09-18T08:37:43Z</time>
      </trkpt>
      <trkpt lat="46.54916" lon="0.333">
        <ele>117.8</ele>
        <time>2022-09-18T08:37:44Z</time>
      </trkpt>
      <trkpt lat="46.54912" lon="0.33296">
        <ele>118.6</ele>
        <time>2022-09-18T08:37:48Z</time>
      </trkpt>
      <trkpt lat="46.5491" lon="0.33295">
        <ele>118.8</ele>
        <time>2022-09-18T08:37:49Z</time>
      </trkpt>
      <trkpt lat="46.54909" lon="0.33294">
        <ele>118.8</ele>
        <time>2022-09-18T08:37:50Z</time>
      </trkpt>
      <trkpt lat="46.54907" lon="0.33293">
        <ele>119.2</ele>
        <time>2022-09-18T08:37:51Z</time>
      </trkpt>
      <trkpt lat="46.54904" lon="0.33289">
        <ele>120</ele>
        <time>2022-09-18T08:37:54Z</time>
      </trkpt>
      <trkpt lat="46.54899" lon="0.33283">
        <ele>121.2</ele>
        <time>2022-09-18T08:37:58Z</time>
      </trkpt>
      <trkpt lat="46.54896" lon="0.33279">
        <ele>121.6</ele>
        <time>2022-09-18T08:38:00Z</time>
      </trkpt>
      <trkpt lat="46.54892" lon="0.33273">
        <ele>122.2</ele>
        <time>2022-09-18T08:38:05Z</time>
      </trkpt>
      <trkpt lat="46.54888" lon="0.33268">
        <ele>123.4</ele>
        <time>2022-09-18T08:38:09Z</time>
      </trkpt>
      <trkpt lat="46.54885" lon="0.33264">
        <ele>124.8</ele>
        <time>2022-09-18T08:38:12Z</time>
      </trkpt>
      <trkpt lat="46.5488" lon="0.33259">
        <ele>126</ele>
        <time>2022-09-18T08:38:17Z</time>
      </trkpt>
      <trkpt lat="46.54875" lon="0.33251">
        <ele>127</ele>
        <time>2022-09-18T08:38:22Z</time>
      </trkpt>
      <trkpt lat="46.54874" lon="0.3325">
        <ele>127</ele>
        <time>2022-09-18T08:38:23Z</time>
      </trkpt>
      <trkpt lat="46.5487" lon="0.33245">
        <ele>128.2</ele>
        <time>2022-09-18T08:38:27Z</time>
      </trkpt>
      <trkpt lat="46.54866" lon="0.33238">
        <ele>129.4</ele>
        <time>2022-09-18T08:38:32Z</time>
      </trkpt>
      <trkpt lat="46.54861" lon="0.3323">
        <ele>130.2</ele>
        <time>2022-09-18T08:38:38Z</time>
      </trkpt>
      <trkpt lat="46.5486" lon="0.33229">
        <ele>130.4</ele>
        <time>2022-09-18T08:38:39Z</time>
      </trkpt>
      <trkpt lat="46.54856" lon="0.3322">
        <ele>131.4</ele>
        <time>2022-09-18T08:38:45Z</time>
      </trkpt>
      <trkpt lat="46.54853" lon="0.33212">
        <ele>132.2</ele>
        <time>2022-09-18T08:38:50Z</time>
      </trkpt>
      <trkpt lat="46.54849" lon="0.33202">
        <ele>132.6</ele>
        <time>2022-09-18T08:38:55Z</time>
      </trkpt>
      <trkpt lat="46.54843" lon="0.33187">
        <ele>133.6</ele>
        <time>2022-09-18T08:39:02Z</time>
      </trkpt>
      <trkpt lat="46.5484" lon="0.33174">
        <ele>134</ele>
        <time>2022-09-18T08:39:07Z</time>
      </trkpt>
      <trkpt lat="46.54836" lon="0.33163">
        <ele>134.6</ele>
        <time>2022-09-18T08:39:11Z</time>
      </trkpt>
      <trkpt lat="46.54835" lon="0.33161">
        <ele>134.8</ele>
        <time>2022-09-18T08:39:12Z</time>
      </trkpt>
      <trkpt lat="46.54833" lon="0.33148">
        <ele>135.2</ele>
        <time>2022-09-18T08:39:16Z</time>
      </trkpt>
      <trkpt lat="46.54832" lon="0.33145">
        <ele>135.2</ele>
        <time>2022-09-18T08:39:17Z</time>
      </trkpt>
      <trkpt lat="46.54829" lon="0.33127">
        <ele>136.2</ele>
        <time>2022-09-18T08:39:23Z</time>
      </trkpt>
      <trkpt lat="46.54826" lon="0.33105">
        <ele>137.4</ele>
        <time>2022-09-18T08:39:30Z</time>
      </trkpt>
      <trkpt lat="46.54823" lon="0.33092">
        <ele>138.4</ele>
        <time>2022-09-18T08:39:35Z</time>
      </trkpt>
      <trkpt lat="46.54821" lon="0.3308">
        <ele>138.8</ele>
        <time>2022-09-18T08:39:38Z</time>
      </trkpt>
      <trkpt lat="46.54817" lon="0.33053">
        <ele>139.4</ele>
        <time>2022-09-18T08:39:45Z</time>
      </trkpt>
      <trkpt lat="46.54816" lon="0.33049">
        <ele>139.6</ele>
        <time>2022-09-18T08:39:46Z</time>
      </trkpt>
      <trkpt lat="46.54814" lon="0.33028">
        <ele>140.2</ele>
        <time>2022-09-18T08:39:51Z</time>
      </trkpt>
      <trkpt lat="46.54811" lon="0.33">
        <ele>140.6</ele>
        <time>2022-09-18T08:39:57Z</time>
      </trkpt>
      <trkpt lat="46.54811" lon="0.32995">
        <ele>140.8</ele>
        <time>2022-09-18T08:39:58Z</time>
      </trkpt>
      <trkpt lat="46.54811" lon="0.32973">
        <ele>141.2</ele>
        <time>2022-09-18T08:40:03Z</time>
      </trkpt>
      <trkpt lat="46.54813" lon="0.32941">
        <ele>141.4</ele>
        <time>2022-09-18T08:40:09Z</time>
      </trkpt>
      <trkpt lat="46.54809" lon="0.3291">
        <ele>141.8</ele>
        <time>2022-09-18T08:40:14Z</time>
      </trkpt>
      <trkpt lat="46.54807" lon="0.32904">
        <ele>141.8</ele>
        <time>2022-09-18T08:40:15Z</time>
      </trkpt>
      <trkpt lat="46.54804" lon="0.32892">
        <ele>141.8</ele>
        <time>2022-09-18T08:40:17Z</time>
      </trkpt>
      <trkpt lat="46.548" lon="0.32886">
        <ele>141.6</ele>
        <time>2022-09-18T08:40:19Z</time>
      </trkpt>
      <trkpt lat="46.54796" lon="0.32891">
        <ele>141.2</ele>
        <time>2022-09-18T08:40:23Z</time>
      </trkpt>
      <trkpt lat="46.54793" lon="0.32896">
        <ele>141.2</ele>
        <time>2022-09-18T08:40:25Z</time>
      </trkpt>
      <trkpt lat="46.54787" lon="0.32908">
        <ele>141.6</ele>
        <time>2022-09-18T08:40:28Z</time>
      </trkpt>
      <trkpt lat="46.54778" lon="0.32918">
        <ele>142</ele>
        <time>2022-09-18T08:40:31Z</time>
      </trkpt>
      <trkpt lat="46.5477" lon="0.32923">
        <ele>142.2</ele>
        <time>2022-09-18T08:40:33Z</time>
      </trkpt>
      <trkpt lat="46.54766" lon="0.32925">
        <ele>142.2</ele>
        <time>2022-09-18T08:40:34Z</time>
      </trkpt>
      <trkpt lat="46.54754" lon="0.32933">
        <ele>142</ele>
        <time>2022-09-18T08:40:37Z</time>
      </trkpt>
      <trkpt lat="46.54749" lon="0.32937">
        <ele>142</ele>
        <time>2022-09-18T08:40:38Z</time>
      </trkpt>
      <trkpt lat="46.54734" lon="0.32953">
        <ele>141.6</ele>
        <time>2022-09-18T08:40:41Z</time>
      </trkpt>
      <trkpt lat="46.5473" lon="0.32956">
        <ele>141.6</ele>
        <time>2022-09-18T08:40:42Z</time>
      </trkpt>
      <trkpt lat="46.54726" lon="0.32956">
        <ele>141.6</ele>
        <time>2022-09-18T08:40:43Z</time>
      </trkpt>
      <trkpt lat="46.54718" lon="0.32951">
        <ele>141.6</ele>
        <time>2022-09-18T08:40:45Z</time>
      </trkpt>
      <trkpt lat="46.54706" lon="0.32939">
        <ele>141.4</ele>
        <time>2022-09-18T08:40:48Z</time>
      </trkpt>
      <trkpt lat="46.54702" lon="0.32936">
        <ele>141.2</ele>
        <time>2022-09-18T08:40:49Z</time>
      </trkpt>
      <trkpt lat="46.54697" lon="0.32934">
        <ele>141</ele>
        <time>2022-09-18T08:40:50Z</time>
      </trkpt>
      <trkpt lat="46.54693" lon="0.32927">
        <ele>140.8</ele>
        <time>2022-09-18T08:40:52Z</time>
      </trkpt>
      <trkpt lat="46.54692" lon="0.32924">
        <ele>140.8</ele>
        <time>2022-09-18T08:40:53Z</time>
      </trkpt>
      <trkpt lat="46.54692" lon="0.32921">
        <ele>140.6</ele>
        <time>2022-09-18T08:40:54Z</time>
      </trkpt>
      <trkpt lat="46.54692" lon="0.32912">
        <ele>140.6</ele>
        <time>2022-09-18T08:40:56Z</time>
      </trkpt>
      <trkpt lat="46.5469" lon="0.32908">
        <ele>140.6</ele>
        <time>2022-09-18T08:40:57Z</time>
      </trkpt>
      <trkpt lat="46.54687" lon="0.32904">
        <ele>140.6</ele>
        <time>2022-09-18T08:40:58Z</time>
      </trkpt>
      <trkpt lat="46.54679" lon="0.32897">
        <ele>140.6</ele>
        <time>2022-09-18T08:41:00Z</time>
      </trkpt>
      <trkpt lat="46.54674" lon="0.32895">
        <ele>140.6</ele>
        <time>2022-09-18T08:41:01Z</time>
      </trkpt>
      <trkpt lat="46.54669" lon="0.32893">
        <ele>140.6</ele>
        <time>2022-09-18T08:41:02Z</time>
      </trkpt>
      <trkpt lat="46.54657" lon="0.32881">
        <ele>140.4</ele>
        <time>2022-09-18T08:41:05Z</time>
      </trkpt>
      <trkpt lat="46.54646" lon="0.32867">
        <ele>139.8</ele>
        <time>2022-09-18T08:41:08Z</time>
      </trkpt>
      <trkpt lat="46.54643" lon="0.32863">
        <ele>139.8</ele>
        <time>2022-09-18T08:41:09Z</time>
      </trkpt>
      <trkpt lat="46.54641" lon="0.32861">
        <ele>139.6</ele>
        <time>2022-09-18T08:41:10Z</time>
      </trkpt>
      <trkpt lat="46.54634" lon="0.32856">
        <ele>139.4</ele>
        <time>2022-09-18T08:41:13Z</time>
      </trkpt>
      <trkpt lat="46.54618" lon="0.32837">
        <ele>138.8</ele>
        <time>2022-09-18T08:41:18Z</time>
      </trkpt>
      <trkpt lat="46.54614" lon="0.32832">
        <ele>138.8</ele>
        <time>2022-09-18T08:41:19Z</time>
      </trkpt>
      <trkpt lat="46.54611" lon="0.32827">
        <ele>138.4</ele>
        <time>2022-09-18T08:41:20Z</time>
      </trkpt>
      <trkpt lat="46.54608" lon="0.32821">
        <ele>138.2</ele>
        <time>2022-09-18T08:41:21Z</time>
      </trkpt>
      <trkpt lat="46.54603" lon="0.32808">
        <ele>137.6</ele>
        <time>2022-09-18T08:41:23Z</time>
      </trkpt>
      <trkpt lat="46.54599" lon="0.32804">
        <ele>137.2</ele>
        <time>2022-09-18T08:41:24Z</time>
      </trkpt>
      <trkpt lat="46.54595" lon="0.32801">
        <ele>137</ele>
        <time>2022-09-18T08:41:25Z</time>
      </trkpt>
      <trkpt lat="46.54589" lon="0.32798">
        <ele>137</ele>
        <time>2022-09-18T08:41:26Z</time>
      </trkpt>
      <trkpt lat="46.54585" lon="0.32794">
        <ele>136.8</ele>
        <time>2022-09-18T08:41:27Z</time>
      </trkpt>
      <trkpt lat="46.54575" lon="0.32778">
        <ele>136.2</ele>
        <time>2022-09-18T08:41:30Z</time>
      </trkpt>
      <trkpt lat="46.54567" lon="0.32765">
        <ele>134.6</ele>
        <time>2022-09-18T08:41:34Z</time>
      </trkpt>
      <trkpt lat="46.5456" lon="0.32751">
        <ele>133.6</ele>
        <time>2022-09-18T08:41:37Z</time>
      </trkpt>
      <trkpt lat="46.54556" lon="0.32749">
        <ele>133.4</ele>
        <time>2022-09-18T08:41:38Z</time>
      </trkpt>
      <trkpt lat="46.54549" lon="0.32741">
        <ele>133.2</ele>
        <time>2022-09-18T08:41:40Z</time>
      </trkpt>
      <trkpt lat="46.54541" lon="0.3273">
        <ele>132.8</ele>
        <time>2022-09-18T08:41:42Z</time>
      </trkpt>
      <trkpt lat="46.54538" lon="0.32726">
        <ele>132.4</ele>
        <time>2022-09-18T08:41:43Z</time>
      </trkpt>
      <trkpt lat="46.54537" lon="0.32721">
        <ele>132</ele>
        <time>2022-09-18T08:41:44Z</time>
      </trkpt>
      <trkpt lat="46.54535" lon="0.32712">
        <ele>131.4</ele>
        <time>2022-09-18T08:41:46Z</time>
      </trkpt>
      <trkpt lat="46.54534" lon="0.32706">
        <ele>131</ele>
        <time>2022-09-18T08:41:47Z</time>
      </trkpt>
      <trkpt lat="46.54533" lon="0.32699">
        <ele>130.4</ele>
        <time>2022-09-18T08:41:48Z</time>
      </trkpt>
      <trkpt lat="46.54532" lon="0.32692">
        <ele>129.8</ele>
        <time>2022-09-18T08:41:49Z</time>
      </trkpt>
      <trkpt lat="46.54527" lon="0.3268">
        <ele>129.4</ele>
        <time>2022-09-18T08:41:51Z</time>
      </trkpt>
      <trkpt lat="46.54526" lon="0.32675">
        <ele>129.2</ele>
        <time>2022-09-18T08:41:52Z</time>
      </trkpt>
      <trkpt lat="46.54524" lon="0.3266">
        <ele>130.4</ele>
        <time>2022-09-18T08:41:56Z</time>
      </trkpt>
      <trkpt lat="46.54521" lon="0.32646">
        <ele>131.6</ele>
        <time>2022-09-18T08:42:00Z</time>
      </trkpt>
      <trkpt lat="46.54518" lon="0.32633">
        <ele>132.8</ele>
        <time>2022-09-18T08:42:03Z</time>
      </trkpt>
      <trkpt lat="46.54517" lon="0.32628">
        <ele>132.8</ele>
        <time>2022-09-18T08:42:04Z</time>
      </trkpt>
      <trkpt lat="46.54515" lon="0.32604">
        <ele>133.8</ele>
        <time>2022-09-18T08:42:10Z</time>
      </trkpt>
      <trkpt lat="46.54514" lon="0.32584">
        <ele>134.8</ele>
        <time>2022-09-18T08:42:15Z</time>
      </trkpt>
      <trkpt lat="46.54513" lon="0.3258">
        <ele>135</ele>
        <time>2022-09-18T08:42:16Z</time>
      </trkpt>
      <trkpt lat="46.54516" lon="0.32561">
        <ele>135.8</ele>
        <time>2022-09-18T08:42:21Z</time>
      </trkpt>
      <trkpt lat="46.54517" lon="0.32558">
        <ele>136</ele>
        <time>2022-09-18T08:42:22Z</time>
      </trkpt>
      <trkpt lat="46.54523" lon="0.32545">
        <ele>136.2</ele>
        <time>2022-09-18T08:42:26Z</time>
      </trkpt>
      <trkpt lat="46.54525" lon="0.32542">
        <ele>136.4</ele>
        <time>2022-09-18T08:42:27Z</time>
      </trkpt>
      <trkpt lat="46.54527" lon="0.32531">
        <ele>136.6</ele>
        <time>2022-09-18T08:42:30Z</time>
      </trkpt>
      <trkpt lat="46.54526" lon="0.32524">
        <ele>136.8</ele>
        <time>2022-09-18T08:42:32Z</time>
      </trkpt>
      <trkpt lat="46.54527" lon="0.32518">
        <ele>136.6</ele>
        <time>2022-09-18T08:42:35Z</time>
      </trkpt>
      <trkpt lat="46.54528" lon="0.32517">
        <ele>136.6</ele>
        <time>2022-09-18T08:42:36Z</time>
      </trkpt>
      <trkpt lat="46.54526" lon="0.32522">
        <ele>136.6</ele>
        <time>2022-09-18T08:42:40Z</time>
      </trkpt>
      <trkpt lat="46.54517" lon="0.32526">
        <ele>137</ele>
        <time>2022-09-18T08:42:44Z</time>
      </trkpt>
      <trkpt lat="46.54514" lon="0.32528">
        <ele>137</ele>
        <time>2022-09-18T08:42:45Z</time>
      </trkpt>
      <trkpt lat="46.54509" lon="0.32527">
        <ele>137</ele>
        <time>2022-09-18T08:42:47Z</time>
      </trkpt>
      <trkpt lat="46.54502" lon="0.32526">
        <ele>136.8</ele>
        <time>2022-09-18T08:42:50Z</time>
      </trkpt>
      <trkpt lat="46.545" lon="0.32526">
        <ele>136.8</ele>
        <time>2022-09-18T08:42:51Z</time>
      </trkpt>
      <trkpt lat="46.54495" lon="0.32527">
        <ele>136.6</ele>
        <time>2022-09-18T08:42:53Z</time>
      </trkpt>
      <trkpt lat="46.54492" lon="0.32533">
        <ele>136.4</ele>
        <time>2022-09-18T08:42:55Z</time>
      </trkpt>
      <trkpt lat="46.54492" lon="0.32546">
        <ele>136.2</ele>
        <time>2022-09-18T08:42:58Z</time>
      </trkpt>
      <trkpt lat="46.54492" lon="0.32555">
        <ele>135.4</ele>
        <time>2022-09-18T08:43:00Z</time>
      </trkpt>
      <trkpt lat="46.54496" lon="0.32565">
        <ele>134.6</ele>
        <time>2022-09-18T08:43:02Z</time>
      </trkpt>
      <trkpt lat="46.545" lon="0.32573">
        <ele>134.2</ele>
        <time>2022-09-18T08:43:04Z</time>
      </trkpt>
      <trkpt lat="46.54502" lon="0.32582">
        <ele>134.2</ele>
        <time>2022-09-18T08:43:06Z</time>
      </trkpt>
      <trkpt lat="46.545" lon="0.32585">
        <ele>133.4</ele>
        <time>2022-09-18T08:43:07Z</time>
      </trkpt>
      <trkpt lat="46.54498" lon="0.32587">
        <ele>132.8</ele>
        <time>2022-09-18T08:43:08Z</time>
      </trkpt>
      <trkpt lat="46.54496" lon="0.32588">
        <ele>132.4</ele>
        <time>2022-09-18T08:43:09Z</time>
      </trkpt>
      <trkpt lat="46.54492" lon="0.32587">
        <ele>132.2</ele>
        <time>2022-09-18T08:43:11Z</time>
      </trkpt>
      <trkpt lat="46.5449" lon="0.32588">
        <ele>132.2</ele>
        <time>2022-09-18T08:43:12Z</time>
      </trkpt>
      <trkpt lat="46.54483" lon="0.32593">
        <ele>132</ele>
        <time>2022-09-18T08:43:15Z</time>
      </trkpt>
      <trkpt lat="46.5448" lon="0.32593">
        <ele>132</ele>
        <time>2022-09-18T08:43:16Z</time>
      </trkpt>
      <trkpt lat="46.54473" lon="0.3259">
        <ele>131.8</ele>
        <time>2022-09-18T08:43:19Z</time>
      </trkpt>
      <trkpt lat="46.54467" lon="0.32587">
        <ele>131.6</ele>
        <time>2022-09-18T08:43:21Z</time>
      </trkpt>
      <trkpt lat="46.54459" lon="0.32585">
        <ele>131.6</ele>
        <time>2022-09-18T08:43:23Z</time>
      </trkpt>
      <trkpt lat="46.54455" lon="0.32585">
        <ele>131.6</ele>
        <time>2022-09-18T08:43:24Z</time>
      </trkpt>
      <trkpt lat="46.54449" lon="0.32588">
        <ele>131.6</ele>
        <time>2022-09-18T08:43:26Z</time>
      </trkpt>
      <trkpt lat="46.54446" lon="0.32591">
        <ele>131.4</ele>
        <time>2022-09-18T08:43:27Z</time>
      </trkpt>
      <trkpt lat="46.54444" lon="0.32596">
        <ele>130.6</ele>
        <time>2022-09-18T08:43:29Z</time>
      </trkpt>
      <trkpt lat="46.54442" lon="0.32598">
        <ele>130.2</ele>
        <time>2022-09-18T08:43:30Z</time>
      </trkpt>
      <trkpt lat="46.5444" lon="0.32599">
        <ele>129.8</ele>
        <time>2022-09-18T08:43:31Z</time>
      </trkpt>
      <trkpt lat="46.54437" lon="0.326">
        <ele>129.2</ele>
        <time>2022-09-18T08:43:32Z</time>
      </trkpt>
      <trkpt lat="46.54428" lon="0.32608">
        <ele>128.4</ele>
        <time>2022-09-18T08:43:36Z</time>
      </trkpt>
      <trkpt lat="46.54426" lon="0.3261">
        <ele>128</ele>
        <time>2022-09-18T08:43:37Z</time>
      </trkpt>
      <trkpt lat="46.5442" lon="0.32616">
        <ele>127.4</ele>
        <time>2022-09-18T08:43:39Z</time>
      </trkpt>
      <trkpt lat="46.54417" lon="0.32618">
        <ele>127.2</ele>
        <time>2022-09-18T08:43:40Z</time>
      </trkpt>
      <trkpt lat="46.54411" lon="0.3262">
        <ele>127</ele>
        <time>2022-09-18T08:43:42Z</time>
      </trkpt>
      <trkpt lat="46.54408" lon="0.32621">
        <ele>126.8</ele>
        <time>2022-09-18T08:43:43Z</time>
      </trkpt>
      <trkpt lat="46.54402" lon="0.32626">
        <ele>126.2</ele>
        <time>2022-09-18T08:43:45Z</time>
      </trkpt>
      <trkpt lat="46.54401" lon="0.32636">
        <ele>125.8</ele>
        <time>2022-09-18T08:43:47Z</time>
      </trkpt>
      <trkpt lat="46.54401" lon="0.3264">
        <ele>125.8</ele>
        <time>2022-09-18T08:43:48Z</time>
      </trkpt>
      <trkpt lat="46.54402" lon="0.32643">
        <ele>125.6</ele>
        <time>2022-09-18T08:43:49Z</time>
      </trkpt>
      <trkpt lat="46.54402" lon="0.32649">
        <ele>124.6</ele>
        <time>2022-09-18T08:43:51Z</time>
      </trkpt>
      <trkpt lat="46.54395" lon="0.32658">
        <ele>123</ele>
        <time>2022-09-18T08:43:53Z</time>
      </trkpt>
      <trkpt lat="46.54392" lon="0.32659">
        <ele>122.4</ele>
        <time>2022-09-18T08:43:54Z</time>
      </trkpt>
      <trkpt lat="46.54388" lon="0.32659">
        <ele>122</ele>
        <time>2022-09-18T08:43:55Z</time>
      </trkpt>
      <trkpt lat="46.54384" lon="0.32658">
        <ele>121.6</ele>
        <time>2022-09-18T08:43:56Z</time>
      </trkpt>
      <trkpt lat="46.54378" lon="0.32654">
        <ele>120.8</ele>
        <time>2022-09-18T08:43:58Z</time>
      </trkpt>
      <trkpt lat="46.54376" lon="0.32653">
        <ele>120.6</ele>
        <time>2022-09-18T08:43:59Z</time>
      </trkpt>
      <trkpt lat="46.54367" lon="0.32648">
        <ele>120.8</ele>
        <time>2022-09-18T08:44:04Z</time>
      </trkpt>
      <trkpt lat="46.5436" lon="0.32644">
        <ele>121.6</ele>
        <time>2022-09-18T08:44:10Z</time>
      </trkpt>
      <trkpt lat="46.5436" lon="0.32644">
        <ele>121.8</ele>
        <time>2022-09-18T08:44:11Z</time>
      </trkpt>
      <trkpt lat="46.5436" lon="0.32644">
        <ele>122.2</ele>
        <time>2022-09-18T08:44:12Z</time>
      </trkpt>
      <trkpt lat="46.54358" lon="0.32644">
        <ele>123</ele>
        <time>2022-09-18T08:44:14Z</time>
      </trkpt>
      <trkpt lat="46.54354" lon="0.32641">
        <ele>123.6</ele>
        <time>2022-09-18T08:44:18Z</time>
      </trkpt>
      <trkpt lat="46.54353" lon="0.3264">
        <ele>124</ele>
        <time>2022-09-18T08:44:20Z</time>
      </trkpt>
      <trkpt lat="46.54349" lon="0.32639">
        <ele>125.2</ele>
        <time>2022-09-18T08:44:25Z</time>
      </trkpt>
      <trkpt lat="46.54344" lon="0.32635">
        <ele>126.2</ele>
        <time>2022-09-18T08:44:30Z</time>
      </trkpt>
      <trkpt lat="46.54343" lon="0.32636">
        <ele>126.4</ele>
        <time>2022-09-18T08:44:31Z</time>
      </trkpt>
      <trkpt lat="46.5434" lon="0.32635">
        <ele>126.6</ele>
        <time>2022-09-18T08:44:35Z</time>
      </trkpt>
      <trkpt lat="46.54335" lon="0.32638">
        <ele>126.6</ele>
        <time>2022-09-18T08:44:38Z</time>
      </trkpt>
      <trkpt lat="46.54326" lon="0.32632">
        <ele>127</ele>
        <time>2022-09-18T08:44:45Z</time>
      </trkpt>
      <trkpt lat="46.54326" lon="0.32631">
        <ele>127.2</ele>
        <time>2022-09-18T08:44:46Z</time>
      </trkpt>
      <trkpt lat="46.54325" lon="0.32629">
        <ele>127.6</ele>
        <time>2022-09-18T08:44:47Z</time>
      </trkpt>
      <trkpt lat="46.5432" lon="0.32626">
        <ele>128.8</ele>
        <time>2022-09-18T08:44:51Z</time>
      </trkpt>
      <trkpt lat="46.54316" lon="0.32626">
        <ele>129</ele>
        <time>2022-09-18T08:44:54Z</time>
      </trkpt>
      <trkpt lat="46.54315" lon="0.32628">
        <ele>128.8</ele>
        <time>2022-09-18T08:44:55Z</time>
      </trkpt>
      <trkpt lat="46.5431" lon="0.32639">
        <ele>127.4</ele>
        <time>2022-09-18T08:45:00Z</time>
      </trkpt>
      <trkpt lat="46.54308" lon="0.32642">
        <ele>126.6</ele>
        <time>2022-09-18T08:45:02Z</time>
      </trkpt>
      <trkpt lat="46.54306" lon="0.32643">
        <ele>126.2</ele>
        <time>2022-09-18T08:45:03Z</time>
      </trkpt>
      <trkpt lat="46.54304" lon="0.32642">
        <ele>125.8</ele>
        <time>2022-09-18T08:45:04Z</time>
      </trkpt>
      <trkpt lat="46.54291" lon="0.32633">
        <ele>125.8</ele>
        <time>2022-09-18T08:45:11Z</time>
      </trkpt>
      <trkpt lat="46.54286" lon="0.32629">
        <ele>126.4</ele>
        <time>2022-09-18T08:45:14Z</time>
      </trkpt>
      <trkpt lat="46.54279" lon="0.32626">
        <ele>126.8</ele>
        <time>2022-09-18T08:45:17Z</time>
      </trkpt>
      <trkpt lat="46.54269" lon="0.32621">
        <ele>127.2</ele>
        <time>2022-09-18T08:45:22Z</time>
      </trkpt>
      <trkpt lat="46.54264" lon="0.32617">
        <ele>127.6</ele>
        <time>2022-09-18T08:45:25Z</time>
      </trkpt>
      <trkpt lat="46.54258" lon="0.32609">
        <ele>128</ele>
        <time>2022-09-18T08:45:29Z</time>
      </trkpt>
      <trkpt lat="46.54257" lon="0.32608">
        <ele>128.4</ele>
        <time>2022-09-18T08:45:30Z</time>
      </trkpt>
      <trkpt lat="46.54255" lon="0.32606">
        <ele>128.4</ele>
        <time>2022-09-18T08:45:31Z</time>
      </trkpt>
      <trkpt lat="46.54249" lon="0.32603">
        <ele>129.2</ele>
        <time>2022-09-18T08:45:34Z</time>
      </trkpt>
      <trkpt lat="46.54248" lon="0.32602">
        <ele>129.6</ele>
        <time>2022-09-18T08:45:35Z</time>
      </trkpt>
      <trkpt lat="46.54243" lon="0.32599">
        <ele>130</ele>
        <time>2022-09-18T08:45:37Z</time>
      </trkpt>
      <trkpt lat="46.54239" lon="0.32595">
        <ele>130.4</ele>
        <time>2022-09-18T08:45:39Z</time>
      </trkpt>
      <trkpt lat="46.54238" lon="0.32593">
        <ele>130.8</ele>
        <time>2022-09-18T08:45:40Z</time>
      </trkpt>
      <trkpt lat="46.54236" lon="0.32588">
        <ele>131</ele>
        <time>2022-09-18T08:45:42Z</time>
      </trkpt>
      <trkpt lat="46.54234" lon="0.32583">
        <ele>131.8</ele>
        <time>2022-09-18T08:45:45Z</time>
      </trkpt>
      <trkpt lat="46.54233" lon="0.32581">
        <ele>131.8</ele>
        <time>2022-09-18T08:45:46Z</time>
      </trkpt>
      <trkpt lat="46.54229" lon="0.32579">
        <ele>131.8</ele>
        <time>2022-09-18T08:45:48Z</time>
      </trkpt>
      <trkpt lat="46.54215" lon="0.3258">
        <ele>131.2</ele>
        <time>2022-09-18T08:45:53Z</time>
      </trkpt>
      <trkpt lat="46.54211" lon="0.32581">
        <ele>131.2</ele>
        <time>2022-09-18T08:45:54Z</time>
      </trkpt>
      <trkpt lat="46.54198" lon="0.32586">
        <ele>130.4</ele>
        <time>2022-09-18T08:45:57Z</time>
      </trkpt>
      <trkpt lat="46.54194" lon="0.32588">
        <ele>130.2</ele>
        <time>2022-09-18T08:45:58Z</time>
      </trkpt>
      <trkpt lat="46.5419" lon="0.32589">
        <ele>127.8</ele>
        <time>2022-09-18T08:45:59Z</time>
      </trkpt>
      <trkpt lat="46.54183" lon="0.32591">
        <ele>127.2</ele>
        <time>2022-09-18T08:46:01Z</time>
      </trkpt>
      <trkpt lat="46.54179" lon="0.32592">
        <ele>126.8</ele>
        <time>2022-09-18T08:46:02Z</time>
      </trkpt>
      <trkpt lat="46.54175" lon="0.32593">
        <ele>126.6</ele>
        <time>2022-09-18T08:46:03Z</time>
      </trkpt>
      <trkpt lat="46.5417" lon="0.32592">
        <ele>126.4</ele>
        <time>2022-09-18T08:46:04Z</time>
      </trkpt>
      <trkpt lat="46.54163" lon="0.32591">
        <ele>125.8</ele>
        <time>2022-09-18T08:46:06Z</time>
      </trkpt>
      <trkpt lat="46.54158" lon="0.32592">
        <ele>125.4</ele>
        <time>2022-09-18T08:46:07Z</time>
      </trkpt>
      <trkpt lat="46.54154" lon="0.32593">
        <ele>124.6</ele>
        <time>2022-09-18T08:46:08Z</time>
      </trkpt>
      <trkpt lat="46.54149" lon="0.32593">
        <ele>124</ele>
        <time>2022-09-18T08:46:09Z</time>
      </trkpt>
      <trkpt lat="46.54145" lon="0.32592">
        <ele>123.4</ele>
        <time>2022-09-18T08:46:10Z</time>
      </trkpt>
      <trkpt lat="46.54142" lon="0.3259">
        <ele>123.2</ele>
        <time>2022-09-18T08:46:11Z</time>
      </trkpt>
      <trkpt lat="46.5414" lon="0.32589">
        <ele>123</ele>
        <time>2022-09-18T08:46:12Z</time>
      </trkpt>
      <trkpt lat="46.54128" lon="0.3258">
        <ele>123.2</ele>
        <time>2022-09-18T08:46:17Z</time>
      </trkpt>
      <trkpt lat="46.54117" lon="0.32567">
        <ele>124.6</ele>
        <time>2022-09-18T08:46:21Z</time>
      </trkpt>
      <trkpt lat="46.54115" lon="0.32565">
        <ele>124.6</ele>
        <time>2022-09-18T08:46:22Z</time>
      </trkpt>
      <trkpt lat="46.54096" lon="0.32556">
        <ele>124.4</ele>
        <time>2022-09-18T08:46:28Z</time>
      </trkpt>
      <trkpt lat="46.54075" lon="0.32549">
        <ele>124.2</ele>
        <time>2022-09-18T08:46:34Z</time>
      </trkpt>
      <trkpt lat="46.54061" lon="0.32543">
        <ele>124.6</ele>
        <time>2022-09-18T08:46:38Z</time>
      </trkpt>
      <trkpt lat="46.54057" lon="0.32533">
        <ele>125.2</ele>
        <time>2022-09-18T08:46:42Z</time>
      </trkpt>
      <trkpt lat="46.54055" lon="0.32525">
        <ele>125.6</ele>
        <time>2022-09-18T08:46:45Z</time>
      </trkpt>
      <trkpt lat="46.54055" lon="0.32517">
        <ele>126.8</ele>
        <time>2022-09-18T08:46:48Z</time>
      </trkpt>
      <trkpt lat="46.54055" lon="0.32515">
        <ele>127</ele>
        <time>2022-09-18T08:46:49Z</time>
      </trkpt>
      <trkpt lat="46.54051" lon="0.32505">
        <ele>128</ele>
        <time>2022-09-18T08:46:53Z</time>
      </trkpt>
      <trkpt lat="46.54051" lon="0.32499">
        <ele>128.6</ele>
        <time>2022-09-18T08:46:55Z</time>
      </trkpt>
      <trkpt lat="46.54051" lon="0.32496">
        <ele>129</ele>
        <time>2022-09-18T08:46:56Z</time>
      </trkpt>
      <trkpt lat="46.54049" lon="0.32478">
        <ele>129.8</ele>
        <time>2022-09-18T08:47:00Z</time>
      </trkpt>
      <trkpt lat="46.54049" lon="0.32476">
        <ele>130.6</ele>
        <time>2022-09-18T08:47:01Z</time>
      </trkpt>
      <trkpt lat="46.54058" lon="0.32474">
        <ele>131.4</ele>
        <time>2022-09-18T08:47:06Z</time>
      </trkpt>
      <trkpt lat="46.54061" lon="0.32475">
        <ele>131.4</ele>
        <time>2022-09-18T08:47:07Z</time>
      </trkpt>
      <trkpt lat="46.54072" lon="0.32478">
        <ele>131.4</ele>
        <time>2022-09-18T08:47:10Z</time>
      </trkpt>
      <trkpt lat="46.54076" lon="0.32479">
        <ele>131.4</ele>
        <time>2022-09-18T08:47:11Z</time>
      </trkpt>
      <trkpt lat="46.5408" lon="0.3248">
        <ele>131.4</ele>
        <time>2022-09-18T08:47:12Z</time>
      </trkpt>
      <trkpt lat="46.54087" lon="0.3248">
        <ele>131.6</ele>
        <time>2022-09-18T08:47:14Z</time>
      </trkpt>
      <trkpt lat="46.5409" lon="0.32482">
        <ele>131.6</ele>
        <time>2022-09-18T08:47:15Z</time>
      </trkpt>
      <trkpt lat="46.54093" lon="0.32482">
        <ele>131.8</ele>
        <time>2022-09-18T08:47:16Z</time>
      </trkpt>
      <trkpt lat="46.54097" lon="0.32481">
        <ele>131.8</ele>
        <time>2022-09-18T08:47:17Z</time>
      </trkpt>
      <trkpt lat="46.54104" lon="0.32481">
        <ele>132</ele>
        <time>2022-09-18T08:47:19Z</time>
      </trkpt>
      <trkpt lat="46.5412" lon="0.32487">
        <ele>132.4</ele>
        <time>2022-09-18T08:47:24Z</time>
      </trkpt>
      <trkpt lat="46.54128" lon="0.32488">
        <ele>132.8</ele>
        <time>2022-09-18T08:47:27Z</time>
      </trkpt>
      <trkpt lat="46.54136" lon="0.32491">
        <ele>133.2</ele>
        <time>2022-09-18T08:47:30Z</time>
      </trkpt>
      <trkpt lat="46.54151" lon="0.32504">
        <ele>133.6</ele>
        <time>2022-09-18T08:47:36Z</time>
      </trkpt>
      <trkpt lat="46.54164" lon="0.32512">
        <ele>133.2</ele>
        <time>2022-09-18T08:47:42Z</time>
      </trkpt>
      <trkpt lat="46.54166" lon="0.32512">
        <ele>133.2</ele>
        <time>2022-09-18T08:47:43Z</time>
      </trkpt>
      <trkpt lat="46.54171" lon="0.3251">
        <ele>133.8</ele>
        <time>2022-09-18T08:47:46Z</time>
      </trkpt>
      <trkpt lat="46.54173" lon="0.32509">
        <ele>134</ele>
        <time>2022-09-18T08:47:47Z</time>
      </trkpt>
      <trkpt lat="46.54183" lon="0.32505">
        <ele>134.6</ele>
        <time>2022-09-18T08:47:51Z</time>
      </trkpt>
      <trkpt lat="46.54186" lon="0.32505">
        <ele>134.6</ele>
        <time>2022-09-18T08:47:52Z</time>
      </trkpt>
      <trkpt lat="46.54193" lon="0.32506">
        <ele>135</ele>
        <time>2022-09-18T08:47:55Z</time>
      </trkpt>
      <trkpt lat="46.5421" lon="0.32509">
        <ele>135.6</ele>
        <time>2022-09-18T08:48:01Z</time>
      </trkpt>
      <trkpt lat="46.54225" lon="0.32509">
        <ele>136</ele>
        <time>2022-09-18T08:48:05Z</time>
      </trkpt>
      <trkpt lat="46.54233" lon="0.32509">
        <ele>136.4</ele>
        <time>2022-09-18T08:48:07Z</time>
      </trkpt>
      <trkpt lat="46.54239" lon="0.32507">
        <ele>136.6</ele>
        <time>2022-09-18T08:48:09Z</time>
      </trkpt>
      <trkpt lat="46.54243" lon="0.32507">
        <ele>136.8</ele>
        <time>2022-09-18T08:48:10Z</time>
      </trkpt>
      <trkpt lat="46.54247" lon="0.32507">
        <ele>137.2</ele>
        <time>2022-09-18T08:48:11Z</time>
      </trkpt>
      <trkpt lat="46.54265" lon="0.32506">
        <ele>137.6</ele>
        <time>2022-09-18T08:48:15Z</time>
      </trkpt>
      <trkpt lat="46.54286" lon="0.32504">
        <ele>138.2</ele>
        <time>2022-09-18T08:48:20Z</time>
      </trkpt>
      <trkpt lat="46.54296" lon="0.32503">
        <ele>138.4</ele>
        <time>2022-09-18T08:48:22Z</time>
      </trkpt>
      <trkpt lat="46.54305" lon="0.32501">
        <ele>138.8</ele>
        <time>2022-09-18T08:48:24Z</time>
      </trkpt>
      <trkpt lat="46.54319" lon="0.32497">
        <ele>138.8</ele>
        <time>2022-09-18T08:48:27Z</time>
      </trkpt>
      <trkpt lat="46.54324" lon="0.32496">
        <ele>139</ele>
        <time>2022-09-18T08:48:28Z</time>
      </trkpt>
      <trkpt lat="46.54335" lon="0.32493">
        <ele>138.6</ele>
        <time>2022-09-18T08:48:32Z</time>
      </trkpt>
      <trkpt lat="46.54338" lon="0.32491">
        <ele>138.4</ele>
        <time>2022-09-18T08:48:34Z</time>
      </trkpt>
      <trkpt lat="46.54342" lon="0.32486">
        <ele>138.2</ele>
        <time>2022-09-18T08:48:38Z</time>
      </trkpt>
      <trkpt lat="46.54342" lon="0.32484">
        <ele>138.2</ele>
        <time>2022-09-18T08:48:39Z</time>
      </trkpt>
      <trkpt lat="46.54343" lon="0.32474">
        <ele>138.2</ele>
        <time>2022-09-18T08:48:42Z</time>
      </trkpt>
      <trkpt lat="46.54344" lon="0.3247">
        <ele>138.2</ele>
        <time>2022-09-18T08:48:43Z</time>
      </trkpt>
      <trkpt lat="46.54341" lon="0.32465">
        <ele>138.4</ele>
        <time>2022-09-18T08:48:45Z</time>
      </trkpt>
      <trkpt lat="46.54338" lon="0.32459">
        <ele>138.8</ele>
        <time>2022-09-18T08:48:47Z</time>
      </trkpt>
      <trkpt lat="46.54337" lon="0.32447">
        <ele>139.2</ele>
        <time>2022-09-18T08:48:51Z</time>
      </trkpt>
      <trkpt lat="46.54336" lon="0.32446">
        <ele>139.2</ele>
        <time>2022-09-18T08:48:52Z</time>
      </trkpt>
      <trkpt lat="46.54334" lon="0.32445">
        <ele>139.2</ele>
        <time>2022-09-18T08:48:53Z</time>
      </trkpt>
      <trkpt lat="46.54331" lon="0.32447">
        <ele>139.2</ele>
        <time>2022-09-18T08:48:55Z</time>
      </trkpt>
      <trkpt lat="46.5433" lon="0.32446">
        <ele>139.2</ele>
        <time>2022-09-18T08:48:56Z</time>
      </trkpt>
      <trkpt lat="46.54329" lon="0.3244">
        <ele>139</ele>
        <time>2022-09-18T08:48:59Z</time>
      </trkpt>
      <trkpt lat="46.54323" lon="0.32425">
        <ele>139</ele>
        <time>2022-09-18T08:49:04Z</time>
      </trkpt>
      <trkpt lat="46.54319" lon="0.32416">
        <ele>139.2</ele>
        <time>2022-09-18T08:49:08Z</time>
      </trkpt>
      <trkpt lat="46.54316" lon="0.32414">
        <ele>139.2</ele>
        <time>2022-09-18T08:49:10Z</time>
      </trkpt>
      <trkpt lat="46.54314" lon="0.32412">
        <ele>139.4</ele>
        <time>2022-09-18T08:49:11Z</time>
      </trkpt>
      <trkpt lat="46.54308" lon="0.32399">
        <ele>140</ele>
        <time>2022-09-18T08:49:15Z</time>
      </trkpt>
      <trkpt lat="46.54307" lon="0.32393">
        <ele>140</ele>
        <time>2022-09-18T08:49:16Z</time>
      </trkpt>
      <trkpt lat="46.54306" lon="0.32384">
        <ele>140.2</ele>
        <time>2022-09-18T08:49:19Z</time>
      </trkpt>
      <trkpt lat="46.54304" lon="0.32372">
        <ele>140.2</ele>
        <time>2022-09-18T08:49:23Z</time>
      </trkpt>
      <trkpt lat="46.54305" lon="0.32371">
        <ele>140.4</ele>
        <time>2022-09-18T08:49:24Z</time>
      </trkpt>
      <trkpt lat="46.54315" lon="0.32366">
        <ele>141</ele>
        <time>2022-09-18T08:49:29Z</time>
      </trkpt>
      <trkpt lat="46.54317" lon="0.3236">
        <ele>140.6</ele>
        <time>2022-09-18T08:49:32Z</time>
      </trkpt>
      <trkpt lat="46.54316" lon="0.32359">
        <ele>140.6</ele>
        <time>2022-09-18T08:49:33Z</time>
      </trkpt>
      <trkpt lat="46.54313" lon="0.32353">
        <ele>140.6</ele>
        <time>2022-09-18T08:49:36Z</time>
      </trkpt>
      <trkpt lat="46.54311" lon="0.32347">
        <ele>140.6</ele>
        <time>2022-09-18T08:49:38Z</time>
      </trkpt>
      <trkpt lat="46.54305" lon="0.32344">
        <ele>141.2</ele>
        <time>2022-09-18T08:49:40Z</time>
      </trkpt>
      <trkpt lat="46.54301" lon="0.32338">
        <ele>141.2</ele>
        <time>2022-09-18T08:49:42Z</time>
      </trkpt>
      <trkpt lat="46.54297" lon="0.32332">
        <ele>141.4</ele>
        <time>2022-09-18T08:49:44Z</time>
      </trkpt>
      <trkpt lat="46.54295" lon="0.32328">
        <ele>141.2</ele>
        <time>2022-09-18T08:49:45Z</time>
      </trkpt>
      <trkpt lat="46.54293" lon="0.32325">
        <ele>141</ele>
        <time>2022-09-18T08:49:46Z</time>
      </trkpt>
      <trkpt lat="46.54287" lon="0.32313">
        <ele>141</ele>
        <time>2022-09-18T08:49:49Z</time>
      </trkpt>
      <trkpt lat="46.54281" lon="0.32309">
        <ele>140.8</ele>
        <time>2022-09-18T08:49:51Z</time>
      </trkpt>
      <trkpt lat="46.54268" lon="0.32299">
        <ele>141.4</ele>
        <time>2022-09-18T08:49:56Z</time>
      </trkpt>
      <trkpt lat="46.54262" lon="0.32292">
        <ele>141.2</ele>
        <time>2022-09-18T08:49:58Z</time>
      </trkpt>
      <trkpt lat="46.54254" lon="0.32284">
        <ele>141</ele>
        <time>2022-09-18T08:50:00Z</time>
      </trkpt>
      <trkpt lat="46.5425" lon="0.32281">
        <ele>140.6</ele>
        <time>2022-09-18T08:50:01Z</time>
      </trkpt>
      <trkpt lat="46.54246" lon="0.32278">
        <ele>140.6</ele>
        <time>2022-09-18T08:50:02Z</time>
      </trkpt>
      <trkpt lat="46.54241" lon="0.3227">
        <ele>140.2</ele>
        <time>2022-09-18T08:50:04Z</time>
      </trkpt>
      <trkpt lat="46.54241" lon="0.32266">
        <ele>140.2</ele>
        <time>2022-09-18T08:50:05Z</time>
      </trkpt>
      <trkpt lat="46.54237" lon="0.32251">
        <ele>140.6</ele>
        <time>2022-09-18T08:50:10Z</time>
      </trkpt>
      <trkpt lat="46.54227" lon="0.32226">
        <ele>141.2</ele>
        <time>2022-09-18T08:50:14Z</time>
      </trkpt>
      <trkpt lat="46.54224" lon="0.32218">
        <ele>141.2</ele>
        <time>2022-09-18T08:50:15Z</time>
      </trkpt>
      <trkpt lat="46.54223" lon="0.32204">
        <ele>141.2</ele>
        <time>2022-09-18T08:50:17Z</time>
      </trkpt>
      <trkpt lat="46.54223" lon="0.32198">
        <ele>141.2</ele>
        <time>2022-09-18T08:50:18Z</time>
      </trkpt>
      <trkpt lat="46.54222" lon="0.32177">
        <ele>141.4</ele>
        <time>2022-09-18T08:50:21Z</time>
      </trkpt>
      <trkpt lat="46.54224" lon="0.32158">
        <ele>142.2</ele>
        <time>2022-09-18T08:50:24Z</time>
      </trkpt>
      <trkpt lat="46.54224" lon="0.32151">
        <ele>142.6</ele>
        <time>2022-09-18T08:50:25Z</time>
      </trkpt>
      <trkpt lat="46.54224" lon="0.32124">
        <ele>143</ele>
        <time>2022-09-18T08:50:29Z</time>
      </trkpt>
      <trkpt lat="46.54224" lon="0.32118">
        <ele>143.2</ele>
        <time>2022-09-18T08:50:30Z</time>
      </trkpt>
      <trkpt lat="46.54227" lon="0.32101">
        <ele>143.6</ele>
        <time>2022-09-18T08:50:33Z</time>
      </trkpt>
      <trkpt lat="46.54228" lon="0.32095">
        <ele>143.8</ele>
        <time>2022-09-18T08:50:34Z</time>
      </trkpt>
      <trkpt lat="46.5423" lon="0.32066">
        <ele>144.4</ele>
        <time>2022-09-18T08:50:40Z</time>
      </trkpt>
      <trkpt lat="46.54233" lon="0.32051">
        <ele>144.8</ele>
        <time>2022-09-18T08:50:45Z</time>
      </trkpt>
      <trkpt lat="46.54233" lon="0.32048">
        <ele>144.8</ele>
        <time>2022-09-18T08:50:46Z</time>
      </trkpt>
      <trkpt lat="46.54235" lon="0.32029">
        <ele>145</ele>
        <time>2022-09-18T08:50:51Z</time>
      </trkpt>
      <trkpt lat="46.54236" lon="0.31994">
        <ele>145.4</ele>
        <time>2022-09-18T08:50:58Z</time>
      </trkpt>
      <trkpt lat="46.54236" lon="0.31989">
        <ele>145.6</ele>
        <time>2022-09-18T08:50:59Z</time>
      </trkpt>
      <trkpt lat="46.54238" lon="0.31976">
        <ele>145.8</ele>
        <time>2022-09-18T08:51:01Z</time>
      </trkpt>
      <trkpt lat="46.54239" lon="0.3196">
        <ele>146.4</ele>
        <time>2022-09-18T08:51:04Z</time>
      </trkpt>
      <trkpt lat="46.54238" lon="0.31924">
        <ele>146.8</ele>
        <time>2022-09-18T08:51:10Z</time>
      </trkpt>
      <trkpt lat="46.54239" lon="0.31916">
        <ele>147</ele>
        <time>2022-09-18T08:51:11Z</time>
      </trkpt>
      <trkpt lat="46.54239" lon="0.31898">
        <ele>147.4</ele>
        <time>2022-09-18T08:51:14Z</time>
      </trkpt>
      <trkpt lat="46.54236" lon="0.31887">
        <ele>147.6</ele>
        <time>2022-09-18T08:51:16Z</time>
      </trkpt>
      <trkpt lat="46.54216" lon="0.31854">
        <ele>146.6</ele>
        <time>2022-09-18T08:51:23Z</time>
      </trkpt>
      <trkpt lat="46.54213" lon="0.3185">
        <ele>146.4</ele>
        <time>2022-09-18T08:51:24Z</time>
      </trkpt>
      <trkpt lat="46.54196" lon="0.31832">
        <ele>147.6</ele>
        <time>2022-09-18T08:51:29Z</time>
      </trkpt>
      <trkpt lat="46.5419" lon="0.31825">
        <ele>148</ele>
        <time>2022-09-18T08:51:31Z</time>
      </trkpt>
      <trkpt lat="46.5418" lon="0.31817">
        <ele>148.2</ele>
        <time>2022-09-18T08:51:34Z</time>
      </trkpt>
      <trkpt lat="46.54169" lon="0.31812">
        <ele>148.6</ele>
        <time>2022-09-18T08:51:37Z</time>
      </trkpt>
      <trkpt lat="46.54161" lon="0.31808">
        <ele>148.8</ele>
        <time>2022-09-18T08:51:39Z</time>
      </trkpt>
      <trkpt lat="46.54158" lon="0.31807">
        <ele>148.8</ele>
        <time>2022-09-18T08:51:40Z</time>
      </trkpt>
      <trkpt lat="46.54149" lon="0.31806">
        <ele>149</ele>
        <time>2022-09-18T08:51:42Z</time>
      </trkpt>
      <trkpt lat="46.54145" lon="0.31804">
        <ele>149.2</ele>
        <time>2022-09-18T08:51:43Z</time>
      </trkpt>
      <trkpt lat="46.54137" lon="0.318">
        <ele>149.2</ele>
        <time>2022-09-18T08:51:45Z</time>
      </trkpt>
      <trkpt lat="46.54124" lon="0.31795">
        <ele>149</ele>
        <time>2022-09-18T08:51:48Z</time>
      </trkpt>
      <trkpt lat="46.54111" lon="0.31792">
        <ele>149.2</ele>
        <time>2022-09-18T08:51:51Z</time>
      </trkpt>
      <trkpt lat="46.54106" lon="0.31792">
        <ele>149.4</ele>
        <time>2022-09-18T08:51:52Z</time>
      </trkpt>
      <trkpt lat="46.5409" lon="0.31789">
        <ele>149.6</ele>
        <time>2022-09-18T08:51:56Z</time>
      </trkpt>
      <trkpt lat="46.54063" lon="0.31788">
        <ele>149.6</ele>
        <time>2022-09-18T08:52:02Z</time>
      </trkpt>
      <trkpt lat="46.54044" lon="0.31785">
        <ele>149.2</ele>
        <time>2022-09-18T08:52:06Z</time>
      </trkpt>
      <trkpt lat="46.54039" lon="0.31784">
        <ele>149.2</ele>
        <time>2022-09-18T08:52:07Z</time>
      </trkpt>
      <trkpt lat="46.54031" lon="0.31784">
        <ele>149.2</ele>
        <time>2022-09-18T08:52:09Z</time>
      </trkpt>
      <trkpt lat="46.54023" lon="0.31785">
        <ele>149.4</ele>
        <time>2022-09-18T08:52:11Z</time>
      </trkpt>
      <trkpt lat="46.54015" lon="0.31786">
        <ele>149.2</ele>
        <time>2022-09-18T08:52:13Z</time>
      </trkpt>
      <trkpt lat="46.53999" lon="0.31786">
        <ele>149</ele>
        <time>2022-09-18T08:52:16Z</time>
      </trkpt>
      <trkpt lat="46.53987" lon="0.31786">
        <ele>148.8</ele>
        <time>2022-09-18T08:52:18Z</time>
      </trkpt>
      <trkpt lat="46.53973" lon="0.31787">
        <ele>148.8</ele>
        <time>2022-09-18T08:52:20Z</time>
      </trkpt>
      <trkpt lat="46.53961" lon="0.31791">
        <ele>148.4</ele>
        <time>2022-09-18T08:52:22Z</time>
      </trkpt>
      <trkpt lat="46.53957" lon="0.31795">
        <ele>148.4</ele>
        <time>2022-09-18T08:52:23Z</time>
      </trkpt>
      <trkpt lat="46.53952" lon="0.31801">
        <ele>148.2</ele>
        <time>2022-09-18T08:52:24Z</time>
      </trkpt>
      <trkpt lat="46.5394" lon="0.31815">
        <ele>148.2</ele>
        <time>2022-09-18T08:52:27Z</time>
      </trkpt>
      <trkpt lat="46.53922" lon="0.31825">
        <ele>148.2</ele>
        <time>2022-09-18T08:52:30Z</time>
      </trkpt>
      <trkpt lat="46.53915" lon="0.31827">
        <ele>148</ele>
        <time>2022-09-18T08:52:31Z</time>
      </trkpt>
      <trkpt lat="46.53875" lon="0.31839">
        <ele>147.4</ele>
        <time>2022-09-18T08:52:37Z</time>
      </trkpt>
      <trkpt lat="46.53851" lon="0.31848">
        <ele>147</ele>
        <time>2022-09-18T08:52:41Z</time>
      </trkpt>
      <trkpt lat="46.53838" lon="0.31853">
        <ele>146.8</ele>
        <time>2022-09-18T08:52:43Z</time>
      </trkpt>
      <trkpt lat="46.53826" lon="0.31856">
        <ele>146.2</ele>
        <time>2022-09-18T08:52:45Z</time>
      </trkpt>
      <trkpt lat="46.53814" lon="0.31859">
        <ele>145.8</ele>
        <time>2022-09-18T08:52:47Z</time>
      </trkpt>
      <trkpt lat="46.53808" lon="0.3186">
        <ele>145.8</ele>
        <time>2022-09-18T08:52:48Z</time>
      </trkpt>
      <trkpt lat="46.53795" lon="0.31863">
        <ele>145.8</ele>
        <time>2022-09-18T08:52:50Z</time>
      </trkpt>
      <trkpt lat="46.53774" lon="0.31869">
        <ele>145</ele>
        <time>2022-09-18T08:52:53Z</time>
      </trkpt>
      <trkpt lat="46.53768" lon="0.3187">
        <ele>144.6</ele>
        <time>2022-09-18T08:52:54Z</time>
      </trkpt>
      <trkpt lat="46.53726" lon="0.31883">
        <ele>143.8</ele>
        <time>2022-09-18T08:53:00Z</time>
      </trkpt>
      <trkpt lat="46.53715" lon="0.31889">
        <ele>143.6</ele>
        <time>2022-09-18T08:53:02Z</time>
      </trkpt>
      <trkpt lat="46.53709" lon="0.31891">
        <ele>143.6</ele>
        <time>2022-09-18T08:53:03Z</time>
      </trkpt>
      <trkpt lat="46.53697" lon="0.31893">
        <ele>143.2</ele>
        <time>2022-09-18T08:53:05Z</time>
      </trkpt>
      <trkpt lat="46.53655" lon="0.31896">
        <ele>142.6</ele>
        <time>2022-09-18T08:53:11Z</time>
      </trkpt>
      <trkpt lat="46.53648" lon="0.31896">
        <ele>142.6</ele>
        <time>2022-09-18T08:53:12Z</time>
      </trkpt>
      <trkpt lat="46.53621" lon="0.31892">
        <ele>141.4</ele>
        <time>2022-09-18T08:53:16Z</time>
      </trkpt>
      <trkpt lat="46.53586" lon="0.31883">
        <ele>140.6</ele>
        <time>2022-09-18T08:53:21Z</time>
      </trkpt>
      <trkpt lat="46.53579" lon="0.31885">
        <ele>140.4</ele>
        <time>2022-09-18T08:53:22Z</time>
      </trkpt>
      <trkpt lat="46.53573" lon="0.31888">
        <ele>140.2</ele>
        <time>2022-09-18T08:53:23Z</time>
      </trkpt>
      <trkpt lat="46.5356" lon="0.31897">
        <ele>139.2</ele>
        <time>2022-09-18T08:53:25Z</time>
      </trkpt>
      <trkpt lat="46.53553" lon="0.31903">
        <ele>138.8</ele>
        <time>2022-09-18T08:53:26Z</time>
      </trkpt>
      <trkpt lat="46.53522" lon="0.31932">
        <ele>138</ele>
        <time>2022-09-18T08:53:31Z</time>
      </trkpt>
      <trkpt lat="46.53512" lon="0.31942">
        <ele>136.8</ele>
        <time>2022-09-18T08:53:33Z</time>
      </trkpt>
      <trkpt lat="46.53508" lon="0.31944">
        <ele>136</ele>
        <time>2022-09-18T08:53:34Z</time>
      </trkpt>
      <trkpt lat="46.53505" lon="0.31943">
        <ele>135.4</ele>
        <time>2022-09-18T08:53:35Z</time>
      </trkpt>
      <trkpt lat="46.53502" lon="0.31942">
        <ele>134.6</ele>
        <time>2022-09-18T08:53:36Z</time>
      </trkpt>
      <trkpt lat="46.53498" lon="0.3194">
        <ele>134.4</ele>
        <time>2022-09-18T08:53:37Z</time>
      </trkpt>
      <trkpt lat="46.53493" lon="0.31939">
        <ele>133</ele>
        <time>2022-09-18T08:53:38Z</time>
      </trkpt>
      <trkpt lat="46.53476" lon="0.31935">
        <ele>131.4</ele>
        <time>2022-09-18T08:53:41Z</time>
      </trkpt>
      <trkpt lat="46.53472" lon="0.31933">
        <ele>130.4</ele>
        <time>2022-09-18T08:53:42Z</time>
      </trkpt>
      <trkpt lat="46.53471" lon="0.3193">
        <ele>129.6</ele>
        <time>2022-09-18T08:53:43Z</time>
      </trkpt>
      <trkpt lat="46.53469" lon="0.31927">
        <ele>129.2</ele>
        <time>2022-09-18T08:53:44Z</time>
      </trkpt>
      <trkpt lat="46.53467" lon="0.31921">
        <ele>128.6</ele>
        <time>2022-09-18T08:53:47Z</time>
      </trkpt>
      <trkpt lat="46.53469" lon="0.31904">
        <ele>130.2</ele>
        <time>2022-09-18T08:53:55Z</time>
      </trkpt>
      <trkpt lat="46.53471" lon="0.31892">
        <ele>131.6</ele>
        <time>2022-09-18T08:53:59Z</time>
      </trkpt>
      <trkpt lat="46.53472" lon="0.31884">
        <ele>132.2</ele>
        <time>2022-09-18T08:54:01Z</time>
      </trkpt>
      <trkpt lat="46.53474" lon="0.3188">
        <ele>132.6</ele>
        <time>2022-09-18T08:54:02Z</time>
      </trkpt>
      <trkpt lat="46.53477" lon="0.31872">
        <ele>133</ele>
        <time>2022-09-18T08:54:04Z</time>
      </trkpt>
      <trkpt lat="46.53486" lon="0.31859">
        <ele>133.6</ele>
        <time>2022-09-18T08:54:07Z</time>
      </trkpt>
      <trkpt lat="46.53488" lon="0.31854">
        <ele>133.8</ele>
        <time>2022-09-18T08:54:08Z</time>
      </trkpt>
      <trkpt lat="46.53501" lon="0.31835">
        <ele>134.8</ele>
        <time>2022-09-18T08:54:14Z</time>
      </trkpt>
      <trkpt lat="46.53512" lon="0.31823">
        <ele>134.8</ele>
        <time>2022-09-18T08:54:18Z</time>
      </trkpt>
      <trkpt lat="46.53518" lon="0.3182">
        <ele>135.2</ele>
        <time>2022-09-18T08:54:20Z</time>
      </trkpt>
      <trkpt lat="46.53533" lon="0.31802">
        <ele>135.8</ele>
        <time>2022-09-18T08:54:26Z</time>
      </trkpt>
      <trkpt lat="46.53535" lon="0.31798">
        <ele>136</ele>
        <time>2022-09-18T08:54:27Z</time>
      </trkpt>
      <trkpt lat="46.53545" lon="0.31775">
        <ele>136.4</ele>
        <time>2022-09-18T08:54:32Z</time>
      </trkpt>
      <trkpt lat="46.53554" lon="0.31758">
        <ele>136.6</ele>
        <time>2022-09-18T08:54:35Z</time>
      </trkpt>
      <trkpt lat="46.5356" lon="0.31744">
        <ele>136.4</ele>
        <time>2022-09-18T08:54:38Z</time>
      </trkpt>
      <trkpt lat="46.53578" lon="0.31709">
        <ele>136.4</ele>
        <time>2022-09-18T08:54:44Z</time>
      </trkpt>
      <trkpt lat="46.53585" lon="0.31693">
        <ele>136.6</ele>
        <time>2022-09-18T08:54:47Z</time>
      </trkpt>
      <trkpt lat="46.53591" lon="0.31679">
        <ele>136.4</ele>
        <time>2022-09-18T08:54:50Z</time>
      </trkpt>
      <trkpt lat="46.53603" lon="0.31658">
        <ele>136.6</ele>
        <time>2022-09-18T08:54:55Z</time>
      </trkpt>
      <trkpt lat="46.53605" lon="0.31653">
        <ele>136.6</ele>
        <time>2022-09-18T08:54:56Z</time>
      </trkpt>
      <trkpt lat="46.53611" lon="0.31642">
        <ele>137</ele>
        <time>2022-09-18T08:54:58Z</time>
      </trkpt>
      <trkpt lat="46.53614" lon="0.31637">
        <ele>137</ele>
        <time>2022-09-18T08:54:59Z</time>
      </trkpt>
      <trkpt lat="46.53616" lon="0.31631">
        <ele>137.2</ele>
        <time>2022-09-18T08:55:00Z</time>
      </trkpt>
      <trkpt lat="46.53619" lon="0.31625">
        <ele>137</ele>
        <time>2022-09-18T08:55:01Z</time>
      </trkpt>
      <trkpt lat="46.53624" lon="0.31608">
        <ele>137.2</ele>
        <time>2022-09-18T08:55:04Z</time>
      </trkpt>
      <trkpt lat="46.53631" lon="0.31586">
        <ele>137.6</ele>
        <time>2022-09-18T08:55:08Z</time>
      </trkpt>
      <trkpt lat="46.53634" lon="0.31582">
        <ele>138</ele>
        <time>2022-09-18T08:55:09Z</time>
      </trkpt>
      <trkpt lat="46.53643" lon="0.31565">
        <ele>139.2</ele>
        <time>2022-09-18T08:55:13Z</time>
      </trkpt>
      <trkpt lat="46.53646" lon="0.31557">
        <ele>139.4</ele>
        <time>2022-09-18T08:55:15Z</time>
      </trkpt>
      <trkpt lat="46.53651" lon="0.31537">
        <ele>139</ele>
        <time>2022-09-18T08:55:19Z</time>
      </trkpt>
      <trkpt lat="46.5365" lon="0.31534">
        <ele>139</ele>
        <time>2022-09-18T08:55:20Z</time>
      </trkpt>
      <trkpt lat="46.53645" lon="0.31531">
        <ele>138.8</ele>
        <time>2022-09-18T08:55:22Z</time>
      </trkpt>
      <trkpt lat="46.53642" lon="0.3153">
        <ele>138.8</ele>
        <time>2022-09-18T08:55:23Z</time>
      </trkpt>
      <trkpt lat="46.53632" lon="0.31527">
        <ele>139.4</ele>
        <time>2022-09-18T08:55:27Z</time>
      </trkpt>
      <trkpt lat="46.53629" lon="0.31525">
        <ele>139.4</ele>
        <time>2022-09-18T08:55:28Z</time>
      </trkpt>
      <trkpt lat="46.53615" lon="0.31509">
        <ele>140.6</ele>
        <time>2022-09-18T08:55:34Z</time>
      </trkpt>
      <trkpt lat="46.53612" lon="0.31505">
        <ele>140.8</ele>
        <time>2022-09-18T08:55:35Z</time>
      </trkpt>
      <trkpt lat="46.53609" lon="0.31502">
        <ele>141</ele>
        <time>2022-09-18T08:55:36Z</time>
      </trkpt>
      <trkpt lat="46.53596" lon="0.3149">
        <ele>141.4</ele>
        <time>2022-09-18T08:55:40Z</time>
      </trkpt>
      <trkpt lat="46.53579" lon="0.31475">
        <ele>141.6</ele>
        <time>2022-09-18T08:55:45Z</time>
      </trkpt>
      <trkpt lat="46.53571" lon="0.31471">
        <ele>141.8</ele>
        <time>2022-09-18T08:55:47Z</time>
      </trkpt>
      <trkpt lat="46.53556" lon="0.31464">
        <ele>142</ele>
        <time>2022-09-18T08:55:51Z</time>
      </trkpt>
      <trkpt lat="46.53548" lon="0.31462">
        <ele>142.2</ele>
        <time>2022-09-18T08:55:53Z</time>
      </trkpt>
      <trkpt lat="46.53533" lon="0.31459">
        <ele>142.4</ele>
        <time>2022-09-18T08:55:57Z</time>
      </trkpt>
      <trkpt lat="46.53526" lon="0.31457">
        <ele>142.4</ele>
        <time>2022-09-18T08:55:59Z</time>
      </trkpt>
      <trkpt lat="46.53522" lon="0.31456">
        <ele>142.6</ele>
        <time>2022-09-18T08:56:00Z</time>
      </trkpt>
      <trkpt lat="46.53514" lon="0.31454">
        <ele>142.6</ele>
        <time>2022-09-18T08:56:02Z</time>
      </trkpt>
      <trkpt lat="46.53507" lon="0.31453">
        <ele>142.8</ele>
        <time>2022-09-18T08:56:04Z</time>
      </trkpt>
      <trkpt lat="46.53499" lon="0.31451">
        <ele>142.8</ele>
        <time>2022-09-18T08:56:06Z</time>
      </trkpt>
      <trkpt lat="46.53484" lon="0.31451">
        <ele>142.4</ele>
        <time>2022-09-18T08:56:10Z</time>
      </trkpt>
      <trkpt lat="46.5348" lon="0.31452">
        <ele>142.2</ele>
        <time>2022-09-18T08:56:11Z</time>
      </trkpt>
      <trkpt lat="46.53478" lon="0.31456">
        <ele>142.2</ele>
        <time>2022-09-18T08:56:12Z</time>
      </trkpt>
      <trkpt lat="46.53476" lon="0.31465">
        <ele>142.2</ele>
        <time>2022-09-18T08:56:14Z</time>
      </trkpt>
      <trkpt lat="46.53473" lon="0.31476">
        <ele>142</ele>
        <time>2022-09-18T08:56:16Z</time>
      </trkpt>
      <trkpt lat="46.53464" lon="0.31494">
        <ele>141.6</ele>
        <time>2022-09-18T08:56:19Z</time>
      </trkpt>
      <trkpt lat="46.5346" lon="0.31499">
        <ele>141.6</ele>
        <time>2022-09-18T08:56:20Z</time>
      </trkpt>
      <trkpt lat="46.53441" lon="0.31524">
        <ele>141.4</ele>
        <time>2022-09-18T08:56:24Z</time>
      </trkpt>
      <trkpt lat="46.53424" lon="0.31545">
        <ele>140.2</ele>
        <time>2022-09-18T08:56:27Z</time>
      </trkpt>
      <trkpt lat="46.53412" lon="0.31559">
        <ele>140.2</ele>
        <time>2022-09-18T08:56:29Z</time>
      </trkpt>
      <trkpt lat="46.53395" lon="0.31578">
        <ele>140</ele>
        <time>2022-09-18T08:56:32Z</time>
      </trkpt>
      <trkpt lat="46.53381" lon="0.316">
        <ele>139.8</ele>
        <time>2022-09-18T08:56:35Z</time>
      </trkpt>
      <trkpt lat="46.53357" lon="0.31633">
        <ele>139.6</ele>
        <time>2022-09-18T08:56:40Z</time>
      </trkpt>
      <trkpt lat="46.53353" lon="0.3164">
        <ele>139.6</ele>
        <time>2022-09-18T08:56:41Z</time>
      </trkpt>
      <trkpt lat="46.53345" lon="0.31655">
        <ele>139.2</ele>
        <time>2022-09-18T08:56:43Z</time>
      </trkpt>
      <trkpt lat="46.5334" lon="0.31661">
        <ele>139</ele>
        <time>2022-09-18T08:56:44Z</time>
      </trkpt>
      <trkpt lat="46.53314" lon="0.31688">
        <ele>138.2</ele>
        <time>2022-09-18T08:56:49Z</time>
      </trkpt>
      <trkpt lat="46.53308" lon="0.31694">
        <ele>138.2</ele>
        <time>2022-09-18T08:56:50Z</time>
      </trkpt>
      <trkpt lat="46.53288" lon="0.31717">
        <ele>137.2</ele>
        <time>2022-09-18T08:56:54Z</time>
      </trkpt>
      <trkpt lat="46.53284" lon="0.31721">
        <ele>137</ele>
        <time>2022-09-18T08:56:55Z</time>
      </trkpt>
      <trkpt lat="46.53281" lon="0.31722">
        <ele>136.8</ele>
        <time>2022-09-18T08:56:56Z</time>
      </trkpt>
      <trkpt lat="46.53278" lon="0.3172">
        <ele>136.8</ele>
        <time>2022-09-18T08:56:58Z</time>
      </trkpt>
      <trkpt lat="46.53278" lon="0.3172">
        <ele>136.8</ele>
        <time>2022-09-18T08:56:59Z</time>
      </trkpt>
      <trkpt lat="46.53277" lon="0.31721">
        <ele>136.4</ele>
        <time>2022-09-18T08:57:06Z</time>
      </trkpt>
      <trkpt lat="46.53277" lon="0.31725">
        <ele>136.2</ele>
        <time>2022-09-18T08:57:14Z</time>
      </trkpt>
      <trkpt lat="46.53275" lon="0.3173">
        <ele>136</ele>
        <time>2022-09-18T08:57:17Z</time>
      </trkpt>
      <trkpt lat="46.53265" lon="0.31741">
        <ele>135.6</ele>
        <time>2022-09-18T08:57:23Z</time>
      </trkpt>
      <trkpt lat="46.53252" lon="0.31754">
        <ele>135.4</ele>
        <time>2022-09-18T08:57:29Z</time>
      </trkpt>
      <trkpt lat="46.53244" lon="0.31752">
        <ele>135</ele>
        <time>2022-09-18T08:57:32Z</time>
      </trkpt>
      <trkpt lat="46.53241" lon="0.3175">
        <ele>135</ele>
        <time>2022-09-18T08:57:33Z</time>
      </trkpt>
      <trkpt lat="46.53235" lon="0.31746">
        <ele>134.8</ele>
        <time>2022-09-18T08:57:35Z</time>
      </trkpt>
      <trkpt lat="46.53232" lon="0.31737">
        <ele>134</ele>
        <time>2022-09-18T08:57:37Z</time>
      </trkpt>
      <trkpt lat="46.53227" lon="0.31707">
        <ele>133.8</ele>
        <time>2022-09-18T08:57:42Z</time>
      </trkpt>
      <trkpt lat="46.53223" lon="0.31667">
        <ele>133.6</ele>
        <time>2022-09-18T08:57:48Z</time>
      </trkpt>
      <trkpt lat="46.53223" lon="0.31635">
        <ele>133.4</ele>
        <time>2022-09-18T08:57:54Z</time>
      </trkpt>
      <trkpt lat="46.53222" lon="0.31613">
        <ele>133</ele>
        <time>2022-09-18T08:57:59Z</time>
      </trkpt>
      <trkpt lat="46.5322" lon="0.31589">
        <ele>132.6</ele>
        <time>2022-09-18T08:58:04Z</time>
      </trkpt>
      <trkpt lat="46.53217" lon="0.31569">
        <ele>132.2</ele>
        <time>2022-09-18T08:58:08Z</time>
      </trkpt>
      <trkpt lat="46.53215" lon="0.31556">
        <ele>132.2</ele>
        <time>2022-09-18T08:58:10Z</time>
      </trkpt>
      <trkpt lat="46.53214" lon="0.3155">
        <ele>132.2</ele>
        <time>2022-09-18T08:58:11Z</time>
      </trkpt>
      <trkpt lat="46.53211" lon="0.31539">
        <ele>132.4</ele>
        <time>2022-09-18T08:58:13Z</time>
      </trkpt>
      <trkpt lat="46.53207" lon="0.31527">
        <ele>132.4</ele>
        <time>2022-09-18T08:58:15Z</time>
      </trkpt>
      <trkpt lat="46.532" lon="0.31515">
        <ele>132.2</ele>
        <time>2022-09-18T08:58:18Z</time>
      </trkpt>
      <trkpt lat="46.53187" lon="0.31503">
        <ele>131.6</ele>
        <time>2022-09-18T08:58:22Z</time>
      </trkpt>
      <trkpt lat="46.53185" lon="0.315">
        <ele>131.6</ele>
        <time>2022-09-18T08:58:23Z</time>
      </trkpt>
      <trkpt lat="46.53179" lon="0.31486">
        <ele>132</ele>
        <time>2022-09-18T08:58:27Z</time>
      </trkpt>
      <trkpt lat="46.53178" lon="0.31482">
        <ele>132.2</ele>
        <time>2022-09-18T08:58:28Z</time>
      </trkpt>
      <trkpt lat="46.53175" lon="0.31462">
        <ele>132.8</ele>
        <time>2022-09-18T08:58:32Z</time>
      </trkpt>
      <trkpt lat="46.53176" lon="0.31453">
        <ele>133.2</ele>
        <time>2022-09-18T08:58:34Z</time>
      </trkpt>
      <trkpt lat="46.53175" lon="0.31449">
        <ele>133.6</ele>
        <time>2022-09-18T08:58:35Z</time>
      </trkpt>
      <trkpt lat="46.53174" lon="0.31445">
        <ele>134</ele>
        <time>2022-09-18T08:58:36Z</time>
      </trkpt>
      <trkpt lat="46.5317" lon="0.31438">
        <ele>134</ele>
        <time>2022-09-18T08:58:38Z</time>
      </trkpt>
      <trkpt lat="46.53164" lon="0.31423">
        <ele>133.2</ele>
        <time>2022-09-18T08:58:42Z</time>
      </trkpt>
      <trkpt lat="46.53163" lon="0.31419">
        <ele>132.8</ele>
        <time>2022-09-18T08:58:43Z</time>
      </trkpt>
      <trkpt lat="46.53159" lon="0.31404">
        <ele>132.6</ele>
        <time>2022-09-18T08:58:47Z</time>
      </trkpt>
      <trkpt lat="46.53155" lon="0.31382">
        <ele>133</ele>
        <time>2022-09-18T08:58:52Z</time>
      </trkpt>
      <trkpt lat="46.5315" lon="0.31357">
        <ele>133.4</ele>
        <time>2022-09-18T08:58:58Z</time>
      </trkpt>
      <trkpt lat="46.53147" lon="0.31338">
        <ele>133.8</ele>
        <time>2022-09-18T08:59:03Z</time>
      </trkpt>
      <trkpt lat="46.53141" lon="0.31317">
        <ele>134.4</ele>
        <time>2022-09-18T08:59:08Z</time>
      </trkpt>
      <trkpt lat="46.53134" lon="0.31295">
        <ele>134.4</ele>
        <time>2022-09-18T08:59:13Z</time>
      </trkpt>
      <trkpt lat="46.53136" lon="0.31282">
        <ele>135.2</ele>
        <time>2022-09-18T08:59:17Z</time>
      </trkpt>
      <trkpt lat="46.53137" lon="0.3128">
        <ele>135.6</ele>
        <time>2022-09-18T08:59:18Z</time>
      </trkpt>
      <trkpt lat="46.5314" lon="0.3127">
        <ele>136.2</ele>
        <time>2022-09-18T08:59:21Z</time>
      </trkpt>
      <trkpt lat="46.53142" lon="0.31259">
        <ele>137.2</ele>
        <time>2022-09-18T08:59:24Z</time>
      </trkpt>
      <trkpt lat="46.53143" lon="0.31255">
        <ele>137.4</ele>
        <time>2022-09-18T08:59:25Z</time>
      </trkpt>
      <trkpt lat="46.53151" lon="0.3124">
        <ele>138.4</ele>
        <time>2022-09-18T08:59:31Z</time>
      </trkpt>
      <trkpt lat="46.53153" lon="0.31238">
        <ele>138.6</ele>
        <time>2022-09-18T08:59:32Z</time>
      </trkpt>
      <trkpt lat="46.53163" lon="0.3122">
        <ele>138.8</ele>
        <time>2022-09-18T08:59:38Z</time>
      </trkpt>
      <trkpt lat="46.53174" lon="0.31192">
        <ele>139</ele>
        <time>2022-09-18T08:59:43Z</time>
      </trkpt>
      <trkpt lat="46.53181" lon="0.31171">
        <ele>138.6</ele>
        <time>2022-09-18T08:59:46Z</time>
      </trkpt>
      <trkpt lat="46.53184" lon="0.31156">
        <ele>138.6</ele>
        <time>2022-09-18T08:59:48Z</time>
      </trkpt>
      <trkpt lat="46.53188" lon="0.31144">
        <ele>138.4</ele>
        <time>2022-09-18T08:59:50Z</time>
      </trkpt>
      <trkpt lat="46.53194" lon="0.31133">
        <ele>138</ele>
        <time>2022-09-18T08:59:52Z</time>
      </trkpt>
      <trkpt lat="46.53195" lon="0.31128">
        <ele>137.8</ele>
        <time>2022-09-18T08:59:53Z</time>
      </trkpt>
      <trkpt lat="46.53196" lon="0.31123">
        <ele>137.6</ele>
        <time>2022-09-18T08:59:54Z</time>
      </trkpt>
      <trkpt lat="46.53197" lon="0.31106">
        <ele>137.2</ele>
        <time>2022-09-18T08:59:58Z</time>
      </trkpt>
      <trkpt lat="46.53196" lon="0.31103">
        <ele>137</ele>
        <time>2022-09-18T08:59:59Z</time>
      </trkpt>
      <trkpt lat="46.53195" lon="0.31095">
        <ele>135.8</ele>
        <time>2022-09-18T09:00:01Z</time>
      </trkpt>
      <trkpt lat="46.53194" lon="0.31086">
        <ele>135.2</ele>
        <time>2022-09-18T09:00:03Z</time>
      </trkpt>
      <trkpt lat="46.53193" lon="0.31082">
        <ele>134.8</ele>
        <time>2022-09-18T09:00:04Z</time>
      </trkpt>
      <trkpt lat="46.53193" lon="0.31077">
        <ele>134.4</ele>
        <time>2022-09-18T09:00:05Z</time>
      </trkpt>
      <trkpt lat="46.53194" lon="0.31073">
        <ele>133.8</ele>
        <time>2022-09-18T09:00:06Z</time>
      </trkpt>
      <trkpt lat="46.53195" lon="0.31067">
        <ele>133.4</ele>
        <time>2022-09-18T09:00:07Z</time>
      </trkpt>
      <trkpt lat="46.53196" lon="0.31062">
        <ele>133</ele>
        <time>2022-09-18T09:00:08Z</time>
      </trkpt>
      <trkpt lat="46.53196" lon="0.31054">
        <ele>131.6</ele>
        <time>2022-09-18T09:00:10Z</time>
      </trkpt>
      <trkpt lat="46.53194" lon="0.31047">
        <ele>130.4</ele>
        <time>2022-09-18T09:00:12Z</time>
      </trkpt>
      <trkpt lat="46.53191" lon="0.31041">
        <ele>128.6</ele>
        <time>2022-09-18T09:00:14Z</time>
      </trkpt>
      <trkpt lat="46.53189" lon="0.31035">
        <ele>126.4</ele>
        <time>2022-09-18T09:00:16Z</time>
      </trkpt>
      <trkpt lat="46.53189" lon="0.31032">
        <ele>125.6</ele>
        <time>2022-09-18T09:00:17Z</time>
      </trkpt>
      <trkpt lat="46.5319" lon="0.31029">
        <ele>125.2</ele>
        <time>2022-09-18T09:00:18Z</time>
      </trkpt>
      <trkpt lat="46.53194" lon="0.31019">
        <ele>124.6</ele>
        <time>2022-09-18T09:00:22Z</time>
      </trkpt>
      <trkpt lat="46.53199" lon="0.31003">
        <ele>124.6</ele>
        <time>2022-09-18T09:00:26Z</time>
      </trkpt>
      <trkpt lat="46.532" lon="0.30997">
        <ele>124.6</ele>
        <time>2022-09-18T09:00:28Z</time>
      </trkpt>
      <trkpt lat="46.53203" lon="0.30985">
        <ele>124</ele>
        <time>2022-09-18T09:00:31Z</time>
      </trkpt>
      <trkpt lat="46.53205" lon="0.30974">
        <ele>123.4</ele>
        <time>2022-09-18T09:00:33Z</time>
      </trkpt>
      <trkpt lat="46.53206" lon="0.30969">
        <ele>122.8</ele>
        <time>2022-09-18T09:00:34Z</time>
      </trkpt>
      <trkpt lat="46.53207" lon="0.30965">
        <ele>122.6</ele>
        <time>2022-09-18T09:00:35Z</time>
      </trkpt>
      <trkpt lat="46.53214" lon="0.30948">
        <ele>122</ele>
        <time>2022-09-18T09:00:39Z</time>
      </trkpt>
      <trkpt lat="46.53218" lon="0.30925">
        <ele>121.8</ele>
        <time>2022-09-18T09:00:43Z</time>
      </trkpt>
      <trkpt lat="46.53233" lon="0.309">
        <ele>122</ele>
        <time>2022-09-18T09:00:49Z</time>
      </trkpt>
      <trkpt lat="46.53239" lon="0.30893">
        <ele>122</ele>
        <time>2022-09-18T09:00:51Z</time>
      </trkpt>
      <trkpt lat="46.5325" lon="0.30882">
        <ele>122.8</ele>
        <time>2022-09-18T09:00:55Z</time>
      </trkpt>
      <trkpt lat="46.53253" lon="0.30879">
        <ele>122.8</ele>
        <time>2022-09-18T09:00:56Z</time>
      </trkpt>
      <trkpt lat="46.53266" lon="0.30871">
        <ele>123.8</ele>
        <time>2022-09-18T09:01:00Z</time>
      </trkpt>
      <trkpt lat="46.53274" lon="0.30867">
        <ele>124</ele>
        <time>2022-09-18T09:01:02Z</time>
      </trkpt>
      <trkpt lat="46.53297" lon="0.30853">
        <ele>124.8</ele>
        <time>2022-09-18T09:01:08Z</time>
      </trkpt>
      <trkpt lat="46.53314" lon="0.3084">
        <ele>126</ele>
        <time>2022-09-18T09:01:14Z</time>
      </trkpt>
      <trkpt lat="46.53326" lon="0.30829">
        <ele>126.8</ele>
        <time>2022-09-18T09:01:20Z</time>
      </trkpt>
      <trkpt lat="46.53332" lon="0.30824">
        <ele>127.2</ele>
        <time>2022-09-18T09:01:22Z</time>
      </trkpt>
      <trkpt lat="46.53342" lon="0.30819">
        <ele>128</ele>
        <time>2022-09-18T09:01:25Z</time>
      </trkpt>
      <trkpt lat="46.53344" lon="0.30818">
        <ele>128.2</ele>
        <time>2022-09-18T09:01:26Z</time>
      </trkpt>
      <trkpt lat="46.53357" lon="0.30812">
        <ele>128.8</ele>
        <time>2022-09-18T09:01:30Z</time>
      </trkpt>
      <trkpt lat="46.53369" lon="0.30802">
        <ele>129.2</ele>
        <time>2022-09-18T09:01:36Z</time>
      </trkpt>
      <trkpt lat="46.53377" lon="0.30799">
        <ele>129.4</ele>
        <time>2022-09-18T09:01:38Z</time>
      </trkpt>
      <trkpt lat="46.53388" lon="0.30793">
        <ele>129.8</ele>
        <time>2022-09-18T09:01:42Z</time>
      </trkpt>
      <trkpt lat="46.53395" lon="0.30789">
        <ele>130.4</ele>
        <time>2022-09-18T09:01:44Z</time>
      </trkpt>
      <trkpt lat="46.53409" lon="0.30785">
        <ele>131.4</ele>
        <time>2022-09-18T09:01:49Z</time>
      </trkpt>
      <trkpt lat="46.53411" lon="0.30784">
        <ele>131.6</ele>
        <time>2022-09-18T09:01:50Z</time>
      </trkpt>
      <trkpt lat="46.53421" lon="0.3078">
        <ele>132.2</ele>
        <time>2022-09-18T09:01:54Z</time>
      </trkpt>
      <trkpt lat="46.53422" lon="0.30779">
        <ele>132.4</ele>
        <time>2022-09-18T09:01:55Z</time>
      </trkpt>
      <trkpt lat="46.53425" lon="0.30777">
        <ele>132.6</ele>
        <time>2022-09-18T09:01:56Z</time>
      </trkpt>
      <trkpt lat="46.53438" lon="0.30773">
        <ele>133.4</ele>
        <time>2022-09-18T09:02:00Z</time>
      </trkpt>
      <trkpt lat="46.53442" lon="0.30772">
        <ele>133.8</ele>
        <time>2022-09-18T09:02:01Z</time>
      </trkpt>
      <trkpt lat="46.53448" lon="0.30771">
        <ele>134.8</ele>
        <time>2022-09-18T09:02:05Z</time>
      </trkpt>
      <trkpt lat="46.5345" lon="0.30771">
        <ele>135</ele>
        <time>2022-09-18T09:02:06Z</time>
      </trkpt>
      <trkpt lat="46.53458" lon="0.3077">
        <ele>135.8</ele>
        <time>2022-09-18T09:02:10Z</time>
      </trkpt>
      <trkpt lat="46.53464" lon="0.30768">
        <ele>137</ele>
        <time>2022-09-18T09:02:13Z</time>
      </trkpt>
      <trkpt lat="46.53479" lon="0.30763">
        <ele>138</ele>
        <time>2022-09-18T09:02:19Z</time>
      </trkpt>
      <trkpt lat="46.53482" lon="0.30762">
        <ele>138.4</ele>
        <time>2022-09-18T09:02:20Z</time>
      </trkpt>
      <trkpt lat="46.5349" lon="0.30762">
        <ele>139.2</ele>
        <time>2022-09-18T09:02:24Z</time>
      </trkpt>
      <trkpt lat="46.53496" lon="0.30763">
        <ele>139.8</ele>
        <time>2022-09-18T09:02:28Z</time>
      </trkpt>
      <trkpt lat="46.53501" lon="0.30763">
        <ele>140.4</ele>
        <time>2022-09-18T09:02:31Z</time>
      </trkpt>
      <trkpt lat="46.53504" lon="0.30763">
        <ele>141</ele>
        <time>2022-09-18T09:02:33Z</time>
      </trkpt>
      <trkpt lat="46.53509" lon="0.30764">
        <ele>141.4</ele>
        <time>2022-09-18T09:02:36Z</time>
      </trkpt>
      <trkpt lat="46.53518" lon="0.30765">
        <ele>142.4</ele>
        <time>2022-09-18T09:02:41Z</time>
      </trkpt>
      <trkpt lat="46.5352" lon="0.30765">
        <ele>142.6</ele>
        <time>2022-09-18T09:02:42Z</time>
      </trkpt>
      <trkpt lat="46.53535" lon="0.30767">
        <ele>143.2</ele>
        <time>2022-09-18T09:02:49Z</time>
      </trkpt>
      <trkpt lat="46.53539" lon="0.30767">
        <ele>143.8</ele>
        <time>2022-09-18T09:02:51Z</time>
      </trkpt>
      <trkpt lat="46.53551" lon="0.30768">
        <ele>144.8</ele>
        <time>2022-09-18T09:02:56Z</time>
      </trkpt>
      <trkpt lat="46.53564" lon="0.3077">
        <ele>145.8</ele>
        <time>2022-09-18T09:03:02Z</time>
      </trkpt>
      <trkpt lat="46.53569" lon="0.30771">
        <ele>146.2</ele>
        <time>2022-09-18T09:03:04Z</time>
      </trkpt>
      <trkpt lat="46.53582" lon="0.30778">
        <ele>146.8</ele>
        <time>2022-09-18T09:03:10Z</time>
      </trkpt>
      <trkpt lat="46.53585" lon="0.3078">
        <ele>147</ele>
        <time>2022-09-18T09:03:11Z</time>
      </trkpt>
      <trkpt lat="46.53595" lon="0.30791">
        <ele>147.8</ele>
        <time>2022-09-18T09:03:16Z</time>
      </trkpt>
      <trkpt lat="46.53601" lon="0.30798">
        <ele>148</ele>
        <time>2022-09-18T09:03:19Z</time>
      </trkpt>
      <trkpt lat="46.53606" lon="0.30807">
        <ele>148.4</ele>
        <time>2022-09-18T09:03:22Z</time>
      </trkpt>
      <trkpt lat="46.53613" lon="0.30821">
        <ele>149</ele>
        <time>2022-09-18T09:03:26Z</time>
      </trkpt>
      <trkpt lat="46.53618" lon="0.30831">
        <ele>149.4</ele>
        <time>2022-09-18T09:03:29Z</time>
      </trkpt>
      <trkpt lat="46.53634" lon="0.30858">
        <ele>150</ele>
        <time>2022-09-18T09:03:36Z</time>
      </trkpt>
      <trkpt lat="46.53635" lon="0.30861">
        <ele>150</ele>
        <time>2022-09-18T09:03:37Z</time>
      </trkpt>
      <trkpt lat="46.53641" lon="0.30878">
        <ele>150.2</ele>
        <time>2022-09-18T09:03:41Z</time>
      </trkpt>
      <trkpt lat="46.53654" lon="0.30912">
        <ele>150.6</ele>
        <time>2022-09-18T09:03:48Z</time>
      </trkpt>
      <trkpt lat="46.53656" lon="0.30918">
        <ele>150.6</ele>
        <time>2022-09-18T09:03:49Z</time>
      </trkpt>
      <trkpt lat="46.53665" lon="0.30952">
        <ele>151</ele>
        <time>2022-09-18T09:03:55Z</time>
      </trkpt>
      <trkpt lat="46.53679" lon="0.30992">
        <ele>150.6</ele>
        <time>2022-09-18T09:04:01Z</time>
      </trkpt>
      <trkpt lat="46.53683" lon="0.31">
        <ele>150.4</ele>
        <time>2022-09-18T09:04:02Z</time>
      </trkpt>
      <trkpt lat="46.53693" lon="0.31021">
        <ele>150.4</ele>
        <time>2022-09-18T09:04:05Z</time>
      </trkpt>
      <trkpt lat="46.53704" lon="0.31042">
        <ele>150.2</ele>
        <time>2022-09-18T09:04:08Z</time>
      </trkpt>
      <trkpt lat="46.53726" lon="0.31091">
        <ele>149.6</ele>
        <time>2022-09-18T09:04:15Z</time>
      </trkpt>
      <trkpt lat="46.53736" lon="0.31113">
        <ele>149.2</ele>
        <time>2022-09-18T09:04:18Z</time>
      </trkpt>
      <trkpt lat="46.53739" lon="0.3112">
        <ele>149</ele>
        <time>2022-09-18T09:04:19Z</time>
      </trkpt>
      <trkpt lat="46.53743" lon="0.31127">
        <ele>148.8</ele>
        <time>2022-09-18T09:04:20Z</time>
      </trkpt>
      <trkpt lat="46.53765" lon="0.31171">
        <ele>148</ele>
        <time>2022-09-18T09:04:26Z</time>
      </trkpt>
      <trkpt lat="46.5377" lon="0.31177">
        <ele>147.8</ele>
        <time>2022-09-18T09:04:27Z</time>
      </trkpt>
      <trkpt lat="46.53785" lon="0.31198">
        <ele>147.4</ele>
        <time>2022-09-18T09:04:30Z</time>
      </trkpt>
      <trkpt lat="46.53796" lon="0.31214">
        <ele>147</ele>
        <time>2022-09-18T09:04:32Z</time>
      </trkpt>
      <trkpt lat="46.53802" lon="0.31221">
        <ele>145.8</ele>
        <time>2022-09-18T09:04:33Z</time>
      </trkpt>
      <trkpt lat="46.53815" lon="0.31234">
        <ele>144.8</ele>
        <time>2022-09-18T09:04:35Z</time>
      </trkpt>
      <trkpt lat="46.53845" lon="0.31256">
        <ele>144.2</ele>
        <time>2022-09-18T09:04:40Z</time>
      </trkpt>
      <trkpt lat="46.53886" lon="0.31281">
        <ele>143.8</ele>
        <time>2022-09-18T09:04:47Z</time>
      </trkpt>
      <trkpt lat="46.53902" lon="0.3129">
        <ele>144.4</ele>
        <time>2022-09-18T09:04:50Z</time>
      </trkpt>
      <trkpt lat="46.53917" lon="0.31301">
        <ele>145</ele>
        <time>2022-09-18T09:04:53Z</time>
      </trkpt>
      <trkpt lat="46.53941" lon="0.3132">
        <ele>145.4</ele>
        <time>2022-09-18T09:04:59Z</time>
      </trkpt>
      <trkpt lat="46.53945" lon="0.31323">
        <ele>145.8</ele>
        <time>2022-09-18T09:05:00Z</time>
      </trkpt>
      <trkpt lat="46.53962" lon="0.31333">
        <ele>146.8</ele>
        <time>2022-09-18T09:05:04Z</time>
      </trkpt>
      <trkpt lat="46.53966" lon="0.31335">
        <ele>147</ele>
        <time>2022-09-18T09:05:05Z</time>
      </trkpt>
      <trkpt lat="46.53988" lon="0.31351">
        <ele>147.6</ele>
        <time>2022-09-18T09:05:11Z</time>
      </trkpt>
      <trkpt lat="46.53995" lon="0.31355">
        <ele>147.8</ele>
        <time>2022-09-18T09:05:13Z</time>
      </trkpt>
      <trkpt lat="46.54009" lon="0.31365">
        <ele>148.2</ele>
        <time>2022-09-18T09:05:17Z</time>
      </trkpt>
      <trkpt lat="46.54013" lon="0.31367">
        <ele>148.2</ele>
        <time>2022-09-18T09:05:18Z</time>
      </trkpt>
      <trkpt lat="46.54027" lon="0.31374">
        <ele>149</ele>
        <time>2022-09-18T09:05:22Z</time>
      </trkpt>
      <trkpt lat="46.54039" lon="0.31378">
        <ele>149.2</ele>
        <time>2022-09-18T09:05:25Z</time>
      </trkpt>
      <trkpt lat="46.54066" lon="0.31384">
        <ele>149.8</ele>
        <time>2022-09-18T09:05:31Z</time>
      </trkpt>
      <trkpt lat="46.54074" lon="0.31387">
        <ele>150</ele>
        <time>2022-09-18T09:05:33Z</time>
      </trkpt>
      <trkpt lat="46.54098" lon="0.31394">
        <ele>150</ele>
        <time>2022-09-18T09:05:38Z</time>
      </trkpt>
      <trkpt lat="46.54122" lon="0.31401">
        <ele>150</ele>
        <time>2022-09-18T09:05:42Z</time>
      </trkpt>
      <trkpt lat="46.54132" lon="0.31404">
        <ele>150</ele>
        <time>2022-09-18T09:05:44Z</time>
      </trkpt>
      <trkpt lat="46.54178" lon="0.31414">
        <ele>150.6</ele>
        <time>2022-09-18T09:05:52Z</time>
      </trkpt>
      <trkpt lat="46.54214" lon="0.31414">
        <ele>150.4</ele>
        <time>2022-09-18T09:05:59Z</time>
      </trkpt>
      <trkpt lat="46.54239" lon="0.31411">
        <ele>150.8</ele>
        <time>2022-09-18T09:06:04Z</time>
      </trkpt>
      <trkpt lat="46.54244" lon="0.3141">
        <ele>151</ele>
        <time>2022-09-18T09:06:05Z</time>
      </trkpt>
      <trkpt lat="46.54277" lon="0.31402">
        <ele>151</ele>
        <time>2022-09-18T09:06:12Z</time>
      </trkpt>
      <trkpt lat="46.54308" lon="0.31392">
        <ele>150.8</ele>
        <time>2022-09-18T09:06:18Z</time>
      </trkpt>
      <trkpt lat="46.54343" lon="0.31384">
        <ele>150.8</ele>
        <time>2022-09-18T09:06:24Z</time>
      </trkpt>
      <trkpt lat="46.54383" lon="0.3138">
        <ele>149.6</ele>
        <time>2022-09-18T09:06:31Z</time>
      </trkpt>
      <trkpt lat="46.54389" lon="0.31379">
        <ele>149.4</ele>
        <time>2022-09-18T09:06:32Z</time>
      </trkpt>
      <trkpt lat="46.54415" lon="0.31374">
        <ele>149</ele>
        <time>2022-09-18T09:06:36Z</time>
      </trkpt>
      <trkpt lat="46.54428" lon="0.31372">
        <ele>149.4</ele>
        <time>2022-09-18T09:06:38Z</time>
      </trkpt>
      <trkpt lat="46.54457" lon="0.31371">
        <ele>149.6</ele>
        <time>2022-09-18T09:06:43Z</time>
      </trkpt>
      <trkpt lat="46.54487" lon="0.31372">
        <ele>149.8</ele>
        <time>2022-09-18T09:06:49Z</time>
      </trkpt>
      <trkpt lat="46.54518" lon="0.31374">
        <ele>150.6</ele>
        <time>2022-09-18T09:06:55Z</time>
      </trkpt>
      <trkpt lat="46.54539" lon="0.31375">
        <ele>150.8</ele>
        <time>2022-09-18T09:06:59Z</time>
      </trkpt>
      <trkpt lat="46.54547" lon="0.31377">
        <ele>150.4</ele>
        <time>2022-09-18T09:07:01Z</time>
      </trkpt>
      <trkpt lat="46.54552" lon="0.31377">
        <ele>150.4</ele>
        <time>2022-09-18T09:07:02Z</time>
      </trkpt>
      <trkpt lat="46.54577" lon="0.31377">
        <ele>150.4</ele>
        <time>2022-09-18T09:07:07Z</time>
      </trkpt>
      <trkpt lat="46.54586" lon="0.31373">
        <ele>150.4</ele>
        <time>2022-09-18T09:07:09Z</time>
      </trkpt>
      <trkpt lat="46.54595" lon="0.31368">
        <ele>150.4</ele>
        <time>2022-09-18T09:07:11Z</time>
      </trkpt>
      <trkpt lat="46.54601" lon="0.31364">
        <ele>150.4</ele>
        <time>2022-09-18T09:07:12Z</time>
      </trkpt>
      <trkpt lat="46.54605" lon="0.31359">
        <ele>150</ele>
        <time>2022-09-18T09:07:13Z</time>
      </trkpt>
      <trkpt lat="46.54615" lon="0.31347">
        <ele>149.8</ele>
        <time>2022-09-18T09:07:15Z</time>
      </trkpt>
      <trkpt lat="46.54621" lon="0.31341">
        <ele>149.6</ele>
        <time>2022-09-18T09:07:16Z</time>
      </trkpt>
      <trkpt lat="46.54623" lon="0.31332">
        <ele>149.6</ele>
        <time>2022-09-18T09:07:18Z</time>
      </trkpt>
      <trkpt lat="46.54624" lon="0.31318">
        <ele>149.6</ele>
        <time>2022-09-18T09:07:20Z</time>
      </trkpt>
      <trkpt lat="46.54619" lon="0.31278">
        <ele>150.6</ele>
        <time>2022-09-18T09:07:25Z</time>
      </trkpt>
      <trkpt lat="46.54615" lon="0.31262">
        <ele>150.8</ele>
        <time>2022-09-18T09:07:27Z</time>
      </trkpt>
      <trkpt lat="46.54606" lon="0.31235">
        <ele>151</ele>
        <time>2022-09-18T09:07:31Z</time>
      </trkpt>
      <trkpt lat="46.54599" lon="0.31209">
        <ele>151.8</ele>
        <time>2022-09-18T09:07:35Z</time>
      </trkpt>
      <trkpt lat="46.54593" lon="0.31188">
        <ele>151.8</ele>
        <time>2022-09-18T09:07:38Z</time>
      </trkpt>
      <trkpt lat="46.54581" lon="0.31145">
        <ele>151.6</ele>
        <time>2022-09-18T09:07:44Z</time>
      </trkpt>
      <trkpt lat="46.54575" lon="0.3113">
        <ele>151.8</ele>
        <time>2022-09-18T09:07:46Z</time>
      </trkpt>
      <trkpt lat="46.54568" lon="0.31108">
        <ele>152</ele>
        <time>2022-09-18T09:07:49Z</time>
      </trkpt>
      <trkpt lat="46.54555" lon="0.31064">
        <ele>152</ele>
        <time>2022-09-18T09:07:55Z</time>
      </trkpt>
      <trkpt lat="46.54549" lon="0.31044">
        <ele>152.2</ele>
        <time>2022-09-18T09:07:58Z</time>
      </trkpt>
      <trkpt lat="46.54544" lon="0.31032">
        <ele>152.4</ele>
        <time>2022-09-18T09:08:00Z</time>
      </trkpt>
      <trkpt lat="46.54531" lon="0.30994">
        <ele>152.6</ele>
        <time>2022-09-18T09:08:06Z</time>
      </trkpt>
      <trkpt lat="46.54516" lon="0.30955">
        <ele>151.8</ele>
        <time>2022-09-18T09:08:12Z</time>
      </trkpt>
      <trkpt lat="46.54503" lon="0.30913">
        <ele>151.8</ele>
        <time>2022-09-18T09:08:18Z</time>
      </trkpt>
      <trkpt lat="46.54488" lon="0.30866">
        <ele>152</ele>
        <time>2022-09-18T09:08:25Z</time>
      </trkpt>
      <trkpt lat="46.54479" lon="0.30841">
        <ele>152.2</ele>
        <time>2022-09-18T09:08:29Z</time>
      </trkpt>
      <trkpt lat="46.54474" lon="0.30828">
        <ele>152.2</ele>
        <time>2022-09-18T09:08:31Z</time>
      </trkpt>
      <trkpt lat="46.54472" lon="0.30821">
        <ele>152.2</ele>
        <time>2022-09-18T09:08:32Z</time>
      </trkpt>
      <trkpt lat="46.54465" lon="0.30803">
        <ele>152</ele>
        <time>2022-09-18T09:08:35Z</time>
      </trkpt>
      <trkpt lat="46.54457" lon="0.30785">
        <ele>152</ele>
        <time>2022-09-18T09:08:38Z</time>
      </trkpt>
      <trkpt lat="46.54452" lon="0.30771">
        <ele>151.8</ele>
        <time>2022-09-18T09:08:41Z</time>
      </trkpt>
      <trkpt lat="46.54449" lon="0.3076">
        <ele>151.6</ele>
        <time>2022-09-18T09:08:43Z</time>
      </trkpt>
      <trkpt lat="46.54439" lon="0.30728">
        <ele>151.6</ele>
        <time>2022-09-18T09:08:47Z</time>
      </trkpt>
      <trkpt lat="46.54422" lon="0.30675">
        <ele>152</ele>
        <time>2022-09-18T09:08:54Z</time>
      </trkpt>
      <trkpt lat="46.54414" lon="0.30642">
        <ele>151.6</ele>
        <time>2022-09-18T09:08:59Z</time>
      </trkpt>
      <trkpt lat="46.54414" lon="0.30635">
        <ele>151.8</ele>
        <time>2022-09-18T09:09:00Z</time>
      </trkpt>
      <trkpt lat="46.54415" lon="0.3063">
        <ele>151.8</ele>
        <time>2022-09-18T09:09:01Z</time>
      </trkpt>
      <trkpt lat="46.54423" lon="0.30598">
        <ele>152.4</ele>
        <time>2022-09-18T09:09:06Z</time>
      </trkpt>
      <trkpt lat="46.54441" lon="0.30559">
        <ele>151.6</ele>
        <time>2022-09-18T09:09:12Z</time>
      </trkpt>
      <trkpt lat="46.54455" lon="0.30527">
        <ele>150.8</ele>
        <time>2022-09-18T09:09:17Z</time>
      </trkpt>
      <trkpt lat="46.54464" lon="0.30509">
        <ele>150.8</ele>
        <time>2022-09-18T09:09:20Z</time>
      </trkpt>
      <trkpt lat="46.54481" lon="0.30463">
        <ele>151</ele>
        <time>2022-09-18T09:09:26Z</time>
      </trkpt>
      <trkpt lat="46.54491" lon="0.30434">
        <ele>151.8</ele>
        <time>2022-09-18T09:09:30Z</time>
      </trkpt>
      <trkpt lat="46.54495" lon="0.3042">
        <ele>152</ele>
        <time>2022-09-18T09:09:32Z</time>
      </trkpt>
      <trkpt lat="46.54497" lon="0.30407">
        <ele>152.2</ele>
        <time>2022-09-18T09:09:34Z</time>
      </trkpt>
      <trkpt lat="46.54496" lon="0.30383">
        <ele>152.2</ele>
        <time>2022-09-18T09:09:38Z</time>
      </trkpt>
      <trkpt lat="46.54484" lon="0.30373">
        <ele>152.2</ele>
        <time>2022-09-18T09:09:41Z</time>
      </trkpt>
      <trkpt lat="46.54441" lon="0.30337">
        <ele>152.2</ele>
        <time>2022-09-18T09:09:50Z</time>
      </trkpt>
      <trkpt lat="46.54421" lon="0.30322">
        <ele>152.8</ele>
        <time>2022-09-18T09:09:54Z</time>
      </trkpt>
      <trkpt lat="46.54404" lon="0.30311">
        <ele>153.2</ele>
        <time>2022-09-18T09:09:57Z</time>
      </trkpt>
      <trkpt lat="46.54389" lon="0.303">
        <ele>153.8</ele>
        <time>2022-09-18T09:10:00Z</time>
      </trkpt>
      <trkpt lat="46.54363" lon="0.30277">
        <ele>154.6</ele>
        <time>2022-09-18T09:10:06Z</time>
      </trkpt>
      <trkpt lat="46.54358" lon="0.30273">
        <ele>154.8</ele>
        <time>2022-09-18T09:10:07Z</time>
      </trkpt>
      <trkpt lat="46.5435" lon="0.30263">
        <ele>155</ele>
        <time>2022-09-18T09:10:09Z</time>
      </trkpt>
      <trkpt lat="46.54337" lon="0.3025">
        <ele>155.6</ele>
        <time>2022-09-18T09:10:12Z</time>
      </trkpt>
      <trkpt lat="46.543" lon="0.3022">
        <ele>155.8</ele>
        <time>2022-09-18T09:10:20Z</time>
      </trkpt>
      <trkpt lat="46.54278" lon="0.30207">
        <ele>155.4</ele>
        <time>2022-09-18T09:10:25Z</time>
      </trkpt>
      <trkpt lat="46.54274" lon="0.30203">
        <ele>155.2</ele>
        <time>2022-09-18T09:10:26Z</time>
      </trkpt>
      <trkpt lat="46.54247" lon="0.30175">
        <ele>154.2</ele>
        <time>2022-09-18T09:10:32Z</time>
      </trkpt>
      <trkpt lat="46.54232" lon="0.30163">
        <ele>154.6</ele>
        <time>2022-09-18T09:10:36Z</time>
      </trkpt>
      <trkpt lat="46.5423" lon="0.3016">
        <ele>154.6</ele>
        <time>2022-09-18T09:10:37Z</time>
      </trkpt>
      <trkpt lat="46.5423" lon="0.30155">
        <ele>154.8</ele>
        <time>2022-09-18T09:10:39Z</time>
      </trkpt>
      <trkpt lat="46.54233" lon="0.30146">
        <ele>156.2</ele>
        <time>2022-09-18T09:10:43Z</time>
      </trkpt>
      <trkpt lat="46.54234" lon="0.30142">
        <ele>156.6</ele>
        <time>2022-09-18T09:10:45Z</time>
      </trkpt>
      <trkpt lat="46.54239" lon="0.30129">
        <ele>157</ele>
        <time>2022-09-18T09:10:51Z</time>
      </trkpt>
      <trkpt lat="46.54248" lon="0.30119">
        <ele>157</ele>
        <time>2022-09-18T09:10:57Z</time>
      </trkpt>
      <trkpt lat="46.54257" lon="0.30105">
        <ele>157.4</ele>
        <time>2022-09-18T09:11:02Z</time>
      </trkpt>
      <trkpt lat="46.5426" lon="0.30102">
        <ele>157.4</ele>
        <time>2022-09-18T09:11:03Z</time>
      </trkpt>
      <trkpt lat="46.54264" lon="0.30098">
        <ele>157.6</ele>
        <time>2022-09-18T09:11:05Z</time>
      </trkpt>
      <trkpt lat="46.54269" lon="0.3009">
        <ele>157.6</ele>
        <time>2022-09-18T09:11:07Z</time>
      </trkpt>
      <trkpt lat="46.54272" lon="0.30073">
        <ele>158</ele>
        <time>2022-09-18T09:11:11Z</time>
      </trkpt>
      <trkpt lat="46.54266" lon="0.30045">
        <ele>158.2</ele>
        <time>2022-09-18T09:11:17Z</time>
      </trkpt>
      <trkpt lat="46.54255" lon="0.30016">
        <ele>158.4</ele>
        <time>2022-09-18T09:11:23Z</time>
      </trkpt>
      <trkpt lat="46.54252" lon="0.30011">
        <ele>158.4</ele>
        <time>2022-09-18T09:11:24Z</time>
      </trkpt>
      <trkpt lat="46.54248" lon="0.30002">
        <ele>158.4</ele>
        <time>2022-09-18T09:11:26Z</time>
      </trkpt>
      <trkpt lat="46.54247" lon="0.29998">
        <ele>158.4</ele>
        <time>2022-09-18T09:11:27Z</time>
      </trkpt>
      <trkpt lat="46.54244" lon="0.2999">
        <ele>158.4</ele>
        <time>2022-09-18T09:11:29Z</time>
      </trkpt>
      <trkpt lat="46.54237" lon="0.29971">
        <ele>158.4</ele>
        <time>2022-09-18T09:11:33Z</time>
      </trkpt>
      <trkpt lat="46.5422" lon="0.29936">
        <ele>158.2</ele>
        <time>2022-09-18T09:11:39Z</time>
      </trkpt>
      <trkpt lat="46.54218" lon="0.2993">
        <ele>158</ele>
        <time>2022-09-18T09:11:40Z</time>
      </trkpt>
      <trkpt lat="46.54208" lon="0.29905">
        <ele>157.8</ele>
        <time>2022-09-18T09:11:44Z</time>
      </trkpt>
      <trkpt lat="46.54198" lon="0.29883">
        <ele>158</ele>
        <time>2022-09-18T09:11:48Z</time>
      </trkpt>
      <trkpt lat="46.54191" lon="0.29868">
        <ele>158</ele>
        <time>2022-09-18T09:11:51Z</time>
      </trkpt>
      <trkpt lat="46.54189" lon="0.29863">
        <ele>158</ele>
        <time>2022-09-18T09:11:52Z</time>
      </trkpt>
      <trkpt lat="46.54183" lon="0.29847">
        <ele>158</ele>
        <time>2022-09-18T09:11:55Z</time>
      </trkpt>
      <trkpt lat="46.54182" lon="0.29841">
        <ele>157.8</ele>
        <time>2022-09-18T09:11:56Z</time>
      </trkpt>
      <trkpt lat="46.54186" lon="0.29814">
        <ele>157.6</ele>
        <time>2022-09-18T09:12:01Z</time>
      </trkpt>
      <trkpt lat="46.54193" lon="0.29771">
        <ele>157.6</ele>
        <time>2022-09-18T09:12:07Z</time>
      </trkpt>
      <trkpt lat="46.54194" lon="0.29764">
        <ele>158</ele>
        <time>2022-09-18T09:12:08Z</time>
      </trkpt>
      <trkpt lat="46.54199" lon="0.29736">
        <ele>157.6</ele>
        <time>2022-09-18T09:12:13Z</time>
      </trkpt>
      <trkpt lat="46.542" lon="0.29731">
        <ele>157.8</ele>
        <time>2022-09-18T09:12:14Z</time>
      </trkpt>
      <trkpt lat="46.54205" lon="0.29702">
        <ele>157.8</ele>
        <time>2022-09-18T09:12:20Z</time>
      </trkpt>
      <trkpt lat="46.54207" lon="0.29691">
        <ele>157.8</ele>
        <time>2022-09-18T09:12:22Z</time>
      </trkpt>
      <trkpt lat="46.54212" lon="0.29674">
        <ele>157.6</ele>
        <time>2022-09-18T09:12:25Z</time>
      </trkpt>
      <trkpt lat="46.54214" lon="0.29657">
        <ele>157.4</ele>
        <time>2022-09-18T09:12:28Z</time>
      </trkpt>
      <trkpt lat="46.54215" lon="0.29648">
        <ele>157.2</ele>
        <time>2022-09-18T09:12:30Z</time>
      </trkpt>
      <trkpt lat="46.54209" lon="0.29639">
        <ele>157.2</ele>
        <time>2022-09-18T09:12:34Z</time>
      </trkpt>
      <trkpt lat="46.54201" lon="0.29628">
        <ele>157.4</ele>
        <time>2022-09-18T09:12:37Z</time>
      </trkpt>
      <trkpt lat="46.54193" lon="0.2962">
        <ele>157.6</ele>
        <time>2022-09-18T09:12:39Z</time>
      </trkpt>
      <trkpt lat="46.54172" lon="0.296">
        <ele>158.4</ele>
        <time>2022-09-18T09:12:45Z</time>
      </trkpt>
      <trkpt lat="46.54154" lon="0.29584">
        <ele>158.2</ele>
        <time>2022-09-18T09:12:50Z</time>
      </trkpt>
      <trkpt lat="46.5415" lon="0.29581">
        <ele>158.4</ele>
        <time>2022-09-18T09:12:51Z</time>
      </trkpt>
      <trkpt lat="46.54145" lon="0.29577">
        <ele>158.6</ele>
        <time>2022-09-18T09:12:52Z</time>
      </trkpt>
      <trkpt lat="46.54136" lon="0.29569">
        <ele>158.6</ele>
        <time>2022-09-18T09:12:54Z</time>
      </trkpt>
      <trkpt lat="46.54129" lon="0.29564">
        <ele>158.6</ele>
        <time>2022-09-18T09:12:56Z</time>
      </trkpt>
      <trkpt lat="46.54117" lon="0.29555">
        <ele>158.8</ele>
        <time>2022-09-18T09:12:59Z</time>
      </trkpt>
      <trkpt lat="46.541" lon="0.2954">
        <ele>159</ele>
        <time>2022-09-18T09:13:03Z</time>
      </trkpt>
      <trkpt lat="46.54073" lon="0.29521">
        <ele>159</ele>
        <time>2022-09-18T09:13:10Z</time>
      </trkpt>
      <trkpt lat="46.54039" lon="0.29496">
        <ele>158.8</ele>
        <time>2022-09-18T09:13:17Z</time>
      </trkpt>
      <trkpt lat="46.54028" lon="0.29479">
        <ele>158.4</ele>
        <time>2022-09-18T09:13:21Z</time>
      </trkpt>
      <trkpt lat="46.54025" lon="0.29477">
        <ele>158</ele>
        <time>2022-09-18T09:13:23Z</time>
      </trkpt>
      <trkpt lat="46.54023" lon="0.29475">
        <ele>158</ele>
        <time>2022-09-18T09:13:25Z</time>
      </trkpt>
      <trkpt lat="46.54021" lon="0.29473">
        <ele>158</ele>
        <time>2022-09-18T09:13:26Z</time>
      </trkpt>
      <trkpt lat="46.54019" lon="0.29462">
        <ele>158</ele>
        <time>2022-09-18T09:13:29Z</time>
      </trkpt>
      <trkpt lat="46.5402" lon="0.29456">
        <ele>158.2</ele>
        <time>2022-09-18T09:13:30Z</time>
      </trkpt>
      <trkpt lat="46.54019" lon="0.29427">
        <ele>158.8</ele>
        <time>2022-09-18T09:13:34Z</time>
      </trkpt>
      <trkpt lat="46.54018" lon="0.29411">
        <ele>158.8</ele>
        <time>2022-09-18T09:13:36Z</time>
      </trkpt>
      <trkpt lat="46.5402" lon="0.29392">
        <ele>158.8</ele>
        <time>2022-09-18T09:13:39Z</time>
      </trkpt>
      <trkpt lat="46.54024" lon="0.29383">
        <ele>158.8</ele>
        <time>2022-09-18T09:13:41Z</time>
      </trkpt>
      <trkpt lat="46.54029" lon="0.29376">
        <ele>159.2</ele>
        <time>2022-09-18T09:13:43Z</time>
      </trkpt>
      <trkpt lat="46.54042" lon="0.29352">
        <ele>159.6</ele>
        <time>2022-09-18T09:13:48Z</time>
      </trkpt>
      <trkpt lat="46.54061" lon="0.29322">
        <ele>159.2</ele>
        <time>2022-09-18T09:13:54Z</time>
      </trkpt>
      <trkpt lat="46.54074" lon="0.2931">
        <ele>158.4</ele>
        <time>2022-09-18T09:13:58Z</time>
      </trkpt>
      <trkpt lat="46.54076" lon="0.29305">
        <ele>158</ele>
        <time>2022-09-18T09:14:01Z</time>
      </trkpt>
      <trkpt lat="46.54075" lon="0.29303">
        <ele>157.8</ele>
        <time>2022-09-18T09:14:02Z</time>
      </trkpt>
      <trkpt lat="46.54069" lon="0.29293">
        <ele>157.4</ele>
        <time>2022-09-18T09:14:06Z</time>
      </trkpt>
      <trkpt lat="46.54066" lon="0.2929">
        <ele>157.2</ele>
        <time>2022-09-18T09:14:07Z</time>
      </trkpt>
      <trkpt lat="46.54051" lon="0.29274">
        <ele>157</ele>
        <time>2022-09-18T09:14:13Z</time>
      </trkpt>
      <trkpt lat="46.54048" lon="0.29264">
        <ele>156.8</ele>
        <time>2022-09-18T09:14:15Z</time>
      </trkpt>
      <trkpt lat="46.54044" lon="0.29253">
        <ele>156.8</ele>
        <time>2022-09-18T09:14:17Z</time>
      </trkpt>
      <trkpt lat="46.54038" lon="0.29243">
        <ele>156.6</ele>
        <time>2022-09-18T09:14:19Z</time>
      </trkpt>
      <trkpt lat="46.54029" lon="0.29236">
        <ele>156.6</ele>
        <time>2022-09-18T09:14:21Z</time>
      </trkpt>
      <trkpt lat="46.53999" lon="0.29214">
        <ele>156.4</ele>
        <time>2022-09-18T09:14:27Z</time>
      </trkpt>
      <trkpt lat="46.53994" lon="0.2921">
        <ele>156.2</ele>
        <time>2022-09-18T09:14:28Z</time>
      </trkpt>
      <trkpt lat="46.53954" lon="0.29184">
        <ele>156.2</ele>
        <time>2022-09-18T09:14:35Z</time>
      </trkpt>
      <trkpt lat="46.53918" lon="0.2916">
        <ele>155.8</ele>
        <time>2022-09-18T09:14:41Z</time>
      </trkpt>
      <trkpt lat="46.53912" lon="0.29156">
        <ele>155.8</ele>
        <time>2022-09-18T09:14:42Z</time>
      </trkpt>
      <trkpt lat="46.53888" lon="0.29139">
        <ele>155.8</ele>
        <time>2022-09-18T09:14:46Z</time>
      </trkpt>
      <trkpt lat="46.5386" lon="0.2912">
        <ele>155</ele>
        <time>2022-09-18T09:14:51Z</time>
      </trkpt>
      <trkpt lat="46.53856" lon="0.29116">
        <ele>154.6</ele>
        <time>2022-09-18T09:14:52Z</time>
      </trkpt>
      <trkpt lat="46.53854" lon="0.29106">
        <ele>154.2</ele>
        <time>2022-09-18T09:14:54Z</time>
      </trkpt>
      <trkpt lat="46.53855" lon="0.29099">
        <ele>154</ele>
        <time>2022-09-18T09:14:55Z</time>
      </trkpt>
      <trkpt lat="46.53857" lon="0.2909">
        <ele>153.8</ele>
        <time>2022-09-18T09:14:56Z</time>
      </trkpt>
      <trkpt lat="46.5386" lon="0.2908">
        <ele>153.6</ele>
        <time>2022-09-18T09:14:57Z</time>
      </trkpt>
      <trkpt lat="46.53865" lon="0.29059">
        <ele>152.8</ele>
        <time>2022-09-18T09:14:59Z</time>
      </trkpt>
      <trkpt lat="46.53871" lon="0.29033">
        <ele>151.6</ele>
        <time>2022-09-18T09:15:01Z</time>
      </trkpt>
      <trkpt lat="46.53877" lon="0.29006">
        <ele>150.2</ele>
        <time>2022-09-18T09:15:03Z</time>
      </trkpt>
      <trkpt lat="46.53883" lon="0.28975">
        <ele>148.6</ele>
        <time>2022-09-18T09:15:05Z</time>
      </trkpt>
      <trkpt lat="46.53886" lon="0.28958">
        <ele>147.8</ele>
        <time>2022-09-18T09:15:06Z</time>
      </trkpt>
      <trkpt lat="46.53889" lon="0.28944">
        <ele>146.8</ele>
        <time>2022-09-18T09:15:07Z</time>
      </trkpt>
      <trkpt lat="46.53899" lon="0.2892">
        <ele>145.6</ele>
        <time>2022-09-18T09:15:09Z</time>
      </trkpt>
      <trkpt lat="46.53921" lon="0.28877">
        <ele>144.6</ele>
        <time>2022-09-18T09:15:13Z</time>
      </trkpt>
      <trkpt lat="46.53935" lon="0.28861">
        <ele>144.4</ele>
        <time>2022-09-18T09:15:15Z</time>
      </trkpt>
      <trkpt lat="46.53949" lon="0.2885">
        <ele>144.4</ele>
        <time>2022-09-18T09:15:17Z</time>
      </trkpt>
      <trkpt lat="46.53965" lon="0.28844">
        <ele>144.2</ele>
        <time>2022-09-18T09:15:19Z</time>
      </trkpt>
      <trkpt lat="46.5398" lon="0.28844">
        <ele>144.2</ele>
        <time>2022-09-18T09:15:21Z</time>
      </trkpt>
      <trkpt lat="46.53998" lon="0.28849">
        <ele>145</ele>
        <time>2022-09-18T09:15:24Z</time>
      </trkpt>
      <trkpt lat="46.54007" lon="0.28853">
        <ele>145.6</ele>
        <time>2022-09-18T09:15:26Z</time>
      </trkpt>
      <trkpt lat="46.5402" lon="0.28858">
        <ele>146.8</ele>
        <time>2022-09-18T09:15:29Z</time>
      </trkpt>
      <trkpt lat="46.54024" lon="0.28859">
        <ele>147.2</ele>
        <time>2022-09-18T09:15:30Z</time>
      </trkpt>
      <trkpt lat="46.54039" lon="0.28861">
        <ele>148.2</ele>
        <time>2022-09-18T09:15:34Z</time>
      </trkpt>
      <trkpt lat="46.54046" lon="0.2886">
        <ele>149.2</ele>
        <time>2022-09-18T09:15:36Z</time>
      </trkpt>
      <trkpt lat="46.54049" lon="0.28858">
        <ele>149.6</ele>
        <time>2022-09-18T09:15:37Z</time>
      </trkpt>
      <trkpt lat="46.54062" lon="0.28851">
        <ele>150.8</ele>
        <time>2022-09-18T09:15:41Z</time>
      </trkpt>
      <trkpt lat="46.54065" lon="0.28848">
        <ele>151</ele>
        <time>2022-09-18T09:15:42Z</time>
      </trkpt>
      <trkpt lat="46.54074" lon="0.28835">
        <ele>151.8</ele>
        <time>2022-09-18T09:15:46Z</time>
      </trkpt>
      <trkpt lat="46.54077" lon="0.28827">
        <ele>152.4</ele>
        <time>2022-09-18T09:15:48Z</time>
      </trkpt>
      <trkpt lat="46.5408" lon="0.2882">
        <ele>153</ele>
        <time>2022-09-18T09:15:50Z</time>
      </trkpt>
      <trkpt lat="46.54083" lon="0.28808">
        <ele>154.2</ele>
        <time>2022-09-18T09:15:53Z</time>
      </trkpt>
      <trkpt lat="46.54085" lon="0.288">
        <ele>154.6</ele>
        <time>2022-09-18T09:15:55Z</time>
      </trkpt>
      <trkpt lat="46.54088" lon="0.28786">
        <ele>155.2</ele>
        <time>2022-09-18T09:15:59Z</time>
      </trkpt>
      <trkpt lat="46.54091" lon="0.28771">
        <ele>156.2</ele>
        <time>2022-09-18T09:16:03Z</time>
      </trkpt>
      <trkpt lat="46.54091" lon="0.28766">
        <ele>156.4</ele>
        <time>2022-09-18T09:16:04Z</time>
      </trkpt>
      <trkpt lat="46.54091" lon="0.28752">
        <ele>157.6</ele>
        <time>2022-09-18T09:16:07Z</time>
      </trkpt>
      <trkpt lat="46.54092" lon="0.28741">
        <ele>157.8</ele>
        <time>2022-09-18T09:16:09Z</time>
      </trkpt>
      <trkpt lat="46.54093" lon="0.2872">
        <ele>158.6</ele>
        <time>2022-09-18T09:16:13Z</time>
      </trkpt>
      <trkpt lat="46.54094" lon="0.28704">
        <ele>159</ele>
        <time>2022-09-18T09:16:16Z</time>
      </trkpt>
      <trkpt lat="46.54095" lon="0.28678">
        <ele>159.6</ele>
        <time>2022-09-18T09:16:21Z</time>
      </trkpt>
      <trkpt lat="46.54097" lon="0.28667">
        <ele>159.8</ele>
        <time>2022-09-18T09:16:23Z</time>
      </trkpt>
      <trkpt lat="46.54098" lon="0.2863">
        <ele>160.6</ele>
        <time>2022-09-18T09:16:30Z</time>
      </trkpt>
      <trkpt lat="46.54092" lon="0.28625">
        <ele>160.8</ele>
        <time>2022-09-18T09:16:32Z</time>
      </trkpt>
      <trkpt lat="46.54088" lon="0.28625">
        <ele>160.6</ele>
        <time>2022-09-18T09:16:33Z</time>
      </trkpt>
      <trkpt lat="46.54075" lon="0.28628">
        <ele>160.4</ele>
        <time>2022-09-18T09:16:36Z</time>
      </trkpt>
      <trkpt lat="46.54065" lon="0.28625">
        <ele>160.2</ele>
        <time>2022-09-18T09:16:38Z</time>
      </trkpt>
      <trkpt lat="46.54058" lon="0.28618">
        <ele>160</ele>
        <time>2022-09-18T09:16:40Z</time>
      </trkpt>
      <trkpt lat="46.54056" lon="0.28613">
        <ele>160</ele>
        <time>2022-09-18T09:16:41Z</time>
      </trkpt>
      <trkpt lat="46.5405" lon="0.28594">
        <ele>160</ele>
        <time>2022-09-18T09:16:46Z</time>
      </trkpt>
      <trkpt lat="46.54044" lon="0.28583">
        <ele>160.2</ele>
        <time>2022-09-18T09:16:50Z</time>
      </trkpt>
      <trkpt lat="46.54041" lon="0.28579">
        <ele>160</ele>
        <time>2022-09-18T09:16:52Z</time>
      </trkpt>
      <trkpt lat="46.5404" lon="0.28576">
        <ele>160</ele>
        <time>2022-09-18T09:16:53Z</time>
      </trkpt>
      <trkpt lat="46.54037" lon="0.28568">
        <ele>160</ele>
        <time>2022-09-18T09:16:58Z</time>
      </trkpt>
      <trkpt lat="46.54034" lon="0.28563">
        <ele>159.8</ele>
        <time>2022-09-18T09:17:01Z</time>
      </trkpt>
      <trkpt lat="46.54031" lon="0.28557">
        <ele>159.8</ele>
        <time>2022-09-18T09:17:04Z</time>
      </trkpt>
      <trkpt lat="46.54029" lon="0.28556">
        <ele>159.8</ele>
        <time>2022-09-18T09:17:06Z</time>
      </trkpt>
      <trkpt lat="46.54029" lon="0.28557">
        <ele>159.8</ele>
        <time>2022-09-18T09:17:08Z</time>
      </trkpt>
      <trkpt lat="46.54029" lon="0.28559">
        <ele>159.8</ele>
        <time>2022-09-18T09:17:09Z</time>
      </trkpt>
      <trkpt lat="46.54034" lon="0.2857">
        <ele>160</ele>
        <time>2022-09-18T09:17:13Z</time>
      </trkpt>
      <trkpt lat="46.54047" lon="0.286">
        <ele>160.4</ele>
        <time>2022-09-18T09:17:19Z</time>
      </trkpt>
      <trkpt lat="46.54049" lon="0.28606">
        <ele>160.4</ele>
        <time>2022-09-18T09:17:20Z</time>
      </trkpt>
      <trkpt lat="46.54053" lon="0.28618">
        <ele>160.4</ele>
        <time>2022-09-18T09:17:22Z</time>
      </trkpt>
      <trkpt lat="46.54059" lon="0.28628">
        <ele>160.4</ele>
        <time>2022-09-18T09:17:24Z</time>
      </trkpt>
      <trkpt lat="46.54065" lon="0.28634">
        <ele>160.4</ele>
        <time>2022-09-18T09:17:26Z</time>
      </trkpt>
      <trkpt lat="46.54068" lon="0.28633">
        <ele>160.2</ele>
        <time>2022-09-18T09:17:27Z</time>
      </trkpt>
      <trkpt lat="46.5407" lon="0.28631">
        <ele>160.2</ele>
        <time>2022-09-18T09:17:28Z</time>
      </trkpt>
      <trkpt lat="46.5408" lon="0.2862">
        <ele>160.2</ele>
        <time>2022-09-18T09:17:31Z</time>
      </trkpt>
      <trkpt lat="46.54083" lon="0.28615">
        <ele>160.2</ele>
        <time>2022-09-18T09:17:32Z</time>
      </trkpt>
      <trkpt lat="46.54094" lon="0.2859">
        <ele>160.6</ele>
        <time>2022-09-18T09:17:36Z</time>
      </trkpt>
      <trkpt lat="46.54119" lon="0.28532">
        <ele>161.2</ele>
        <time>2022-09-18T09:17:44Z</time>
      </trkpt>
      <trkpt lat="46.54123" lon="0.28525">
        <ele>161.4</ele>
        <time>2022-09-18T09:17:45Z</time>
      </trkpt>
      <trkpt lat="46.54131" lon="0.28514">
        <ele>161.6</ele>
        <time>2022-09-18T09:17:47Z</time>
      </trkpt>
      <trkpt lat="46.54135" lon="0.28507">
        <ele>161.4</ele>
        <time>2022-09-18T09:17:48Z</time>
      </trkpt>
      <trkpt lat="46.54162" lon="0.28455">
        <ele>161.4</ele>
        <time>2022-09-18T09:17:55Z</time>
      </trkpt>
      <trkpt lat="46.54165" lon="0.28449">
        <ele>161.8</ele>
        <time>2022-09-18T09:17:56Z</time>
      </trkpt>
      <trkpt lat="46.54193" lon="0.28401">
        <ele>161.6</ele>
        <time>2022-09-18T09:18:03Z</time>
      </trkpt>
      <trkpt lat="46.54211" lon="0.28364">
        <ele>161.4</ele>
        <time>2022-09-18T09:18:08Z</time>
      </trkpt>
      <trkpt lat="46.54222" lon="0.28345">
        <ele>161.2</ele>
        <time>2022-09-18T09:18:11Z</time>
      </trkpt>
      <trkpt lat="46.54233" lon="0.28325">
        <ele>161</ele>
        <time>2022-09-18T09:18:14Z</time>
      </trkpt>
      <trkpt lat="46.5424" lon="0.2831">
        <ele>160.8</ele>
        <time>2022-09-18T09:18:16Z</time>
      </trkpt>
      <trkpt lat="46.54243" lon="0.28296">
        <ele>160.8</ele>
        <time>2022-09-18T09:18:18Z</time>
      </trkpt>
      <trkpt lat="46.54243" lon="0.28284">
        <ele>160.6</ele>
        <time>2022-09-18T09:18:20Z</time>
      </trkpt>
      <trkpt lat="46.54243" lon="0.28274">
        <ele>160.6</ele>
        <time>2022-09-18T09:18:22Z</time>
      </trkpt>
      <trkpt lat="46.54239" lon="0.2826">
        <ele>160.4</ele>
        <time>2022-09-18T09:18:25Z</time>
      </trkpt>
      <trkpt lat="46.54235" lon="0.28249">
        <ele>160.6</ele>
        <time>2022-09-18T09:18:27Z</time>
      </trkpt>
      <trkpt lat="46.54226" lon="0.28209">
        <ele>161</ele>
        <time>2022-09-18T09:18:33Z</time>
      </trkpt>
      <trkpt lat="46.54218" lon="0.28177">
        <ele>161</ele>
        <time>2022-09-18T09:18:37Z</time>
      </trkpt>
      <trkpt lat="46.54211" lon="0.28162">
        <ele>160.8</ele>
        <time>2022-09-18T09:18:39Z</time>
      </trkpt>
      <trkpt lat="46.54203" lon="0.28143">
        <ele>161</ele>
        <time>2022-09-18T09:18:42Z</time>
      </trkpt>
      <trkpt lat="46.54199" lon="0.28131">
        <ele>161.2</ele>
        <time>2022-09-18T09:18:44Z</time>
      </trkpt>
      <trkpt lat="46.54198" lon="0.28125">
        <ele>161.4</ele>
        <time>2022-09-18T09:18:45Z</time>
      </trkpt>
      <trkpt lat="46.54193" lon="0.28097">
        <ele>161</ele>
        <time>2022-09-18T09:18:49Z</time>
      </trkpt>
      <trkpt lat="46.54184" lon="0.28053">
        <ele>161.4</ele>
        <time>2022-09-18T09:18:55Z</time>
      </trkpt>
      <trkpt lat="46.5417" lon="0.28004">
        <ele>161.2</ele>
        <time>2022-09-18T09:19:01Z</time>
      </trkpt>
      <trkpt lat="46.54166" lon="0.27994">
        <ele>161</ele>
        <time>2022-09-18T09:19:02Z</time>
      </trkpt>
      <trkpt lat="46.54151" lon="0.2796">
        <ele>160.8</ele>
        <time>2022-09-18T09:19:06Z</time>
      </trkpt>
      <trkpt lat="46.5413" lon="0.27913">
        <ele>160</ele>
        <time>2022-09-18T09:19:12Z</time>
      </trkpt>
      <trkpt lat="46.54119" lon="0.27892">
        <ele>159.6</ele>
        <time>2022-09-18T09:19:15Z</time>
      </trkpt>
      <trkpt lat="46.54116" lon="0.27887">
        <ele>159.8</ele>
        <time>2022-09-18T09:19:16Z</time>
      </trkpt>
      <trkpt lat="46.54113" lon="0.27882">
        <ele>159.6</ele>
        <time>2022-09-18T09:19:17Z</time>
      </trkpt>
      <trkpt lat="46.54093" lon="0.27853">
        <ele>159.4</ele>
        <time>2022-09-18T09:19:22Z</time>
      </trkpt>
      <trkpt lat="46.54083" lon="0.27841">
        <ele>159.2</ele>
        <time>2022-09-18T09:19:24Z</time>
      </trkpt>
      <trkpt lat="46.54066" lon="0.27825">
        <ele>159.6</ele>
        <time>2022-09-18T09:19:27Z</time>
      </trkpt>
      <trkpt lat="46.54034" lon="0.27788">
        <ele>159.8</ele>
        <time>2022-09-18T09:19:33Z</time>
      </trkpt>
      <trkpt lat="46.54023" lon="0.2778">
        <ele>159.8</ele>
        <time>2022-09-18T09:19:35Z</time>
      </trkpt>
      <trkpt lat="46.54016" lon="0.27778">
        <ele>159.8</ele>
        <time>2022-09-18T09:19:36Z</time>
      </trkpt>
      <trkpt lat="46.53995" lon="0.27778">
        <ele>159.2</ele>
        <time>2022-09-18T09:19:39Z</time>
      </trkpt>
      <trkpt lat="46.5398" lon="0.2778">
        <ele>159</ele>
        <time>2022-09-18T09:19:41Z</time>
      </trkpt>
      <trkpt lat="46.53932" lon="0.27782">
        <ele>159.2</ele>
        <time>2022-09-18T09:19:47Z</time>
      </trkpt>
      <trkpt lat="46.53899" lon="0.27782">
        <ele>158.2</ele>
        <time>2022-09-18T09:19:51Z</time>
      </trkpt>
      <trkpt lat="46.53883" lon="0.27786">
        <ele>157.4</ele>
        <time>2022-09-18T09:19:53Z</time>
      </trkpt>
      <trkpt lat="46.53875" lon="0.27791">
        <ele>157</ele>
        <time>2022-09-18T09:19:54Z</time>
      </trkpt>
      <trkpt lat="46.53868" lon="0.27798">
        <ele>156.8</ele>
        <time>2022-09-18T09:19:55Z</time>
      </trkpt>
      <trkpt lat="46.53862" lon="0.27807">
        <ele>156.8</ele>
        <time>2022-09-18T09:19:56Z</time>
      </trkpt>
      <trkpt lat="46.53849" lon="0.27824">
        <ele>155.8</ele>
        <time>2022-09-18T09:19:58Z</time>
      </trkpt>
      <trkpt lat="46.53826" lon="0.27849">
        <ele>155</ele>
        <time>2022-09-18T09:20:01Z</time>
      </trkpt>
      <trkpt lat="46.53818" lon="0.27856">
        <ele>154.8</ele>
        <time>2022-09-18T09:20:02Z</time>
      </trkpt>
      <trkpt lat="46.53797" lon="0.27875">
        <ele>153.8</ele>
        <time>2022-09-18T09:20:05Z</time>
      </trkpt>
      <trkpt lat="46.53792" lon="0.27882">
        <ele>153.4</ele>
        <time>2022-09-18T09:20:06Z</time>
      </trkpt>
      <trkpt lat="46.53788" lon="0.27891">
        <ele>152.4</ele>
        <time>2022-09-18T09:20:07Z</time>
      </trkpt>
      <trkpt lat="46.53784" lon="0.279">
        <ele>152</ele>
        <time>2022-09-18T09:20:08Z</time>
      </trkpt>
      <trkpt lat="46.53781" lon="0.2791">
        <ele>151.6</ele>
        <time>2022-09-18T09:20:09Z</time>
      </trkpt>
      <trkpt lat="46.5377" lon="0.27968">
        <ele>151</ele>
        <time>2022-09-18T09:20:15Z</time>
      </trkpt>
      <trkpt lat="46.53768" lon="0.27975">
        <ele>151</ele>
        <time>2022-09-18T09:20:16Z</time>
      </trkpt>
      <trkpt lat="46.53766" lon="0.2798">
        <ele>150.8</ele>
        <time>2022-09-18T09:20:17Z</time>
      </trkpt>
      <trkpt lat="46.53763" lon="0.27985">
        <ele>150.6</ele>
        <time>2022-09-18T09:20:18Z</time>
      </trkpt>
      <trkpt lat="46.53757" lon="0.27995">
        <ele>150.2</ele>
        <time>2022-09-18T09:20:20Z</time>
      </trkpt>
      <trkpt lat="46.5375" lon="0.28005">
        <ele>150.2</ele>
        <time>2022-09-18T09:20:22Z</time>
      </trkpt>
      <trkpt lat="46.53747" lon="0.2801">
        <ele>149.4</ele>
        <time>2022-09-18T09:20:23Z</time>
      </trkpt>
      <trkpt lat="46.53739" lon="0.2802">
        <ele>148.6</ele>
        <time>2022-09-18T09:20:25Z</time>
      </trkpt>
      <trkpt lat="46.53735" lon="0.28025">
        <ele>147.4</ele>
        <time>2022-09-18T09:20:26Z</time>
      </trkpt>
      <trkpt lat="46.53732" lon="0.28029">
        <ele>147</ele>
        <time>2022-09-18T09:20:27Z</time>
      </trkpt>
      <trkpt lat="46.53729" lon="0.28032">
        <ele>146.2</ele>
        <time>2022-09-18T09:20:28Z</time>
      </trkpt>
      <trkpt lat="46.53726" lon="0.28032">
        <ele>145.6</ele>
        <time>2022-09-18T09:20:29Z</time>
      </trkpt>
      <trkpt lat="46.53724" lon="0.28033">
        <ele>144.8</ele>
        <time>2022-09-18T09:20:30Z</time>
      </trkpt>
      <trkpt lat="46.53722" lon="0.28034">
        <ele>143.6</ele>
        <time>2022-09-18T09:20:31Z</time>
      </trkpt>
      <trkpt lat="46.53721" lon="0.28033">
        <ele>143</ele>
        <time>2022-09-18T09:20:32Z</time>
      </trkpt>
      <trkpt lat="46.53719" lon="0.28032">
        <ele>142.6</ele>
        <time>2022-09-18T09:20:33Z</time>
      </trkpt>
      <trkpt lat="46.53718" lon="0.2803">
        <ele>142</ele>
        <time>2022-09-18T09:20:34Z</time>
      </trkpt>
      <trkpt lat="46.53715" lon="0.28016">
        <ele>141.8</ele>
        <time>2022-09-18T09:20:39Z</time>
      </trkpt>
      <trkpt lat="46.53711" lon="0.28002">
        <ele>142.8</ele>
        <time>2022-09-18T09:20:45Z</time>
      </trkpt>
      <trkpt lat="46.5371" lon="0.27997">
        <ele>143.6</ele>
        <time>2022-09-18T09:20:47Z</time>
      </trkpt>
      <trkpt lat="46.53709" lon="0.27985">
        <ele>144.6</ele>
        <time>2022-09-18T09:20:50Z</time>
      </trkpt>
      <trkpt lat="46.53709" lon="0.27981">
        <ele>144.6</ele>
        <time>2022-09-18T09:20:51Z</time>
      </trkpt>
      <trkpt lat="46.53709" lon="0.27965">
        <ele>144.6</ele>
        <time>2022-09-18T09:20:55Z</time>
      </trkpt>
      <trkpt lat="46.53709" lon="0.27962">
        <ele>144.4</ele>
        <time>2022-09-18T09:20:56Z</time>
      </trkpt>
      <trkpt lat="46.5371" lon="0.27954">
        <ele>144.4</ele>
        <time>2022-09-18T09:20:59Z</time>
      </trkpt>
      <trkpt lat="46.53701" lon="0.27943">
        <ele>143.8</ele>
        <time>2022-09-18T09:21:03Z</time>
      </trkpt>
      <trkpt lat="46.53698" lon="0.27939">
        <ele>143.6</ele>
        <time>2022-09-18T09:21:04Z</time>
      </trkpt>
      <trkpt lat="46.53695" lon="0.27937">
        <ele>143.2</ele>
        <time>2022-09-18T09:21:05Z</time>
      </trkpt>
      <trkpt lat="46.53689" lon="0.27934">
        <ele>142.2</ele>
        <time>2022-09-18T09:21:07Z</time>
      </trkpt>
      <trkpt lat="46.53686" lon="0.27929">
        <ele>141</ele>
        <time>2022-09-18T09:21:09Z</time>
      </trkpt>
      <trkpt lat="46.53685" lon="0.27922">
        <ele>140.2</ele>
        <time>2022-09-18T09:21:11Z</time>
      </trkpt>
      <trkpt lat="46.53685" lon="0.27919">
        <ele>139.8</ele>
        <time>2022-09-18T09:21:12Z</time>
      </trkpt>
      <trkpt lat="46.53685" lon="0.27913">
        <ele>139.2</ele>
        <time>2022-09-18T09:21:14Z</time>
      </trkpt>
      <trkpt lat="46.53685" lon="0.2791">
        <ele>138.8</ele>
        <time>2022-09-18T09:21:16Z</time>
      </trkpt>
      <trkpt lat="46.53683" lon="0.27906">
        <ele>138.6</ele>
        <time>2022-09-18T09:21:25Z</time>
      </trkpt>
      <trkpt lat="46.53686" lon="0.279">
        <ele>138.6</ele>
        <time>2022-09-18T09:21:37Z</time>
      </trkpt>
      <trkpt lat="46.53682" lon="0.27889">
        <ele>132.4</ele>
        <time>2022-09-18T09:21:42Z</time>
      </trkpt>
      <trkpt lat="46.53681" lon="0.27886">
        <ele>132.4</ele>
        <time>2022-09-18T09:21:43Z</time>
      </trkpt>
      <trkpt lat="46.53681" lon="0.2788">
        <ele>132.4</ele>
        <time>2022-09-18T09:21:44Z</time>
      </trkpt>
      <trkpt lat="46.5368" lon="0.27876">
        <ele>131.4</ele>
        <time>2022-09-18T09:21:45Z</time>
      </trkpt>
      <trkpt lat="46.53678" lon="0.27873">
        <ele>130.8</ele>
        <time>2022-09-18T09:21:46Z</time>
      </trkpt>
      <trkpt lat="46.53675" lon="0.27871">
        <ele>130.6</ele>
        <time>2022-09-18T09:21:47Z</time>
      </trkpt>
      <trkpt lat="46.53672" lon="0.27871">
        <ele>130</ele>
        <time>2022-09-18T09:21:48Z</time>
      </trkpt>
      <trkpt lat="46.53669" lon="0.27872">
        <ele>129</ele>
        <time>2022-09-18T09:21:49Z</time>
      </trkpt>
      <trkpt lat="46.53664" lon="0.27873">
        <ele>127</ele>
        <time>2022-09-18T09:21:51Z</time>
      </trkpt>
      <trkpt lat="46.53661" lon="0.27872">
        <ele>126.2</ele>
        <time>2022-09-18T09:21:52Z</time>
      </trkpt>
      <trkpt lat="46.53659" lon="0.27869">
        <ele>125.2</ele>
        <time>2022-09-18T09:21:53Z</time>
      </trkpt>
      <trkpt lat="46.53656" lon="0.27865">
        <ele>124.6</ele>
        <time>2022-09-18T09:21:54Z</time>
      </trkpt>
      <trkpt lat="46.53654" lon="0.2786">
        <ele>124.2</ele>
        <time>2022-09-18T09:21:55Z</time>
      </trkpt>
      <trkpt lat="46.53642" lon="0.27836">
        <ele>123.8</ele>
        <time>2022-09-18T09:22:00Z</time>
      </trkpt>
      <trkpt lat="46.53623" lon="0.27802">
        <ele>123.6</ele>
        <time>2022-09-18T09:22:06Z</time>
      </trkpt>
      <trkpt lat="46.5362" lon="0.27795">
        <ele>123.6</ele>
        <time>2022-09-18T09:22:07Z</time>
      </trkpt>
      <trkpt lat="46.53608" lon="0.27759">
        <ele>123.8</ele>
        <time>2022-09-18T09:22:12Z</time>
      </trkpt>
      <trkpt lat="46.53602" lon="0.27744">
        <ele>123.8</ele>
        <time>2022-09-18T09:22:14Z</time>
      </trkpt>
      <trkpt lat="46.53592" lon="0.27718">
        <ele>123.8</ele>
        <time>2022-09-18T09:22:18Z</time>
      </trkpt>
      <trkpt lat="46.53584" lon="0.27709">
        <ele>123.8</ele>
        <time>2022-09-18T09:22:20Z</time>
      </trkpt>
      <trkpt lat="46.53574" lon="0.27709">
        <ele>124.2</ele>
        <time>2022-09-18T09:22:22Z</time>
      </trkpt>
      <trkpt lat="46.53569" lon="0.27713">
        <ele>124.4</ele>
        <time>2022-09-18T09:22:23Z</time>
      </trkpt>
      <trkpt lat="46.53566" lon="0.27719">
        <ele>124.4</ele>
        <time>2022-09-18T09:22:24Z</time>
      </trkpt>
      <trkpt lat="46.53562" lon="0.27733">
        <ele>124.2</ele>
        <time>2022-09-18T09:22:26Z</time>
      </trkpt>
      <trkpt lat="46.53556" lon="0.27759">
        <ele>124.4</ele>
        <time>2022-09-18T09:22:30Z</time>
      </trkpt>
      <trkpt lat="46.53552" lon="0.27771">
        <ele>124.8</ele>
        <time>2022-09-18T09:22:32Z</time>
      </trkpt>
      <trkpt lat="46.53547" lon="0.27784">
        <ele>124.8</ele>
        <time>2022-09-18T09:22:34Z</time>
      </trkpt>
      <trkpt lat="46.53543" lon="0.27807">
        <ele>123.8</ele>
        <time>2022-09-18T09:22:37Z</time>
      </trkpt>
      <trkpt lat="46.5354" lon="0.27816">
        <ele>123</ele>
        <time>2022-09-18T09:22:39Z</time>
      </trkpt>
      <trkpt lat="46.53538" lon="0.27819">
        <ele>123</ele>
        <time>2022-09-18T09:22:40Z</time>
      </trkpt>
      <trkpt lat="46.53532" lon="0.27834">
        <ele>123.6</ele>
        <time>2022-09-18T09:22:45Z</time>
      </trkpt>
      <trkpt lat="46.5353" lon="0.27841">
        <ele>124.2</ele>
        <time>2022-09-18T09:22:47Z</time>
      </trkpt>
      <trkpt lat="46.53527" lon="0.27848">
        <ele>125.4</ele>
        <time>2022-09-18T09:22:49Z</time>
      </trkpt>
      <trkpt lat="46.53526" lon="0.27852">
        <ele>125.6</ele>
        <time>2022-09-18T09:22:50Z</time>
      </trkpt>
      <trkpt lat="46.53523" lon="0.2786">
        <ele>125.8</ele>
        <time>2022-09-18T09:22:52Z</time>
      </trkpt>
      <trkpt lat="46.53521" lon="0.27871">
        <ele>126.4</ele>
        <time>2022-09-18T09:22:56Z</time>
      </trkpt>
      <trkpt lat="46.53519" lon="0.27881">
        <ele>127.2</ele>
        <time>2022-09-18T09:22:59Z</time>
      </trkpt>
      <trkpt lat="46.53518" lon="0.27885">
        <ele>127.6</ele>
        <time>2022-09-18T09:23:00Z</time>
      </trkpt>
      <trkpt lat="46.53516" lon="0.27914">
        <ele>128</ele>
        <time>2022-09-18T09:23:06Z</time>
      </trkpt>
      <trkpt lat="46.53522" lon="0.27946">
        <ele>127</ele>
        <time>2022-09-18T09:23:11Z</time>
      </trkpt>
      <trkpt lat="46.53523" lon="0.27952">
        <ele>126.8</ele>
        <time>2022-09-18T09:23:12Z</time>
      </trkpt>
      <trkpt lat="46.53524" lon="0.27959">
        <ele>126.2</ele>
        <time>2022-09-18T09:23:13Z</time>
      </trkpt>
      <trkpt lat="46.53528" lon="0.27987">
        <ele>125.4</ele>
        <time>2022-09-18T09:23:17Z</time>
      </trkpt>
      <trkpt lat="46.53528" lon="0.27997">
        <ele>125.2</ele>
        <time>2022-09-18T09:23:19Z</time>
      </trkpt>
      <trkpt lat="46.53527" lon="0.28006">
        <ele>125.2</ele>
        <time>2022-09-18T09:23:21Z</time>
      </trkpt>
      <trkpt lat="46.53529" lon="0.28033">
        <ele>126</ele>
        <time>2022-09-18T09:23:26Z</time>
      </trkpt>
      <trkpt lat="46.5353" lon="0.28039">
        <ele>125.8</ele>
        <time>2022-09-18T09:23:27Z</time>
      </trkpt>
      <trkpt lat="46.5353" lon="0.28059">
        <ele>125.6</ele>
        <time>2022-09-18T09:23:30Z</time>
      </trkpt>
      <trkpt lat="46.53532" lon="0.28071">
        <ele>125</ele>
        <time>2022-09-18T09:23:32Z</time>
      </trkpt>
      <trkpt lat="46.53533" lon="0.28084">
        <ele>124.8</ele>
        <time>2022-09-18T09:23:34Z</time>
      </trkpt>
      <trkpt lat="46.53533" lon="0.28093">
        <ele>124.8</ele>
        <time>2022-09-18T09:23:36Z</time>
      </trkpt>
      <trkpt lat="46.53528" lon="0.28114">
        <ele>126.2</ele>
        <time>2022-09-18T09:23:41Z</time>
      </trkpt>
      <trkpt lat="46.53527" lon="0.2812">
        <ele>126.2</ele>
        <time>2022-09-18T09:23:42Z</time>
      </trkpt>
      <trkpt lat="46.53526" lon="0.28135">
        <ele>126</ele>
        <time>2022-09-18T09:23:45Z</time>
      </trkpt>
      <trkpt lat="46.53527" lon="0.2814">
        <ele>125.6</ele>
        <time>2022-09-18T09:23:46Z</time>
      </trkpt>
      <trkpt lat="46.53533" lon="0.28151">
        <ele>125</ele>
        <time>2022-09-18T09:23:49Z</time>
      </trkpt>
      <trkpt lat="46.53535" lon="0.28159">
        <ele>124</ele>
        <time>2022-09-18T09:23:51Z</time>
      </trkpt>
      <trkpt lat="46.53536" lon="0.28186">
        <ele>124.4</ele>
        <time>2022-09-18T09:23:57Z</time>
      </trkpt>
      <trkpt lat="46.53536" lon="0.28194">
        <ele>125</ele>
        <time>2022-09-18T09:24:00Z</time>
      </trkpt>
      <trkpt lat="46.53534" lon="0.28201">
        <ele>126</ele>
        <time>2022-09-18T09:24:03Z</time>
      </trkpt>
      <trkpt lat="46.53533" lon="0.28203">
        <ele>126</ele>
        <time>2022-09-18T09:24:04Z</time>
      </trkpt>
      <trkpt lat="46.53531" lon="0.28212">
        <ele>127</ele>
        <time>2022-09-18T09:24:08Z</time>
      </trkpt>
      <trkpt lat="46.53529" lon="0.2822">
        <ele>127.6</ele>
        <time>2022-09-18T09:24:11Z</time>
      </trkpt>
      <trkpt lat="46.53527" lon="0.28236">
        <ele>128.2</ele>
        <time>2022-09-18T09:24:15Z</time>
      </trkpt>
      <trkpt lat="46.53525" lon="0.28244">
        <ele>128</ele>
        <time>2022-09-18T09:24:18Z</time>
      </trkpt>
      <trkpt lat="46.53519" lon="0.28269">
        <ele>128.8</ele>
        <time>2022-09-18T09:24:26Z</time>
      </trkpt>
      <trkpt lat="46.53513" lon="0.28275">
        <ele>129.2</ele>
        <time>2022-09-18T09:24:29Z</time>
      </trkpt>
      <trkpt lat="46.53508" lon="0.28279">
        <ele>129.2</ele>
        <time>2022-09-18T09:24:31Z</time>
      </trkpt>
      <trkpt lat="46.5349" lon="0.28282">
        <ele>130.2</ele>
        <time>2022-09-18T09:24:36Z</time>
      </trkpt>
      <trkpt lat="46.53487" lon="0.28282">
        <ele>130.2</ele>
        <time>2022-09-18T09:24:37Z</time>
      </trkpt>
      <trkpt lat="46.53482" lon="0.28277">
        <ele>130.4</ele>
        <time>2022-09-18T09:24:39Z</time>
      </trkpt>
      <trkpt lat="46.53479" lon="0.2827">
        <ele>130.8</ele>
        <time>2022-09-18T09:24:41Z</time>
      </trkpt>
      <trkpt lat="46.53476" lon="0.28262">
        <ele>131.4</ele>
        <time>2022-09-18T09:24:43Z</time>
      </trkpt>
      <trkpt lat="46.53473" lon="0.28247">
        <ele>132.6</ele>
        <time>2022-09-18T09:24:46Z</time>
      </trkpt>
      <trkpt lat="46.53472" lon="0.28242">
        <ele>132.8</ele>
        <time>2022-09-18T09:24:47Z</time>
      </trkpt>
      <trkpt lat="46.53467" lon="0.28217">
        <ele>133.6</ele>
        <time>2022-09-18T09:24:52Z</time>
      </trkpt>
      <trkpt lat="46.53464" lon="0.28203">
        <ele>134</ele>
        <time>2022-09-18T09:24:55Z</time>
      </trkpt>
      <trkpt lat="46.53458" lon="0.28187">
        <ele>134.4</ele>
        <time>2022-09-18T09:25:00Z</time>
      </trkpt>
      <trkpt lat="46.53457" lon="0.28186">
        <ele>134.4</ele>
        <time>2022-09-18T09:25:01Z</time>
      </trkpt>
      <trkpt lat="46.53455" lon="0.28185">
        <ele>134.8</ele>
        <time>2022-09-18T09:25:02Z</time>
      </trkpt>
      <trkpt lat="46.53453" lon="0.28184">
        <ele>135</ele>
        <time>2022-09-18T09:25:03Z</time>
      </trkpt>
      <trkpt lat="46.53452" lon="0.28181">
        <ele>135.2</ele>
        <time>2022-09-18T09:25:04Z</time>
      </trkpt>
      <trkpt lat="46.53449" lon="0.2817">
        <ele>135.8</ele>
        <time>2022-09-18T09:25:07Z</time>
      </trkpt>
      <trkpt lat="46.53448" lon="0.28162">
        <ele>136.4</ele>
        <time>2022-09-18T09:25:09Z</time>
      </trkpt>
      <trkpt lat="46.53445" lon="0.28142">
        <ele>137</ele>
        <time>2022-09-18T09:25:14Z</time>
      </trkpt>
      <trkpt lat="46.53443" lon="0.28134">
        <ele>137.2</ele>
        <time>2022-09-18T09:25:16Z</time>
      </trkpt>
      <trkpt lat="46.5344" lon="0.28119">
        <ele>138</ele>
        <time>2022-09-18T09:25:20Z</time>
      </trkpt>
      <trkpt lat="46.53435" lon="0.28099">
        <ele>138.8</ele>
        <time>2022-09-18T09:25:25Z</time>
      </trkpt>
      <trkpt lat="46.53435" lon="0.28095">
        <ele>139.2</ele>
        <time>2022-09-18T09:25:26Z</time>
      </trkpt>
      <trkpt lat="46.53432" lon="0.28073">
        <ele>140.4</ele>
        <time>2022-09-18T09:25:32Z</time>
      </trkpt>
      <trkpt lat="46.53432" lon="0.28069">
        <ele>140.4</ele>
        <time>2022-09-18T09:25:33Z</time>
      </trkpt>
      <trkpt lat="46.53426" lon="0.28042">
        <ele>141.4</ele>
        <time>2022-09-18T09:25:40Z</time>
      </trkpt>
      <trkpt lat="46.53425" lon="0.28038">
        <ele>141.4</ele>
        <time>2022-09-18T09:25:41Z</time>
      </trkpt>
      <trkpt lat="46.53423" lon="0.28015">
        <ele>142.4</ele>
        <time>2022-09-18T09:25:47Z</time>
      </trkpt>
      <trkpt lat="46.53423" lon="0.2801">
        <ele>142.6</ele>
        <time>2022-09-18T09:25:48Z</time>
      </trkpt>
      <trkpt lat="46.53425" lon="0.27976">
        <ele>142.6</ele>
        <time>2022-09-18T09:25:55Z</time>
      </trkpt>
      <trkpt lat="46.53427" lon="0.27947">
        <ele>141.8</ele>
        <time>2022-09-18T09:26:00Z</time>
      </trkpt>
      <trkpt lat="46.53435" lon="0.27929">
        <ele>142.6</ele>
        <time>2022-09-18T09:26:04Z</time>
      </trkpt>
      <trkpt lat="46.53441" lon="0.27922">
        <ele>143.6</ele>
        <time>2022-09-18T09:26:06Z</time>
      </trkpt>
      <trkpt lat="46.53452" lon="0.27912">
        <ele>143.8</ele>
        <time>2022-09-18T09:26:09Z</time>
      </trkpt>
      <trkpt lat="46.53458" lon="0.27901">
        <ele>142.8</ele>
        <time>2022-09-18T09:26:11Z</time>
      </trkpt>
      <trkpt lat="46.5346" lon="0.27895">
        <ele>141.8</ele>
        <time>2022-09-18T09:26:12Z</time>
      </trkpt>
      <trkpt lat="46.53462" lon="0.27887">
        <ele>140.6</ele>
        <time>2022-09-18T09:26:13Z</time>
      </trkpt>
      <trkpt lat="46.53465" lon="0.27871">
        <ele>139</ele>
        <time>2022-09-18T09:26:15Z</time>
      </trkpt>
      <trkpt lat="46.53467" lon="0.27864">
        <ele>137.8</ele>
        <time>2022-09-18T09:26:16Z</time>
      </trkpt>
      <trkpt lat="46.53467" lon="0.27858">
        <ele>136.8</ele>
        <time>2022-09-18T09:26:17Z</time>
      </trkpt>
      <trkpt lat="46.53467" lon="0.27852">
        <ele>136</ele>
        <time>2022-09-18T09:26:18Z</time>
      </trkpt>
      <trkpt lat="46.53467" lon="0.27846">
        <ele>135.4</ele>
        <time>2022-09-18T09:26:19Z</time>
      </trkpt>
      <trkpt lat="46.53467" lon="0.27841">
        <ele>134.8</ele>
        <time>2022-09-18T09:26:20Z</time>
      </trkpt>
      <trkpt lat="46.53469" lon="0.2783">
        <ele>133.8</ele>
        <time>2022-09-18T09:26:22Z</time>
      </trkpt>
      <trkpt lat="46.5347" lon="0.27818">
        <ele>133.2</ele>
        <time>2022-09-18T09:26:24Z</time>
      </trkpt>
      <trkpt lat="46.5347" lon="0.27813">
        <ele>132.6</ele>
        <time>2022-09-18T09:26:25Z</time>
      </trkpt>
      <trkpt lat="46.53467" lon="0.27806">
        <ele>132.2</ele>
        <time>2022-09-18T09:26:27Z</time>
      </trkpt>
      <trkpt lat="46.53466" lon="0.27803">
        <ele>132.2</ele>
        <time>2022-09-18T09:26:28Z</time>
      </trkpt>
      <trkpt lat="46.53462" lon="0.27797">
        <ele>132.4</ele>
        <time>2022-09-18T09:26:30Z</time>
      </trkpt>
      <trkpt lat="46.53453" lon="0.27783">
        <ele>133.8</ele>
        <time>2022-09-18T09:26:34Z</time>
      </trkpt>
      <trkpt lat="46.5345" lon="0.27779">
        <ele>134.4</ele>
        <time>2022-09-18T09:26:35Z</time>
      </trkpt>
      <trkpt lat="46.53448" lon="0.27775">
        <ele>134.8</ele>
        <time>2022-09-18T09:26:36Z</time>
      </trkpt>
      <trkpt lat="46.53447" lon="0.27771">
        <ele>135</ele>
        <time>2022-09-18T09:26:37Z</time>
      </trkpt>
      <trkpt lat="46.53446" lon="0.27768">
        <ele>135.6</ele>
        <time>2022-09-18T09:26:38Z</time>
      </trkpt>
      <trkpt lat="46.53444" lon="0.27764">
        <ele>135.8</ele>
        <time>2022-09-18T09:26:39Z</time>
      </trkpt>
      <trkpt lat="46.53434" lon="0.27747">
        <ele>136.8</ele>
        <time>2022-09-18T09:26:44Z</time>
      </trkpt>
      <trkpt lat="46.53433" lon="0.27744">
        <ele>137.2</ele>
        <time>2022-09-18T09:26:45Z</time>
      </trkpt>
      <trkpt lat="46.53425" lon="0.27729">
        <ele>137.8</ele>
        <time>2022-09-18T09:26:49Z</time>
      </trkpt>
      <trkpt lat="46.53422" lon="0.27722">
        <ele>138</ele>
        <time>2022-09-18T09:26:51Z</time>
      </trkpt>
      <trkpt lat="46.53413" lon="0.27709">
        <ele>139</ele>
        <time>2022-09-18T09:26:55Z</time>
      </trkpt>
      <trkpt lat="46.53406" lon="0.277">
        <ele>139.6</ele>
        <time>2022-09-18T09:26:58Z</time>
      </trkpt>
      <trkpt lat="46.53401" lon="0.27694">
        <ele>140.2</ele>
        <time>2022-09-18T09:27:01Z</time>
      </trkpt>
      <trkpt lat="46.53394" lon="0.27686">
        <ele>140.6</ele>
        <time>2022-09-18T09:27:05Z</time>
      </trkpt>
      <trkpt lat="46.5339" lon="0.27683">
        <ele>141.4</ele>
        <time>2022-09-18T09:27:07Z</time>
      </trkpt>
      <trkpt lat="46.53384" lon="0.27677">
        <ele>142.6</ele>
        <time>2022-09-18T09:27:11Z</time>
      </trkpt>
      <trkpt lat="46.53375" lon="0.2767">
        <ele>143.6</ele>
        <time>2022-09-18T09:27:14Z</time>
      </trkpt>
      <trkpt lat="46.53367" lon="0.27665">
        <ele>144.6</ele>
        <time>2022-09-18T09:27:18Z</time>
      </trkpt>
      <trkpt lat="46.53363" lon="0.27663">
        <ele>145</ele>
        <time>2022-09-18T09:27:20Z</time>
      </trkpt>
      <trkpt lat="46.53356" lon="0.27659">
        <ele>145.8</ele>
        <time>2022-09-18T09:27:23Z</time>
      </trkpt>
      <trkpt lat="46.53346" lon="0.27654">
        <ele>146.6</ele>
        <time>2022-09-18T09:27:28Z</time>
      </trkpt>
      <trkpt lat="46.53345" lon="0.27653">
        <ele>146.8</ele>
        <time>2022-09-18T09:27:29Z</time>
      </trkpt>
      <trkpt lat="46.5334" lon="0.27652">
        <ele>147.4</ele>
        <time>2022-09-18T09:27:33Z</time>
      </trkpt>
      <trkpt lat="46.53335" lon="0.27652">
        <ele>148</ele>
        <time>2022-09-18T09:27:36Z</time>
      </trkpt>
      <trkpt lat="46.53325" lon="0.27656">
        <ele>149</ele>
        <time>2022-09-18T09:27:43Z</time>
      </trkpt>
      <trkpt lat="46.53323" lon="0.27655">
        <ele>149.2</ele>
        <time>2022-09-18T09:27:44Z</time>
      </trkpt>
      <trkpt lat="46.53315" lon="0.2765">
        <ele>149.6</ele>
        <time>2022-09-18T09:27:48Z</time>
      </trkpt>
      <trkpt lat="46.5331" lon="0.27639">
        <ele>149.8</ele>
        <time>2022-09-18T09:27:54Z</time>
      </trkpt>
      <trkpt lat="46.53303" lon="0.2762">
        <ele>149.8</ele>
        <time>2022-09-18T09:28:00Z</time>
      </trkpt>
      <trkpt lat="46.53302" lon="0.27615">
        <ele>149.8</ele>
        <time>2022-09-18T09:28:01Z</time>
      </trkpt>
      <trkpt lat="46.53291" lon="0.27586">
        <ele>149</ele>
        <time>2022-09-18T09:28:06Z</time>
      </trkpt>
      <trkpt lat="46.53283" lon="0.27568">
        <ele>148.6</ele>
        <time>2022-09-18T09:28:09Z</time>
      </trkpt>
      <trkpt lat="46.53273" lon="0.27549">
        <ele>148.4</ele>
        <time>2022-09-18T09:28:12Z</time>
      </trkpt>
      <trkpt lat="46.53262" lon="0.27529">
        <ele>148</ele>
        <time>2022-09-18T09:28:15Z</time>
      </trkpt>
      <trkpt lat="46.53258" lon="0.27521">
        <ele>147.4</ele>
        <time>2022-09-18T09:28:16Z</time>
      </trkpt>
      <trkpt lat="46.5325" lon="0.27501">
        <ele>146.8</ele>
        <time>2022-09-18T09:28:18Z</time>
      </trkpt>
      <trkpt lat="46.53242" lon="0.2748">
        <ele>146.2</ele>
        <time>2022-09-18T09:28:20Z</time>
      </trkpt>
      <trkpt lat="46.53234" lon="0.27456">
        <ele>145.8</ele>
        <time>2022-09-18T09:28:22Z</time>
      </trkpt>
      <trkpt lat="46.53227" lon="0.27428">
        <ele>144.8</ele>
        <time>2022-09-18T09:28:25Z</time>
      </trkpt>
      <trkpt lat="46.53225" lon="0.27422">
        <ele>144.6</ele>
        <time>2022-09-18T09:28:26Z</time>
      </trkpt>
      <trkpt lat="46.53223" lon="0.27417">
        <ele>143.8</ele>
        <time>2022-09-18T09:28:27Z</time>
      </trkpt>
      <trkpt lat="46.53222" lon="0.27413">
        <ele>143.4</ele>
        <time>2022-09-18T09:28:28Z</time>
      </trkpt>
      <trkpt lat="46.53221" lon="0.27409">
        <ele>142.6</ele>
        <time>2022-09-18T09:28:29Z</time>
      </trkpt>
      <trkpt lat="46.53223" lon="0.27401">
        <ele>142.2</ele>
        <time>2022-09-18T09:28:31Z</time>
      </trkpt>
      <trkpt lat="46.53224" lon="0.27395">
        <ele>141.2</ele>
        <time>2022-09-18T09:28:33Z</time>
      </trkpt>
      <trkpt lat="46.53229" lon="0.27391">
        <ele>140</ele>
        <time>2022-09-18T09:28:37Z</time>
      </trkpt>
      <trkpt lat="46.53231" lon="0.2739">
        <ele>139.2</ele>
        <time>2022-09-18T09:28:38Z</time>
      </trkpt>
      <trkpt lat="46.53233" lon="0.27388">
        <ele>138.8</ele>
        <time>2022-09-18T09:28:39Z</time>
      </trkpt>
      <trkpt lat="46.53235" lon="0.27378">
        <ele>137.6</ele>
        <time>2022-09-18T09:28:42Z</time>
      </trkpt>
      <trkpt lat="46.53234" lon="0.27373">
        <ele>137</ele>
        <time>2022-09-18T09:28:43Z</time>
      </trkpt>
      <trkpt lat="46.53231" lon="0.27364">
        <ele>136.4</ele>
        <time>2022-09-18T09:28:45Z</time>
      </trkpt>
      <trkpt lat="46.53229" lon="0.27361">
        <ele>136.2</ele>
        <time>2022-09-18T09:28:46Z</time>
      </trkpt>
      <trkpt lat="46.53225" lon="0.27351">
        <ele>135.6</ele>
        <time>2022-09-18T09:28:49Z</time>
      </trkpt>
      <trkpt lat="46.53227" lon="0.27344">
        <ele>135.4</ele>
        <time>2022-09-18T09:28:51Z</time>
      </trkpt>
      <trkpt lat="46.53229" lon="0.27337">
        <ele>134.8</ele>
        <time>2022-09-18T09:28:53Z</time>
      </trkpt>
      <trkpt lat="46.5323" lon="0.27337">
        <ele>133.8</ele>
        <time>2022-09-18T09:28:54Z</time>
      </trkpt>
      <trkpt lat="46.53233" lon="0.2734">
        <ele>133.4</ele>
        <time>2022-09-18T09:29:00Z</time>
      </trkpt>
      <trkpt lat="46.5324" lon="0.27354">
        <ele>134.2</ele>
        <time>2022-09-18T09:29:06Z</time>
      </trkpt>
      <trkpt lat="46.53252" lon="0.27365">
        <ele>133.6</ele>
        <time>2022-09-18T09:29:12Z</time>
      </trkpt>
      <trkpt lat="46.53257" lon="0.27365">
        <ele>133.4</ele>
        <time>2022-09-18T09:29:14Z</time>
      </trkpt>
      <trkpt lat="46.53262" lon="0.27365">
        <ele>133</ele>
        <time>2022-09-18T09:29:16Z</time>
      </trkpt>
      <trkpt lat="46.53265" lon="0.27365">
        <ele>132.6</ele>
        <time>2022-09-18T09:29:17Z</time>
      </trkpt>
      <trkpt lat="46.53272" lon="0.27366">
        <ele>131.4</ele>
        <time>2022-09-18T09:29:20Z</time>
      </trkpt>
      <trkpt lat="46.53275" lon="0.27366">
        <ele>131</ele>
        <time>2022-09-18T09:29:22Z</time>
      </trkpt>
      <trkpt lat="46.53278" lon="0.27364">
        <ele>130.4</ele>
        <time>2022-09-18T09:29:25Z</time>
      </trkpt>
      <trkpt lat="46.5328" lon="0.27363">
        <ele>130.2</ele>
        <time>2022-09-18T09:29:26Z</time>
      </trkpt>
      <trkpt lat="46.53284" lon="0.27356">
        <ele>129.8</ele>
        <time>2022-09-18T09:29:28Z</time>
      </trkpt>
      <trkpt lat="46.53285" lon="0.27352">
        <ele>128.6</ele>
        <time>2022-09-18T09:29:29Z</time>
      </trkpt>
      <trkpt lat="46.53286" lon="0.27349">
        <ele>127.6</ele>
        <time>2022-09-18T09:29:30Z</time>
      </trkpt>
      <trkpt lat="46.53286" lon="0.27347">
        <ele>127.2</ele>
        <time>2022-09-18T09:29:31Z</time>
      </trkpt>
      <trkpt lat="46.53285" lon="0.27343">
        <ele>126.4</ele>
        <time>2022-09-18T09:29:33Z</time>
      </trkpt>
      <trkpt lat="46.5328" lon="0.27332">
        <ele>126.8</ele>
        <time>2022-09-18T09:29:38Z</time>
      </trkpt>
      <trkpt lat="46.53271" lon="0.27318">
        <ele>127</ele>
        <time>2022-09-18T09:29:43Z</time>
      </trkpt>
      <trkpt lat="46.53269" lon="0.27315">
        <ele>127</ele>
        <time>2022-09-18T09:29:44Z</time>
      </trkpt>
      <trkpt lat="46.53267" lon="0.27313">
        <ele>127.2</ele>
        <time>2022-09-18T09:29:45Z</time>
      </trkpt>
      <trkpt lat="46.53261" lon="0.27309">
        <ele>127.4</ele>
        <time>2022-09-18T09:29:47Z</time>
      </trkpt>
      <trkpt lat="46.53259" lon="0.27308">
        <ele>127.4</ele>
        <time>2022-09-18T09:29:48Z</time>
      </trkpt>
      <trkpt lat="46.53258" lon="0.27308">
        <ele>127.6</ele>
        <time>2022-09-18T09:29:49Z</time>
      </trkpt>
      <trkpt lat="46.53255" lon="0.27309">
        <ele>128.4</ele>
        <time>2022-09-18T09:29:51Z</time>
      </trkpt>
      <trkpt lat="46.53254" lon="0.2731">
        <ele>128.8</ele>
        <time>2022-09-18T09:29:52Z</time>
      </trkpt>
      <trkpt lat="46.53253" lon="0.2731">
        <ele>129.2</ele>
        <time>2022-09-18T09:29:53Z</time>
      </trkpt>
      <trkpt lat="46.53251" lon="0.27309">
        <ele>129.4</ele>
        <time>2022-09-18T09:29:54Z</time>
      </trkpt>
      <trkpt lat="46.5325" lon="0.27307">
        <ele>129.6</ele>
        <time>2022-09-18T09:29:56Z</time>
      </trkpt>
      <trkpt lat="46.53247" lon="0.27303">
        <ele>129.6</ele>
        <time>2022-09-18T09:29:58Z</time>
      </trkpt>
      <trkpt lat="46.53236" lon="0.27292">
        <ele>129.4</ele>
        <time>2022-09-18T09:30:04Z</time>
      </trkpt>
      <trkpt lat="46.53233" lon="0.27288">
        <ele>130</ele>
        <time>2022-09-18T09:30:06Z</time>
      </trkpt>
      <trkpt lat="46.53228" lon="0.27278">
        <ele>130.4</ele>
        <time>2022-09-18T09:30:10Z</time>
      </trkpt>
      <trkpt lat="46.53215" lon="0.27257">
        <ele>129.6</ele>
        <time>2022-09-18T09:30:16Z</time>
      </trkpt>
      <trkpt lat="46.53206" lon="0.27239">
        <ele>130</ele>
        <time>2022-09-18T09:30:21Z</time>
      </trkpt>
      <trkpt lat="46.53197" lon="0.27225">
        <ele>129.4</ele>
        <time>2022-09-18T09:30:26Z</time>
      </trkpt>
      <trkpt lat="46.53195" lon="0.27223">
        <ele>129.4</ele>
        <time>2022-09-18T09:30:27Z</time>
      </trkpt>
      <trkpt lat="46.53189" lon="0.27208">
        <ele>129</ele>
        <time>2022-09-18T09:30:31Z</time>
      </trkpt>
      <trkpt lat="46.53172" lon="0.27192">
        <ele>130.2</ele>
        <time>2022-09-18T09:30:37Z</time>
      </trkpt>
      <trkpt lat="46.53155" lon="0.2718">
        <ele>130.8</ele>
        <time>2022-09-18T09:30:42Z</time>
      </trkpt>
      <trkpt lat="46.53143" lon="0.27173">
        <ele>131</ele>
        <time>2022-09-18T09:30:46Z</time>
      </trkpt>
      <trkpt lat="46.5314" lon="0.2717">
        <ele>131.2</ele>
        <time>2022-09-18T09:30:47Z</time>
      </trkpt>
      <trkpt lat="46.53123" lon="0.27151">
        <ele>131</ele>
        <time>2022-09-18T09:30:53Z</time>
      </trkpt>
      <trkpt lat="46.53103" lon="0.27134">
        <ele>131.4</ele>
        <time>2022-09-18T09:31:00Z</time>
      </trkpt>
      <trkpt lat="46.53083" lon="0.27119">
        <ele>131.6</ele>
        <time>2022-09-18T09:31:07Z</time>
      </trkpt>
      <trkpt lat="46.53075" lon="0.27114">
        <ele>131.2</ele>
        <time>2022-09-18T09:31:09Z</time>
      </trkpt>
      <trkpt lat="46.53057" lon="0.27101">
        <ele>131</ele>
        <time>2022-09-18T09:31:14Z</time>
      </trkpt>
      <trkpt lat="46.53042" lon="0.27086">
        <ele>131</ele>
        <time>2022-09-18T09:31:19Z</time>
      </trkpt>
      <trkpt lat="46.53028" lon="0.27077">
        <ele>131.2</ele>
        <time>2022-09-18T09:31:23Z</time>
      </trkpt>
      <trkpt lat="46.53021" lon="0.27073">
        <ele>131</ele>
        <time>2022-09-18T09:31:25Z</time>
      </trkpt>
      <trkpt lat="46.5301" lon="0.27064">
        <ele>130.8</ele>
        <time>2022-09-18T09:31:29Z</time>
      </trkpt>
      <trkpt lat="46.52998" lon="0.2706">
        <ele>131.4</ele>
        <time>2022-09-18T09:31:34Z</time>
      </trkpt>
      <trkpt lat="46.52995" lon="0.27059">
        <ele>132.2</ele>
        <time>2022-09-18T09:31:36Z</time>
      </trkpt>
      <trkpt lat="46.52991" lon="0.27056">
        <ele>132.8</ele>
        <time>2022-09-18T09:31:38Z</time>
      </trkpt>
      <trkpt lat="46.52989" lon="0.27055">
        <ele>132.8</ele>
        <time>2022-09-18T09:31:39Z</time>
      </trkpt>
      <trkpt lat="46.52976" lon="0.27042">
        <ele>133</ele>
        <time>2022-09-18T09:31:45Z</time>
      </trkpt>
      <trkpt lat="46.52974" lon="0.27039">
        <ele>133.2</ele>
        <time>2022-09-18T09:31:46Z</time>
      </trkpt>
      <trkpt lat="46.52965" lon="0.27027">
        <ele>134</ele>
        <time>2022-09-18T09:31:51Z</time>
      </trkpt>
      <trkpt lat="46.52954" lon="0.27015">
        <ele>134.4</ele>
        <time>2022-09-18T09:31:55Z</time>
      </trkpt>
      <trkpt lat="46.52951" lon="0.27012">
        <ele>134.4</ele>
        <time>2022-09-18T09:31:56Z</time>
      </trkpt>
      <trkpt lat="46.52945" lon="0.27004">
        <ele>134.6</ele>
        <time>2022-09-18T09:31:58Z</time>
      </trkpt>
      <trkpt lat="46.52926" lon="0.26979">
        <ele>135.4</ele>
        <time>2022-09-18T09:32:05Z</time>
      </trkpt>
      <trkpt lat="46.52906" lon="0.26956">
        <ele>136</ele>
        <time>2022-09-18T09:32:13Z</time>
      </trkpt>
      <trkpt lat="46.52899" lon="0.26947">
        <ele>136.6</ele>
        <time>2022-09-18T09:32:16Z</time>
      </trkpt>
      <trkpt lat="46.52889" lon="0.26941">
        <ele>136.8</ele>
        <time>2022-09-18T09:32:18Z</time>
      </trkpt>
      <trkpt lat="46.52872" lon="0.26937">
        <ele>137.6</ele>
        <time>2022-09-18T09:32:22Z</time>
      </trkpt>
      <trkpt lat="46.52864" lon="0.26936">
        <ele>138</ele>
        <time>2022-09-18T09:32:24Z</time>
      </trkpt>
      <trkpt lat="46.52857" lon="0.26935">
        <ele>138.8</ele>
        <time>2022-09-18T09:32:26Z</time>
      </trkpt>
      <trkpt lat="46.52847" lon="0.26932">
        <ele>140</ele>
        <time>2022-09-18T09:32:29Z</time>
      </trkpt>
      <trkpt lat="46.52845" lon="0.26931">
        <ele>140.2</ele>
        <time>2022-09-18T09:32:30Z</time>
      </trkpt>
      <trkpt lat="46.52829" lon="0.26919">
        <ele>140.8</ele>
        <time>2022-09-18T09:32:36Z</time>
      </trkpt>
      <trkpt lat="46.5282" lon="0.26911">
        <ele>141.2</ele>
        <time>2022-09-18T09:32:39Z</time>
      </trkpt>
      <trkpt lat="46.52806" lon="0.26901">
        <ele>141.6</ele>
        <time>2022-09-18T09:32:44Z</time>
      </trkpt>
      <trkpt lat="46.52782" lon="0.26889">
        <ele>142.2</ele>
        <time>2022-09-18T09:32:51Z</time>
      </trkpt>
      <trkpt lat="46.52779" lon="0.26886">
        <ele>142.4</ele>
        <time>2022-09-18T09:32:52Z</time>
      </trkpt>
      <trkpt lat="46.52756" lon="0.26865">
        <ele>142.6</ele>
        <time>2022-09-18T09:32:58Z</time>
      </trkpt>
      <trkpt lat="46.52741" lon="0.2685">
        <ele>141.4</ele>
        <time>2022-09-18T09:33:02Z</time>
      </trkpt>
      <trkpt lat="46.52741" lon="0.2685">
        <ele>141</ele>
        <time>2022-09-18T09:33:03Z</time>
      </trkpt>
      <trkpt lat="46.52724" lon="0.26832">
        <ele>140.4</ele>
        <time>2022-09-18T09:33:06Z</time>
      </trkpt>
      <trkpt lat="46.52719" lon="0.26823">
        <ele>139.8</ele>
        <time>2022-09-18T09:33:08Z</time>
      </trkpt>
      <trkpt lat="46.52714" lon="0.26814">
        <ele>139.2</ele>
        <time>2022-09-18T09:33:10Z</time>
      </trkpt>
      <trkpt lat="46.52711" lon="0.2681">
        <ele>138.6</ele>
        <time>2022-09-18T09:33:11Z</time>
      </trkpt>
      <trkpt lat="46.52708" lon="0.26802">
        <ele>137</ele>
        <time>2022-09-18T09:33:13Z</time>
      </trkpt>
      <trkpt lat="46.52705" lon="0.26794">
        <ele>135.8</ele>
        <time>2022-09-18T09:33:15Z</time>
      </trkpt>
      <trkpt lat="46.52703" lon="0.26791">
        <ele>135.6</ele>
        <time>2022-09-18T09:33:16Z</time>
      </trkpt>
      <trkpt lat="46.52699" lon="0.26786">
        <ele>134.8</ele>
        <time>2022-09-18T09:33:18Z</time>
      </trkpt>
      <trkpt lat="46.52692" lon="0.26779">
        <ele>134.4</ele>
        <time>2022-09-18T09:33:21Z</time>
      </trkpt>
      <trkpt lat="46.52687" lon="0.26788">
        <ele>135</ele>
        <time>2022-09-18T09:33:26Z</time>
      </trkpt>
      <trkpt lat="46.52682" lon="0.26796">
        <ele>136.2</ele>
        <time>2022-09-18T09:33:30Z</time>
      </trkpt>
      <trkpt lat="46.52675" lon="0.268">
        <ele>137.6</ele>
        <time>2022-09-18T09:33:33Z</time>
      </trkpt>
      <trkpt lat="46.52672" lon="0.26802">
        <ele>137.8</ele>
        <time>2022-09-18T09:33:34Z</time>
      </trkpt>
      <trkpt lat="46.52665" lon="0.26807">
        <ele>139.2</ele>
        <time>2022-09-18T09:33:37Z</time>
      </trkpt>
      <trkpt lat="46.52658" lon="0.26811">
        <ele>139.8</ele>
        <time>2022-09-18T09:33:40Z</time>
      </trkpt>
      <trkpt lat="46.52656" lon="0.26812">
        <ele>140.2</ele>
        <time>2022-09-18T09:33:41Z</time>
      </trkpt>
      <trkpt lat="46.52645" lon="0.26818">
        <ele>141.4</ele>
        <time>2022-09-18T09:33:45Z</time>
      </trkpt>
      <trkpt lat="46.52635" lon="0.26825">
        <ele>142.4</ele>
        <time>2022-09-18T09:33:49Z</time>
      </trkpt>
      <trkpt lat="46.52632" lon="0.26826">
        <ele>142.8</ele>
        <time>2022-09-18T09:33:50Z</time>
      </trkpt>
      <trkpt lat="46.52622" lon="0.26832">
        <ele>143.6</ele>
        <time>2022-09-18T09:33:54Z</time>
      </trkpt>
      <trkpt lat="46.52611" lon="0.26843">
        <ele>144.8</ele>
        <time>2022-09-18T09:33:59Z</time>
      </trkpt>
      <trkpt lat="46.52609" lon="0.26845">
        <ele>144.8</ele>
        <time>2022-09-18T09:34:00Z</time>
      </trkpt>
      <trkpt lat="46.52598" lon="0.26862">
        <ele>145.8</ele>
        <time>2022-09-18T09:34:07Z</time>
      </trkpt>
      <trkpt lat="46.52591" lon="0.26878">
        <ele>146.8</ele>
        <time>2022-09-18T09:34:13Z</time>
      </trkpt>
      <trkpt lat="46.5258" lon="0.26904">
        <ele>148</ele>
        <time>2022-09-18T09:34:21Z</time>
      </trkpt>
      <trkpt lat="46.52577" lon="0.26911">
        <ele>148.4</ele>
        <time>2022-09-18T09:34:23Z</time>
      </trkpt>
      <trkpt lat="46.52565" lon="0.26923">
        <ele>148.6</ele>
        <time>2022-09-18T09:34:28Z</time>
      </trkpt>
      <trkpt lat="46.52555" lon="0.26931">
        <ele>148.2</ele>
        <time>2022-09-18T09:34:31Z</time>
      </trkpt>
      <trkpt lat="46.52554" lon="0.26942">
        <ele>148.2</ele>
        <time>2022-09-18T09:34:33Z</time>
      </trkpt>
      <trkpt lat="46.52556" lon="0.26945">
        <ele>148.4</ele>
        <time>2022-09-18T09:34:34Z</time>
      </trkpt>
      <trkpt lat="46.52562" lon="0.26948">
        <ele>149.2</ele>
        <time>2022-09-18T09:34:36Z</time>
      </trkpt>
      <trkpt lat="46.5257" lon="0.2695">
        <ele>150</ele>
        <time>2022-09-18T09:34:39Z</time>
      </trkpt>
      <trkpt lat="46.52572" lon="0.26951">
        <ele>150.2</ele>
        <time>2022-09-18T09:34:40Z</time>
      </trkpt>
      <trkpt lat="46.52574" lon="0.26954">
        <ele>150.4</ele>
        <time>2022-09-18T09:34:41Z</time>
      </trkpt>
      <trkpt lat="46.52576" lon="0.26957">
        <ele>150.4</ele>
        <time>2022-09-18T09:34:42Z</time>
      </trkpt>
      <trkpt lat="46.52578" lon="0.26961">
        <ele>150.6</ele>
        <time>2022-09-18T09:34:43Z</time>
      </trkpt>
      <trkpt lat="46.5259" lon="0.26983">
        <ele>151.2</ele>
        <time>2022-09-18T09:34:50Z</time>
      </trkpt>
      <trkpt lat="46.52592" lon="0.26986">
        <ele>151.4</ele>
        <time>2022-09-18T09:34:51Z</time>
      </trkpt>
      <trkpt lat="46.52606" lon="0.27007">
        <ele>152.4</ele>
        <time>2022-09-18T09:34:58Z</time>
      </trkpt>
      <trkpt lat="46.52613" lon="0.27016">
        <ele>152.6</ele>
        <time>2022-09-18T09:35:01Z</time>
      </trkpt>
      <trkpt lat="46.52623" lon="0.27031">
        <ele>153.4</ele>
        <time>2022-09-18T09:35:06Z</time>
      </trkpt>
      <trkpt lat="46.52631" lon="0.27042">
        <ele>153.8</ele>
        <time>2022-09-18T09:35:10Z</time>
      </trkpt>
      <trkpt lat="46.52637" lon="0.27051">
        <ele>154.6</ele>
        <time>2022-09-18T09:35:13Z</time>
      </trkpt>
      <trkpt lat="46.52651" lon="0.27073">
        <ele>155.6</ele>
        <time>2022-09-18T09:35:20Z</time>
      </trkpt>
      <trkpt lat="46.52665" lon="0.27097">
        <ele>156.4</ele>
        <time>2022-09-18T09:35:28Z</time>
      </trkpt>
      <trkpt lat="46.52667" lon="0.27098">
        <ele>156.4</ele>
        <time>2022-09-18T09:35:29Z</time>
      </trkpt>
      <trkpt lat="46.52671" lon="0.27094">
        <ele>156.4</ele>
        <time>2022-09-18T09:35:31Z</time>
      </trkpt>
      <trkpt lat="46.52671" lon="0.2709">
        <ele>156.4</ele>
        <time>2022-09-18T09:35:32Z</time>
      </trkpt>
      <trkpt lat="46.52667" lon="0.27084">
        <ele>156.4</ele>
        <time>2022-09-18T09:35:34Z</time>
      </trkpt>
      <trkpt lat="46.52652" lon="0.27065">
        <ele>156</ele>
        <time>2022-09-18T09:35:39Z</time>
      </trkpt>
      <trkpt lat="46.52646" lon="0.27055">
        <ele>155.4</ele>
        <time>2022-09-18T09:35:41Z</time>
      </trkpt>
      <trkpt lat="46.52638" lon="0.27044">
        <ele>154.8</ele>
        <time>2022-09-18T09:35:43Z</time>
      </trkpt>
      <trkpt lat="46.52634" lon="0.27039">
        <ele>154.8</ele>
        <time>2022-09-18T09:35:44Z</time>
      </trkpt>
      <trkpt lat="46.5263" lon="0.27033">
        <ele>154.4</ele>
        <time>2022-09-18T09:35:45Z</time>
      </trkpt>
      <trkpt lat="46.52612" lon="0.27006">
        <ele>153.4</ele>
        <time>2022-09-18T09:35:49Z</time>
      </trkpt>
      <trkpt lat="46.52607" lon="0.26998">
        <ele>153.4</ele>
        <time>2022-09-18T09:35:50Z</time>
      </trkpt>
      <trkpt lat="46.52591" lon="0.26975">
        <ele>152.2</ele>
        <time>2022-09-18T09:35:53Z</time>
      </trkpt>
      <trkpt lat="46.52581" lon="0.26958">
        <ele>151.6</ele>
        <time>2022-09-18T09:35:55Z</time>
      </trkpt>
      <trkpt lat="46.52577" lon="0.26936">
        <ele>151.2</ele>
        <time>2022-09-18T09:35:57Z</time>
      </trkpt>
      <trkpt lat="46.52577" lon="0.26925">
        <ele>151</ele>
        <time>2022-09-18T09:35:58Z</time>
      </trkpt>
      <trkpt lat="46.52579" lon="0.26914">
        <ele>150.6</ele>
        <time>2022-09-18T09:35:59Z</time>
      </trkpt>
      <trkpt lat="46.52587" lon="0.26893">
        <ele>150</ele>
        <time>2022-09-18T09:36:01Z</time>
      </trkpt>
      <trkpt lat="46.5259" lon="0.26883">
        <ele>150</ele>
        <time>2022-09-18T09:36:02Z</time>
      </trkpt>
      <trkpt lat="46.52595" lon="0.26873">
        <ele>149.4</ele>
        <time>2022-09-18T09:36:03Z</time>
      </trkpt>
      <trkpt lat="46.52599" lon="0.26863">
        <ele>148.6</ele>
        <time>2022-09-18T09:36:04Z</time>
      </trkpt>
      <trkpt lat="46.52605" lon="0.26854">
        <ele>148.2</ele>
        <time>2022-09-18T09:36:05Z</time>
      </trkpt>
      <trkpt lat="46.52612" lon="0.26846">
        <ele>147.4</ele>
        <time>2022-09-18T09:36:06Z</time>
      </trkpt>
      <trkpt lat="46.52627" lon="0.26832">
        <ele>146.4</ele>
        <time>2022-09-18T09:36:08Z</time>
      </trkpt>
      <trkpt lat="46.52643" lon="0.26818">
        <ele>145.4</ele>
        <time>2022-09-18T09:36:10Z</time>
      </trkpt>
      <trkpt lat="46.52651" lon="0.26811">
        <ele>144.4</ele>
        <time>2022-09-18T09:36:11Z</time>
      </trkpt>
      <trkpt lat="46.52658" lon="0.26805">
        <ele>143.8</ele>
        <time>2022-09-18T09:36:12Z</time>
      </trkpt>
      <trkpt lat="46.52669" lon="0.26791">
        <ele>141.8</ele>
        <time>2022-09-18T09:36:14Z</time>
      </trkpt>
      <trkpt lat="46.52673" lon="0.26784">
        <ele>140.8</ele>
        <time>2022-09-18T09:36:15Z</time>
      </trkpt>
      <trkpt lat="46.52676" lon="0.26778">
        <ele>140</ele>
        <time>2022-09-18T09:36:16Z</time>
      </trkpt>
      <trkpt lat="46.52678" lon="0.26773">
        <ele>138.8</ele>
        <time>2022-09-18T09:36:17Z</time>
      </trkpt>
      <trkpt lat="46.52679" lon="0.26768">
        <ele>137.6</ele>
        <time>2022-09-18T09:36:18Z</time>
      </trkpt>
      <trkpt lat="46.52679" lon="0.26764">
        <ele>136.4</ele>
        <time>2022-09-18T09:36:19Z</time>
      </trkpt>
      <trkpt lat="46.52679" lon="0.26757">
        <ele>136</ele>
        <time>2022-09-18T09:36:20Z</time>
      </trkpt>
      <trkpt lat="46.52677" lon="0.2675">
        <ele>135.2</ele>
        <time>2022-09-18T09:36:21Z</time>
      </trkpt>
      <trkpt lat="46.52676" lon="0.26742">
        <ele>134.6</ele>
        <time>2022-09-18T09:36:22Z</time>
      </trkpt>
      <trkpt lat="46.52675" lon="0.26733">
        <ele>134.2</ele>
        <time>2022-09-18T09:36:23Z</time>
      </trkpt>
      <trkpt lat="46.52676" lon="0.26705">
        <ele>132.4</ele>
        <time>2022-09-18T09:36:26Z</time>
      </trkpt>
      <trkpt lat="46.52676" lon="0.26691">
        <ele>131</ele>
        <time>2022-09-18T09:36:28Z</time>
      </trkpt>
      <trkpt lat="46.52677" lon="0.26685">
        <ele>130.2</ele>
        <time>2022-09-18T09:36:29Z</time>
      </trkpt>
      <trkpt lat="46.52678" lon="0.26679">
        <ele>129.6</ele>
        <time>2022-09-18T09:36:30Z</time>
      </trkpt>
      <trkpt lat="46.52678" lon="0.26658">
        <ele>128.6</ele>
        <time>2022-09-18T09:36:33Z</time>
      </trkpt>
      <trkpt lat="46.52676" lon="0.26641">
        <ele>128.2</ele>
        <time>2022-09-18T09:36:36Z</time>
      </trkpt>
      <trkpt lat="46.52672" lon="0.26611">
        <ele>128.2</ele>
        <time>2022-09-18T09:36:43Z</time>
      </trkpt>
      <trkpt lat="46.5267" lon="0.26593">
        <ele>127.8</ele>
        <time>2022-09-18T09:36:50Z</time>
      </trkpt>
      <trkpt lat="46.52672" lon="0.26589">
        <ele>128.2</ele>
        <time>2022-09-18T09:36:53Z</time>
      </trkpt>
      <trkpt lat="46.52675" lon="0.26589">
        <ele>128</ele>
        <time>2022-09-18T09:36:55Z</time>
      </trkpt>
      <trkpt lat="46.52676" lon="0.26589">
        <ele>128</ele>
        <time>2022-09-18T09:36:56Z</time>
      </trkpt>
      <trkpt lat="46.52677" lon="0.26589">
        <ele>128</ele>
        <time>2022-09-18T09:36:57Z</time>
      </trkpt>
      <trkpt lat="46.52676" lon="0.26589">
        <ele>128</ele>
        <time>2022-09-18T09:37:00Z</time>
      </trkpt>
    </trkseg>
  </trk>
</gpx>